<?xml version="1.0" encoding="UTF-8" standalone="no" ?>
<gpx xmlns="http://www.topografix.com/GPX/1/1" xmlns:xsi="http://www.w3.org/2001/XMLSchema-instance" xsi:schemaLocation="http://www.topografix.com/GPX/1/1 http://www.topografix.com/GPX/1/1/gpx.xsd" version="1.1" creator="VisuGPX - https://www.visugpx.com">
  <metadata>
    <name>20140703_Roybon-Vassieux_30</name>
    <desc><![CDATA[US-CERGY-GTV]]></desc>
  </metadata>
  <trk>
    <name><![CDATA[20140703_Roybon-Vassieux_30]]></name>
    <trkseg>
      <trkpt lat="45.01041" lon="5.47552">
        <ele>1246.97</ele>
        <time>2014-07-03T07:01:54Z</time>
      </trkpt>
      <trkpt lat="45.01041" lon="5.47552">
        <ele>1246.49</ele>
        <time>2014-07-03T07:01:55Z</time>
      </trkpt>
      <trkpt lat="45.0105" lon="5.47563">
        <ele>1246.97</ele>
        <time>2014-07-03T07:02:24Z</time>
      </trkpt>
      <trkpt lat="45.01051" lon="5.47564">
        <ele>1251.29</ele>
        <time>2014-07-03T07:02:26Z</time>
      </trkpt>
      <trkpt lat="45.01051" lon="5.47564">
        <ele>1255.62</ele>
        <time>2014-07-03T07:02:28Z</time>
      </trkpt>
      <trkpt lat="45.01051" lon="5.47563">
        <ele>1259.94</ele>
        <time>2014-07-03T07:02:30Z</time>
      </trkpt>
      <trkpt lat="45.01051" lon="5.47563">
        <ele>1263.31</ele>
        <time>2014-07-03T07:02:32Z</time>
      </trkpt>
      <trkpt lat="45.01051" lon="5.47562">
        <ele>1267.16</ele>
        <time>2014-07-03T07:02:34Z</time>
      </trkpt>
      <trkpt lat="45.01051" lon="5.47562">
        <ele>1271</ele>
        <time>2014-07-03T07:02:36Z</time>
      </trkpt>
      <trkpt lat="45.01051" lon="5.47561">
        <ele>1274.36</ele>
        <time>2014-07-03T07:02:38Z</time>
      </trkpt>
      <trkpt lat="45.01051" lon="5.4756">
        <ele>1278.21</ele>
        <time>2014-07-03T07:02:41Z</time>
      </trkpt>
      <trkpt lat="45.01052" lon="5.47559">
        <ele>1282.06</ele>
        <time>2014-07-03T07:02:44Z</time>
      </trkpt>
      <trkpt lat="45.01052" lon="5.47559">
        <ele>1285.42</ele>
        <time>2014-07-03T07:02:47Z</time>
      </trkpt>
      <trkpt lat="45.01052" lon="5.47559">
        <ele>1288.3</ele>
        <time>2014-07-03T07:02:50Z</time>
      </trkpt>
      <trkpt lat="45.01052" lon="5.4756">
        <ele>1289.75</ele>
        <time>2014-07-03T07:02:52Z</time>
      </trkpt>
      <trkpt lat="45.01052" lon="5.47561">
        <ele>1292.63</ele>
        <time>2014-07-03T07:02:56Z</time>
      </trkpt>
      <trkpt lat="45.01052" lon="5.47563">
        <ele>1294.55</ele>
        <time>2014-07-03T07:02:58Z</time>
      </trkpt>
      <trkpt lat="45.01051" lon="5.47566">
        <ele>1297.44</ele>
        <time>2014-07-03T07:03:03Z</time>
      </trkpt>
      <trkpt lat="45.01051" lon="5.47566">
        <ele>1297.92</ele>
        <time>2014-07-03T07:03:04Z</time>
      </trkpt>
      <trkpt lat="45.01052" lon="5.47566">
        <ele>1300.8</ele>
        <time>2014-07-03T07:03:10Z</time>
      </trkpt>
      <trkpt lat="45.01053" lon="5.47566">
        <ele>1301.76</ele>
        <time>2014-07-03T07:03:12Z</time>
      </trkpt>
      <trkpt lat="45.01054" lon="5.47565">
        <ele>1305.13</ele>
        <time>2014-07-03T07:03:18Z</time>
      </trkpt>
      <trkpt lat="45.01055" lon="5.47565">
        <ele>1305.13</ele>
        <time>2014-07-03T07:03:19Z</time>
      </trkpt>
      <trkpt lat="45.01056" lon="5.47563">
        <ele>1308.49</ele>
        <time>2014-07-03T07:03:26Z</time>
      </trkpt>
      <trkpt lat="45.01055" lon="5.47563">
        <ele>1308.49</ele>
        <time>2014-07-03T07:03:27Z</time>
      </trkpt>
      <trkpt lat="45.01056" lon="5.47563">
        <ele>1311.86</ele>
        <time>2014-07-03T07:03:35Z</time>
      </trkpt>
      <trkpt lat="45.01056" lon="5.47566">
        <ele>1314.74</ele>
        <time>2014-07-03T07:03:58Z</time>
      </trkpt>
      <trkpt lat="45.01055" lon="5.47564">
        <ele>1318.1</ele>
        <time>2014-07-03T07:04:35Z</time>
      </trkpt>
      <trkpt lat="45.01055" lon="5.47566">
        <ele>1317.62</ele>
        <time>2014-07-03T07:05:02Z</time>
      </trkpt>
      <trkpt lat="45.01055" lon="5.47567">
        <ele>1317.62</ele>
        <time>2014-07-03T07:05:29Z</time>
      </trkpt>
      <trkpt lat="45.01058" lon="5.47567">
        <ele>1317.14</ele>
        <time>2014-07-03T07:06:02Z</time>
      </trkpt>
      <trkpt lat="45.01061" lon="5.47567">
        <ele>1317.62</ele>
        <time>2014-07-03T07:06:41Z</time>
      </trkpt>
      <trkpt lat="45.01061" lon="5.47567">
        <ele>1317.14</ele>
        <time>2014-07-03T07:07:15Z</time>
      </trkpt>
      <trkpt lat="45.0106" lon="5.47565">
        <ele>1318.1</ele>
        <time>2014-07-03T07:07:46Z</time>
      </trkpt>
      <trkpt lat="45.0106" lon="5.47565">
        <ele>1317.62</ele>
        <time>2014-07-03T07:08:14Z</time>
      </trkpt>
      <trkpt lat="45.01059" lon="5.47564">
        <ele>1317.62</ele>
        <time>2014-07-03T07:08:45Z</time>
      </trkpt>
      <trkpt lat="45.01059" lon="5.47565">
        <ele>1317.62</ele>
        <time>2014-07-03T07:09:13Z</time>
      </trkpt>
      <trkpt lat="45.01059" lon="5.47566">
        <ele>1317.14</ele>
        <time>2014-07-03T07:09:44Z</time>
      </trkpt>
      <trkpt lat="45.0106" lon="5.47567">
        <ele>1317.14</ele>
        <time>2014-07-03T07:10:13Z</time>
      </trkpt>
      <trkpt lat="45.01061" lon="5.47567">
        <ele>1317.62</ele>
        <time>2014-07-03T07:10:47Z</time>
      </trkpt>
      <trkpt lat="45.0106" lon="5.47562">
        <ele>1317.14</ele>
        <time>2014-07-03T07:11:27Z</time>
      </trkpt>
      <trkpt lat="45.01058" lon="5.47564">
        <ele>1316.18</ele>
        <time>2014-07-03T07:12:02Z</time>
      </trkpt>
      <trkpt lat="45.01059" lon="5.47563">
        <ele>1317.14</ele>
        <time>2014-07-03T07:12:25Z</time>
      </trkpt>
      <trkpt lat="45.01059" lon="5.47561">
        <ele>1317.14</ele>
        <time>2014-07-03T07:12:43Z</time>
      </trkpt>
      <trkpt lat="45.01059" lon="5.47563">
        <ele>1317.14</ele>
        <time>2014-07-03T07:12:46Z</time>
      </trkpt>
      <trkpt lat="45.01059" lon="5.47569">
        <ele>1317.14</ele>
        <time>2014-07-03T07:13:01Z</time>
      </trkpt>
      <trkpt lat="45.01059" lon="5.47571">
        <ele>1316.66</ele>
        <time>2014-07-03T07:13:34Z</time>
      </trkpt>
      <trkpt lat="45.01058" lon="5.47568">
        <ele>1317.14</ele>
        <time>2014-07-03T07:14:02Z</time>
      </trkpt>
      <trkpt lat="45.01057" lon="5.47566">
        <ele>1313.78</ele>
        <time>2014-07-03T07:14:31Z</time>
      </trkpt>
      <trkpt lat="45.01057" lon="5.47566">
        <ele>1315.7</ele>
        <time>2014-07-03T07:14:32Z</time>
      </trkpt>
      <trkpt lat="45.01056" lon="5.47565">
        <ele>1316.66</ele>
        <time>2014-07-03T07:14:58Z</time>
      </trkpt>
      <trkpt lat="45.01058" lon="5.47569">
        <ele>1316.18</ele>
        <time>2014-07-03T07:15:34Z</time>
      </trkpt>
      <trkpt lat="45.01058" lon="5.47568">
        <ele>1316.66</ele>
        <time>2014-07-03T07:15:53Z</time>
      </trkpt>
      <trkpt lat="45.01058" lon="5.47569">
        <ele>1316.66</ele>
        <time>2014-07-03T07:16:16Z</time>
      </trkpt>
      <trkpt lat="45.01059" lon="5.47569">
        <ele>1316.18</ele>
        <time>2014-07-03T07:16:23Z</time>
      </trkpt>
      <trkpt lat="45.01061" lon="5.47569">
        <ele>1316.18</ele>
        <time>2014-07-03T07:16:45Z</time>
      </trkpt>
      <trkpt lat="45.01061" lon="5.47569">
        <ele>1316.18</ele>
        <time>2014-07-03T07:16:58Z</time>
      </trkpt>
      <trkpt lat="45.01045" lon="5.47586">
        <ele>1316.18</ele>
        <time>2014-07-03T07:17:07Z</time>
      </trkpt>
      <trkpt lat="45.01034" lon="5.47593">
        <ele>1316.18</ele>
        <time>2014-07-03T07:17:16Z</time>
      </trkpt>
      <trkpt lat="45.0103" lon="5.47596">
        <ele>1316.18</ele>
        <time>2014-07-03T07:17:18Z</time>
      </trkpt>
      <trkpt lat="45.01011" lon="5.47618">
        <ele>1316.18</ele>
        <time>2014-07-03T07:17:30Z</time>
      </trkpt>
      <trkpt lat="45.01001" lon="5.47625">
        <ele>1316.18</ele>
        <time>2014-07-03T07:17:35Z</time>
      </trkpt>
      <trkpt lat="45.00998" lon="5.47631">
        <ele>1316.66</ele>
        <time>2014-07-03T07:17:38Z</time>
      </trkpt>
      <trkpt lat="45.01001" lon="5.47635">
        <ele>1316.18</ele>
        <time>2014-07-03T07:17:41Z</time>
      </trkpt>
      <trkpt lat="45.01025" lon="5.47628">
        <ele>1314.74</ele>
        <time>2014-07-03T07:17:56Z</time>
      </trkpt>
      <trkpt lat="45.01044" lon="5.47634">
        <ele>1316.66</ele>
        <time>2014-07-03T07:18:07Z</time>
      </trkpt>
      <trkpt lat="45.01051" lon="5.47637">
        <ele>1317.14</ele>
        <time>2014-07-03T07:18:11Z</time>
      </trkpt>
      <trkpt lat="45.01069" lon="5.47638">
        <ele>1317.62</ele>
        <time>2014-07-03T07:18:23Z</time>
      </trkpt>
      <trkpt lat="45.01073" lon="5.47634">
        <ele>1317.14</ele>
        <time>2014-07-03T07:18:33Z</time>
      </trkpt>
      <trkpt lat="45.01082" lon="5.47631">
        <ele>1318.59</ele>
        <time>2014-07-03T07:18:46Z</time>
      </trkpt>
      <trkpt lat="45.01087" lon="5.47628">
        <ele>1320.03</ele>
        <time>2014-07-03T07:18:57Z</time>
      </trkpt>
      <trkpt lat="45.01094" lon="5.47628">
        <ele>1320.51</ele>
        <time>2014-07-03T07:19:11Z</time>
      </trkpt>
      <trkpt lat="45.01095" lon="5.47628">
        <ele>1320.03</ele>
        <time>2014-07-03T07:19:12Z</time>
      </trkpt>
      <trkpt lat="45.01098" lon="5.47623">
        <ele>1320.51</ele>
        <time>2014-07-03T07:19:21Z</time>
      </trkpt>
      <trkpt lat="45.0112" lon="5.47613">
        <ele>1321.95</ele>
        <time>2014-07-03T07:19:34Z</time>
      </trkpt>
      <trkpt lat="45.01148" lon="5.47602">
        <ele>1321.95</ele>
        <time>2014-07-03T07:19:48Z</time>
      </trkpt>
      <trkpt lat="45.01174" lon="5.47591">
        <ele>1319.55</ele>
        <time>2014-07-03T07:19:56Z</time>
      </trkpt>
      <trkpt lat="45.01178" lon="5.47589">
        <ele>1319.55</ele>
        <time>2014-07-03T07:19:57Z</time>
      </trkpt>
      <trkpt lat="45.01182" lon="5.47588">
        <ele>1319.07</ele>
        <time>2014-07-03T07:19:58Z</time>
      </trkpt>
      <trkpt lat="45.01214" lon="5.47582">
        <ele>1319.55</ele>
        <time>2014-07-03T07:20:08Z</time>
      </trkpt>
      <trkpt lat="45.01239" lon="5.47571">
        <ele>1320.51</ele>
        <time>2014-07-03T07:20:17Z</time>
      </trkpt>
      <trkpt lat="45.01265" lon="5.47557">
        <ele>1321.47</ele>
        <time>2014-07-03T07:20:28Z</time>
      </trkpt>
      <trkpt lat="45.01269" lon="5.47556">
        <ele>1321.95</ele>
        <time>2014-07-03T07:20:30Z</time>
      </trkpt>
      <trkpt lat="45.01299" lon="5.47535">
        <ele>1322.91</ele>
        <time>2014-07-03T07:20:44Z</time>
      </trkpt>
      <trkpt lat="45.01316" lon="5.47515">
        <ele>1320.99</ele>
        <time>2014-07-03T07:20:51Z</time>
      </trkpt>
      <trkpt lat="45.0133" lon="5.47508">
        <ele>1320.99</ele>
        <time>2014-07-03T07:20:54Z</time>
      </trkpt>
      <trkpt lat="45.01335" lon="5.47507">
        <ele>1320.51</ele>
        <time>2014-07-03T07:20:55Z</time>
      </trkpt>
      <trkpt lat="45.01339" lon="5.47507">
        <ele>1320.99</ele>
        <time>2014-07-03T07:20:56Z</time>
      </trkpt>
      <trkpt lat="45.01351" lon="5.47505">
        <ele>1320.99</ele>
        <time>2014-07-03T07:21:00Z</time>
      </trkpt>
      <trkpt lat="45.01354" lon="5.47503">
        <ele>1320.99</ele>
        <time>2014-07-03T07:21:01Z</time>
      </trkpt>
      <trkpt lat="45.01362" lon="5.47498">
        <ele>1319.55</ele>
        <time>2014-07-03T07:21:03Z</time>
      </trkpt>
      <trkpt lat="45.01366" lon="5.47495">
        <ele>1319.07</ele>
        <time>2014-07-03T07:21:04Z</time>
      </trkpt>
      <trkpt lat="45.0137" lon="5.47493">
        <ele>1318.59</ele>
        <time>2014-07-03T07:21:05Z</time>
      </trkpt>
      <trkpt lat="45.01374" lon="5.47492">
        <ele>1318.1</ele>
        <time>2014-07-03T07:21:06Z</time>
      </trkpt>
      <trkpt lat="45.01378" lon="5.47492">
        <ele>1317.62</ele>
        <time>2014-07-03T07:21:07Z</time>
      </trkpt>
      <trkpt lat="45.01383" lon="5.47491">
        <ele>1317.14</ele>
        <time>2014-07-03T07:21:08Z</time>
      </trkpt>
      <trkpt lat="45.01392" lon="5.47488">
        <ele>1316.18</ele>
        <time>2014-07-03T07:21:10Z</time>
      </trkpt>
      <trkpt lat="45.01425" lon="5.47475">
        <ele>1314.74</ele>
        <time>2014-07-03T07:21:21Z</time>
      </trkpt>
      <trkpt lat="45.01429" lon="5.47472">
        <ele>1313.78</ele>
        <time>2014-07-03T07:21:22Z</time>
      </trkpt>
      <trkpt lat="45.01433" lon="5.47469">
        <ele>1313.78</ele>
        <time>2014-07-03T07:21:23Z</time>
      </trkpt>
      <trkpt lat="45.01436" lon="5.47466">
        <ele>1313.3</ele>
        <time>2014-07-03T07:21:24Z</time>
      </trkpt>
      <trkpt lat="45.0144" lon="5.47462">
        <ele>1312.82</ele>
        <time>2014-07-03T07:21:25Z</time>
      </trkpt>
      <trkpt lat="45.01454" lon="5.47454">
        <ele>1310.41</ele>
        <time>2014-07-03T07:21:29Z</time>
      </trkpt>
      <trkpt lat="45.01474" lon="5.47453">
        <ele>1309.93</ele>
        <time>2014-07-03T07:21:33Z</time>
      </trkpt>
      <trkpt lat="45.01485" lon="5.47451">
        <ele>1310.41</ele>
        <time>2014-07-03T07:21:35Z</time>
      </trkpt>
      <trkpt lat="45.0149" lon="5.4745">
        <ele>1310.41</ele>
        <time>2014-07-03T07:21:36Z</time>
      </trkpt>
      <trkpt lat="45.0152" lon="5.47436">
        <ele>1313.3</ele>
        <time>2014-07-03T07:21:44Z</time>
      </trkpt>
      <trkpt lat="45.01523" lon="5.47435">
        <ele>1313.78</ele>
        <time>2014-07-03T07:21:45Z</time>
      </trkpt>
      <trkpt lat="45.01526" lon="5.47433">
        <ele>1313.78</ele>
        <time>2014-07-03T07:21:46Z</time>
      </trkpt>
      <trkpt lat="45.01528" lon="5.47431">
        <ele>1313.78</ele>
        <time>2014-07-03T07:21:47Z</time>
      </trkpt>
      <trkpt lat="45.01529" lon="5.47428">
        <ele>1313.78</ele>
        <time>2014-07-03T07:21:48Z</time>
      </trkpt>
      <trkpt lat="45.01531" lon="5.47425">
        <ele>1314.26</ele>
        <time>2014-07-03T07:21:49Z</time>
      </trkpt>
      <trkpt lat="45.01533" lon="5.47421">
        <ele>1313.78</ele>
        <time>2014-07-03T07:21:50Z</time>
      </trkpt>
      <trkpt lat="45.01535" lon="5.47417">
        <ele>1313.3</ele>
        <time>2014-07-03T07:21:51Z</time>
      </trkpt>
      <trkpt lat="45.01536" lon="5.47414">
        <ele>1313.3</ele>
        <time>2014-07-03T07:21:52Z</time>
      </trkpt>
      <trkpt lat="45.01538" lon="5.47411">
        <ele>1313.78</ele>
        <time>2014-07-03T07:21:53Z</time>
      </trkpt>
      <trkpt lat="45.01538" lon="5.47407">
        <ele>1313.78</ele>
        <time>2014-07-03T07:21:54Z</time>
      </trkpt>
      <trkpt lat="45.0154" lon="5.47403">
        <ele>1313.3</ele>
        <time>2014-07-03T07:21:55Z</time>
      </trkpt>
      <trkpt lat="45.01541" lon="5.47398">
        <ele>1313.78</ele>
        <time>2014-07-03T07:21:56Z</time>
      </trkpt>
      <trkpt lat="45.01542" lon="5.47394">
        <ele>1313.3</ele>
        <time>2014-07-03T07:21:57Z</time>
      </trkpt>
      <trkpt lat="45.01543" lon="5.4739">
        <ele>1313.78</ele>
        <time>2014-07-03T07:21:58Z</time>
      </trkpt>
      <trkpt lat="45.01543" lon="5.47387">
        <ele>1313.78</ele>
        <time>2014-07-03T07:21:59Z</time>
      </trkpt>
      <trkpt lat="45.01543" lon="5.47383">
        <ele>1313.78</ele>
        <time>2014-07-03T07:22:00Z</time>
      </trkpt>
      <trkpt lat="45.01544" lon="5.4735">
        <ele>1313.78</ele>
        <time>2014-07-03T07:22:11Z</time>
      </trkpt>
      <trkpt lat="45.01546" lon="5.47352">
        <ele>1313.3</ele>
        <time>2014-07-03T07:22:14Z</time>
      </trkpt>
      <trkpt lat="45.01548" lon="5.47353">
        <ele>1313.3</ele>
        <time>2014-07-03T07:22:15Z</time>
      </trkpt>
      <trkpt lat="45.0155" lon="5.47354">
        <ele>1313.3</ele>
        <time>2014-07-03T07:22:16Z</time>
      </trkpt>
      <trkpt lat="45.01558" lon="5.47356">
        <ele>1312.82</ele>
        <time>2014-07-03T07:22:21Z</time>
      </trkpt>
      <trkpt lat="45.01559" lon="5.47356">
        <ele>1312.34</ele>
        <time>2014-07-03T07:22:22Z</time>
      </trkpt>
      <trkpt lat="45.01561" lon="5.47356">
        <ele>1312.34</ele>
        <time>2014-07-03T07:22:23Z</time>
      </trkpt>
      <trkpt lat="45.01564" lon="5.47355">
        <ele>1311.86</ele>
        <time>2014-07-03T07:22:24Z</time>
      </trkpt>
      <trkpt lat="45.01566" lon="5.47356">
        <ele>1311.86</ele>
        <time>2014-07-03T07:22:25Z</time>
      </trkpt>
      <trkpt lat="45.01569" lon="5.47357">
        <ele>1310.9</ele>
        <time>2014-07-03T07:22:26Z</time>
      </trkpt>
      <trkpt lat="45.01572" lon="5.47357">
        <ele>1310.9</ele>
        <time>2014-07-03T07:22:27Z</time>
      </trkpt>
      <trkpt lat="45.01575" lon="5.47356">
        <ele>1310.9</ele>
        <time>2014-07-03T07:22:28Z</time>
      </trkpt>
      <trkpt lat="45.01579" lon="5.47354">
        <ele>1309.93</ele>
        <time>2014-07-03T07:22:29Z</time>
      </trkpt>
      <trkpt lat="45.01594" lon="5.47349">
        <ele>1310.9</ele>
        <time>2014-07-03T07:22:33Z</time>
      </trkpt>
      <trkpt lat="45.01626" lon="5.47333">
        <ele>1312.82</ele>
        <time>2014-07-03T07:22:42Z</time>
      </trkpt>
      <trkpt lat="45.01637" lon="5.47324">
        <ele>1311.86</ele>
        <time>2014-07-03T07:22:45Z</time>
      </trkpt>
      <trkpt lat="45.01642" lon="5.47321">
        <ele>1311.86</ele>
        <time>2014-07-03T07:22:46Z</time>
      </trkpt>
      <trkpt lat="45.01648" lon="5.47319">
        <ele>1311.38</ele>
        <time>2014-07-03T07:22:47Z</time>
      </trkpt>
      <trkpt lat="45.01659" lon="5.47317">
        <ele>1310.9</ele>
        <time>2014-07-03T07:22:49Z</time>
      </trkpt>
      <trkpt lat="45.01662" lon="5.47317">
        <ele>1310.9</ele>
        <time>2014-07-03T07:22:50Z</time>
      </trkpt>
      <trkpt lat="45.01665" lon="5.47318">
        <ele>1310.9</ele>
        <time>2014-07-03T07:22:51Z</time>
      </trkpt>
      <trkpt lat="45.01667" lon="5.47318">
        <ele>1310.41</ele>
        <time>2014-07-03T07:22:52Z</time>
      </trkpt>
      <trkpt lat="45.0167" lon="5.47318">
        <ele>1310.41</ele>
        <time>2014-07-03T07:22:53Z</time>
      </trkpt>
      <trkpt lat="45.01672" lon="5.47318">
        <ele>1309.45</ele>
        <time>2014-07-03T07:22:54Z</time>
      </trkpt>
      <trkpt lat="45.01674" lon="5.47318">
        <ele>1309.93</ele>
        <time>2014-07-03T07:22:55Z</time>
      </trkpt>
      <trkpt lat="45.01696" lon="5.47312">
        <ele>1310.9</ele>
        <time>2014-07-03T07:23:05Z</time>
      </trkpt>
      <trkpt lat="45.01719" lon="5.47293">
        <ele>1312.82</ele>
        <time>2014-07-03T07:23:17Z</time>
      </trkpt>
      <trkpt lat="45.01725" lon="5.47287">
        <ele>1313.3</ele>
        <time>2014-07-03T07:23:21Z</time>
      </trkpt>
      <trkpt lat="45.01726" lon="5.47285">
        <ele>1313.78</ele>
        <time>2014-07-03T07:23:22Z</time>
      </trkpt>
      <trkpt lat="45.01728" lon="5.47283">
        <ele>1313.78</ele>
        <time>2014-07-03T07:23:23Z</time>
      </trkpt>
      <trkpt lat="45.0175" lon="5.47255">
        <ele>1315.22</ele>
        <time>2014-07-03T07:23:37Z</time>
      </trkpt>
      <trkpt lat="45.01776" lon="5.47256">
        <ele>1315.22</ele>
        <time>2014-07-03T07:23:49Z</time>
      </trkpt>
      <trkpt lat="45.01779" lon="5.47258">
        <ele>1315.7</ele>
        <time>2014-07-03T07:24:01Z</time>
      </trkpt>
      <trkpt lat="45.0178" lon="5.47256">
        <ele>1315.22</ele>
        <time>2014-07-03T07:24:26Z</time>
      </trkpt>
      <trkpt lat="45.01785" lon="5.47245">
        <ele>1315.22</ele>
        <time>2014-07-03T07:24:33Z</time>
      </trkpt>
      <trkpt lat="45.01785" lon="5.47235">
        <ele>1314.74</ele>
        <time>2014-07-03T07:24:38Z</time>
      </trkpt>
      <trkpt lat="45.01784" lon="5.47233">
        <ele>1314.74</ele>
        <time>2014-07-03T07:24:39Z</time>
      </trkpt>
      <trkpt lat="45.01769" lon="5.4723">
        <ele>1314.74</ele>
        <time>2014-07-03T07:24:53Z</time>
      </trkpt>
      <trkpt lat="45.01761" lon="5.47232">
        <ele>1314.74</ele>
        <time>2014-07-03T07:25:13Z</time>
      </trkpt>
      <trkpt lat="45.01733" lon="5.4722">
        <ele>1315.22</ele>
        <time>2014-07-03T07:25:28Z</time>
      </trkpt>
      <trkpt lat="45.0171" lon="5.47218">
        <ele>1315.7</ele>
        <time>2014-07-03T07:25:38Z</time>
      </trkpt>
      <trkpt lat="45.01694" lon="5.47225">
        <ele>1317.14</ele>
        <time>2014-07-03T07:25:48Z</time>
      </trkpt>
      <trkpt lat="45.0167" lon="5.4723">
        <ele>1319.07</ele>
        <time>2014-07-03T07:26:02Z</time>
      </trkpt>
      <trkpt lat="45.0166" lon="5.47226">
        <ele>1319.55</ele>
        <time>2014-07-03T07:26:08Z</time>
      </trkpt>
      <trkpt lat="45.01645" lon="5.47224">
        <ele>1319.07</ele>
        <time>2014-07-03T07:26:16Z</time>
      </trkpt>
      <trkpt lat="45.01634" lon="5.47226">
        <ele>1319.07</ele>
        <time>2014-07-03T07:26:24Z</time>
      </trkpt>
      <trkpt lat="45.01608" lon="5.47227">
        <ele>1319.55</ele>
        <time>2014-07-03T07:26:35Z</time>
      </trkpt>
      <trkpt lat="45.01605" lon="5.47227">
        <ele>1320.03</ele>
        <time>2014-07-03T07:26:37Z</time>
      </trkpt>
      <trkpt lat="45.01589" lon="5.47234">
        <ele>1320.03</ele>
        <time>2014-07-03T07:26:46Z</time>
      </trkpt>
      <trkpt lat="45.01585" lon="5.47239">
        <ele>1319.07</ele>
        <time>2014-07-03T07:26:49Z</time>
      </trkpt>
      <trkpt lat="45.01575" lon="5.47243">
        <ele>1319.55</ele>
        <time>2014-07-03T07:26:52Z</time>
      </trkpt>
      <trkpt lat="45.01573" lon="5.47243">
        <ele>1319.55</ele>
        <time>2014-07-03T07:26:53Z</time>
      </trkpt>
      <trkpt lat="45.01565" lon="5.47252">
        <ele>1319.07</ele>
        <time>2014-07-03T07:26:55Z</time>
      </trkpt>
      <trkpt lat="45.01556" lon="5.47257">
        <ele>1317.62</ele>
        <time>2014-07-03T07:27:05Z</time>
      </trkpt>
      <trkpt lat="45.0155" lon="5.47245">
        <ele>1315.7</ele>
        <time>2014-07-03T07:27:14Z</time>
      </trkpt>
      <trkpt lat="45.0155" lon="5.47243">
        <ele>1315.7</ele>
        <time>2014-07-03T07:27:16Z</time>
      </trkpt>
      <trkpt lat="45.01551" lon="5.47239">
        <ele>1314.74</ele>
        <time>2014-07-03T07:27:18Z</time>
      </trkpt>
      <trkpt lat="45.01535" lon="5.47202">
        <ele>1313.78</ele>
        <time>2014-07-03T07:27:28Z</time>
      </trkpt>
      <trkpt lat="45.01519" lon="5.47176">
        <ele>1314.26</ele>
        <time>2014-07-03T07:27:36Z</time>
      </trkpt>
      <trkpt lat="45.01519" lon="5.47172">
        <ele>1315.22</ele>
        <time>2014-07-03T07:27:39Z</time>
      </trkpt>
      <trkpt lat="45.01505" lon="5.47162">
        <ele>1315.7</ele>
        <time>2014-07-03T07:27:50Z</time>
      </trkpt>
      <trkpt lat="45.01492" lon="5.47155">
        <ele>1316.18</ele>
        <time>2014-07-03T07:27:54Z</time>
      </trkpt>
      <trkpt lat="45.01476" lon="5.47153">
        <ele>1316.18</ele>
        <time>2014-07-03T07:28:02Z</time>
      </trkpt>
      <trkpt lat="45.01455" lon="5.47135">
        <ele>1314.74</ele>
        <time>2014-07-03T07:28:16Z</time>
      </trkpt>
      <trkpt lat="45.01453" lon="5.47131">
        <ele>1315.22</ele>
        <time>2014-07-03T07:28:19Z</time>
      </trkpt>
      <trkpt lat="45.01444" lon="5.47118">
        <ele>1313.78</ele>
        <time>2014-07-03T07:28:25Z</time>
      </trkpt>
      <trkpt lat="45.01441" lon="5.47108">
        <ele>1312.34</ele>
        <time>2014-07-03T07:28:30Z</time>
      </trkpt>
      <trkpt lat="45.01441" lon="5.47078">
        <ele>1310.9</ele>
        <time>2014-07-03T07:28:42Z</time>
      </trkpt>
      <trkpt lat="45.01448" lon="5.47043">
        <ele>1309.93</ele>
        <time>2014-07-03T07:28:53Z</time>
      </trkpt>
      <trkpt lat="45.01448" lon="5.47032">
        <ele>1308.49</ele>
        <time>2014-07-03T07:28:56Z</time>
      </trkpt>
      <trkpt lat="45.01445" lon="5.47024">
        <ele>1306.57</ele>
        <time>2014-07-03T07:28:59Z</time>
      </trkpt>
      <trkpt lat="45.0144" lon="5.47011">
        <ele>1306.57</ele>
        <time>2014-07-03T07:29:02Z</time>
      </trkpt>
      <trkpt lat="45.01453" lon="5.46995">
        <ele>1304.65</ele>
        <time>2014-07-03T07:29:14Z</time>
      </trkpt>
      <trkpt lat="45.01455" lon="5.46991">
        <ele>1303.69</ele>
        <time>2014-07-03T07:29:27Z</time>
      </trkpt>
      <trkpt lat="45.01462" lon="5.46982">
        <ele>1302.72</ele>
        <time>2014-07-03T07:29:40Z</time>
      </trkpt>
      <trkpt lat="45.01475" lon="5.4696">
        <ele>1301.28</ele>
        <time>2014-07-03T07:29:52Z</time>
      </trkpt>
      <trkpt lat="45.0149" lon="5.46942">
        <ele>1301.76</ele>
        <time>2014-07-03T07:30:04Z</time>
      </trkpt>
      <trkpt lat="45.01503" lon="5.46933">
        <ele>1299.84</ele>
        <time>2014-07-03T07:30:19Z</time>
      </trkpt>
      <trkpt lat="45.01506" lon="5.4693">
        <ele>1298.88</ele>
        <time>2014-07-03T07:30:23Z</time>
      </trkpt>
      <trkpt lat="45.01509" lon="5.46928">
        <ele>1297.92</ele>
        <time>2014-07-03T07:30:27Z</time>
      </trkpt>
      <trkpt lat="45.01517" lon="5.46925">
        <ele>1295.51</ele>
        <time>2014-07-03T07:30:38Z</time>
      </trkpt>
      <trkpt lat="45.01521" lon="5.46922">
        <ele>1294.55</ele>
        <time>2014-07-03T07:30:44Z</time>
      </trkpt>
      <trkpt lat="45.01526" lon="5.46916">
        <ele>1292.63</ele>
        <time>2014-07-03T07:30:54Z</time>
      </trkpt>
      <trkpt lat="45.01528" lon="5.46913">
        <ele>1292.15</ele>
        <time>2014-07-03T07:31:05Z</time>
      </trkpt>
      <trkpt lat="45.0153" lon="5.46909">
        <ele>1291.67</ele>
        <time>2014-07-03T07:31:09Z</time>
      </trkpt>
      <trkpt lat="45.01532" lon="5.46906">
        <ele>1291.19</ele>
        <time>2014-07-03T07:31:11Z</time>
      </trkpt>
      <trkpt lat="45.01535" lon="5.46899">
        <ele>1289.27</ele>
        <time>2014-07-03T07:31:17Z</time>
      </trkpt>
      <trkpt lat="45.01537" lon="5.46895">
        <ele>1288.78</ele>
        <time>2014-07-03T07:31:19Z</time>
      </trkpt>
      <trkpt lat="45.01541" lon="5.4689">
        <ele>1287.34</ele>
        <time>2014-07-03T07:31:22Z</time>
      </trkpt>
      <trkpt lat="45.01542" lon="5.4689">
        <ele>1286.38</ele>
        <time>2014-07-03T07:31:24Z</time>
      </trkpt>
      <trkpt lat="45.01546" lon="5.46886">
        <ele>1286.38</ele>
        <time>2014-07-03T07:31:27Z</time>
      </trkpt>
      <trkpt lat="45.01557" lon="5.46881">
        <ele>1285.9</ele>
        <time>2014-07-03T07:31:33Z</time>
      </trkpt>
      <trkpt lat="45.01585" lon="5.4687">
        <ele>1283.98</ele>
        <time>2014-07-03T07:31:45Z</time>
      </trkpt>
      <trkpt lat="45.01594" lon="5.46865">
        <ele>1283.5</ele>
        <time>2014-07-03T07:31:56Z</time>
      </trkpt>
      <trkpt lat="45.01603" lon="5.46857">
        <ele>1282.06</ele>
        <time>2014-07-03T07:32:14Z</time>
      </trkpt>
      <trkpt lat="45.0161" lon="5.46853">
        <ele>1281.09</ele>
        <time>2014-07-03T07:32:23Z</time>
      </trkpt>
      <trkpt lat="45.01614" lon="5.4685">
        <ele>1280.61</ele>
        <time>2014-07-03T07:32:27Z</time>
      </trkpt>
      <trkpt lat="45.01623" lon="5.46844">
        <ele>1277.73</ele>
        <time>2014-07-03T07:32:32Z</time>
      </trkpt>
      <trkpt lat="45.01629" lon="5.46836">
        <ele>1276.29</ele>
        <time>2014-07-03T07:32:36Z</time>
      </trkpt>
      <trkpt lat="45.01637" lon="5.46822">
        <ele>1274.36</ele>
        <time>2014-07-03T07:32:43Z</time>
      </trkpt>
      <trkpt lat="45.01642" lon="5.46812">
        <ele>1273.4</ele>
        <time>2014-07-03T07:32:47Z</time>
      </trkpt>
      <trkpt lat="45.01656" lon="5.46798">
        <ele>1271</ele>
        <time>2014-07-03T07:32:56Z</time>
      </trkpt>
      <trkpt lat="45.01666" lon="5.46786">
        <ele>1269.56</ele>
        <time>2014-07-03T07:33:12Z</time>
      </trkpt>
      <trkpt lat="45.0167" lon="5.46778">
        <ele>1267.64</ele>
        <time>2014-07-03T07:33:24Z</time>
      </trkpt>
      <trkpt lat="45.01678" lon="5.46772">
        <ele>1265.71</ele>
        <time>2014-07-03T07:33:37Z</time>
      </trkpt>
      <trkpt lat="45.01682" lon="5.46764">
        <ele>1264.75</ele>
        <time>2014-07-03T07:33:47Z</time>
      </trkpt>
      <trkpt lat="45.01688" lon="5.46758">
        <ele>1262.83</ele>
        <time>2014-07-03T07:33:59Z</time>
      </trkpt>
      <trkpt lat="45.01694" lon="5.46748">
        <ele>1261.39</ele>
        <time>2014-07-03T07:34:10Z</time>
      </trkpt>
      <trkpt lat="45.01695" lon="5.46747">
        <ele>1261.39</ele>
        <time>2014-07-03T07:34:18Z</time>
      </trkpt>
      <trkpt lat="45.01699" lon="5.46744">
        <ele>1259.94</ele>
        <time>2014-07-03T07:34:24Z</time>
      </trkpt>
      <trkpt lat="45.01708" lon="5.46733">
        <ele>1258.02</ele>
        <time>2014-07-03T07:34:30Z</time>
      </trkpt>
      <trkpt lat="45.0171" lon="5.46729">
        <ele>1257.06</ele>
        <time>2014-07-03T07:34:32Z</time>
      </trkpt>
      <trkpt lat="45.01716" lon="5.46727">
        <ele>1256.58</ele>
        <time>2014-07-03T07:34:36Z</time>
      </trkpt>
      <trkpt lat="45.01723" lon="5.46714">
        <ele>1255.62</ele>
        <time>2014-07-03T07:34:49Z</time>
      </trkpt>
      <trkpt lat="45.0173" lon="5.46704">
        <ele>1253.7</ele>
        <time>2014-07-03T07:34:58Z</time>
      </trkpt>
      <trkpt lat="45.01736" lon="5.46697">
        <ele>1251.77</ele>
        <time>2014-07-03T07:35:01Z</time>
      </trkpt>
      <trkpt lat="45.01742" lon="5.46684">
        <ele>1251.77</ele>
        <time>2014-07-03T07:35:05Z</time>
      </trkpt>
      <trkpt lat="45.01745" lon="5.46684">
        <ele>1250.33</ele>
        <time>2014-07-03T07:35:07Z</time>
      </trkpt>
      <trkpt lat="45.01758" lon="5.46662">
        <ele>1246.97</ele>
        <time>2014-07-03T07:35:14Z</time>
      </trkpt>
      <trkpt lat="45.01759" lon="5.46655">
        <ele>1246.49</ele>
        <time>2014-07-03T07:35:16Z</time>
      </trkpt>
      <trkpt lat="45.0177" lon="5.46643">
        <ele>1244.56</ele>
        <time>2014-07-03T07:35:20Z</time>
      </trkpt>
      <trkpt lat="45.01789" lon="5.46619">
        <ele>1240.24</ele>
        <time>2014-07-03T07:35:28Z</time>
      </trkpt>
      <trkpt lat="45.01793" lon="5.46601">
        <ele>1237.35</ele>
        <time>2014-07-03T07:35:32Z</time>
      </trkpt>
      <trkpt lat="45.01802" lon="5.46566">
        <ele>1233.99</ele>
        <time>2014-07-03T07:35:42Z</time>
      </trkpt>
      <trkpt lat="45.01803" lon="5.46564">
        <ele>1233.99</ele>
        <time>2014-07-03T07:35:43Z</time>
      </trkpt>
      <trkpt lat="45.01814" lon="5.46537">
        <ele>1229.66</ele>
        <time>2014-07-03T07:35:50Z</time>
      </trkpt>
      <trkpt lat="45.01816" lon="5.4653">
        <ele>1229.66</ele>
        <time>2014-07-03T07:35:51Z</time>
      </trkpt>
      <trkpt lat="45.01818" lon="5.46523">
        <ele>1229.18</ele>
        <time>2014-07-03T07:35:52Z</time>
      </trkpt>
      <trkpt lat="45.0182" lon="5.46517">
        <ele>1228.7</ele>
        <time>2014-07-03T07:35:53Z</time>
      </trkpt>
      <trkpt lat="45.01821" lon="5.4651">
        <ele>1227.74</ele>
        <time>2014-07-03T07:35:54Z</time>
      </trkpt>
      <trkpt lat="45.01821" lon="5.46503">
        <ele>1227.74</ele>
        <time>2014-07-03T07:35:55Z</time>
      </trkpt>
      <trkpt lat="45.01819" lon="5.4647">
        <ele>1225.82</ele>
        <time>2014-07-03T07:36:02Z</time>
      </trkpt>
      <trkpt lat="45.01809" lon="5.46454">
        <ele>1222.45</ele>
        <time>2014-07-03T07:36:10Z</time>
      </trkpt>
      <trkpt lat="45.01807" lon="5.46446">
        <ele>1223.42</ele>
        <time>2014-07-03T07:36:35Z</time>
      </trkpt>
      <trkpt lat="45.01806" lon="5.46448">
        <ele>1222.93</ele>
        <time>2014-07-03T07:36:59Z</time>
      </trkpt>
      <trkpt lat="45.01805" lon="5.46447">
        <ele>1223.42</ele>
        <time>2014-07-03T07:37:22Z</time>
      </trkpt>
      <trkpt lat="45.01805" lon="5.46447">
        <ele>1223.42</ele>
        <time>2014-07-03T07:37:29Z</time>
      </trkpt>
      <trkpt lat="45.01804" lon="5.46446">
        <ele>1222.93</ele>
        <time>2014-07-03T07:37:30Z</time>
      </trkpt>
      <trkpt lat="45.01799" lon="5.46445">
        <ele>1221.49</ele>
        <time>2014-07-03T07:37:32Z</time>
      </trkpt>
      <trkpt lat="45.01796" lon="5.46446">
        <ele>1221.49</ele>
        <time>2014-07-03T07:37:33Z</time>
      </trkpt>
      <trkpt lat="45.01786" lon="5.46445">
        <ele>1219.57</ele>
        <time>2014-07-03T07:37:39Z</time>
      </trkpt>
      <trkpt lat="45.01782" lon="5.46445">
        <ele>1218.13</ele>
        <time>2014-07-03T07:37:43Z</time>
      </trkpt>
      <trkpt lat="45.0178" lon="5.46445">
        <ele>1217.65</ele>
        <time>2014-07-03T07:37:44Z</time>
      </trkpt>
      <trkpt lat="45.01779" lon="5.46445">
        <ele>1217.65</ele>
        <time>2014-07-03T07:37:45Z</time>
      </trkpt>
      <trkpt lat="45.01777" lon="5.46446">
        <ele>1218.13</ele>
        <time>2014-07-03T07:37:46Z</time>
      </trkpt>
      <trkpt lat="45.01775" lon="5.46446">
        <ele>1217.17</ele>
        <time>2014-07-03T07:37:47Z</time>
      </trkpt>
      <trkpt lat="45.01763" lon="5.46451">
        <ele>1214.28</ele>
        <time>2014-07-03T07:37:55Z</time>
      </trkpt>
      <trkpt lat="45.01761" lon="5.46453">
        <ele>1212.84</ele>
        <time>2014-07-03T07:37:57Z</time>
      </trkpt>
      <trkpt lat="45.0176" lon="5.46456">
        <ele>1212.36</ele>
        <time>2014-07-03T07:37:58Z</time>
      </trkpt>
      <trkpt lat="45.0176" lon="5.46459">
        <ele>1211.4</ele>
        <time>2014-07-03T07:37:59Z</time>
      </trkpt>
      <trkpt lat="45.0176" lon="5.46463">
        <ele>1211.4</ele>
        <time>2014-07-03T07:38:00Z</time>
      </trkpt>
      <trkpt lat="45.0176" lon="5.46467">
        <ele>1210.92</ele>
        <time>2014-07-03T07:38:01Z</time>
      </trkpt>
      <trkpt lat="45.01759" lon="5.4647">
        <ele>1210.44</ele>
        <time>2014-07-03T07:38:02Z</time>
      </trkpt>
      <trkpt lat="45.01758" lon="5.46475">
        <ele>1210.44</ele>
        <time>2014-07-03T07:38:03Z</time>
      </trkpt>
      <trkpt lat="45.01757" lon="5.4648">
        <ele>1210.44</ele>
        <time>2014-07-03T07:38:04Z</time>
      </trkpt>
      <trkpt lat="45.01756" lon="5.46484">
        <ele>1210.92</ele>
        <time>2014-07-03T07:38:05Z</time>
      </trkpt>
      <trkpt lat="45.0175" lon="5.46522">
        <ele>1211.88</ele>
        <time>2014-07-03T07:38:17Z</time>
      </trkpt>
      <trkpt lat="45.01745" lon="5.4654">
        <ele>1210.44</ele>
        <time>2014-07-03T07:38:21Z</time>
      </trkpt>
      <trkpt lat="45.01735" lon="5.46558">
        <ele>1208.51</ele>
        <time>2014-07-03T07:38:28Z</time>
      </trkpt>
      <trkpt lat="45.01727" lon="5.46568">
        <ele>1207.55</ele>
        <time>2014-07-03T07:38:32Z</time>
      </trkpt>
      <trkpt lat="45.01714" lon="5.46574">
        <ele>1204.19</ele>
        <time>2014-07-03T07:38:37Z</time>
      </trkpt>
      <trkpt lat="45.01701" lon="5.4658">
        <ele>1202.75</ele>
        <time>2014-07-03T07:38:41Z</time>
      </trkpt>
      <trkpt lat="45.0168" lon="5.46582">
        <ele>1199.38</ele>
        <time>2014-07-03T07:38:46Z</time>
      </trkpt>
      <trkpt lat="45.01659" lon="5.46591">
        <ele>1195.54</ele>
        <time>2014-07-03T07:38:52Z</time>
      </trkpt>
      <trkpt lat="45.01656" lon="5.46594">
        <ele>1195.54</ele>
        <time>2014-07-03T07:38:53Z</time>
      </trkpt>
      <trkpt lat="45.01647" lon="5.46599">
        <ele>1192.17</ele>
        <time>2014-07-03T07:38:57Z</time>
      </trkpt>
      <trkpt lat="45.01632" lon="5.46611">
        <ele>1188.81</ele>
        <time>2014-07-03T07:39:01Z</time>
      </trkpt>
      <trkpt lat="45.01613" lon="5.46614">
        <ele>1185.92</ele>
        <time>2014-07-03T07:39:06Z</time>
      </trkpt>
      <trkpt lat="45.01599" lon="5.46615">
        <ele>1182.56</ele>
        <time>2014-07-03T07:39:09Z</time>
      </trkpt>
      <trkpt lat="45.01593" lon="5.46616">
        <ele>1182.56</ele>
        <time>2014-07-03T07:39:10Z</time>
      </trkpt>
      <trkpt lat="45.01587" lon="5.46613">
        <ele>1180.64</ele>
        <time>2014-07-03T07:39:11Z</time>
      </trkpt>
      <trkpt lat="45.01571" lon="5.46615">
        <ele>1178.23</ele>
        <time>2014-07-03T07:39:14Z</time>
      </trkpt>
      <trkpt lat="45.01544" lon="5.46627">
        <ele>1174.87</ele>
        <time>2014-07-03T07:39:19Z</time>
      </trkpt>
      <trkpt lat="45.01543" lon="5.46627">
        <ele>1173.91</ele>
        <time>2014-07-03T07:39:20Z</time>
      </trkpt>
      <trkpt lat="45.01532" lon="5.46633">
        <ele>1171.98</ele>
        <time>2014-07-03T07:39:22Z</time>
      </trkpt>
      <trkpt lat="45.01513" lon="5.46641">
        <ele>1169.58</ele>
        <time>2014-07-03T07:39:26Z</time>
      </trkpt>
      <trkpt lat="45.0151" lon="5.46644">
        <ele>1168.62</ele>
        <time>2014-07-03T07:39:27Z</time>
      </trkpt>
      <trkpt lat="45.01507" lon="5.46644">
        <ele>1168.62</ele>
        <time>2014-07-03T07:39:28Z</time>
      </trkpt>
      <trkpt lat="45.01485" lon="5.46679">
        <ele>1167.18</ele>
        <time>2014-07-03T07:39:38Z</time>
      </trkpt>
      <trkpt lat="45.01488" lon="5.46682">
        <ele>1166.7</ele>
        <time>2014-07-03T07:39:46Z</time>
      </trkpt>
      <trkpt lat="45.0149" lon="5.4668">
        <ele>1166.7</ele>
        <time>2014-07-03T07:39:47Z</time>
      </trkpt>
      <trkpt lat="45.01496" lon="5.46676">
        <ele>1165.74</ele>
        <time>2014-07-03T07:39:50Z</time>
      </trkpt>
      <trkpt lat="45.01502" lon="5.4667">
        <ele>1164.77</ele>
        <time>2014-07-03T07:39:53Z</time>
      </trkpt>
      <trkpt lat="45.01505" lon="5.46666">
        <ele>1164.29</ele>
        <time>2014-07-03T07:39:54Z</time>
      </trkpt>
      <trkpt lat="45.01509" lon="5.46662">
        <ele>1163.81</ele>
        <time>2014-07-03T07:39:55Z</time>
      </trkpt>
      <trkpt lat="45.01513" lon="5.46657">
        <ele>1162.85</ele>
        <time>2014-07-03T07:39:56Z</time>
      </trkpt>
      <trkpt lat="45.01516" lon="5.46652">
        <ele>1162.37</ele>
        <time>2014-07-03T07:39:57Z</time>
      </trkpt>
      <trkpt lat="45.01525" lon="5.46638">
        <ele>1160.45</ele>
        <time>2014-07-03T07:40:00Z</time>
      </trkpt>
      <trkpt lat="45.01536" lon="5.4662">
        <ele>1158.05</ele>
        <time>2014-07-03T07:40:05Z</time>
      </trkpt>
      <trkpt lat="45.01537" lon="5.46614">
        <ele>1157.08</ele>
        <time>2014-07-03T07:40:06Z</time>
      </trkpt>
      <trkpt lat="45.01539" lon="5.46607">
        <ele>1156.6</ele>
        <time>2014-07-03T07:40:07Z</time>
      </trkpt>
      <trkpt lat="45.01544" lon="5.46591">
        <ele>1155.64</ele>
        <time>2014-07-03T07:40:09Z</time>
      </trkpt>
      <trkpt lat="45.01546" lon="5.46584">
        <ele>1153.72</ele>
        <time>2014-07-03T07:40:10Z</time>
      </trkpt>
      <trkpt lat="45.01549" lon="5.46577">
        <ele>1153.72</ele>
        <time>2014-07-03T07:40:11Z</time>
      </trkpt>
      <trkpt lat="45.01551" lon="5.4657">
        <ele>1152.76</ele>
        <time>2014-07-03T07:40:12Z</time>
      </trkpt>
      <trkpt lat="45.01553" lon="5.46563">
        <ele>1152.28</ele>
        <time>2014-07-03T07:40:13Z</time>
      </trkpt>
      <trkpt lat="45.01555" lon="5.46558">
        <ele>1151.8</ele>
        <time>2014-07-03T07:40:14Z</time>
      </trkpt>
      <trkpt lat="45.01557" lon="5.46545">
        <ele>1150.35</ele>
        <time>2014-07-03T07:40:17Z</time>
      </trkpt>
      <trkpt lat="45.01554" lon="5.46542">
        <ele>1149.39</ele>
        <time>2014-07-03T07:40:19Z</time>
      </trkpt>
      <trkpt lat="45.01549" lon="5.46546">
        <ele>1147.95</ele>
        <time>2014-07-03T07:40:21Z</time>
      </trkpt>
      <trkpt lat="45.01546" lon="5.4655">
        <ele>1147.47</ele>
        <time>2014-07-03T07:40:22Z</time>
      </trkpt>
      <trkpt lat="45.01543" lon="5.46553">
        <ele>1146.99</ele>
        <time>2014-07-03T07:40:23Z</time>
      </trkpt>
      <trkpt lat="45.01525" lon="5.46564">
        <ele>1143.63</ele>
        <time>2014-07-03T07:40:28Z</time>
      </trkpt>
      <trkpt lat="45.0151" lon="5.46567">
        <ele>1140.26</ele>
        <time>2014-07-03T07:40:32Z</time>
      </trkpt>
      <trkpt lat="45.01506" lon="5.46568">
        <ele>1139.3</ele>
        <time>2014-07-03T07:40:33Z</time>
      </trkpt>
      <trkpt lat="45.01493" lon="5.46574">
        <ele>1137.86</ele>
        <time>2014-07-03T07:40:36Z</time>
      </trkpt>
      <trkpt lat="45.01475" lon="5.46583">
        <ele>1134.97</ele>
        <time>2014-07-03T07:40:41Z</time>
      </trkpt>
      <trkpt lat="45.01464" lon="5.46596">
        <ele>1132.57</ele>
        <time>2014-07-03T07:40:45Z</time>
      </trkpt>
      <trkpt lat="45.01462" lon="5.46585">
        <ele>1128.24</ele>
        <time>2014-07-03T07:40:49Z</time>
      </trkpt>
      <trkpt lat="45.01462" lon="5.4658">
        <ele>1127.28</ele>
        <time>2014-07-03T07:40:51Z</time>
      </trkpt>
      <trkpt lat="45.01462" lon="5.46571">
        <ele>1124.88</ele>
        <time>2014-07-03T07:41:01Z</time>
      </trkpt>
      <trkpt lat="45.01461" lon="5.46568">
        <ele>1124.88</ele>
        <time>2014-07-03T07:41:07Z</time>
      </trkpt>
      <trkpt lat="45.01461" lon="5.4656">
        <ele>1123.44</ele>
        <time>2014-07-03T07:41:19Z</time>
      </trkpt>
      <trkpt lat="45.01461" lon="5.46555">
        <ele>1122.48</ele>
        <time>2014-07-03T07:41:28Z</time>
      </trkpt>
      <trkpt lat="45.01461" lon="5.46544">
        <ele>1119.59</ele>
        <time>2014-07-03T07:41:33Z</time>
      </trkpt>
      <trkpt lat="45.01461" lon="5.46532">
        <ele>1116.23</ele>
        <time>2014-07-03T07:41:42Z</time>
      </trkpt>
      <trkpt lat="45.01458" lon="5.46523">
        <ele>1115.75</ele>
        <time>2014-07-03T07:42:01Z</time>
      </trkpt>
      <trkpt lat="45.01453" lon="5.46517">
        <ele>1113.34</ele>
        <time>2014-07-03T07:42:14Z</time>
      </trkpt>
      <trkpt lat="45.01449" lon="5.46514">
        <ele>1112.38</ele>
        <time>2014-07-03T07:42:27Z</time>
      </trkpt>
      <trkpt lat="45.01444" lon="5.46509">
        <ele>1109.5</ele>
        <time>2014-07-03T07:42:39Z</time>
      </trkpt>
      <trkpt lat="45.01434" lon="5.46511">
        <ele>1107.58</ele>
        <time>2014-07-03T07:42:51Z</time>
      </trkpt>
      <trkpt lat="45.01429" lon="5.46513">
        <ele>1104.69</ele>
        <time>2014-07-03T07:43:04Z</time>
      </trkpt>
      <trkpt lat="45.01421" lon="5.46515">
        <ele>1104.21</ele>
        <time>2014-07-03T07:43:11Z</time>
      </trkpt>
      <trkpt lat="45.01407" lon="5.46522">
        <ele>1101.33</ele>
        <time>2014-07-03T07:43:23Z</time>
      </trkpt>
      <trkpt lat="45.01403" lon="5.46522">
        <ele>1100.37</ele>
        <time>2014-07-03T07:43:27Z</time>
      </trkpt>
      <trkpt lat="45.014" lon="5.4652">
        <ele>1100.37</ele>
        <time>2014-07-03T07:43:41Z</time>
      </trkpt>
      <trkpt lat="45.01401" lon="5.4652">
        <ele>1099.4</ele>
        <time>2014-07-03T07:43:47Z</time>
      </trkpt>
      <trkpt lat="45.01389" lon="5.46492">
        <ele>1097.96</ele>
        <time>2014-07-03T07:43:59Z</time>
      </trkpt>
      <trkpt lat="45.01387" lon="5.46489">
        <ele>1097.48</ele>
        <time>2014-07-03T07:44:12Z</time>
      </trkpt>
      <trkpt lat="45.01385" lon="5.46486">
        <ele>1097.48</ele>
        <time>2014-07-03T07:44:16Z</time>
      </trkpt>
      <trkpt lat="45.01393" lon="5.465">
        <ele>1099.4</ele>
        <time>2014-07-03T07:44:24Z</time>
      </trkpt>
      <trkpt lat="45.01395" lon="5.4652">
        <ele>1102.29</ele>
        <time>2014-07-03T07:44:33Z</time>
      </trkpt>
      <trkpt lat="45.01395" lon="5.46524">
        <ele>1099.4</ele>
        <time>2014-07-03T07:44:35Z</time>
      </trkpt>
      <trkpt lat="45.01396" lon="5.46528">
        <ele>1099.89</ele>
        <time>2014-07-03T07:44:38Z</time>
      </trkpt>
      <trkpt lat="45.01395" lon="5.46532">
        <ele>1103.73</ele>
        <time>2014-07-03T07:44:45Z</time>
      </trkpt>
      <trkpt lat="45.01395" lon="5.46532">
        <ele>1100.37</ele>
        <time>2014-07-03T07:44:46Z</time>
      </trkpt>
      <trkpt lat="45.01388" lon="5.46546">
        <ele>1101.81</ele>
        <time>2014-07-03T07:45:05Z</time>
      </trkpt>
      <trkpt lat="45.0138" lon="5.46556">
        <ele>1101.81</ele>
        <time>2014-07-03T07:45:17Z</time>
      </trkpt>
      <trkpt lat="45.01381" lon="5.46557">
        <ele>1102.29</ele>
        <time>2014-07-03T07:45:47Z</time>
      </trkpt>
      <trkpt lat="45.01381" lon="5.46561">
        <ele>1102.29</ele>
        <time>2014-07-03T07:46:21Z</time>
      </trkpt>
      <trkpt lat="45.01379" lon="5.4656">
        <ele>1101.81</ele>
        <time>2014-07-03T07:46:55Z</time>
      </trkpt>
      <trkpt lat="45.01376" lon="5.4656">
        <ele>1098.44</ele>
        <time>2014-07-03T07:47:09Z</time>
      </trkpt>
      <trkpt lat="45.01376" lon="5.4656">
        <ele>1101.81</ele>
        <time>2014-07-03T07:47:10Z</time>
      </trkpt>
      <trkpt lat="45.01376" lon="5.4656">
        <ele>1101.33</ele>
        <time>2014-07-03T07:47:11Z</time>
      </trkpt>
      <trkpt lat="45.01376" lon="5.46561">
        <ele>1100.85</ele>
        <time>2014-07-03T07:47:36Z</time>
      </trkpt>
      <trkpt lat="45.01376" lon="5.46565">
        <ele>1101.81</ele>
        <time>2014-07-03T07:48:12Z</time>
      </trkpt>
      <trkpt lat="45.01375" lon="5.46565">
        <ele>1101.33</ele>
        <time>2014-07-03T07:48:35Z</time>
      </trkpt>
      <trkpt lat="45.01375" lon="5.46564">
        <ele>1100.85</ele>
        <time>2014-07-03T07:49:08Z</time>
      </trkpt>
      <trkpt lat="45.01375" lon="5.46563">
        <ele>1100.37</ele>
        <time>2014-07-03T07:49:39Z</time>
      </trkpt>
      <trkpt lat="45.01374" lon="5.46564">
        <ele>1100.85</ele>
        <time>2014-07-03T07:50:06Z</time>
      </trkpt>
      <trkpt lat="45.01374" lon="5.46564">
        <ele>1100.85</ele>
        <time>2014-07-03T07:50:36Z</time>
      </trkpt>
      <trkpt lat="45.01374" lon="5.46565">
        <ele>1100.37</ele>
        <time>2014-07-03T07:51:04Z</time>
      </trkpt>
      <trkpt lat="45.01374" lon="5.46565">
        <ele>1100.37</ele>
        <time>2014-07-03T07:51:35Z</time>
      </trkpt>
      <trkpt lat="45.01374" lon="5.46565">
        <ele>1100.37</ele>
        <time>2014-07-03T07:52:09Z</time>
      </trkpt>
      <trkpt lat="45.01374" lon="5.46566">
        <ele>1099.89</ele>
        <time>2014-07-03T07:52:44Z</time>
      </trkpt>
      <trkpt lat="45.01375" lon="5.46563">
        <ele>1099.89</ele>
        <time>2014-07-03T07:53:21Z</time>
      </trkpt>
      <trkpt lat="45.01375" lon="5.46561">
        <ele>1099.89</ele>
        <time>2014-07-03T07:53:55Z</time>
      </trkpt>
      <trkpt lat="45.01374" lon="5.4656">
        <ele>1098.44</ele>
        <time>2014-07-03T07:54:15Z</time>
      </trkpt>
      <trkpt lat="45.01362" lon="5.46562">
        <ele>1095.08</ele>
        <time>2014-07-03T07:54:19Z</time>
      </trkpt>
      <trkpt lat="45.01357" lon="5.46564">
        <ele>1094.12</ele>
        <time>2014-07-03T07:54:20Z</time>
      </trkpt>
      <trkpt lat="45.01352" lon="5.46566">
        <ele>1092.68</ele>
        <time>2014-07-03T07:54:21Z</time>
      </trkpt>
      <trkpt lat="45.01346" lon="5.46569">
        <ele>1092.2</ele>
        <time>2014-07-03T07:54:22Z</time>
      </trkpt>
      <trkpt lat="45.01332" lon="5.46571">
        <ele>1090.27</ele>
        <time>2014-07-03T07:54:24Z</time>
      </trkpt>
      <trkpt lat="45.01324" lon="5.46572">
        <ele>1089.31</ele>
        <time>2014-07-03T07:54:25Z</time>
      </trkpt>
      <trkpt lat="45.01308" lon="5.46573">
        <ele>1087.39</ele>
        <time>2014-07-03T07:54:28Z</time>
      </trkpt>
      <trkpt lat="45.013" lon="5.46574">
        <ele>1085.95</ele>
        <time>2014-07-03T07:54:29Z</time>
      </trkpt>
      <trkpt lat="45.01282" lon="5.46579">
        <ele>1083.06</ele>
        <time>2014-07-03T07:54:32Z</time>
      </trkpt>
      <trkpt lat="45.01258" lon="5.46586">
        <ele>1079.7</ele>
        <time>2014-07-03T07:54:36Z</time>
      </trkpt>
      <trkpt lat="45.01237" lon="5.46591">
        <ele>1077.29</ele>
        <time>2014-07-03T07:54:39Z</time>
      </trkpt>
      <trkpt lat="45.01225" lon="5.46591">
        <ele>1075.85</ele>
        <time>2014-07-03T07:54:41Z</time>
      </trkpt>
      <trkpt lat="45.01202" lon="5.46595">
        <ele>1072.97</ele>
        <time>2014-07-03T07:54:44Z</time>
      </trkpt>
      <trkpt lat="45.01179" lon="5.46596">
        <ele>1070.57</ele>
        <time>2014-07-03T07:54:47Z</time>
      </trkpt>
      <trkpt lat="45.01173" lon="5.46596">
        <ele>1069.6</ele>
        <time>2014-07-03T07:54:48Z</time>
      </trkpt>
      <trkpt lat="45.01147" lon="5.466">
        <ele>1066.24</ele>
        <time>2014-07-03T07:54:52Z</time>
      </trkpt>
      <trkpt lat="45.01139" lon="5.466">
        <ele>1065.76</ele>
        <time>2014-07-03T07:54:53Z</time>
      </trkpt>
      <trkpt lat="45.01102" lon="5.466">
        <ele>1062.87</ele>
        <time>2014-07-03T07:54:58Z</time>
      </trkpt>
      <trkpt lat="45.01065" lon="5.46602">
        <ele>1059.51</ele>
        <time>2014-07-03T07:55:05Z</time>
      </trkpt>
      <trkpt lat="45.01033" lon="5.46597">
        <ele>1056.15</ele>
        <time>2014-07-03T07:55:12Z</time>
      </trkpt>
      <trkpt lat="45.01006" lon="5.46594">
        <ele>1052.78</ele>
        <time>2014-07-03T07:55:20Z</time>
      </trkpt>
      <trkpt lat="45.00985" lon="5.46591">
        <ele>1049.9</ele>
        <time>2014-07-03T07:55:24Z</time>
      </trkpt>
      <trkpt lat="45.0098" lon="5.4659">
        <ele>1049.42</ele>
        <time>2014-07-03T07:55:25Z</time>
      </trkpt>
      <trkpt lat="45.00969" lon="5.46587">
        <ele>1047.97</ele>
        <time>2014-07-03T07:55:27Z</time>
      </trkpt>
      <trkpt lat="45.0095" lon="5.46583">
        <ele>1045.09</ele>
        <time>2014-07-03T07:55:30Z</time>
      </trkpt>
      <trkpt lat="45.00943" lon="5.46581">
        <ele>1045.09</ele>
        <time>2014-07-03T07:55:31Z</time>
      </trkpt>
      <trkpt lat="45.00918" lon="5.46576">
        <ele>1041.73</ele>
        <time>2014-07-03T07:55:36Z</time>
      </trkpt>
      <trkpt lat="45.00898" lon="5.46569">
        <ele>1038.84</ele>
        <time>2014-07-03T07:55:40Z</time>
      </trkpt>
      <trkpt lat="45.00891" lon="5.46568">
        <ele>1037.88</ele>
        <time>2014-07-03T07:55:41Z</time>
      </trkpt>
      <trkpt lat="45.00874" lon="5.46563">
        <ele>1035.48</ele>
        <time>2014-07-03T07:55:45Z</time>
      </trkpt>
      <trkpt lat="45.00859" lon="5.46559">
        <ele>1033.07</ele>
        <time>2014-07-03T07:55:48Z</time>
      </trkpt>
      <trkpt lat="45.00855" lon="5.46557">
        <ele>1032.59</ele>
        <time>2014-07-03T07:55:49Z</time>
      </trkpt>
      <trkpt lat="45.00851" lon="5.46555">
        <ele>1032.11</ele>
        <time>2014-07-03T07:55:50Z</time>
      </trkpt>
      <trkpt lat="45.00833" lon="5.46545">
        <ele>1028.75</ele>
        <time>2014-07-03T07:55:55Z</time>
      </trkpt>
      <trkpt lat="45.00821" lon="5.46546">
        <ele>1027.31</ele>
        <time>2014-07-03T07:55:58Z</time>
      </trkpt>
      <trkpt lat="45.00816" lon="5.46547">
        <ele>1026.83</ele>
        <time>2014-07-03T07:55:59Z</time>
      </trkpt>
      <trkpt lat="45.00797" lon="5.46549">
        <ele>1025.86</ele>
        <time>2014-07-03T07:56:03Z</time>
      </trkpt>
      <trkpt lat="45.00796" lon="5.46536">
        <ele>1023.94</ele>
        <time>2014-07-03T07:56:08Z</time>
      </trkpt>
      <trkpt lat="45.00802" lon="5.46537">
        <ele>1022.98</ele>
        <time>2014-07-03T07:56:11Z</time>
      </trkpt>
      <trkpt lat="45.0084" lon="5.46533">
        <ele>1019.13</ele>
        <time>2014-07-03T07:56:22Z</time>
      </trkpt>
      <trkpt lat="45.00854" lon="5.46533">
        <ele>1017.21</ele>
        <time>2014-07-03T07:56:25Z</time>
      </trkpt>
      <trkpt lat="45.00868" lon="5.46531">
        <ele>1015.77</ele>
        <time>2014-07-03T07:56:28Z</time>
      </trkpt>
      <trkpt lat="45.00874" lon="5.4653">
        <ele>1015.29</ele>
        <time>2014-07-03T07:56:29Z</time>
      </trkpt>
      <trkpt lat="45.0088" lon="5.46529">
        <ele>1014.81</ele>
        <time>2014-07-03T07:56:30Z</time>
      </trkpt>
      <trkpt lat="45.00907" lon="5.46524">
        <ele>1011.93</ele>
        <time>2014-07-03T07:56:35Z</time>
      </trkpt>
      <trkpt lat="45.00913" lon="5.46522">
        <ele>1010.96</ele>
        <time>2014-07-03T07:56:36Z</time>
      </trkpt>
      <trkpt lat="45.00918" lon="5.4652">
        <ele>1010.48</ele>
        <time>2014-07-03T07:56:37Z</time>
      </trkpt>
      <trkpt lat="45.0093" lon="5.46517">
        <ele>1009.52</ele>
        <time>2014-07-03T07:56:39Z</time>
      </trkpt>
      <trkpt lat="45.00964" lon="5.46506">
        <ele>1006.16</ele>
        <time>2014-07-03T07:56:44Z</time>
      </trkpt>
      <trkpt lat="45.00971" lon="5.46506">
        <ele>1006.16</ele>
        <time>2014-07-03T07:56:45Z</time>
      </trkpt>
      <trkpt lat="45.00977" lon="5.46507">
        <ele>1005.68</ele>
        <time>2014-07-03T07:56:46Z</time>
      </trkpt>
      <trkpt lat="45.00983" lon="5.46508">
        <ele>1005.2</ele>
        <time>2014-07-03T07:56:47Z</time>
      </trkpt>
      <trkpt lat="45.00989" lon="5.46508">
        <ele>1004.72</ele>
        <time>2014-07-03T07:56:48Z</time>
      </trkpt>
      <trkpt lat="45.00995" lon="5.46509">
        <ele>1004.23</ele>
        <time>2014-07-03T07:56:49Z</time>
      </trkpt>
      <trkpt lat="45.01" lon="5.46509">
        <ele>1003.75</ele>
        <time>2014-07-03T07:56:50Z</time>
      </trkpt>
      <trkpt lat="45.01006" lon="5.46506">
        <ele>1003.75</ele>
        <time>2014-07-03T07:56:51Z</time>
      </trkpt>
      <trkpt lat="45.01011" lon="5.46503">
        <ele>1002.79</ele>
        <time>2014-07-03T07:56:52Z</time>
      </trkpt>
      <trkpt lat="45.01021" lon="5.46498">
        <ele>1002.79</ele>
        <time>2014-07-03T07:56:54Z</time>
      </trkpt>
      <trkpt lat="45.01026" lon="5.46497">
        <ele>1001.35</ele>
        <time>2014-07-03T07:56:55Z</time>
      </trkpt>
      <trkpt lat="45.01031" lon="5.46494">
        <ele>1001.83</ele>
        <time>2014-07-03T07:56:56Z</time>
      </trkpt>
      <trkpt lat="45.01034" lon="5.46492">
        <ele>1001.35</ele>
        <time>2014-07-03T07:56:57Z</time>
      </trkpt>
      <trkpt lat="45.01037" lon="5.46491">
        <ele>1001.35</ele>
        <time>2014-07-03T07:56:58Z</time>
      </trkpt>
      <trkpt lat="45.0104" lon="5.46491">
        <ele>1000.87</ele>
        <time>2014-07-03T07:56:59Z</time>
      </trkpt>
      <trkpt lat="45.01042" lon="5.46491">
        <ele>1000.87</ele>
        <time>2014-07-03T07:57:00Z</time>
      </trkpt>
      <trkpt lat="45.01044" lon="5.4649">
        <ele>1000.39</ele>
        <time>2014-07-03T07:57:01Z</time>
      </trkpt>
      <trkpt lat="45.01045" lon="5.46488">
        <ele>999.91</ele>
        <time>2014-07-03T07:57:02Z</time>
      </trkpt>
      <trkpt lat="45.01054" lon="5.46476">
        <ele>997.99</ele>
        <time>2014-07-03T07:57:05Z</time>
      </trkpt>
      <trkpt lat="45.01059" lon="5.46472">
        <ele>997.51</ele>
        <time>2014-07-03T07:57:06Z</time>
      </trkpt>
      <trkpt lat="45.01063" lon="5.46468">
        <ele>997.51</ele>
        <time>2014-07-03T07:57:07Z</time>
      </trkpt>
      <trkpt lat="45.01066" lon="5.46464">
        <ele>997.02</ele>
        <time>2014-07-03T07:57:08Z</time>
      </trkpt>
      <trkpt lat="45.01068" lon="5.4646">
        <ele>996.54</ele>
        <time>2014-07-03T07:57:09Z</time>
      </trkpt>
      <trkpt lat="45.01069" lon="5.46457">
        <ele>996.54</ele>
        <time>2014-07-03T07:57:10Z</time>
      </trkpt>
      <trkpt lat="45.01062" lon="5.46461">
        <ele>994.62</ele>
        <time>2014-07-03T07:57:16Z</time>
      </trkpt>
      <trkpt lat="45.01065" lon="5.46468">
        <ele>996.54</ele>
        <time>2014-07-03T07:57:23Z</time>
      </trkpt>
      <trkpt lat="45.01069" lon="5.4647">
        <ele>994.14</ele>
        <time>2014-07-03T07:57:27Z</time>
      </trkpt>
      <trkpt lat="45.0107" lon="5.46471">
        <ele>994.14</ele>
        <time>2014-07-03T07:57:28Z</time>
      </trkpt>
      <trkpt lat="45.01071" lon="5.46473">
        <ele>994.14</ele>
        <time>2014-07-03T07:57:30Z</time>
      </trkpt>
      <trkpt lat="45.0108" lon="5.46477">
        <ele>993.66</ele>
        <time>2014-07-03T07:57:48Z</time>
      </trkpt>
      <trkpt lat="45.0108" lon="5.46481">
        <ele>992.7</ele>
        <time>2014-07-03T07:58:13Z</time>
      </trkpt>
      <trkpt lat="45.01074" lon="5.46478">
        <ele>991.26</ele>
        <time>2014-07-03T07:58:17Z</time>
      </trkpt>
      <trkpt lat="45.0107" lon="5.4648">
        <ele>990.3</ele>
        <time>2014-07-03T07:58:19Z</time>
      </trkpt>
      <trkpt lat="45.01061" lon="5.46479">
        <ele>988.85</ele>
        <time>2014-07-03T07:58:22Z</time>
      </trkpt>
      <trkpt lat="45.01059" lon="5.4648">
        <ele>987.89</ele>
        <time>2014-07-03T07:58:23Z</time>
      </trkpt>
      <trkpt lat="45.01056" lon="5.4648">
        <ele>987.89</ele>
        <time>2014-07-03T07:58:24Z</time>
      </trkpt>
      <trkpt lat="45.01048" lon="5.46471">
        <ele>986.45</ele>
        <time>2014-07-03T07:58:26Z</time>
      </trkpt>
      <trkpt lat="45.01044" lon="5.46467">
        <ele>985.49</ele>
        <time>2014-07-03T07:58:27Z</time>
      </trkpt>
      <trkpt lat="45.01041" lon="5.46464">
        <ele>984.53</ele>
        <time>2014-07-03T07:58:28Z</time>
      </trkpt>
      <trkpt lat="45.01038" lon="5.46463">
        <ele>984.53</ele>
        <time>2014-07-03T07:58:29Z</time>
      </trkpt>
      <trkpt lat="45.01031" lon="5.46465">
        <ele>982.6</ele>
        <time>2014-07-03T07:58:31Z</time>
      </trkpt>
      <trkpt lat="45.01025" lon="5.46465">
        <ele>981.64</ele>
        <time>2014-07-03T07:58:33Z</time>
      </trkpt>
      <trkpt lat="45.00988" lon="5.4645">
        <ele>978.76</ele>
        <time>2014-07-03T07:58:38Z</time>
      </trkpt>
      <trkpt lat="45.00958" lon="5.46439">
        <ele>975.39</ele>
        <time>2014-07-03T07:58:43Z</time>
      </trkpt>
      <trkpt lat="45.00937" lon="5.46437">
        <ele>972.51</ele>
        <time>2014-07-03T07:58:48Z</time>
      </trkpt>
      <trkpt lat="45.00919" lon="5.46431">
        <ele>969.63</ele>
        <time>2014-07-03T07:58:52Z</time>
      </trkpt>
      <trkpt lat="45.00903" lon="5.4642">
        <ele>966.74</ele>
        <time>2014-07-03T07:58:57Z</time>
      </trkpt>
      <trkpt lat="45.00882" lon="5.46409">
        <ele>963.38</ele>
        <time>2014-07-03T07:59:03Z</time>
      </trkpt>
      <trkpt lat="45.00864" lon="5.46401">
        <ele>960.98</ele>
        <time>2014-07-03T07:59:07Z</time>
      </trkpt>
      <trkpt lat="45.00854" lon="5.46389">
        <ele>957.61</ele>
        <time>2014-07-03T07:59:11Z</time>
      </trkpt>
      <trkpt lat="45.00833" lon="5.46374">
        <ele>953.77</ele>
        <time>2014-07-03T07:59:16Z</time>
      </trkpt>
      <trkpt lat="45.0083" lon="5.46372">
        <ele>953.28</ele>
        <time>2014-07-03T07:59:17Z</time>
      </trkpt>
      <trkpt lat="45.00827" lon="5.46371">
        <ele>952.32</ele>
        <time>2014-07-03T07:59:18Z</time>
      </trkpt>
      <trkpt lat="45.00826" lon="5.46369">
        <ele>951.36</ele>
        <time>2014-07-03T07:59:19Z</time>
      </trkpt>
      <trkpt lat="45.00812" lon="5.46364">
        <ele>948</ele>
        <time>2014-07-03T07:59:24Z</time>
      </trkpt>
      <trkpt lat="45.00803" lon="5.4636">
        <ele>945.11</ele>
        <time>2014-07-03T07:59:28Z</time>
      </trkpt>
      <trkpt lat="45.00794" lon="5.46358">
        <ele>942.23</ele>
        <time>2014-07-03T07:59:32Z</time>
      </trkpt>
      <trkpt lat="45.00695" lon="5.46376">
        <ele>940.79</ele>
        <time>2014-07-03T07:59:35Z</time>
      </trkpt>
      <trkpt lat="45.00692" lon="5.46375">
        <ele>939.83</ele>
        <time>2014-07-03T07:59:36Z</time>
      </trkpt>
      <trkpt lat="45.00678" lon="5.46365">
        <ele>935.98</ele>
        <time>2014-07-03T07:59:41Z</time>
      </trkpt>
      <trkpt lat="45.00668" lon="5.46353">
        <ele>932.62</ele>
        <time>2014-07-03T07:59:44Z</time>
      </trkpt>
      <trkpt lat="45.00641" lon="5.46341">
        <ele>929.73</ele>
        <time>2014-07-03T07:59:49Z</time>
      </trkpt>
      <trkpt lat="45.00637" lon="5.46339">
        <ele>928.77</ele>
        <time>2014-07-03T07:59:50Z</time>
      </trkpt>
      <trkpt lat="45.00633" lon="5.46339">
        <ele>928.29</ele>
        <time>2014-07-03T07:59:51Z</time>
      </trkpt>
      <trkpt lat="45.00628" lon="5.46339">
        <ele>927.81</ele>
        <time>2014-07-03T07:59:52Z</time>
      </trkpt>
      <trkpt lat="45.00624" lon="5.4634">
        <ele>927.33</ele>
        <time>2014-07-03T07:59:53Z</time>
      </trkpt>
      <trkpt lat="45.0062" lon="5.46338">
        <ele>926.37</ele>
        <time>2014-07-03T07:59:54Z</time>
      </trkpt>
      <trkpt lat="45.00598" lon="5.46328">
        <ele>922.52</ele>
        <time>2014-07-03T08:00:00Z</time>
      </trkpt>
      <trkpt lat="45.00592" lon="5.46325">
        <ele>921.56</ele>
        <time>2014-07-03T08:00:02Z</time>
      </trkpt>
      <trkpt lat="45.00583" lon="5.46315">
        <ele>918.68</ele>
        <time>2014-07-03T08:00:05Z</time>
      </trkpt>
      <trkpt lat="45.00572" lon="5.46301">
        <ele>916.27</ele>
        <time>2014-07-03T08:00:09Z</time>
      </trkpt>
      <trkpt lat="45.00547" lon="5.46282">
        <ele>912.43</ele>
        <time>2014-07-03T08:00:14Z</time>
      </trkpt>
      <trkpt lat="45.00538" lon="5.46269">
        <ele>909.54</ele>
        <time>2014-07-03T08:00:17Z</time>
      </trkpt>
      <trkpt lat="45.00531" lon="5.46259">
        <ele>907.62</ele>
        <time>2014-07-03T08:00:19Z</time>
      </trkpt>
      <trkpt lat="45.0051" lon="5.46246">
        <ele>904.74</ele>
        <time>2014-07-03T08:00:22Z</time>
      </trkpt>
      <trkpt lat="45.00502" lon="5.46242">
        <ele>904.26</ele>
        <time>2014-07-03T08:00:23Z</time>
      </trkpt>
      <trkpt lat="45.00498" lon="5.46238">
        <ele>903.78</ele>
        <time>2014-07-03T08:00:24Z</time>
      </trkpt>
      <trkpt lat="45.00486" lon="5.46228">
        <ele>901.85</ele>
        <time>2014-07-03T08:00:26Z</time>
      </trkpt>
      <trkpt lat="45.00463" lon="5.46203">
        <ele>898.49</ele>
        <time>2014-07-03T08:00:31Z</time>
      </trkpt>
      <trkpt lat="45.00459" lon="5.46198">
        <ele>897.05</ele>
        <time>2014-07-03T08:00:32Z</time>
      </trkpt>
      <trkpt lat="45.00454" lon="5.46193">
        <ele>897.53</ele>
        <time>2014-07-03T08:00:33Z</time>
      </trkpt>
      <trkpt lat="45.00446" lon="5.46185">
        <ele>895.61</ele>
        <time>2014-07-03T08:00:35Z</time>
      </trkpt>
      <trkpt lat="45.00442" lon="5.46182">
        <ele>894.64</ele>
        <time>2014-07-03T08:00:36Z</time>
      </trkpt>
      <trkpt lat="45.00438" lon="5.46181">
        <ele>893.68</ele>
        <time>2014-07-03T08:00:37Z</time>
      </trkpt>
      <trkpt lat="45.00435" lon="5.46179">
        <ele>893.2</ele>
        <time>2014-07-03T08:00:38Z</time>
      </trkpt>
      <trkpt lat="45.0043" lon="5.46178">
        <ele>892.24</ele>
        <time>2014-07-03T08:00:40Z</time>
      </trkpt>
      <trkpt lat="45.00428" lon="5.46176">
        <ele>891.76</ele>
        <time>2014-07-03T08:00:41Z</time>
      </trkpt>
      <trkpt lat="45.00425" lon="5.46173">
        <ele>890.8</ele>
        <time>2014-07-03T08:00:42Z</time>
      </trkpt>
      <trkpt lat="45.00421" lon="5.46171">
        <ele>889.84</ele>
        <time>2014-07-03T08:00:43Z</time>
      </trkpt>
      <trkpt lat="45.00418" lon="5.46169">
        <ele>889.36</ele>
        <time>2014-07-03T08:00:44Z</time>
      </trkpt>
      <trkpt lat="45.00415" lon="5.46167">
        <ele>889.36</ele>
        <time>2014-07-03T08:00:45Z</time>
      </trkpt>
      <trkpt lat="45.00398" lon="5.46157">
        <ele>886.47</ele>
        <time>2014-07-03T08:00:50Z</time>
      </trkpt>
      <trkpt lat="45.00385" lon="5.46148">
        <ele>883.11</ele>
        <time>2014-07-03T08:00:55Z</time>
      </trkpt>
      <trkpt lat="45.00376" lon="5.46145">
        <ele>880.71</ele>
        <time>2014-07-03T08:00:58Z</time>
      </trkpt>
      <trkpt lat="45.00374" lon="5.46143">
        <ele>880.71</ele>
        <time>2014-07-03T08:00:59Z</time>
      </trkpt>
      <trkpt lat="45.00368" lon="5.46127">
        <ele>877.82</ele>
        <time>2014-07-03T08:01:02Z</time>
      </trkpt>
      <trkpt lat="45.00364" lon="5.46121">
        <ele>875.9</ele>
        <time>2014-07-03T08:01:04Z</time>
      </trkpt>
      <trkpt lat="45.00363" lon="5.4612">
        <ele>875.42</ele>
        <time>2014-07-03T08:01:05Z</time>
      </trkpt>
      <trkpt lat="45.00359" lon="5.46112">
        <ele>872.05</ele>
        <time>2014-07-03T08:01:10Z</time>
      </trkpt>
      <trkpt lat="45.00359" lon="5.46101">
        <ele>871.09</ele>
        <time>2014-07-03T08:01:12Z</time>
      </trkpt>
      <trkpt lat="45.00357" lon="5.46086">
        <ele>867.25</ele>
        <time>2014-07-03T08:01:17Z</time>
      </trkpt>
      <trkpt lat="45.00346" lon="5.46079">
        <ele>864.36</ele>
        <time>2014-07-03T08:01:23Z</time>
      </trkpt>
      <trkpt lat="45.00343" lon="5.46077">
        <ele>863.4</ele>
        <time>2014-07-03T08:01:25Z</time>
      </trkpt>
      <trkpt lat="45.00332" lon="5.46071">
        <ele>860.04</ele>
        <time>2014-07-03T08:01:30Z</time>
      </trkpt>
      <trkpt lat="45.00327" lon="5.46071">
        <ele>858.11</ele>
        <time>2014-07-03T08:01:34Z</time>
      </trkpt>
      <trkpt lat="45.00322" lon="5.46056">
        <ele>854.75</ele>
        <time>2014-07-03T08:01:38Z</time>
      </trkpt>
      <trkpt lat="45.00319" lon="5.46049">
        <ele>854.27</ele>
        <time>2014-07-03T08:01:39Z</time>
      </trkpt>
      <trkpt lat="45.00315" lon="5.46042">
        <ele>852.83</ele>
        <time>2014-07-03T08:01:40Z</time>
      </trkpt>
      <trkpt lat="45.00311" lon="5.46034">
        <ele>852.35</ele>
        <time>2014-07-03T08:01:41Z</time>
      </trkpt>
      <trkpt lat="45.00306" lon="5.46026">
        <ele>851.38</ele>
        <time>2014-07-03T08:01:42Z</time>
      </trkpt>
      <trkpt lat="45.00295" lon="5.46013">
        <ele>849.94</ele>
        <time>2014-07-03T08:01:44Z</time>
      </trkpt>
      <trkpt lat="45.0029" lon="5.46008">
        <ele>849.94</ele>
        <time>2014-07-03T08:01:45Z</time>
      </trkpt>
      <trkpt lat="45.00285" lon="5.46003">
        <ele>848.5</ele>
        <time>2014-07-03T08:01:46Z</time>
      </trkpt>
      <trkpt lat="45.00283" lon="5.46">
        <ele>848.02</ele>
        <time>2014-07-03T08:01:47Z</time>
      </trkpt>
      <trkpt lat="45.00272" lon="5.45983">
        <ele>845.62</ele>
        <time>2014-07-03T08:01:51Z</time>
      </trkpt>
      <trkpt lat="45.00267" lon="5.45971">
        <ele>844.18</ele>
        <time>2014-07-03T08:01:52Z</time>
      </trkpt>
      <trkpt lat="45.00265" lon="5.45968">
        <ele>844.18</ele>
        <time>2014-07-03T08:01:53Z</time>
      </trkpt>
      <trkpt lat="45.00262" lon="5.45962">
        <ele>842.73</ele>
        <time>2014-07-03T08:01:54Z</time>
      </trkpt>
      <trkpt lat="45.00256" lon="5.45956">
        <ele>842.73</ele>
        <time>2014-07-03T08:01:55Z</time>
      </trkpt>
      <trkpt lat="45.00253" lon="5.45948">
        <ele>842.25</ele>
        <time>2014-07-03T08:01:56Z</time>
      </trkpt>
      <trkpt lat="45.00247" lon="5.45924">
        <ele>839.85</ele>
        <time>2014-07-03T08:01:59Z</time>
      </trkpt>
      <trkpt lat="45.00244" lon="5.45917">
        <ele>838.89</ele>
        <time>2014-07-03T08:02:00Z</time>
      </trkpt>
      <trkpt lat="45.00242" lon="5.4591">
        <ele>838.41</ele>
        <time>2014-07-03T08:02:01Z</time>
      </trkpt>
      <trkpt lat="45.0024" lon="5.45904">
        <ele>837.93</ele>
        <time>2014-07-03T08:02:02Z</time>
      </trkpt>
      <trkpt lat="45.00229" lon="5.45882">
        <ele>835.52</ele>
        <time>2014-07-03T08:02:05Z</time>
      </trkpt>
      <trkpt lat="45.00226" lon="5.45874">
        <ele>835.52</ele>
        <time>2014-07-03T08:02:06Z</time>
      </trkpt>
      <trkpt lat="45.00221" lon="5.4585">
        <ele>834.08</ele>
        <time>2014-07-03T08:02:09Z</time>
      </trkpt>
      <trkpt lat="45.00219" lon="5.45844">
        <ele>834.56</ele>
        <time>2014-07-03T08:02:10Z</time>
      </trkpt>
      <trkpt lat="45.00205" lon="5.45813">
        <ele>832.64</ele>
        <time>2014-07-03T08:02:19Z</time>
      </trkpt>
      <trkpt lat="45.00205" lon="5.45813">
        <ele>828.79</ele>
        <time>2014-07-03T08:02:20Z</time>
      </trkpt>
      <trkpt lat="45.00205" lon="5.45813">
        <ele>829.76</ele>
        <time>2014-07-03T08:02:21Z</time>
      </trkpt>
      <trkpt lat="45.00204" lon="5.45813">
        <ele>835.04</ele>
        <time>2014-07-03T08:02:22Z</time>
      </trkpt>
      <trkpt lat="45.00203" lon="5.45813">
        <ele>832.64</ele>
        <time>2014-07-03T08:02:24Z</time>
      </trkpt>
      <trkpt lat="45.00201" lon="5.45813">
        <ele>831.2</ele>
        <time>2014-07-03T08:02:33Z</time>
      </trkpt>
      <trkpt lat="45.002" lon="5.45813">
        <ele>834.56</ele>
        <time>2014-07-03T08:02:35Z</time>
      </trkpt>
      <trkpt lat="45.00198" lon="5.45812">
        <ele>833.6</ele>
        <time>2014-07-03T08:02:43Z</time>
      </trkpt>
      <trkpt lat="45.00191" lon="5.45814">
        <ele>834.56</ele>
        <time>2014-07-03T08:03:10Z</time>
      </trkpt>
      <trkpt lat="45.00188" lon="5.45815">
        <ele>834.56</ele>
        <time>2014-07-03T08:03:34Z</time>
      </trkpt>
      <trkpt lat="45.00179" lon="5.45817">
        <ele>835.52</ele>
        <time>2014-07-03T08:03:57Z</time>
      </trkpt>
      <trkpt lat="45.00175" lon="5.45816">
        <ele>836</ele>
        <time>2014-07-03T08:04:18Z</time>
      </trkpt>
      <trkpt lat="45.0017" lon="5.45818">
        <ele>836</ele>
        <time>2014-07-03T08:04:41Z</time>
      </trkpt>
      <trkpt lat="45.00152" lon="5.45829">
        <ele>836.48</ele>
        <time>2014-07-03T08:05:05Z</time>
      </trkpt>
      <trkpt lat="45.00147" lon="5.45831">
        <ele>836.48</ele>
        <time>2014-07-03T08:05:26Z</time>
      </trkpt>
      <trkpt lat="45.00141" lon="5.45832">
        <ele>836.96</ele>
        <time>2014-07-03T08:05:56Z</time>
      </trkpt>
      <trkpt lat="45.0014" lon="5.45831">
        <ele>837.45</ele>
        <time>2014-07-03T08:06:21Z</time>
      </trkpt>
      <trkpt lat="45.0014" lon="5.45831">
        <ele>836</ele>
        <time>2014-07-03T08:06:24Z</time>
      </trkpt>
      <trkpt lat="45.0014" lon="5.45831">
        <ele>836.96</ele>
        <time>2014-07-03T08:06:28Z</time>
      </trkpt>
      <trkpt lat="45.0014" lon="5.45829">
        <ele>836.96</ele>
        <time>2014-07-03T08:06:29Z</time>
      </trkpt>
      <trkpt lat="45.00141" lon="5.45826">
        <ele>836</ele>
        <time>2014-07-03T08:06:30Z</time>
      </trkpt>
      <trkpt lat="45.00141" lon="5.45823">
        <ele>836.48</ele>
        <time>2014-07-03T08:06:31Z</time>
      </trkpt>
      <trkpt lat="45.00141" lon="5.4582">
        <ele>835.52</ele>
        <time>2014-07-03T08:06:32Z</time>
      </trkpt>
      <trkpt lat="45.00141" lon="5.45816">
        <ele>835.04</ele>
        <time>2014-07-03T08:06:33Z</time>
      </trkpt>
      <trkpt lat="45.00142" lon="5.45811">
        <ele>834.56</ele>
        <time>2014-07-03T08:06:34Z</time>
      </trkpt>
      <trkpt lat="45.00142" lon="5.45805">
        <ele>834.08</ele>
        <time>2014-07-03T08:06:35Z</time>
      </trkpt>
      <trkpt lat="45.00142" lon="5.45799">
        <ele>833.6</ele>
        <time>2014-07-03T08:06:36Z</time>
      </trkpt>
      <trkpt lat="45.00143" lon="5.45794">
        <ele>833.12</ele>
        <time>2014-07-03T08:06:37Z</time>
      </trkpt>
      <trkpt lat="45.00143" lon="5.45788">
        <ele>832.16</ele>
        <time>2014-07-03T08:06:38Z</time>
      </trkpt>
      <trkpt lat="45.00143" lon="5.45782">
        <ele>831.68</ele>
        <time>2014-07-03T08:06:39Z</time>
      </trkpt>
      <trkpt lat="45.00143" lon="5.45774">
        <ele>830.72</ele>
        <time>2014-07-03T08:06:40Z</time>
      </trkpt>
      <trkpt lat="45.00145" lon="5.45757">
        <ele>829.27</ele>
        <time>2014-07-03T08:06:42Z</time>
      </trkpt>
      <trkpt lat="45.00148" lon="5.45748">
        <ele>828.79</ele>
        <time>2014-07-03T08:06:43Z</time>
      </trkpt>
      <trkpt lat="45.00152" lon="5.4574">
        <ele>828.31</ele>
        <time>2014-07-03T08:06:44Z</time>
      </trkpt>
      <trkpt lat="45.00156" lon="5.45732">
        <ele>827.83</ele>
        <time>2014-07-03T08:06:45Z</time>
      </trkpt>
      <trkpt lat="45.00183" lon="5.45704">
        <ele>824.95</ele>
        <time>2014-07-03T08:06:49Z</time>
      </trkpt>
      <trkpt lat="45.00214" lon="5.45666">
        <ele>821.58</ele>
        <time>2014-07-03T08:06:54Z</time>
      </trkpt>
      <trkpt lat="45.0022" lon="5.45659">
        <ele>820.14</ele>
        <time>2014-07-03T08:06:55Z</time>
      </trkpt>
      <trkpt lat="45.00227" lon="5.45652">
        <ele>819.18</ele>
        <time>2014-07-03T08:06:56Z</time>
      </trkpt>
      <trkpt lat="45.00248" lon="5.45633">
        <ele>815.82</ele>
        <time>2014-07-03T08:06:59Z</time>
      </trkpt>
      <trkpt lat="45.00258" lon="5.45625">
        <ele>814.37</ele>
        <time>2014-07-03T08:07:00Z</time>
      </trkpt>
      <trkpt lat="45.00272" lon="5.45611">
        <ele>811.97</ele>
        <time>2014-07-03T08:07:02Z</time>
      </trkpt>
      <trkpt lat="45.0028" lon="5.45601">
        <ele>811.01</ele>
        <time>2014-07-03T08:07:03Z</time>
      </trkpt>
      <trkpt lat="45.00287" lon="5.4559">
        <ele>810.05</ele>
        <time>2014-07-03T08:07:04Z</time>
      </trkpt>
      <trkpt lat="45.00293" lon="5.45578">
        <ele>808.61</ele>
        <time>2014-07-03T08:07:05Z</time>
      </trkpt>
      <trkpt lat="45.00298" lon="5.45563">
        <ele>807.16</ele>
        <time>2014-07-03T08:07:06Z</time>
      </trkpt>
      <trkpt lat="45.0031" lon="5.45525">
        <ele>803.8</ele>
        <time>2014-07-03T08:07:08Z</time>
      </trkpt>
      <trkpt lat="45.00325" lon="5.45479">
        <ele>799.95</ele>
        <time>2014-07-03T08:07:11Z</time>
      </trkpt>
      <trkpt lat="45.00344" lon="5.45408">
        <ele>796.59</ele>
        <time>2014-07-03T08:07:16Z</time>
      </trkpt>
      <trkpt lat="45.00353" lon="5.45358">
        <ele>793.22</ele>
        <time>2014-07-03T08:07:20Z</time>
      </trkpt>
      <trkpt lat="45.0036" lon="5.45315">
        <ele>789.86</ele>
        <time>2014-07-03T08:07:23Z</time>
      </trkpt>
      <trkpt lat="45.00367" lon="5.45286">
        <ele>786.5</ele>
        <time>2014-07-03T08:07:25Z</time>
      </trkpt>
      <trkpt lat="45.00372" lon="5.45255">
        <ele>784.09</ele>
        <time>2014-07-03T08:07:27Z</time>
      </trkpt>
      <trkpt lat="45.00375" lon="5.45235">
        <ele>783.13</ele>
        <time>2014-07-03T08:07:28Z</time>
      </trkpt>
      <trkpt lat="45.00387" lon="5.45178">
        <ele>779.77</ele>
        <time>2014-07-03T08:07:33Z</time>
      </trkpt>
      <trkpt lat="45.00387" lon="5.45169">
        <ele>779.77</ele>
        <time>2014-07-03T08:07:34Z</time>
      </trkpt>
      <trkpt lat="45.00386" lon="5.45162">
        <ele>779.29</ele>
        <time>2014-07-03T08:07:35Z</time>
      </trkpt>
      <trkpt lat="45.00384" lon="5.45154">
        <ele>778.81</ele>
        <time>2014-07-03T08:07:36Z</time>
      </trkpt>
      <trkpt lat="45.0038" lon="5.45146">
        <ele>777.84</ele>
        <time>2014-07-03T08:07:37Z</time>
      </trkpt>
      <trkpt lat="45.00377" lon="5.45137">
        <ele>777.84</ele>
        <time>2014-07-03T08:07:38Z</time>
      </trkpt>
      <trkpt lat="45.00373" lon="5.45129">
        <ele>776.88</ele>
        <time>2014-07-03T08:07:39Z</time>
      </trkpt>
      <trkpt lat="45.00366" lon="5.45121">
        <ele>776.4</ele>
        <time>2014-07-03T08:07:40Z</time>
      </trkpt>
      <trkpt lat="45.00352" lon="5.45106">
        <ele>775.44</ele>
        <time>2014-07-03T08:07:43Z</time>
      </trkpt>
      <trkpt lat="45.00352" lon="5.45106">
        <ele>774.96</ele>
        <time>2014-07-03T08:07:47Z</time>
      </trkpt>
      <trkpt lat="45.00356" lon="5.45109">
        <ele>774</ele>
        <time>2014-07-03T08:07:48Z</time>
      </trkpt>
      <trkpt lat="45.00355" lon="5.45118">
        <ele>774</ele>
        <time>2014-07-03T08:07:49Z</time>
      </trkpt>
      <trkpt lat="45.00356" lon="5.45125">
        <ele>773.52</ele>
        <time>2014-07-03T08:07:50Z</time>
      </trkpt>
      <trkpt lat="45.00358" lon="5.45131">
        <ele>773.04</ele>
        <time>2014-07-03T08:07:51Z</time>
      </trkpt>
      <trkpt lat="45.00361" lon="5.45137">
        <ele>773.52</ele>
        <time>2014-07-03T08:07:52Z</time>
      </trkpt>
      <trkpt lat="45.00396" lon="5.45184">
        <ele>770.15</ele>
        <time>2014-07-03T08:08:01Z</time>
      </trkpt>
      <trkpt lat="45.00398" lon="5.45187">
        <ele>770.15</ele>
        <time>2014-07-03T08:08:02Z</time>
      </trkpt>
      <trkpt lat="45.00401" lon="5.45193">
        <ele>769.19</ele>
        <time>2014-07-03T08:08:03Z</time>
      </trkpt>
      <trkpt lat="45.00411" lon="5.45213">
        <ele>767.27</ele>
        <time>2014-07-03T08:08:06Z</time>
      </trkpt>
      <trkpt lat="45.00428" lon="5.45245">
        <ele>764.39</ele>
        <time>2014-07-03T08:08:10Z</time>
      </trkpt>
      <trkpt lat="45.00431" lon="5.45256">
        <ele>763.9</ele>
        <time>2014-07-03T08:08:11Z</time>
      </trkpt>
      <trkpt lat="45.00434" lon="5.45266">
        <ele>763.42</ele>
        <time>2014-07-03T08:08:12Z</time>
      </trkpt>
      <trkpt lat="45.00437" lon="5.45277">
        <ele>762.46</ele>
        <time>2014-07-03T08:08:13Z</time>
      </trkpt>
      <trkpt lat="45.00442" lon="5.45285">
        <ele>761.5</ele>
        <time>2014-07-03T08:08:14Z</time>
      </trkpt>
      <trkpt lat="45.00448" lon="5.45292">
        <ele>760.54</ele>
        <time>2014-07-03T08:08:15Z</time>
      </trkpt>
      <trkpt lat="45.00453" lon="5.45296">
        <ele>760.54</ele>
        <time>2014-07-03T08:08:16Z</time>
      </trkpt>
      <trkpt lat="45.00458" lon="5.45298">
        <ele>760.06</ele>
        <time>2014-07-03T08:08:17Z</time>
      </trkpt>
      <trkpt lat="45.00463" lon="5.45299">
        <ele>759.58</ele>
        <time>2014-07-03T08:08:18Z</time>
      </trkpt>
      <trkpt lat="45.00468" lon="5.45298">
        <ele>758.62</ele>
        <time>2014-07-03T08:08:19Z</time>
      </trkpt>
      <trkpt lat="45.00473" lon="5.45294">
        <ele>758.62</ele>
        <time>2014-07-03T08:08:20Z</time>
      </trkpt>
      <trkpt lat="45.00476" lon="5.45288">
        <ele>757.66</ele>
        <time>2014-07-03T08:08:21Z</time>
      </trkpt>
      <trkpt lat="45.00479" lon="5.45279">
        <ele>757.66</ele>
        <time>2014-07-03T08:08:22Z</time>
      </trkpt>
      <trkpt lat="45.00481" lon="5.45269">
        <ele>756.21</ele>
        <time>2014-07-03T08:08:23Z</time>
      </trkpt>
      <trkpt lat="45.00483" lon="5.45258">
        <ele>755.25</ele>
        <time>2014-07-03T08:08:24Z</time>
      </trkpt>
      <trkpt lat="45.00494" lon="5.45225">
        <ele>753.33</ele>
        <time>2014-07-03T08:08:27Z</time>
      </trkpt>
      <trkpt lat="45.00509" lon="5.45187">
        <ele>751.41</ele>
        <time>2014-07-03T08:08:33Z</time>
      </trkpt>
      <trkpt lat="45.00509" lon="5.4518">
        <ele>750.93</ele>
        <time>2014-07-03T08:08:34Z</time>
      </trkpt>
      <trkpt lat="45.00508" lon="5.45173">
        <ele>749.97</ele>
        <time>2014-07-03T08:08:35Z</time>
      </trkpt>
      <trkpt lat="45.00506" lon="5.45165">
        <ele>749.49</ele>
        <time>2014-07-03T08:08:36Z</time>
      </trkpt>
      <trkpt lat="45.00504" lon="5.45157">
        <ele>749.49</ele>
        <time>2014-07-03T08:08:37Z</time>
      </trkpt>
      <trkpt lat="45.00498" lon="5.45137">
        <ele>749</ele>
        <time>2014-07-03T08:08:40Z</time>
      </trkpt>
      <trkpt lat="45.00497" lon="5.45131">
        <ele>748.52</ele>
        <time>2014-07-03T08:08:41Z</time>
      </trkpt>
      <trkpt lat="45.00499" lon="5.45123">
        <ele>748.04</ele>
        <time>2014-07-03T08:08:42Z</time>
      </trkpt>
      <trkpt lat="45.00502" lon="5.45117">
        <ele>747.08</ele>
        <time>2014-07-03T08:08:43Z</time>
      </trkpt>
      <trkpt lat="45.00506" lon="5.45109">
        <ele>746.6</ele>
        <time>2014-07-03T08:08:44Z</time>
      </trkpt>
      <trkpt lat="45.00508" lon="5.45102">
        <ele>746.6</ele>
        <time>2014-07-03T08:08:45Z</time>
      </trkpt>
      <trkpt lat="45.00509" lon="5.45094">
        <ele>747.08</ele>
        <time>2014-07-03T08:08:46Z</time>
      </trkpt>
      <trkpt lat="45.00507" lon="5.45087">
        <ele>746.6</ele>
        <time>2014-07-03T08:08:47Z</time>
      </trkpt>
      <trkpt lat="45.00504" lon="5.45079">
        <ele>746.6</ele>
        <time>2014-07-03T08:08:48Z</time>
      </trkpt>
      <trkpt lat="45.00502" lon="5.45071">
        <ele>746.12</ele>
        <time>2014-07-03T08:08:49Z</time>
      </trkpt>
      <trkpt lat="45.00497" lon="5.45048">
        <ele>746.6</ele>
        <time>2014-07-03T08:08:52Z</time>
      </trkpt>
      <trkpt lat="45.00496" lon="5.45041">
        <ele>746.6</ele>
        <time>2014-07-03T08:08:53Z</time>
      </trkpt>
      <trkpt lat="45.00494" lon="5.45035">
        <ele>746.6</ele>
        <time>2014-07-03T08:08:54Z</time>
      </trkpt>
      <trkpt lat="45.00491" lon="5.4503">
        <ele>747.08</ele>
        <time>2014-07-03T08:08:55Z</time>
      </trkpt>
      <trkpt lat="45.00487" lon="5.45026">
        <ele>747.56</ele>
        <time>2014-07-03T08:08:56Z</time>
      </trkpt>
      <trkpt lat="45.00484" lon="5.45022">
        <ele>747.56</ele>
        <time>2014-07-03T08:08:57Z</time>
      </trkpt>
      <trkpt lat="45.00481" lon="5.45017">
        <ele>748.04</ele>
        <time>2014-07-03T08:08:58Z</time>
      </trkpt>
      <trkpt lat="45.00479" lon="5.45012">
        <ele>747.56</ele>
        <time>2014-07-03T08:08:59Z</time>
      </trkpt>
      <trkpt lat="45.00478" lon="5.45006">
        <ele>747.56</ele>
        <time>2014-07-03T08:09:00Z</time>
      </trkpt>
      <trkpt lat="45.00476" lon="5.44975">
        <ele>746.6</ele>
        <time>2014-07-03T08:09:05Z</time>
      </trkpt>
      <trkpt lat="45.00475" lon="5.44969">
        <ele>746.12</ele>
        <time>2014-07-03T08:09:06Z</time>
      </trkpt>
      <trkpt lat="45.00474" lon="5.44963">
        <ele>746.6</ele>
        <time>2014-07-03T08:09:07Z</time>
      </trkpt>
      <trkpt lat="45.00473" lon="5.44957">
        <ele>746.6</ele>
        <time>2014-07-03T08:09:08Z</time>
      </trkpt>
      <trkpt lat="45.00472" lon="5.44951">
        <ele>746.6</ele>
        <time>2014-07-03T08:09:09Z</time>
      </trkpt>
      <trkpt lat="45.0047" lon="5.44945">
        <ele>746.6</ele>
        <time>2014-07-03T08:09:10Z</time>
      </trkpt>
      <trkpt lat="45.00448" lon="5.44869">
        <ele>746.12</ele>
        <time>2014-07-03T08:09:23Z</time>
      </trkpt>
      <trkpt lat="45.00429" lon="5.44811">
        <ele>746.6</ele>
        <time>2014-07-03T08:09:34Z</time>
      </trkpt>
      <trkpt lat="45.00415" lon="5.44775">
        <ele>746.6</ele>
        <time>2014-07-03T08:09:42Z</time>
      </trkpt>
      <trkpt lat="45.00399" lon="5.44746">
        <ele>747.56</ele>
        <time>2014-07-03T08:09:52Z</time>
      </trkpt>
      <trkpt lat="45.00397" lon="5.44744">
        <ele>747.08</ele>
        <time>2014-07-03T08:09:55Z</time>
      </trkpt>
      <trkpt lat="45.00395" lon="5.44743">
        <ele>747.56</ele>
        <time>2014-07-03T08:09:56Z</time>
      </trkpt>
      <trkpt lat="45.00393" lon="5.44743">
        <ele>747.56</ele>
        <time>2014-07-03T08:09:57Z</time>
      </trkpt>
      <trkpt lat="45.00391" lon="5.44745">
        <ele>747.56</ele>
        <time>2014-07-03T08:09:58Z</time>
      </trkpt>
      <trkpt lat="45.00389" lon="5.44746">
        <ele>747.56</ele>
        <time>2014-07-03T08:09:59Z</time>
      </trkpt>
      <trkpt lat="45.00388" lon="5.44747">
        <ele>748.52</ele>
        <time>2014-07-03T08:10:00Z</time>
      </trkpt>
      <trkpt lat="45.00378" lon="5.44744">
        <ele>750.45</ele>
        <time>2014-07-03T08:10:11Z</time>
      </trkpt>
      <trkpt lat="45.00377" lon="5.44743">
        <ele>749.97</ele>
        <time>2014-07-03T08:10:12Z</time>
      </trkpt>
      <trkpt lat="45.00375" lon="5.44742">
        <ele>750.45</ele>
        <time>2014-07-03T08:10:13Z</time>
      </trkpt>
      <trkpt lat="45.00366" lon="5.44743">
        <ele>750.45</ele>
        <time>2014-07-03T08:10:17Z</time>
      </trkpt>
      <trkpt lat="45.00364" lon="5.44744">
        <ele>750.93</ele>
        <time>2014-07-03T08:10:18Z</time>
      </trkpt>
      <trkpt lat="45.0036" lon="5.44744">
        <ele>750.93</ele>
        <time>2014-07-03T08:10:20Z</time>
      </trkpt>
      <trkpt lat="45.00358" lon="5.44744">
        <ele>751.41</ele>
        <time>2014-07-03T08:10:21Z</time>
      </trkpt>
      <trkpt lat="45.00352" lon="5.44744">
        <ele>751.41</ele>
        <time>2014-07-03T08:10:24Z</time>
      </trkpt>
      <trkpt lat="45.0035" lon="5.44745">
        <ele>751.89</ele>
        <time>2014-07-03T08:10:25Z</time>
      </trkpt>
      <trkpt lat="45.00341" lon="5.44751">
        <ele>752.85</ele>
        <time>2014-07-03T08:10:32Z</time>
      </trkpt>
      <trkpt lat="45.0034" lon="5.44751">
        <ele>753.33</ele>
        <time>2014-07-03T08:10:33Z</time>
      </trkpt>
      <trkpt lat="45.00339" lon="5.44752">
        <ele>752.85</ele>
        <time>2014-07-03T08:10:34Z</time>
      </trkpt>
      <trkpt lat="45.00337" lon="5.44753">
        <ele>753.33</ele>
        <time>2014-07-03T08:10:35Z</time>
      </trkpt>
      <trkpt lat="45.00336" lon="5.44754">
        <ele>753.33</ele>
        <time>2014-07-03T08:10:36Z</time>
      </trkpt>
      <trkpt lat="45.00334" lon="5.44754">
        <ele>753.81</ele>
        <time>2014-07-03T08:10:37Z</time>
      </trkpt>
      <trkpt lat="45.00333" lon="5.44755">
        <ele>753.81</ele>
        <time>2014-07-03T08:10:38Z</time>
      </trkpt>
      <trkpt lat="45.00331" lon="5.44756">
        <ele>753.33</ele>
        <time>2014-07-03T08:10:39Z</time>
      </trkpt>
      <trkpt lat="45.00329" lon="5.44757">
        <ele>754.29</ele>
        <time>2014-07-03T08:10:40Z</time>
      </trkpt>
      <trkpt lat="45.00311" lon="5.44757">
        <ele>755.25</ele>
        <time>2014-07-03T08:10:52Z</time>
      </trkpt>
      <trkpt lat="45.00287" lon="5.44752">
        <ele>755.73</ele>
        <time>2014-07-03T08:11:04Z</time>
      </trkpt>
      <trkpt lat="45.00252" lon="5.44749">
        <ele>756.21</ele>
        <time>2014-07-03T08:11:19Z</time>
      </trkpt>
      <trkpt lat="45.00222" lon="5.44749">
        <ele>758.14</ele>
        <time>2014-07-03T08:11:34Z</time>
      </trkpt>
      <trkpt lat="45.00199" lon="5.44734">
        <ele>760.06</ele>
        <time>2014-07-03T08:11:47Z</time>
      </trkpt>
      <trkpt lat="45.00179" lon="5.44707">
        <ele>762.46</ele>
        <time>2014-07-03T08:12:02Z</time>
      </trkpt>
      <trkpt lat="45.00144" lon="5.44692">
        <ele>765.35</ele>
        <time>2014-07-03T08:12:20Z</time>
      </trkpt>
      <trkpt lat="45.00119" lon="5.44695">
        <ele>765.83</ele>
        <time>2014-07-03T08:12:32Z</time>
      </trkpt>
      <trkpt lat="45.00092" lon="5.44702">
        <ele>767.27</ele>
        <time>2014-07-03T08:12:44Z</time>
      </trkpt>
      <trkpt lat="45.0006" lon="5.44707">
        <ele>768.71</ele>
        <time>2014-07-03T08:12:58Z</time>
      </trkpt>
      <trkpt lat="45.0005" lon="5.44708">
        <ele>769.19</ele>
        <time>2014-07-03T08:13:03Z</time>
      </trkpt>
      <trkpt lat="45.00049" lon="5.44707">
        <ele>769.67</ele>
        <time>2014-07-03T08:13:04Z</time>
      </trkpt>
      <trkpt lat="45.00047" lon="5.44706">
        <ele>769.67</ele>
        <time>2014-07-03T08:13:05Z</time>
      </trkpt>
      <trkpt lat="45.00045" lon="5.44704">
        <ele>769.67</ele>
        <time>2014-07-03T08:13:06Z</time>
      </trkpt>
      <trkpt lat="45.00044" lon="5.44702">
        <ele>769.67</ele>
        <time>2014-07-03T08:13:07Z</time>
      </trkpt>
      <trkpt lat="45.00043" lon="5.44699">
        <ele>769.67</ele>
        <time>2014-07-03T08:13:08Z</time>
      </trkpt>
      <trkpt lat="45.00042" lon="5.44697">
        <ele>770.15</ele>
        <time>2014-07-03T08:13:09Z</time>
      </trkpt>
      <trkpt lat="45.00042" lon="5.44693">
        <ele>770.63</ele>
        <time>2014-07-03T08:13:10Z</time>
      </trkpt>
      <trkpt lat="45.00042" lon="5.4469">
        <ele>770.63</ele>
        <time>2014-07-03T08:13:11Z</time>
      </trkpt>
      <trkpt lat="45.00041" lon="5.44664">
        <ele>771.11</ele>
        <time>2014-07-03T08:13:20Z</time>
      </trkpt>
      <trkpt lat="45.00041" lon="5.44661">
        <ele>772.08</ele>
        <time>2014-07-03T08:13:21Z</time>
      </trkpt>
      <trkpt lat="45.0004" lon="5.44658">
        <ele>771.6</ele>
        <time>2014-07-03T08:13:22Z</time>
      </trkpt>
      <trkpt lat="45.00036" lon="5.44625">
        <ele>774</ele>
        <time>2014-07-03T08:13:34Z</time>
      </trkpt>
      <trkpt lat="45.00026" lon="5.44585">
        <ele>774.96</ele>
        <time>2014-07-03T08:13:49Z</time>
      </trkpt>
      <trkpt lat="45.00025" lon="5.44582">
        <ele>775.44</ele>
        <time>2014-07-03T08:13:50Z</time>
      </trkpt>
      <trkpt lat="45.00024" lon="5.44578">
        <ele>775.44</ele>
        <time>2014-07-03T08:13:51Z</time>
      </trkpt>
      <trkpt lat="45.00003" lon="5.44524">
        <ele>773.52</ele>
        <time>2014-07-03T08:14:03Z</time>
      </trkpt>
      <trkpt lat="44.99982" lon="5.4448">
        <ele>771.11</ele>
        <time>2014-07-03T08:14:12Z</time>
      </trkpt>
      <trkpt lat="44.99981" lon="5.44474">
        <ele>771.11</ele>
        <time>2014-07-03T08:14:13Z</time>
      </trkpt>
      <trkpt lat="44.99982" lon="5.4444">
        <ele>773.04</ele>
        <time>2014-07-03T08:14:22Z</time>
      </trkpt>
      <trkpt lat="44.99983" lon="5.44438">
        <ele>773.04</ele>
        <time>2014-07-03T08:14:23Z</time>
      </trkpt>
      <trkpt lat="44.99989" lon="5.44427">
        <ele>774.48</ele>
        <time>2014-07-03T08:14:30Z</time>
      </trkpt>
      <trkpt lat="44.9999" lon="5.44425">
        <ele>774.96</ele>
        <time>2014-07-03T08:14:31Z</time>
      </trkpt>
      <trkpt lat="44.99991" lon="5.44424">
        <ele>774.96</ele>
        <time>2014-07-03T08:14:32Z</time>
      </trkpt>
      <trkpt lat="44.99992" lon="5.44423">
        <ele>775.44</ele>
        <time>2014-07-03T08:14:33Z</time>
      </trkpt>
      <trkpt lat="44.99993" lon="5.44421">
        <ele>775.92</ele>
        <time>2014-07-03T08:14:34Z</time>
      </trkpt>
      <trkpt lat="44.99994" lon="5.4442">
        <ele>775.92</ele>
        <time>2014-07-03T08:14:35Z</time>
      </trkpt>
      <trkpt lat="45.00002" lon="5.44418">
        <ele>776.88</ele>
        <time>2014-07-03T08:14:43Z</time>
      </trkpt>
      <trkpt lat="45.00003" lon="5.44418">
        <ele>777.36</ele>
        <time>2014-07-03T08:14:44Z</time>
      </trkpt>
      <trkpt lat="45.00011" lon="5.44417">
        <ele>778.81</ele>
        <time>2014-07-03T08:14:51Z</time>
      </trkpt>
      <trkpt lat="45.00017" lon="5.44417">
        <ele>779.29</ele>
        <time>2014-07-03T08:14:56Z</time>
      </trkpt>
      <trkpt lat="45.00025" lon="5.44419">
        <ele>781.21</ele>
        <time>2014-07-03T08:15:03Z</time>
      </trkpt>
      <trkpt lat="45.00032" lon="5.44422">
        <ele>782.17</ele>
        <time>2014-07-03T08:15:09Z</time>
      </trkpt>
      <trkpt lat="45.00036" lon="5.44421">
        <ele>782.65</ele>
        <time>2014-07-03T08:15:20Z</time>
      </trkpt>
      <trkpt lat="45.00037" lon="5.4442">
        <ele>782.65</ele>
        <time>2014-07-03T08:15:31Z</time>
      </trkpt>
      <trkpt lat="45.00031" lon="5.44419">
        <ele>781.69</ele>
        <time>2014-07-03T08:15:44Z</time>
      </trkpt>
      <trkpt lat="45.00031" lon="5.4442">
        <ele>780.73</ele>
        <time>2014-07-03T08:16:00Z</time>
      </trkpt>
      <trkpt lat="45.00017" lon="5.44417">
        <ele>778.32</ele>
        <time>2014-07-03T08:16:05Z</time>
      </trkpt>
      <trkpt lat="45.00012" lon="5.44417">
        <ele>777.84</ele>
        <time>2014-07-03T08:16:06Z</time>
      </trkpt>
      <trkpt lat="45.00009" lon="5.44418">
        <ele>776.88</ele>
        <time>2014-07-03T08:16:07Z</time>
      </trkpt>
      <trkpt lat="45.00006" lon="5.44419">
        <ele>776.88</ele>
        <time>2014-07-03T08:16:08Z</time>
      </trkpt>
      <trkpt lat="45.00001" lon="5.44419">
        <ele>776.4</ele>
        <time>2014-07-03T08:16:10Z</time>
      </trkpt>
      <trkpt lat="45" lon="5.44417">
        <ele>776.4</ele>
        <time>2014-07-03T08:16:11Z</time>
      </trkpt>
      <trkpt lat="45" lon="5.44415">
        <ele>775.92</ele>
        <time>2014-07-03T08:16:12Z</time>
      </trkpt>
      <trkpt lat="44.99999" lon="5.4441">
        <ele>774.96</ele>
        <time>2014-07-03T08:16:22Z</time>
      </trkpt>
      <trkpt lat="44.99999" lon="5.44409">
        <ele>774.96</ele>
        <time>2014-07-03T08:16:44Z</time>
      </trkpt>
      <trkpt lat="45.00024" lon="5.44385">
        <ele>772.08</ele>
        <time>2014-07-03T08:16:53Z</time>
      </trkpt>
      <trkpt lat="45.00045" lon="5.44371">
        <ele>771.11</ele>
        <time>2014-07-03T08:16:58Z</time>
      </trkpt>
      <trkpt lat="45.00076" lon="5.4435">
        <ele>767.75</ele>
        <time>2014-07-03T08:17:06Z</time>
      </trkpt>
      <trkpt lat="45.00079" lon="5.44347">
        <ele>767.75</ele>
        <time>2014-07-03T08:17:07Z</time>
      </trkpt>
      <trkpt lat="45.00082" lon="5.44343">
        <ele>766.31</ele>
        <time>2014-07-03T08:17:08Z</time>
      </trkpt>
      <trkpt lat="45.00094" lon="5.44321">
        <ele>762.94</ele>
        <time>2014-07-03T08:17:14Z</time>
      </trkpt>
      <trkpt lat="45.00104" lon="5.44304">
        <ele>761.02</ele>
        <time>2014-07-03T08:17:18Z</time>
      </trkpt>
      <trkpt lat="45.0011" lon="5.44289">
        <ele>758.62</ele>
        <time>2014-07-03T08:17:20Z</time>
      </trkpt>
      <trkpt lat="45.00112" lon="5.44281">
        <ele>758.62</ele>
        <time>2014-07-03T08:17:21Z</time>
      </trkpt>
      <trkpt lat="45.00114" lon="5.44272">
        <ele>757.66</ele>
        <time>2014-07-03T08:17:22Z</time>
      </trkpt>
      <trkpt lat="45.00115" lon="5.44262">
        <ele>757.66</ele>
        <time>2014-07-03T08:17:23Z</time>
      </trkpt>
      <trkpt lat="45.00115" lon="5.44253">
        <ele>757.66</ele>
        <time>2014-07-03T08:17:24Z</time>
      </trkpt>
      <trkpt lat="45.00115" lon="5.44243">
        <ele>756.69</ele>
        <time>2014-07-03T08:17:25Z</time>
      </trkpt>
      <trkpt lat="45.00111" lon="5.44168">
        <ele>758.14</ele>
        <time>2014-07-03T08:17:35Z</time>
      </trkpt>
      <trkpt lat="45.0011" lon="5.44167">
        <ele>758.62</ele>
        <time>2014-07-03T08:17:36Z</time>
      </trkpt>
      <trkpt lat="45.00108" lon="5.44166">
        <ele>758.62</ele>
        <time>2014-07-03T08:17:37Z</time>
      </trkpt>
      <trkpt lat="45.00089" lon="5.44164">
        <ele>756.21</ele>
        <time>2014-07-03T08:17:44Z</time>
      </trkpt>
      <trkpt lat="45.00084" lon="5.44165">
        <ele>756.69</ele>
        <time>2014-07-03T08:17:45Z</time>
      </trkpt>
      <trkpt lat="45.00058" lon="5.44168">
        <ele>753.33</ele>
        <time>2014-07-03T08:17:50Z</time>
      </trkpt>
      <trkpt lat="45.00047" lon="5.44167">
        <ele>751.89</ele>
        <time>2014-07-03T08:17:52Z</time>
      </trkpt>
      <trkpt lat="45.00042" lon="5.44167">
        <ele>751.41</ele>
        <time>2014-07-03T08:17:53Z</time>
      </trkpt>
      <trkpt lat="45.00038" lon="5.44167">
        <ele>751.41</ele>
        <time>2014-07-03T08:17:54Z</time>
      </trkpt>
      <trkpt lat="45.00018" lon="5.44172">
        <ele>748.04</ele>
        <time>2014-07-03T08:17:58Z</time>
      </trkpt>
      <trkpt lat="45.00003" lon="5.44177">
        <ele>745.64</ele>
        <time>2014-07-03T08:18:01Z</time>
      </trkpt>
      <trkpt lat="44.99984" lon="5.4419">
        <ele>742.28</ele>
        <time>2014-07-03T08:18:05Z</time>
      </trkpt>
      <trkpt lat="44.99979" lon="5.44193">
        <ele>741.79</ele>
        <time>2014-07-03T08:18:06Z</time>
      </trkpt>
      <trkpt lat="44.99974" lon="5.44195">
        <ele>741.31</ele>
        <time>2014-07-03T08:18:07Z</time>
      </trkpt>
      <trkpt lat="44.9997" lon="5.44195">
        <ele>740.83</ele>
        <time>2014-07-03T08:18:08Z</time>
      </trkpt>
      <trkpt lat="44.99941" lon="5.4419">
        <ele>739.87</ele>
        <time>2014-07-03T08:18:16Z</time>
      </trkpt>
      <trkpt lat="44.9994" lon="5.44192">
        <ele>739.39</ele>
        <time>2014-07-03T08:18:25Z</time>
      </trkpt>
      <trkpt lat="44.99938" lon="5.44191">
        <ele>738.91</ele>
        <time>2014-07-03T08:18:26Z</time>
      </trkpt>
      <trkpt lat="44.99936" lon="5.44192">
        <ele>738.43</ele>
        <time>2014-07-03T08:18:38Z</time>
      </trkpt>
      <trkpt lat="44.99937" lon="5.44193">
        <ele>738.91</ele>
        <time>2014-07-03T08:19:01Z</time>
      </trkpt>
      <trkpt lat="44.99936" lon="5.44191">
        <ele>737.95</ele>
        <time>2014-07-03T08:19:16Z</time>
      </trkpt>
      <trkpt lat="44.99934" lon="5.44191">
        <ele>737.95</ele>
        <time>2014-07-03T08:19:42Z</time>
      </trkpt>
      <trkpt lat="44.99935" lon="5.44189">
        <ele>737.47</ele>
        <time>2014-07-03T08:20:04Z</time>
      </trkpt>
      <trkpt lat="44.99935" lon="5.44188">
        <ele>737.95</ele>
        <time>2014-07-03T08:20:33Z</time>
      </trkpt>
      <trkpt lat="44.99935" lon="5.44188">
        <ele>734.58</ele>
        <time>2014-07-03T08:20:42Z</time>
      </trkpt>
      <trkpt lat="44.99935" lon="5.44188">
        <ele>737.95</ele>
        <time>2014-07-03T08:20:43Z</time>
      </trkpt>
      <trkpt lat="44.99934" lon="5.44189">
        <ele>736.99</ele>
        <time>2014-07-03T08:21:16Z</time>
      </trkpt>
      <trkpt lat="44.99935" lon="5.44189">
        <ele>737.47</ele>
        <time>2014-07-03T08:21:38Z</time>
      </trkpt>
      <trkpt lat="44.99935" lon="5.44189">
        <ele>736.51</ele>
        <time>2014-07-03T08:22:09Z</time>
      </trkpt>
      <trkpt lat="44.99935" lon="5.4419">
        <ele>736.51</ele>
        <time>2014-07-03T08:22:41Z</time>
      </trkpt>
      <trkpt lat="44.99935" lon="5.44189">
        <ele>736.03</ele>
        <time>2014-07-03T08:23:05Z</time>
      </trkpt>
      <trkpt lat="44.99934" lon="5.4419">
        <ele>736.51</ele>
        <time>2014-07-03T08:23:27Z</time>
      </trkpt>
      <trkpt lat="44.99933" lon="5.44191">
        <ele>736.03</ele>
        <time>2014-07-03T08:23:43Z</time>
      </trkpt>
      <trkpt lat="44.99928" lon="5.44191">
        <ele>735.07</ele>
        <time>2014-07-03T08:23:45Z</time>
      </trkpt>
      <trkpt lat="44.99925" lon="5.44191">
        <ele>734.58</ele>
        <time>2014-07-03T08:23:46Z</time>
      </trkpt>
      <trkpt lat="44.99922" lon="5.44192">
        <ele>734.58</ele>
        <time>2014-07-03T08:23:47Z</time>
      </trkpt>
      <trkpt lat="44.99919" lon="5.44191">
        <ele>734.1</ele>
        <time>2014-07-03T08:23:48Z</time>
      </trkpt>
      <trkpt lat="44.99917" lon="5.44191">
        <ele>733.62</ele>
        <time>2014-07-03T08:23:49Z</time>
      </trkpt>
      <trkpt lat="44.99914" lon="5.44192">
        <ele>733.14</ele>
        <time>2014-07-03T08:23:50Z</time>
      </trkpt>
      <trkpt lat="44.99912" lon="5.44193">
        <ele>732.66</ele>
        <time>2014-07-03T08:23:51Z</time>
      </trkpt>
      <trkpt lat="44.99899" lon="5.44202">
        <ele>730.26</ele>
        <time>2014-07-03T08:23:55Z</time>
      </trkpt>
      <trkpt lat="44.99895" lon="5.44208">
        <ele>728.82</ele>
        <time>2014-07-03T08:23:56Z</time>
      </trkpt>
      <trkpt lat="44.99889" lon="5.44219">
        <ele>727.37</ele>
        <time>2014-07-03T08:23:58Z</time>
      </trkpt>
      <trkpt lat="44.99886" lon="5.44221">
        <ele>727.37</ele>
        <time>2014-07-03T08:23:59Z</time>
      </trkpt>
      <trkpt lat="44.99882" lon="5.4422">
        <ele>727.37</ele>
        <time>2014-07-03T08:24:00Z</time>
      </trkpt>
      <trkpt lat="44.9988" lon="5.44215">
        <ele>726.41</ele>
        <time>2014-07-03T08:24:01Z</time>
      </trkpt>
      <trkpt lat="44.99879" lon="5.44208">
        <ele>725.45</ele>
        <time>2014-07-03T08:24:02Z</time>
      </trkpt>
      <trkpt lat="44.9988" lon="5.442">
        <ele>724.97</ele>
        <time>2014-07-03T08:24:03Z</time>
      </trkpt>
      <trkpt lat="44.99882" lon="5.44192">
        <ele>724.01</ele>
        <time>2014-07-03T08:24:04Z</time>
      </trkpt>
      <trkpt lat="44.99889" lon="5.44154">
        <ele>721.13</ele>
        <time>2014-07-03T08:24:08Z</time>
      </trkpt>
      <trkpt lat="44.99893" lon="5.44144">
        <ele>719.68</ele>
        <time>2014-07-03T08:24:09Z</time>
      </trkpt>
      <trkpt lat="44.99903" lon="5.44123">
        <ele>716.8</ele>
        <time>2014-07-03T08:24:11Z</time>
      </trkpt>
      <trkpt lat="44.99911" lon="5.44104">
        <ele>715.84</ele>
        <time>2014-07-03T08:24:13Z</time>
      </trkpt>
      <trkpt lat="44.99913" lon="5.44096">
        <ele>715.84</ele>
        <time>2014-07-03T08:24:14Z</time>
      </trkpt>
      <trkpt lat="44.99914" lon="5.44089">
        <ele>715.36</ele>
        <time>2014-07-03T08:24:15Z</time>
      </trkpt>
      <trkpt lat="44.99915" lon="5.44082">
        <ele>715.36</ele>
        <time>2014-07-03T08:24:16Z</time>
      </trkpt>
      <trkpt lat="44.99915" lon="5.44076">
        <ele>714.88</ele>
        <time>2014-07-03T08:24:17Z</time>
      </trkpt>
      <trkpt lat="44.99913" lon="5.44069">
        <ele>715.36</ele>
        <time>2014-07-03T08:24:18Z</time>
      </trkpt>
      <trkpt lat="44.99912" lon="5.44064">
        <ele>714.4</ele>
        <time>2014-07-03T08:24:19Z</time>
      </trkpt>
      <trkpt lat="44.99911" lon="5.44059">
        <ele>715.36</ele>
        <time>2014-07-03T08:24:20Z</time>
      </trkpt>
      <trkpt lat="44.9991" lon="5.44055">
        <ele>715.36</ele>
        <time>2014-07-03T08:24:21Z</time>
      </trkpt>
      <trkpt lat="44.99909" lon="5.44051">
        <ele>715.36</ele>
        <time>2014-07-03T08:24:22Z</time>
      </trkpt>
      <trkpt lat="44.99908" lon="5.44041">
        <ele>715.36</ele>
        <time>2014-07-03T08:24:32Z</time>
      </trkpt>
      <trkpt lat="44.99907" lon="5.44039">
        <ele>715.36</ele>
        <time>2014-07-03T08:24:38Z</time>
      </trkpt>
      <trkpt lat="44.99905" lon="5.44037">
        <ele>714.88</ele>
        <time>2014-07-03T08:24:39Z</time>
      </trkpt>
      <trkpt lat="44.99903" lon="5.44037">
        <ele>714.88</ele>
        <time>2014-07-03T08:24:40Z</time>
      </trkpt>
      <trkpt lat="44.99886" lon="5.44041">
        <ele>714.88</ele>
        <time>2014-07-03T08:24:49Z</time>
      </trkpt>
      <trkpt lat="44.99885" lon="5.44039">
        <ele>714.88</ele>
        <time>2014-07-03T08:24:50Z</time>
      </trkpt>
      <trkpt lat="44.99885" lon="5.44035">
        <ele>714.88</ele>
        <time>2014-07-03T08:24:51Z</time>
      </trkpt>
      <trkpt lat="44.99886" lon="5.44033">
        <ele>714.88</ele>
        <time>2014-07-03T08:24:52Z</time>
      </trkpt>
      <trkpt lat="44.99887" lon="5.44029">
        <ele>714.4</ele>
        <time>2014-07-03T08:24:53Z</time>
      </trkpt>
      <trkpt lat="44.99888" lon="5.44026">
        <ele>714.88</ele>
        <time>2014-07-03T08:24:54Z</time>
      </trkpt>
      <trkpt lat="44.99889" lon="5.44023">
        <ele>714.88</ele>
        <time>2014-07-03T08:24:55Z</time>
      </trkpt>
      <trkpt lat="44.9989" lon="5.4402">
        <ele>714.88</ele>
        <time>2014-07-03T08:24:56Z</time>
      </trkpt>
      <trkpt lat="44.9989" lon="5.44017">
        <ele>714.88</ele>
        <time>2014-07-03T08:24:57Z</time>
      </trkpt>
      <trkpt lat="44.9989" lon="5.44015">
        <ele>714.4</ele>
        <time>2014-07-03T08:24:58Z</time>
      </trkpt>
      <trkpt lat="44.9989" lon="5.44013">
        <ele>714.4</ele>
        <time>2014-07-03T08:24:59Z</time>
      </trkpt>
      <trkpt lat="44.99893" lon="5.43994">
        <ele>712.95</ele>
        <time>2014-07-03T08:25:07Z</time>
      </trkpt>
      <trkpt lat="44.99894" lon="5.43991">
        <ele>712.95</ele>
        <time>2014-07-03T08:25:08Z</time>
      </trkpt>
      <trkpt lat="44.99895" lon="5.43987">
        <ele>713.44</ele>
        <time>2014-07-03T08:25:09Z</time>
      </trkpt>
      <trkpt lat="44.99896" lon="5.43983">
        <ele>712.95</ele>
        <time>2014-07-03T08:25:10Z</time>
      </trkpt>
      <trkpt lat="44.99895" lon="5.43979">
        <ele>712.95</ele>
        <time>2014-07-03T08:25:11Z</time>
      </trkpt>
      <trkpt lat="44.9989" lon="5.43944">
        <ele>713.44</ele>
        <time>2014-07-03T08:25:18Z</time>
      </trkpt>
      <trkpt lat="44.99886" lon="5.43912">
        <ele>713.44</ele>
        <time>2014-07-03T08:25:27Z</time>
      </trkpt>
      <trkpt lat="44.99888" lon="5.43881">
        <ele>715.36</ele>
        <time>2014-07-03T08:25:34Z</time>
      </trkpt>
      <trkpt lat="44.9989" lon="5.43866">
        <ele>716.32</ele>
        <time>2014-07-03T08:25:40Z</time>
      </trkpt>
      <trkpt lat="44.9989" lon="5.43848">
        <ele>717.28</ele>
        <time>2014-07-03T08:25:47Z</time>
      </trkpt>
      <trkpt lat="44.99891" lon="5.43839">
        <ele>717.76</ele>
        <time>2014-07-03T08:25:52Z</time>
      </trkpt>
      <trkpt lat="44.99892" lon="5.43829">
        <ele>718.24</ele>
        <time>2014-07-03T08:25:56Z</time>
      </trkpt>
      <trkpt lat="44.99893" lon="5.4382">
        <ele>718.72</ele>
        <time>2014-07-03T08:25:59Z</time>
      </trkpt>
      <trkpt lat="44.99893" lon="5.43812">
        <ele>718.72</ele>
        <time>2014-07-03T08:26:01Z</time>
      </trkpt>
      <trkpt lat="44.99901" lon="5.43794">
        <ele>720.16</ele>
        <time>2014-07-03T08:26:13Z</time>
      </trkpt>
      <trkpt lat="44.999" lon="5.43784">
        <ele>720.65</ele>
        <time>2014-07-03T08:26:19Z</time>
      </trkpt>
      <trkpt lat="44.99914" lon="5.43768">
        <ele>723.05</ele>
        <time>2014-07-03T08:26:30Z</time>
      </trkpt>
      <trkpt lat="44.99928" lon="5.43751">
        <ele>722.57</ele>
        <time>2014-07-03T08:26:39Z</time>
      </trkpt>
      <trkpt lat="44.99933" lon="5.43733">
        <ele>723.53</ele>
        <time>2014-07-03T08:26:47Z</time>
      </trkpt>
      <trkpt lat="44.99947" lon="5.43722">
        <ele>724.49</ele>
        <time>2014-07-03T08:26:57Z</time>
      </trkpt>
      <trkpt lat="44.99961" lon="5.43715">
        <ele>726.41</ele>
        <time>2014-07-03T08:27:05Z</time>
      </trkpt>
      <trkpt lat="44.99982" lon="5.43711">
        <ele>727.86</ele>
        <time>2014-07-03T08:27:16Z</time>
      </trkpt>
      <trkpt lat="44.99984" lon="5.4371">
        <ele>728.82</ele>
        <time>2014-07-03T08:27:18Z</time>
      </trkpt>
      <trkpt lat="44.99994" lon="5.437">
        <ele>730.74</ele>
        <time>2014-07-03T08:27:29Z</time>
      </trkpt>
      <trkpt lat="44.99995" lon="5.43696">
        <ele>731.22</ele>
        <time>2014-07-03T08:27:32Z</time>
      </trkpt>
      <trkpt lat="44.99995" lon="5.43688">
        <ele>732.18</ele>
        <time>2014-07-03T08:27:36Z</time>
      </trkpt>
      <trkpt lat="44.99995" lon="5.43684">
        <ele>732.18</ele>
        <time>2014-07-03T08:27:38Z</time>
      </trkpt>
      <trkpt lat="44.99996" lon="5.43671">
        <ele>734.1</ele>
        <time>2014-07-03T08:27:49Z</time>
      </trkpt>
      <trkpt lat="45.00006" lon="5.43662">
        <ele>734.58</ele>
        <time>2014-07-03T08:28:00Z</time>
      </trkpt>
      <trkpt lat="45.00007" lon="5.43646">
        <ele>735.55</ele>
        <time>2014-07-03T08:28:11Z</time>
      </trkpt>
      <trkpt lat="44.99979" lon="5.43619">
        <ele>737.95</ele>
        <time>2014-07-03T08:28:28Z</time>
      </trkpt>
      <trkpt lat="44.99968" lon="5.43614">
        <ele>741.31</ele>
        <time>2014-07-03T08:28:41Z</time>
      </trkpt>
      <trkpt lat="44.99955" lon="5.43603">
        <ele>742.76</ele>
        <time>2014-07-03T08:28:52Z</time>
      </trkpt>
      <trkpt lat="44.99936" lon="5.43585">
        <ele>744.2</ele>
        <time>2014-07-03T08:29:07Z</time>
      </trkpt>
      <trkpt lat="44.99925" lon="5.4357">
        <ele>746.6</ele>
        <time>2014-07-03T08:29:21Z</time>
      </trkpt>
      <trkpt lat="44.99923" lon="5.43566">
        <ele>745.64</ele>
        <time>2014-07-03T08:29:40Z</time>
      </trkpt>
      <trkpt lat="44.99923" lon="5.43566">
        <ele>749.97</ele>
        <time>2014-07-03T08:29:41Z</time>
      </trkpt>
      <trkpt lat="44.99923" lon="5.43566">
        <ele>746.12</ele>
        <time>2014-07-03T08:29:42Z</time>
      </trkpt>
      <trkpt lat="44.99924" lon="5.43566">
        <ele>746.12</ele>
        <time>2014-07-03T08:29:49Z</time>
      </trkpt>
      <trkpt lat="44.99923" lon="5.43565">
        <ele>745.64</ele>
        <time>2014-07-03T08:30:00Z</time>
      </trkpt>
      <trkpt lat="44.99923" lon="5.43564">
        <ele>744.68</ele>
        <time>2014-07-03T08:30:01Z</time>
      </trkpt>
      <trkpt lat="44.99905" lon="5.43554">
        <ele>742.28</ele>
        <time>2014-07-03T08:30:09Z</time>
      </trkpt>
      <trkpt lat="44.99864" lon="5.43529">
        <ele>741.79</ele>
        <time>2014-07-03T08:30:20Z</time>
      </trkpt>
      <trkpt lat="44.99862" lon="5.4353">
        <ele>741.31</ele>
        <time>2014-07-03T08:30:22Z</time>
      </trkpt>
      <trkpt lat="44.99858" lon="5.43532">
        <ele>741.31</ele>
        <time>2014-07-03T08:30:26Z</time>
      </trkpt>
      <trkpt lat="44.99846" lon="5.43531">
        <ele>741.31</ele>
        <time>2014-07-03T08:30:37Z</time>
      </trkpt>
      <trkpt lat="44.99833" lon="5.4353">
        <ele>742.28</ele>
        <time>2014-07-03T08:30:50Z</time>
      </trkpt>
      <trkpt lat="44.99821" lon="5.43526">
        <ele>743.24</ele>
        <time>2014-07-03T08:31:03Z</time>
      </trkpt>
      <trkpt lat="44.99815" lon="5.43527">
        <ele>743.24</ele>
        <time>2014-07-03T08:31:13Z</time>
      </trkpt>
      <trkpt lat="44.99809" lon="5.43532">
        <ele>744.2</ele>
        <time>2014-07-03T08:31:24Z</time>
      </trkpt>
      <trkpt lat="44.99799" lon="5.43543">
        <ele>744.2</ele>
        <time>2014-07-03T08:31:34Z</time>
      </trkpt>
      <trkpt lat="44.99789" lon="5.43552">
        <ele>744.68</ele>
        <time>2014-07-03T08:31:45Z</time>
      </trkpt>
      <trkpt lat="44.99789" lon="5.43553">
        <ele>745.16</ele>
        <time>2014-07-03T08:31:48Z</time>
      </trkpt>
      <trkpt lat="44.99782" lon="5.43559">
        <ele>747.56</ele>
        <time>2014-07-03T08:31:56Z</time>
      </trkpt>
      <trkpt lat="44.9978" lon="5.43562">
        <ele>747.56</ele>
        <time>2014-07-03T08:32:04Z</time>
      </trkpt>
      <trkpt lat="44.99766" lon="5.43571">
        <ele>747.56</ele>
        <time>2014-07-03T08:32:15Z</time>
      </trkpt>
      <trkpt lat="44.99742" lon="5.43578">
        <ele>746.6</ele>
        <time>2014-07-03T08:32:26Z</time>
      </trkpt>
      <trkpt lat="44.99728" lon="5.4358">
        <ele>748.04</ele>
        <time>2014-07-03T08:32:30Z</time>
      </trkpt>
      <trkpt lat="44.99705" lon="5.4359">
        <ele>749</ele>
        <time>2014-07-03T08:32:44Z</time>
      </trkpt>
      <trkpt lat="44.99699" lon="5.43591">
        <ele>749</ele>
        <time>2014-07-03T08:32:50Z</time>
      </trkpt>
      <trkpt lat="44.99685" lon="5.43592">
        <ele>750.45</ele>
        <time>2014-07-03T08:33:00Z</time>
      </trkpt>
      <trkpt lat="44.9967" lon="5.43599">
        <ele>750.93</ele>
        <time>2014-07-03T08:33:10Z</time>
      </trkpt>
      <trkpt lat="44.99643" lon="5.43607">
        <ele>751.89</ele>
        <time>2014-07-03T08:33:22Z</time>
      </trkpt>
      <trkpt lat="44.99622" lon="5.43604">
        <ele>753.33</ele>
        <time>2014-07-03T08:33:33Z</time>
      </trkpt>
      <trkpt lat="44.99618" lon="5.43603">
        <ele>753.33</ele>
        <time>2014-07-03T08:33:36Z</time>
      </trkpt>
      <trkpt lat="44.99615" lon="5.43603">
        <ele>753.81</ele>
        <time>2014-07-03T08:33:38Z</time>
      </trkpt>
      <trkpt lat="44.99607" lon="5.43604">
        <ele>753.81</ele>
        <time>2014-07-03T08:33:44Z</time>
      </trkpt>
      <trkpt lat="44.99601" lon="5.43607">
        <ele>754.29</ele>
        <time>2014-07-03T08:33:49Z</time>
      </trkpt>
      <trkpt lat="44.99594" lon="5.43611">
        <ele>754.77</ele>
        <time>2014-07-03T08:33:54Z</time>
      </trkpt>
      <trkpt lat="44.99585" lon="5.4361">
        <ele>755.73</ele>
        <time>2014-07-03T08:34:01Z</time>
      </trkpt>
      <trkpt lat="44.99574" lon="5.43612">
        <ele>757.66</ele>
        <time>2014-07-03T08:34:12Z</time>
      </trkpt>
      <trkpt lat="44.99556" lon="5.43621">
        <ele>758.62</ele>
        <time>2014-07-03T08:34:23Z</time>
      </trkpt>
      <trkpt lat="44.99553" lon="5.43614">
        <ele>759.58</ele>
        <time>2014-07-03T08:34:33Z</time>
      </trkpt>
      <trkpt lat="44.99545" lon="5.43606">
        <ele>760.06</ele>
        <time>2014-07-03T08:34:39Z</time>
      </trkpt>
      <trkpt lat="44.99537" lon="5.43601">
        <ele>760.54</ele>
        <time>2014-07-03T08:34:45Z</time>
      </trkpt>
      <trkpt lat="44.99531" lon="5.43599">
        <ele>761.02</ele>
        <time>2014-07-03T08:34:50Z</time>
      </trkpt>
      <trkpt lat="44.99513" lon="5.43597">
        <ele>762.46</ele>
        <time>2014-07-03T08:35:04Z</time>
      </trkpt>
      <trkpt lat="44.99507" lon="5.43597">
        <ele>761.98</ele>
        <time>2014-07-03T08:35:09Z</time>
      </trkpt>
      <trkpt lat="44.995" lon="5.43595">
        <ele>762.94</ele>
        <time>2014-07-03T08:35:14Z</time>
      </trkpt>
      <trkpt lat="44.99486" lon="5.43593">
        <ele>762.94</ele>
        <time>2014-07-03T08:35:25Z</time>
      </trkpt>
      <trkpt lat="44.9948" lon="5.43592">
        <ele>763.9</ele>
        <time>2014-07-03T08:35:29Z</time>
      </trkpt>
      <trkpt lat="44.99467" lon="5.43589">
        <ele>764.39</ele>
        <time>2014-07-03T08:35:40Z</time>
      </trkpt>
      <trkpt lat="44.99462" lon="5.43587">
        <ele>764.87</ele>
        <time>2014-07-03T08:35:44Z</time>
      </trkpt>
      <trkpt lat="44.99454" lon="5.4358">
        <ele>765.35</ele>
        <time>2014-07-03T08:35:55Z</time>
      </trkpt>
      <trkpt lat="44.99449" lon="5.43572">
        <ele>766.31</ele>
        <time>2014-07-03T08:36:07Z</time>
      </trkpt>
      <trkpt lat="44.99438" lon="5.43558">
        <ele>766.79</ele>
        <time>2014-07-03T08:36:18Z</time>
      </trkpt>
      <trkpt lat="44.99435" lon="5.43552">
        <ele>767.27</ele>
        <time>2014-07-03T08:36:29Z</time>
      </trkpt>
      <trkpt lat="44.99431" lon="5.43549">
        <ele>767.27</ele>
        <time>2014-07-03T08:36:32Z</time>
      </trkpt>
      <trkpt lat="44.99411" lon="5.43539">
        <ele>768.71</ele>
        <time>2014-07-03T08:36:44Z</time>
      </trkpt>
      <trkpt lat="44.99399" lon="5.43534">
        <ele>769.67</ele>
        <time>2014-07-03T08:36:54Z</time>
      </trkpt>
      <trkpt lat="44.99391" lon="5.43531">
        <ele>771.11</ele>
        <time>2014-07-03T08:37:03Z</time>
      </trkpt>
      <trkpt lat="44.99385" lon="5.43525">
        <ele>764.87</ele>
        <time>2014-07-03T08:37:13Z</time>
      </trkpt>
      <trkpt lat="44.99385" lon="5.43525">
        <ele>772.08</ele>
        <time>2014-07-03T08:37:14Z</time>
      </trkpt>
      <trkpt lat="44.99379" lon="5.43521">
        <ele>772.08</ele>
        <time>2014-07-03T08:37:22Z</time>
      </trkpt>
      <trkpt lat="44.99364" lon="5.43513">
        <ele>773.52</ele>
        <time>2014-07-03T08:37:35Z</time>
      </trkpt>
      <trkpt lat="44.99359" lon="5.43511">
        <ele>774</ele>
        <time>2014-07-03T08:37:41Z</time>
      </trkpt>
      <trkpt lat="44.99343" lon="5.43508">
        <ele>775.44</ele>
        <time>2014-07-03T08:37:53Z</time>
      </trkpt>
      <trkpt lat="44.99331" lon="5.43504">
        <ele>777.36</ele>
        <time>2014-07-03T08:38:05Z</time>
      </trkpt>
      <trkpt lat="44.99315" lon="5.435">
        <ele>779.29</ele>
        <time>2014-07-03T08:38:15Z</time>
      </trkpt>
      <trkpt lat="44.99304" lon="5.43509">
        <ele>780.73</ele>
        <time>2014-07-03T08:38:24Z</time>
      </trkpt>
      <trkpt lat="44.99301" lon="5.43509">
        <ele>781.69</ele>
        <time>2014-07-03T08:38:28Z</time>
      </trkpt>
      <trkpt lat="44.99291" lon="5.43507">
        <ele>784.09</ele>
        <time>2014-07-03T08:38:39Z</time>
      </trkpt>
      <trkpt lat="44.9928" lon="5.435">
        <ele>786.5</ele>
        <time>2014-07-03T08:38:52Z</time>
      </trkpt>
      <trkpt lat="44.99271" lon="5.43498">
        <ele>787.94</ele>
        <time>2014-07-03T08:39:02Z</time>
      </trkpt>
      <trkpt lat="44.99267" lon="5.43497">
        <ele>789.38</ele>
        <time>2014-07-03T08:39:17Z</time>
      </trkpt>
      <trkpt lat="44.99259" lon="5.43494">
        <ele>792.26</ele>
        <time>2014-07-03T08:39:33Z</time>
      </trkpt>
      <trkpt lat="44.99252" lon="5.4349">
        <ele>793.22</ele>
        <time>2014-07-03T08:39:44Z</time>
      </trkpt>
      <trkpt lat="44.9924" lon="5.43482">
        <ele>795.15</ele>
        <time>2014-07-03T08:39:58Z</time>
      </trkpt>
      <trkpt lat="44.99222" lon="5.43472">
        <ele>797.07</ele>
        <time>2014-07-03T08:40:12Z</time>
      </trkpt>
      <trkpt lat="44.99217" lon="5.43471">
        <ele>798.51</ele>
        <time>2014-07-03T08:40:28Z</time>
      </trkpt>
      <trkpt lat="44.99213" lon="5.43469">
        <ele>800.44</ele>
        <time>2014-07-03T08:40:41Z</time>
      </trkpt>
      <trkpt lat="44.99208" lon="5.43469">
        <ele>803.8</ele>
        <time>2014-07-03T08:40:59Z</time>
      </trkpt>
      <trkpt lat="44.992" lon="5.43469">
        <ele>804.28</ele>
        <time>2014-07-03T08:41:14Z</time>
      </trkpt>
      <trkpt lat="44.99193" lon="5.43473">
        <ele>805.24</ele>
        <time>2014-07-03T08:41:31Z</time>
      </trkpt>
      <trkpt lat="44.99191" lon="5.43474">
        <ele>805.72</ele>
        <time>2014-07-03T08:41:51Z</time>
      </trkpt>
      <trkpt lat="44.9919" lon="5.43476">
        <ele>806.68</ele>
        <time>2014-07-03T08:42:02Z</time>
      </trkpt>
      <trkpt lat="44.99187" lon="5.43477">
        <ele>807.16</ele>
        <time>2014-07-03T08:42:16Z</time>
      </trkpt>
      <trkpt lat="44.99181" lon="5.43476">
        <ele>808.61</ele>
        <time>2014-07-03T08:42:32Z</time>
      </trkpt>
      <trkpt lat="44.9916" lon="5.43459">
        <ele>809.57</ele>
        <time>2014-07-03T08:42:48Z</time>
      </trkpt>
      <trkpt lat="44.99158" lon="5.43459">
        <ele>809.57</ele>
        <time>2014-07-03T08:42:49Z</time>
      </trkpt>
      <trkpt lat="44.99137" lon="5.43454">
        <ele>812.45</ele>
        <time>2014-07-03T08:43:04Z</time>
      </trkpt>
      <trkpt lat="44.99122" lon="5.43454">
        <ele>815.82</ele>
        <time>2014-07-03T08:43:17Z</time>
      </trkpt>
      <trkpt lat="44.99116" lon="5.43454">
        <ele>816.78</ele>
        <time>2014-07-03T08:43:22Z</time>
      </trkpt>
      <trkpt lat="44.99089" lon="5.43454">
        <ele>819.66</ele>
        <time>2014-07-03T08:43:38Z</time>
      </trkpt>
      <trkpt lat="44.99073" lon="5.43455">
        <ele>823.03</ele>
        <time>2014-07-03T08:43:50Z</time>
      </trkpt>
      <trkpt lat="44.99068" lon="5.43458">
        <ele>824.95</ele>
        <time>2014-07-03T08:44:01Z</time>
      </trkpt>
      <trkpt lat="44.99058" lon="5.43464">
        <ele>825.43</ele>
        <time>2014-07-03T08:44:12Z</time>
      </trkpt>
      <trkpt lat="44.99055" lon="5.43464">
        <ele>825.43</ele>
        <time>2014-07-03T08:44:33Z</time>
      </trkpt>
      <trkpt lat="44.99055" lon="5.43464">
        <ele>825.91</ele>
        <time>2014-07-03T08:44:58Z</time>
      </trkpt>
      <trkpt lat="44.99049" lon="5.43465">
        <ele>826.87</ele>
        <time>2014-07-03T08:45:10Z</time>
      </trkpt>
      <trkpt lat="44.99042" lon="5.4347">
        <ele>828.79</ele>
        <time>2014-07-03T08:45:25Z</time>
      </trkpt>
      <trkpt lat="44.99042" lon="5.43469">
        <ele>827.83</ele>
        <time>2014-07-03T08:45:30Z</time>
      </trkpt>
      <trkpt lat="44.99039" lon="5.43471">
        <ele>827.83</ele>
        <time>2014-07-03T08:45:41Z</time>
      </trkpt>
      <trkpt lat="44.9904" lon="5.43481">
        <ele>828.31</ele>
        <time>2014-07-03T08:45:52Z</time>
      </trkpt>
      <trkpt lat="44.99024" lon="5.43478">
        <ele>829.27</ele>
        <time>2014-07-03T08:46:02Z</time>
      </trkpt>
      <trkpt lat="44.99014" lon="5.43476">
        <ele>829.27</ele>
        <time>2014-07-03T08:46:09Z</time>
      </trkpt>
      <trkpt lat="44.98998" lon="5.4348">
        <ele>830.24</ele>
        <time>2014-07-03T08:46:19Z</time>
      </trkpt>
      <trkpt lat="44.98981" lon="5.43471">
        <ele>831.68</ele>
        <time>2014-07-03T08:46:31Z</time>
      </trkpt>
      <trkpt lat="44.98975" lon="5.43471">
        <ele>832.16</ele>
        <time>2014-07-03T08:46:36Z</time>
      </trkpt>
      <trkpt lat="44.9897" lon="5.43468">
        <ele>832.16</ele>
        <time>2014-07-03T08:46:40Z</time>
      </trkpt>
      <trkpt lat="44.98967" lon="5.43465">
        <ele>833.12</ele>
        <time>2014-07-03T08:46:42Z</time>
      </trkpt>
      <trkpt lat="44.98949" lon="5.43452">
        <ele>834.56</ele>
        <time>2014-07-03T08:46:56Z</time>
      </trkpt>
      <trkpt lat="44.98945" lon="5.43452">
        <ele>835.04</ele>
        <time>2014-07-03T08:47:00Z</time>
      </trkpt>
      <trkpt lat="44.9893" lon="5.43452">
        <ele>836</ele>
        <time>2014-07-03T08:47:12Z</time>
      </trkpt>
      <trkpt lat="44.98914" lon="5.43454">
        <ele>837.45</ele>
        <time>2014-07-03T08:47:23Z</time>
      </trkpt>
      <trkpt lat="44.989" lon="5.43453">
        <ele>838.89</ele>
        <time>2014-07-03T08:47:35Z</time>
      </trkpt>
      <trkpt lat="44.9888" lon="5.4345">
        <ele>840.33</ele>
        <time>2014-07-03T08:47:48Z</time>
      </trkpt>
      <trkpt lat="44.98876" lon="5.43449">
        <ele>840.81</ele>
        <time>2014-07-03T08:47:53Z</time>
      </trkpt>
      <trkpt lat="44.98859" lon="5.43449">
        <ele>841.77</ele>
        <time>2014-07-03T08:48:04Z</time>
      </trkpt>
      <trkpt lat="44.98855" lon="5.43448">
        <ele>841.77</ele>
        <time>2014-07-03T08:48:09Z</time>
      </trkpt>
      <trkpt lat="44.98851" lon="5.43445">
        <ele>842.25</ele>
        <time>2014-07-03T08:48:12Z</time>
      </trkpt>
      <trkpt lat="44.98837" lon="5.43444">
        <ele>842.73</ele>
        <time>2014-07-03T08:48:23Z</time>
      </trkpt>
      <trkpt lat="44.98816" lon="5.43441">
        <ele>844.18</ele>
        <time>2014-07-03T08:48:36Z</time>
      </trkpt>
      <trkpt lat="44.98804" lon="5.43441">
        <ele>845.62</ele>
        <time>2014-07-03T08:48:47Z</time>
      </trkpt>
      <trkpt lat="44.98786" lon="5.43433">
        <ele>847.06</ele>
        <time>2014-07-03T08:48:58Z</time>
      </trkpt>
      <trkpt lat="44.98775" lon="5.4343">
        <ele>848.02</ele>
        <time>2014-07-03T08:49:09Z</time>
      </trkpt>
      <trkpt lat="44.98764" lon="5.43428">
        <ele>848.98</ele>
        <time>2014-07-03T08:49:23Z</time>
      </trkpt>
      <trkpt lat="44.9876" lon="5.43425">
        <ele>848.5</ele>
        <time>2014-07-03T08:49:41Z</time>
      </trkpt>
      <trkpt lat="44.98755" lon="5.43423">
        <ele>848.98</ele>
        <time>2014-07-03T08:50:18Z</time>
      </trkpt>
      <trkpt lat="44.98756" lon="5.43423">
        <ele>849.46</ele>
        <time>2014-07-03T08:50:48Z</time>
      </trkpt>
      <trkpt lat="44.98754" lon="5.43421">
        <ele>849.46</ele>
        <time>2014-07-03T08:51:21Z</time>
      </trkpt>
      <trkpt lat="44.98752" lon="5.43419">
        <ele>849.46</ele>
        <time>2014-07-03T08:51:57Z</time>
      </trkpt>
      <trkpt lat="44.98751" lon="5.43419">
        <ele>849.46</ele>
        <time>2014-07-03T08:52:30Z</time>
      </trkpt>
      <trkpt lat="44.98752" lon="5.4342">
        <ele>849.46</ele>
        <time>2014-07-03T08:53:04Z</time>
      </trkpt>
      <trkpt lat="44.98749" lon="5.43421">
        <ele>849.46</ele>
        <time>2014-07-03T08:53:41Z</time>
      </trkpt>
      <trkpt lat="44.98749" lon="5.43421">
        <ele>849.46</ele>
        <time>2014-07-03T08:54:16Z</time>
      </trkpt>
      <trkpt lat="44.98748" lon="5.4342">
        <ele>849.94</ele>
        <time>2014-07-03T08:54:49Z</time>
      </trkpt>
      <trkpt lat="44.98748" lon="5.4342">
        <ele>849.46</ele>
        <time>2014-07-03T08:55:28Z</time>
      </trkpt>
      <trkpt lat="44.98746" lon="5.43419">
        <ele>849.46</ele>
        <time>2014-07-03T08:56:00Z</time>
      </trkpt>
      <trkpt lat="44.98746" lon="5.43415">
        <ele>849.94</ele>
        <time>2014-07-03T08:56:41Z</time>
      </trkpt>
      <trkpt lat="44.98746" lon="5.43415">
        <ele>850.42</ele>
        <time>2014-07-03T08:57:09Z</time>
      </trkpt>
      <trkpt lat="44.98745" lon="5.43413">
        <ele>849.94</ele>
        <time>2014-07-03T08:57:42Z</time>
      </trkpt>
      <trkpt lat="44.98745" lon="5.43413">
        <ele>849.94</ele>
        <time>2014-07-03T08:58:16Z</time>
      </trkpt>
      <trkpt lat="44.98746" lon="5.43412">
        <ele>849.94</ele>
        <time>2014-07-03T08:58:49Z</time>
      </trkpt>
      <trkpt lat="44.98745" lon="5.43411">
        <ele>849.46</ele>
        <time>2014-07-03T08:59:19Z</time>
      </trkpt>
      <trkpt lat="44.98744" lon="5.43411">
        <ele>850.42</ele>
        <time>2014-07-03T08:59:54Z</time>
      </trkpt>
      <trkpt lat="44.98744" lon="5.4341">
        <ele>850.42</ele>
        <time>2014-07-03T09:00:17Z</time>
      </trkpt>
      <trkpt lat="44.98744" lon="5.43408">
        <ele>850.42</ele>
        <time>2014-07-03T09:00:36Z</time>
      </trkpt>
      <trkpt lat="44.98742" lon="5.43408">
        <ele>850.9</ele>
        <time>2014-07-03T09:00:55Z</time>
      </trkpt>
      <trkpt lat="44.98741" lon="5.43407">
        <ele>850.9</ele>
        <time>2014-07-03T09:01:02Z</time>
      </trkpt>
      <trkpt lat="44.98727" lon="5.43406">
        <ele>851.87</ele>
        <time>2014-07-03T09:01:16Z</time>
      </trkpt>
      <trkpt lat="44.9872" lon="5.43404">
        <ele>852.83</ele>
        <time>2014-07-03T09:01:26Z</time>
      </trkpt>
      <trkpt lat="44.98708" lon="5.43409">
        <ele>854.27</ele>
        <time>2014-07-03T09:01:38Z</time>
      </trkpt>
      <trkpt lat="44.98693" lon="5.43412">
        <ele>855.23</ele>
        <time>2014-07-03T09:01:50Z</time>
      </trkpt>
      <trkpt lat="44.98676" lon="5.43412">
        <ele>856.19</ele>
        <time>2014-07-03T09:02:03Z</time>
      </trkpt>
      <trkpt lat="44.98664" lon="5.43413">
        <ele>857.15</ele>
        <time>2014-07-03T09:02:15Z</time>
      </trkpt>
      <trkpt lat="44.98651" lon="5.43406">
        <ele>858.59</ele>
        <time>2014-07-03T09:02:25Z</time>
      </trkpt>
      <trkpt lat="44.98635" lon="5.434">
        <ele>860.52</ele>
        <time>2014-07-03T09:02:38Z</time>
      </trkpt>
      <trkpt lat="44.9863" lon="5.43396">
        <ele>861</ele>
        <time>2014-07-03T09:02:54Z</time>
      </trkpt>
      <trkpt lat="44.98625" lon="5.43394">
        <ele>861</ele>
        <time>2014-07-03T09:03:22Z</time>
      </trkpt>
      <trkpt lat="44.98622" lon="5.43394">
        <ele>861.96</ele>
        <time>2014-07-03T09:03:34Z</time>
      </trkpt>
      <trkpt lat="44.98615" lon="5.43395">
        <ele>862.92</ele>
        <time>2014-07-03T09:03:47Z</time>
      </trkpt>
      <trkpt lat="44.98612" lon="5.43395">
        <ele>863.88</ele>
        <time>2014-07-03T09:03:51Z</time>
      </trkpt>
      <trkpt lat="44.98609" lon="5.43397">
        <ele>863.88</ele>
        <time>2014-07-03T09:03:56Z</time>
      </trkpt>
      <trkpt lat="44.98605" lon="5.43399">
        <ele>864.84</ele>
        <time>2014-07-03T09:04:00Z</time>
      </trkpt>
      <trkpt lat="44.98593" lon="5.434">
        <ele>867.25</ele>
        <time>2014-07-03T09:04:10Z</time>
      </trkpt>
      <trkpt lat="44.98587" lon="5.43399">
        <ele>868.21</ele>
        <time>2014-07-03T09:04:15Z</time>
      </trkpt>
      <trkpt lat="44.98571" lon="5.43398">
        <ele>870.13</ele>
        <time>2014-07-03T09:04:25Z</time>
      </trkpt>
      <trkpt lat="44.98555" lon="5.43391">
        <ele>871.57</ele>
        <time>2014-07-03T09:04:38Z</time>
      </trkpt>
      <trkpt lat="44.98548" lon="5.4339">
        <ele>873.01</ele>
        <time>2014-07-03T09:04:48Z</time>
      </trkpt>
      <trkpt lat="44.9854" lon="5.43392">
        <ele>873.5</ele>
        <time>2014-07-03T09:04:58Z</time>
      </trkpt>
      <trkpt lat="44.98524" lon="5.43394">
        <ele>875.42</ele>
        <time>2014-07-03T09:05:11Z</time>
      </trkpt>
      <trkpt lat="44.98518" lon="5.43391">
        <ele>874.94</ele>
        <time>2014-07-03T09:05:27Z</time>
      </trkpt>
      <trkpt lat="44.98509" lon="5.4339">
        <ele>875.42</ele>
        <time>2014-07-03T09:05:36Z</time>
      </trkpt>
      <trkpt lat="44.98506" lon="5.43389">
        <ele>874.46</ele>
        <time>2014-07-03T09:05:38Z</time>
      </trkpt>
      <trkpt lat="44.98497" lon="5.43386">
        <ele>874.46</ele>
        <time>2014-07-03T09:05:42Z</time>
      </trkpt>
      <trkpt lat="44.98484" lon="5.4338">
        <ele>873.98</ele>
        <time>2014-07-03T09:05:47Z</time>
      </trkpt>
      <trkpt lat="44.9848" lon="5.43379">
        <ele>874.46</ele>
        <time>2014-07-03T09:05:49Z</time>
      </trkpt>
      <trkpt lat="44.98473" lon="5.43376">
        <ele>871.57</ele>
        <time>2014-07-03T09:05:53Z</time>
      </trkpt>
      <trkpt lat="44.98469" lon="5.43381">
        <ele>874.46</ele>
        <time>2014-07-03T09:05:59Z</time>
      </trkpt>
      <trkpt lat="44.98462" lon="5.43385">
        <ele>874.46</ele>
        <time>2014-07-03T09:06:03Z</time>
      </trkpt>
      <trkpt lat="44.98421" lon="5.43379">
        <ele>873.01</ele>
        <time>2014-07-03T09:06:13Z</time>
      </trkpt>
      <trkpt lat="44.98387" lon="5.43374">
        <ele>873.01</ele>
        <time>2014-07-03T09:06:23Z</time>
      </trkpt>
      <trkpt lat="44.98355" lon="5.43379">
        <ele>873.98</ele>
        <time>2014-07-03T09:06:33Z</time>
      </trkpt>
      <trkpt lat="44.98339" lon="5.4337">
        <ele>873.5</ele>
        <time>2014-07-03T09:06:41Z</time>
      </trkpt>
      <trkpt lat="44.98317" lon="5.43371">
        <ele>874.46</ele>
        <time>2014-07-03T09:06:48Z</time>
      </trkpt>
      <trkpt lat="44.98304" lon="5.43372">
        <ele>874.46</ele>
        <time>2014-07-03T09:06:52Z</time>
      </trkpt>
      <trkpt lat="44.98295" lon="5.43374">
        <ele>873.98</ele>
        <time>2014-07-03T09:06:56Z</time>
      </trkpt>
      <trkpt lat="44.98287" lon="5.43373">
        <ele>873.5</ele>
        <time>2014-07-03T09:07:00Z</time>
      </trkpt>
      <trkpt lat="44.98257" lon="5.4337">
        <ele>872.05</ele>
        <time>2014-07-03T09:07:11Z</time>
      </trkpt>
      <trkpt lat="44.98247" lon="5.43369">
        <ele>871.09</ele>
        <time>2014-07-03T09:07:14Z</time>
      </trkpt>
      <trkpt lat="44.98194" lon="5.4337">
        <ele>870.13</ele>
        <time>2014-07-03T09:07:23Z</time>
      </trkpt>
      <trkpt lat="44.98142" lon="5.43349">
        <ele>872.05</ele>
        <time>2014-07-03T09:07:36Z</time>
      </trkpt>
      <trkpt lat="44.98124" lon="5.43338">
        <ele>872.05</ele>
        <time>2014-07-03T09:07:41Z</time>
      </trkpt>
      <trkpt lat="44.98103" lon="5.43334">
        <ele>874.46</ele>
        <time>2014-07-03T09:07:54Z</time>
      </trkpt>
      <trkpt lat="44.98102" lon="5.43335">
        <ele>874.46</ele>
        <time>2014-07-03T09:07:55Z</time>
      </trkpt>
      <trkpt lat="44.98082" lon="5.43331">
        <ele>876.38</ele>
        <time>2014-07-03T09:08:09Z</time>
      </trkpt>
      <trkpt lat="44.98071" lon="5.43318">
        <ele>878.3</ele>
        <time>2014-07-03T09:08:21Z</time>
      </trkpt>
      <trkpt lat="44.98066" lon="5.4331">
        <ele>878.78</ele>
        <time>2014-07-03T09:08:32Z</time>
      </trkpt>
      <trkpt lat="44.98052" lon="5.43301">
        <ele>880.71</ele>
        <time>2014-07-03T09:08:43Z</time>
      </trkpt>
      <trkpt lat="44.9804" lon="5.43301">
        <ele>881.19</ele>
        <time>2014-07-03T09:08:58Z</time>
      </trkpt>
      <trkpt lat="44.98039" lon="5.43301">
        <ele>881.67</ele>
        <time>2014-07-03T09:09:01Z</time>
      </trkpt>
      <trkpt lat="44.98022" lon="5.43301">
        <ele>881.67</ele>
        <time>2014-07-03T09:09:14Z</time>
      </trkpt>
      <trkpt lat="44.9801" lon="5.433">
        <ele>882.15</ele>
        <time>2014-07-03T09:09:24Z</time>
      </trkpt>
      <trkpt lat="44.98008" lon="5.433">
        <ele>882.15</ele>
        <time>2014-07-03T09:09:25Z</time>
      </trkpt>
      <trkpt lat="44.98002" lon="5.43299">
        <ele>882.63</ele>
        <time>2014-07-03T09:09:29Z</time>
      </trkpt>
      <trkpt lat="44.97998" lon="5.433">
        <ele>883.11</ele>
        <time>2014-07-03T09:09:32Z</time>
      </trkpt>
      <trkpt lat="44.97994" lon="5.43293">
        <ele>884.07</ele>
        <time>2014-07-03T09:09:38Z</time>
      </trkpt>
      <trkpt lat="44.9799" lon="5.43291">
        <ele>884.07</ele>
        <time>2014-07-03T09:09:39Z</time>
      </trkpt>
      <trkpt lat="44.97985" lon="5.43291">
        <ele>884.07</ele>
        <time>2014-07-03T09:09:41Z</time>
      </trkpt>
      <trkpt lat="44.97972" lon="5.43287">
        <ele>884.55</ele>
        <time>2014-07-03T09:09:48Z</time>
      </trkpt>
      <trkpt lat="44.97956" lon="5.43286">
        <ele>885.99</ele>
        <time>2014-07-03T09:09:57Z</time>
      </trkpt>
      <trkpt lat="44.97946" lon="5.43281">
        <ele>886.47</ele>
        <time>2014-07-03T09:10:03Z</time>
      </trkpt>
      <trkpt lat="44.97927" lon="5.43275">
        <ele>886.95</ele>
        <time>2014-07-03T09:10:14Z</time>
      </trkpt>
      <trkpt lat="44.97922" lon="5.43277">
        <ele>887.43</ele>
        <time>2014-07-03T09:10:17Z</time>
      </trkpt>
      <trkpt lat="44.979" lon="5.43266">
        <ele>888.4</ele>
        <time>2014-07-03T09:10:29Z</time>
      </trkpt>
      <trkpt lat="44.97885" lon="5.43262">
        <ele>888.4</ele>
        <time>2014-07-03T09:10:38Z</time>
      </trkpt>
      <trkpt lat="44.97883" lon="5.43261">
        <ele>888.4</ele>
        <time>2014-07-03T09:10:39Z</time>
      </trkpt>
      <trkpt lat="44.97861" lon="5.43255">
        <ele>889.84</ele>
        <time>2014-07-03T09:10:50Z</time>
      </trkpt>
      <trkpt lat="44.97854" lon="5.4325">
        <ele>890.32</ele>
        <time>2014-07-03T09:10:54Z</time>
      </trkpt>
      <trkpt lat="44.97842" lon="5.43246">
        <ele>891.28</ele>
        <time>2014-07-03T09:11:01Z</time>
      </trkpt>
      <trkpt lat="44.97826" lon="5.43248">
        <ele>891.28</ele>
        <time>2014-07-03T09:11:08Z</time>
      </trkpt>
      <trkpt lat="44.97816" lon="5.43247">
        <ele>891.28</ele>
        <time>2014-07-03T09:11:13Z</time>
      </trkpt>
      <trkpt lat="44.9779" lon="5.43243">
        <ele>891.76</ele>
        <time>2014-07-03T09:11:24Z</time>
      </trkpt>
      <trkpt lat="44.97784" lon="5.43242">
        <ele>891.76</ele>
        <time>2014-07-03T09:11:27Z</time>
      </trkpt>
      <trkpt lat="44.97763" lon="5.43239">
        <ele>892.72</ele>
        <time>2014-07-03T09:11:38Z</time>
      </trkpt>
      <trkpt lat="44.97755" lon="5.43237">
        <ele>893.2</ele>
        <time>2014-07-03T09:11:43Z</time>
      </trkpt>
      <trkpt lat="44.97736" lon="5.43228">
        <ele>895.12</ele>
        <time>2014-07-03T09:11:55Z</time>
      </trkpt>
      <trkpt lat="44.97733" lon="5.43227">
        <ele>895.61</ele>
        <time>2014-07-03T09:11:57Z</time>
      </trkpt>
      <trkpt lat="44.97728" lon="5.4322">
        <ele>895.61</ele>
        <time>2014-07-03T09:12:01Z</time>
      </trkpt>
      <trkpt lat="44.97714" lon="5.43209">
        <ele>898.01</ele>
        <time>2014-07-03T09:12:13Z</time>
      </trkpt>
      <trkpt lat="44.97701" lon="5.43197">
        <ele>900.41</ele>
        <time>2014-07-03T09:12:25Z</time>
      </trkpt>
      <trkpt lat="44.97699" lon="5.43196">
        <ele>900.41</ele>
        <time>2014-07-03T09:12:26Z</time>
      </trkpt>
      <trkpt lat="44.97682" lon="5.43188">
        <ele>902.33</ele>
        <time>2014-07-03T09:12:40Z</time>
      </trkpt>
      <trkpt lat="44.97673" lon="5.43183">
        <ele>903.3</ele>
        <time>2014-07-03T09:12:48Z</time>
      </trkpt>
      <trkpt lat="44.97658" lon="5.43178">
        <ele>904.74</ele>
        <time>2014-07-03T09:13:01Z</time>
      </trkpt>
      <trkpt lat="44.97642" lon="5.43174">
        <ele>905.22</ele>
        <time>2014-07-03T09:13:12Z</time>
      </trkpt>
      <trkpt lat="44.97626" lon="5.43171">
        <ele>907.14</ele>
        <time>2014-07-03T09:13:25Z</time>
      </trkpt>
      <trkpt lat="44.97609" lon="5.43161">
        <ele>909.06</ele>
        <time>2014-07-03T09:13:38Z</time>
      </trkpt>
      <trkpt lat="44.97606" lon="5.4316">
        <ele>909.06</ele>
        <time>2014-07-03T09:13:40Z</time>
      </trkpt>
      <trkpt lat="44.976" lon="5.43158">
        <ele>910.03</ele>
        <time>2014-07-03T09:13:44Z</time>
      </trkpt>
      <trkpt lat="44.97583" lon="5.43149">
        <ele>910.03</ele>
        <time>2014-07-03T09:13:57Z</time>
      </trkpt>
      <trkpt lat="44.97573" lon="5.43144">
        <ele>910.51</ele>
        <time>2014-07-03T09:14:04Z</time>
      </trkpt>
      <trkpt lat="44.97556" lon="5.4314">
        <ele>909.06</ele>
        <time>2014-07-03T09:14:17Z</time>
      </trkpt>
      <trkpt lat="44.97552" lon="5.4314">
        <ele>909.54</ele>
        <time>2014-07-03T09:14:46Z</time>
      </trkpt>
      <trkpt lat="44.97549" lon="5.43137">
        <ele>909.54</ele>
        <time>2014-07-03T09:15:22Z</time>
      </trkpt>
      <trkpt lat="44.97546" lon="5.43135">
        <ele>910.03</ele>
        <time>2014-07-03T09:15:55Z</time>
      </trkpt>
      <trkpt lat="44.97546" lon="5.43135">
        <ele>909.54</ele>
        <time>2014-07-03T09:15:58Z</time>
      </trkpt>
      <trkpt lat="44.97535" lon="5.43132">
        <ele>909.54</ele>
        <time>2014-07-03T09:16:04Z</time>
      </trkpt>
      <trkpt lat="44.97493" lon="5.43098">
        <ele>908.58</ele>
        <time>2014-07-03T09:16:17Z</time>
      </trkpt>
      <trkpt lat="44.97448" lon="5.43071">
        <ele>909.06</ele>
        <time>2014-07-03T09:16:30Z</time>
      </trkpt>
      <trkpt lat="44.97408" lon="5.43041">
        <ele>909.54</ele>
        <time>2014-07-03T09:16:44Z</time>
      </trkpt>
      <trkpt lat="44.97396" lon="5.43032">
        <ele>910.03</ele>
        <time>2014-07-03T09:16:48Z</time>
      </trkpt>
      <trkpt lat="44.97393" lon="5.43029">
        <ele>910.03</ele>
        <time>2014-07-03T09:16:49Z</time>
      </trkpt>
      <trkpt lat="44.97391" lon="5.43028">
        <ele>910.51</ele>
        <time>2014-07-03T09:16:50Z</time>
      </trkpt>
      <trkpt lat="44.97388" lon="5.43027">
        <ele>910.03</ele>
        <time>2014-07-03T09:16:51Z</time>
      </trkpt>
      <trkpt lat="44.97386" lon="5.43026">
        <ele>910.03</ele>
        <time>2014-07-03T09:16:52Z</time>
      </trkpt>
      <trkpt lat="44.97383" lon="5.43025">
        <ele>910.51</ele>
        <time>2014-07-03T09:16:53Z</time>
      </trkpt>
      <trkpt lat="44.97364" lon="5.43022">
        <ele>911.95</ele>
        <time>2014-07-03T09:17:05Z</time>
      </trkpt>
      <trkpt lat="44.97359" lon="5.43023">
        <ele>911.95</ele>
        <time>2014-07-03T09:17:09Z</time>
      </trkpt>
      <trkpt lat="44.97345" lon="5.4302">
        <ele>911.47</ele>
        <time>2014-07-03T09:17:19Z</time>
      </trkpt>
      <trkpt lat="44.97343" lon="5.4302">
        <ele>911.95</ele>
        <time>2014-07-03T09:17:20Z</time>
      </trkpt>
      <trkpt lat="44.97339" lon="5.43021">
        <ele>911.95</ele>
        <time>2014-07-03T09:17:35Z</time>
      </trkpt>
      <trkpt lat="44.97334" lon="5.43021">
        <ele>911.95</ele>
        <time>2014-07-03T09:18:01Z</time>
      </trkpt>
      <trkpt lat="44.97333" lon="5.43021">
        <ele>911.95</ele>
        <time>2014-07-03T09:18:02Z</time>
      </trkpt>
      <trkpt lat="44.97314" lon="5.43014">
        <ele>912.91</ele>
        <time>2014-07-03T09:18:11Z</time>
      </trkpt>
      <trkpt lat="44.97292" lon="5.43">
        <ele>913.39</ele>
        <time>2014-07-03T09:18:22Z</time>
      </trkpt>
      <trkpt lat="44.9729" lon="5.42997">
        <ele>913.39</ele>
        <time>2014-07-03T09:18:23Z</time>
      </trkpt>
      <trkpt lat="44.97287" lon="5.42996">
        <ele>913.39</ele>
        <time>2014-07-03T09:18:24Z</time>
      </trkpt>
      <trkpt lat="44.97281" lon="5.42993">
        <ele>914.83</ele>
        <time>2014-07-03T09:18:26Z</time>
      </trkpt>
      <trkpt lat="44.97253" lon="5.42979">
        <ele>915.31</ele>
        <time>2014-07-03T09:18:38Z</time>
      </trkpt>
      <trkpt lat="44.97219" lon="5.42973">
        <ele>914.35</ele>
        <time>2014-07-03T09:18:49Z</time>
      </trkpt>
      <trkpt lat="44.97168" lon="5.42952">
        <ele>912.91</ele>
        <time>2014-07-03T09:19:04Z</time>
      </trkpt>
      <trkpt lat="44.97112" lon="5.42916">
        <ele>911.47</ele>
        <time>2014-07-03T09:19:19Z</time>
      </trkpt>
      <trkpt lat="44.97104" lon="5.42913">
        <ele>911.47</ele>
        <time>2014-07-03T09:19:21Z</time>
      </trkpt>
      <trkpt lat="44.97082" lon="5.42906">
        <ele>910.51</ele>
        <time>2014-07-03T09:19:26Z</time>
      </trkpt>
      <trkpt lat="44.97045" lon="5.42895">
        <ele>909.54</ele>
        <time>2014-07-03T09:19:34Z</time>
      </trkpt>
      <trkpt lat="44.96984" lon="5.42897">
        <ele>908.1</ele>
        <time>2014-07-03T09:19:47Z</time>
      </trkpt>
      <trkpt lat="44.96927" lon="5.42902">
        <ele>905.7</ele>
        <time>2014-07-03T09:20:00Z</time>
      </trkpt>
      <trkpt lat="44.96892" lon="5.42896">
        <ele>904.74</ele>
        <time>2014-07-03T09:20:13Z</time>
      </trkpt>
      <trkpt lat="44.96865" lon="5.42878">
        <ele>903.3</ele>
        <time>2014-07-03T09:20:20Z</time>
      </trkpt>
      <trkpt lat="44.9686" lon="5.42873">
        <ele>902.82</ele>
        <time>2014-07-03T09:20:21Z</time>
      </trkpt>
      <trkpt lat="44.96856" lon="5.42868">
        <ele>902.33</ele>
        <time>2014-07-03T09:20:22Z</time>
      </trkpt>
      <trkpt lat="44.96852" lon="5.42861">
        <ele>902.33</ele>
        <time>2014-07-03T09:20:23Z</time>
      </trkpt>
      <trkpt lat="44.96848" lon="5.42854">
        <ele>901.85</ele>
        <time>2014-07-03T09:20:24Z</time>
      </trkpt>
      <trkpt lat="44.96821" lon="5.42791">
        <ele>898.49</ele>
        <time>2014-07-03T09:20:31Z</time>
      </trkpt>
      <trkpt lat="44.96805" lon="5.42765">
        <ele>898.49</ele>
        <time>2014-07-03T09:20:34Z</time>
      </trkpt>
      <trkpt lat="44.96785" lon="5.42743">
        <ele>897.53</ele>
        <time>2014-07-03T09:20:37Z</time>
      </trkpt>
      <trkpt lat="44.96711" lon="5.42697">
        <ele>896.09</ele>
        <time>2014-07-03T09:20:47Z</time>
      </trkpt>
      <trkpt lat="44.96699" lon="5.42685">
        <ele>896.09</ele>
        <time>2014-07-03T09:20:49Z</time>
      </trkpt>
      <trkpt lat="44.96694" lon="5.42678">
        <ele>896.57</ele>
        <time>2014-07-03T09:20:50Z</time>
      </trkpt>
      <trkpt lat="44.96647" lon="5.42596">
        <ele>897.53</ele>
        <time>2014-07-03T09:21:03Z</time>
      </trkpt>
      <trkpt lat="44.9662" lon="5.42569">
        <ele>898.01</ele>
        <time>2014-07-03T09:21:09Z</time>
      </trkpt>
      <trkpt lat="44.96616" lon="5.42564">
        <ele>897.53</ele>
        <time>2014-07-03T09:21:10Z</time>
      </trkpt>
      <trkpt lat="44.96596" lon="5.42533">
        <ele>898.97</ele>
        <time>2014-07-03T09:21:16Z</time>
      </trkpt>
      <trkpt lat="44.96565" lon="5.42468">
        <ele>901.85</ele>
        <time>2014-07-03T09:21:31Z</time>
      </trkpt>
      <trkpt lat="44.96555" lon="5.42434">
        <ele>903.3</ele>
        <time>2014-07-03T09:21:43Z</time>
      </trkpt>
      <trkpt lat="44.96549" lon="5.42409">
        <ele>905.22</ele>
        <time>2014-07-03T09:21:52Z</time>
      </trkpt>
      <trkpt lat="44.96541" lon="5.42379">
        <ele>906.66</ele>
        <time>2014-07-03T09:22:06Z</time>
      </trkpt>
      <trkpt lat="44.96524" lon="5.42356">
        <ele>908.1</ele>
        <time>2014-07-03T09:22:20Z</time>
      </trkpt>
      <trkpt lat="44.96499" lon="5.42332">
        <ele>909.54</ele>
        <time>2014-07-03T09:22:38Z</time>
      </trkpt>
      <trkpt lat="44.9648" lon="5.42314">
        <ele>911.95</ele>
        <time>2014-07-03T09:22:53Z</time>
      </trkpt>
      <trkpt lat="44.96458" lon="5.42291">
        <ele>913.87</ele>
        <time>2014-07-03T09:23:10Z</time>
      </trkpt>
      <trkpt lat="44.96457" lon="5.42289">
        <ele>913.87</ele>
        <time>2014-07-03T09:23:11Z</time>
      </trkpt>
      <trkpt lat="44.96455" lon="5.42288">
        <ele>914.35</ele>
        <time>2014-07-03T09:23:12Z</time>
      </trkpt>
      <trkpt lat="44.96454" lon="5.42286">
        <ele>913.87</ele>
        <time>2014-07-03T09:23:13Z</time>
      </trkpt>
      <trkpt lat="44.96433" lon="5.42255">
        <ele>916.75</ele>
        <time>2014-07-03T09:23:31Z</time>
      </trkpt>
      <trkpt lat="44.96444" lon="5.42229">
        <ele>918.68</ele>
        <time>2014-07-03T09:23:45Z</time>
      </trkpt>
      <trkpt lat="44.96445" lon="5.42228">
        <ele>918.68</ele>
        <time>2014-07-03T09:23:46Z</time>
      </trkpt>
      <trkpt lat="44.96447" lon="5.42227">
        <ele>918.68</ele>
        <time>2014-07-03T09:23:47Z</time>
      </trkpt>
      <trkpt lat="44.96452" lon="5.42226">
        <ele>919.16</ele>
        <time>2014-07-03T09:23:50Z</time>
      </trkpt>
      <trkpt lat="44.96475" lon="5.42229">
        <ele>920.6</ele>
        <time>2014-07-03T09:24:05Z</time>
      </trkpt>
      <trkpt lat="44.9649" lon="5.42229">
        <ele>922.04</ele>
        <time>2014-07-03T09:24:15Z</time>
      </trkpt>
      <trkpt lat="44.96512" lon="5.42225">
        <ele>923</ele>
        <time>2014-07-03T09:24:29Z</time>
      </trkpt>
      <trkpt lat="44.9652" lon="5.42219">
        <ele>923.96</ele>
        <time>2014-07-03T09:24:33Z</time>
      </trkpt>
      <trkpt lat="44.96537" lon="5.42183">
        <ele>926.37</ele>
        <time>2014-07-03T09:24:50Z</time>
      </trkpt>
      <trkpt lat="44.96541" lon="5.42136">
        <ele>926.37</ele>
        <time>2014-07-03T09:25:03Z</time>
      </trkpt>
      <trkpt lat="44.96545" lon="5.42114">
        <ele>925.41</ele>
        <time>2014-07-03T09:25:07Z</time>
      </trkpt>
      <trkpt lat="44.96555" lon="5.42089">
        <ele>924.93</ele>
        <time>2014-07-03T09:25:12Z</time>
      </trkpt>
      <trkpt lat="44.96557" lon="5.42084">
        <ele>924.93</ele>
        <time>2014-07-03T09:25:13Z</time>
      </trkpt>
      <trkpt lat="44.96572" lon="5.42052">
        <ele>923.96</ele>
        <time>2014-07-03T09:25:19Z</time>
      </trkpt>
      <trkpt lat="44.96581" lon="5.4203">
        <ele>922.52</ele>
        <time>2014-07-03T09:25:22Z</time>
      </trkpt>
      <trkpt lat="44.96588" lon="5.42013">
        <ele>921.08</ele>
        <time>2014-07-03T09:25:24Z</time>
      </trkpt>
      <trkpt lat="44.96607" lon="5.41964">
        <ele>917.72</ele>
        <time>2014-07-03T09:25:29Z</time>
      </trkpt>
      <trkpt lat="44.96622" lon="5.41934">
        <ele>915.79</ele>
        <time>2014-07-03T09:25:32Z</time>
      </trkpt>
      <trkpt lat="44.96638" lon="5.41909">
        <ele>913.87</ele>
        <time>2014-07-03T09:25:36Z</time>
      </trkpt>
      <trkpt lat="44.9665" lon="5.41891">
        <ele>912.43</ele>
        <time>2014-07-03T09:25:40Z</time>
      </trkpt>
      <trkpt lat="44.96653" lon="5.41884">
        <ele>911.95</ele>
        <time>2014-07-03T09:25:41Z</time>
      </trkpt>
      <trkpt lat="44.96656" lon="5.41877">
        <ele>911.47</ele>
        <time>2014-07-03T09:25:42Z</time>
      </trkpt>
      <trkpt lat="44.9667" lon="5.41839">
        <ele>910.99</ele>
        <time>2014-07-03T09:25:48Z</time>
      </trkpt>
      <trkpt lat="44.96673" lon="5.41834">
        <ele>910.51</ele>
        <time>2014-07-03T09:25:49Z</time>
      </trkpt>
      <trkpt lat="44.96675" lon="5.41832">
        <ele>910.99</ele>
        <time>2014-07-03T09:25:50Z</time>
      </trkpt>
      <trkpt lat="44.96676" lon="5.41829">
        <ele>910.99</ele>
        <time>2014-07-03T09:25:59Z</time>
      </trkpt>
      <trkpt lat="44.96676" lon="5.41828">
        <ele>910.99</ele>
        <time>2014-07-03T09:26:03Z</time>
      </trkpt>
      <trkpt lat="44.96676" lon="5.41826">
        <ele>911.47</ele>
        <time>2014-07-03T09:26:04Z</time>
      </trkpt>
      <trkpt lat="44.96677" lon="5.41824">
        <ele>910.51</ele>
        <time>2014-07-03T09:26:05Z</time>
      </trkpt>
      <trkpt lat="44.96678" lon="5.41821">
        <ele>910.99</ele>
        <time>2014-07-03T09:26:06Z</time>
      </trkpt>
      <trkpt lat="44.96678" lon="5.41819">
        <ele>910.99</ele>
        <time>2014-07-03T09:26:07Z</time>
      </trkpt>
      <trkpt lat="44.96679" lon="5.41817">
        <ele>910.99</ele>
        <time>2014-07-03T09:26:08Z</time>
      </trkpt>
      <trkpt lat="44.96679" lon="5.41815">
        <ele>910.51</ele>
        <time>2014-07-03T09:26:09Z</time>
      </trkpt>
      <trkpt lat="44.96688" lon="5.41776">
        <ele>910.99</ele>
        <time>2014-07-03T09:26:20Z</time>
      </trkpt>
      <trkpt lat="44.96706" lon="5.41717">
        <ele>909.06</ele>
        <time>2014-07-03T09:26:34Z</time>
      </trkpt>
      <trkpt lat="44.96711" lon="5.41693">
        <ele>908.1</ele>
        <time>2014-07-03T09:26:40Z</time>
      </trkpt>
      <trkpt lat="44.96709" lon="5.4169">
        <ele>908.1</ele>
        <time>2014-07-03T09:26:41Z</time>
      </trkpt>
      <trkpt lat="44.96708" lon="5.41683">
        <ele>908.1</ele>
        <time>2014-07-03T09:26:45Z</time>
      </trkpt>
      <trkpt lat="44.96707" lon="5.41672">
        <ele>908.1</ele>
        <time>2014-07-03T09:26:57Z</time>
      </trkpt>
      <trkpt lat="44.96708" lon="5.4167">
        <ele>908.1</ele>
        <time>2014-07-03T09:27:18Z</time>
      </trkpt>
      <trkpt lat="44.96708" lon="5.41669">
        <ele>907.62</ele>
        <time>2014-07-03T09:27:40Z</time>
      </trkpt>
      <trkpt lat="44.96709" lon="5.41667">
        <ele>907.62</ele>
        <time>2014-07-03T09:27:55Z</time>
      </trkpt>
      <trkpt lat="44.9671" lon="5.41663">
        <ele>907.62</ele>
        <time>2014-07-03T09:28:13Z</time>
      </trkpt>
      <trkpt lat="44.96712" lon="5.41661">
        <ele>906.66</ele>
        <time>2014-07-03T09:28:24Z</time>
      </trkpt>
      <trkpt lat="44.96712" lon="5.41659">
        <ele>906.66</ele>
        <time>2014-07-03T09:28:53Z</time>
      </trkpt>
      <trkpt lat="44.96712" lon="5.41659">
        <ele>906.66</ele>
        <time>2014-07-03T09:29:17Z</time>
      </trkpt>
      <trkpt lat="44.96713" lon="5.41659">
        <ele>906.18</ele>
        <time>2014-07-03T09:29:52Z</time>
      </trkpt>
      <trkpt lat="44.96713" lon="5.41659">
        <ele>906.18</ele>
        <time>2014-07-03T09:30:20Z</time>
      </trkpt>
      <trkpt lat="44.96713" lon="5.4166">
        <ele>906.18</ele>
        <time>2014-07-03T09:30:42Z</time>
      </trkpt>
      <trkpt lat="44.96715" lon="5.41656">
        <ele>906.18</ele>
        <time>2014-07-03T09:30:51Z</time>
      </trkpt>
      <trkpt lat="44.96716" lon="5.41654">
        <ele>906.18</ele>
        <time>2014-07-03T09:30:52Z</time>
      </trkpt>
      <trkpt lat="44.96717" lon="5.41652">
        <ele>906.18</ele>
        <time>2014-07-03T09:30:53Z</time>
      </trkpt>
      <trkpt lat="44.96718" lon="5.41651">
        <ele>905.7</ele>
        <time>2014-07-03T09:30:54Z</time>
      </trkpt>
      <trkpt lat="44.9672" lon="5.41648">
        <ele>905.7</ele>
        <time>2014-07-03T09:30:55Z</time>
      </trkpt>
      <trkpt lat="44.96722" lon="5.41646">
        <ele>906.18</ele>
        <time>2014-07-03T09:30:56Z</time>
      </trkpt>
      <trkpt lat="44.96723" lon="5.41643">
        <ele>906.18</ele>
        <time>2014-07-03T09:30:57Z</time>
      </trkpt>
      <trkpt lat="44.96724" lon="5.4164">
        <ele>905.7</ele>
        <time>2014-07-03T09:30:58Z</time>
      </trkpt>
      <trkpt lat="44.96731" lon="5.41628">
        <ele>905.7</ele>
        <time>2014-07-03T09:31:03Z</time>
      </trkpt>
      <trkpt lat="44.96733" lon="5.41626">
        <ele>905.22</ele>
        <time>2014-07-03T09:31:04Z</time>
      </trkpt>
      <trkpt lat="44.96734" lon="5.41624">
        <ele>905.7</ele>
        <time>2014-07-03T09:31:05Z</time>
      </trkpt>
      <trkpt lat="44.96735" lon="5.41622">
        <ele>905.7</ele>
        <time>2014-07-03T09:31:06Z</time>
      </trkpt>
      <trkpt lat="44.96736" lon="5.4162">
        <ele>905.7</ele>
        <time>2014-07-03T09:31:07Z</time>
      </trkpt>
      <trkpt lat="44.96736" lon="5.41614">
        <ele>905.22</ele>
        <time>2014-07-03T09:31:19Z</time>
      </trkpt>
      <trkpt lat="44.96736" lon="5.41613">
        <ele>905.22</ele>
        <time>2014-07-03T09:31:30Z</time>
      </trkpt>
      <trkpt lat="44.96736" lon="5.41611">
        <ele>905.22</ele>
        <time>2014-07-03T09:31:31Z</time>
      </trkpt>
      <trkpt lat="44.96736" lon="5.41609">
        <ele>905.7</ele>
        <time>2014-07-03T09:31:32Z</time>
      </trkpt>
      <trkpt lat="44.96736" lon="5.41606">
        <ele>905.22</ele>
        <time>2014-07-03T09:31:33Z</time>
      </trkpt>
      <trkpt lat="44.96736" lon="5.41604">
        <ele>905.22</ele>
        <time>2014-07-03T09:31:34Z</time>
      </trkpt>
      <trkpt lat="44.96737" lon="5.41602">
        <ele>905.7</ele>
        <time>2014-07-03T09:31:35Z</time>
      </trkpt>
      <trkpt lat="44.96738" lon="5.41599">
        <ele>905.7</ele>
        <time>2014-07-03T09:31:36Z</time>
      </trkpt>
      <trkpt lat="44.96739" lon="5.41597">
        <ele>905.7</ele>
        <time>2014-07-03T09:31:37Z</time>
      </trkpt>
      <trkpt lat="44.96739" lon="5.41593">
        <ele>905.7</ele>
        <time>2014-07-03T09:31:38Z</time>
      </trkpt>
      <trkpt lat="44.96739" lon="5.4159">
        <ele>905.7</ele>
        <time>2014-07-03T09:31:39Z</time>
      </trkpt>
      <trkpt lat="44.9674" lon="5.41587">
        <ele>905.22</ele>
        <time>2014-07-03T09:31:40Z</time>
      </trkpt>
      <trkpt lat="44.9674" lon="5.41583">
        <ele>905.22</ele>
        <time>2014-07-03T09:31:41Z</time>
      </trkpt>
      <trkpt lat="44.96741" lon="5.4158">
        <ele>905.7</ele>
        <time>2014-07-03T09:31:42Z</time>
      </trkpt>
      <trkpt lat="44.96755" lon="5.41539">
        <ele>905.22</ele>
        <time>2014-07-03T09:31:57Z</time>
      </trkpt>
      <trkpt lat="44.96756" lon="5.41534">
        <ele>904.74</ele>
        <time>2014-07-03T09:31:59Z</time>
      </trkpt>
      <trkpt lat="44.96755" lon="5.41531">
        <ele>905.22</ele>
        <time>2014-07-03T09:32:00Z</time>
      </trkpt>
      <trkpt lat="44.96754" lon="5.41529">
        <ele>905.22</ele>
        <time>2014-07-03T09:32:01Z</time>
      </trkpt>
      <trkpt lat="44.96753" lon="5.41528">
        <ele>905.22</ele>
        <time>2014-07-03T09:32:02Z</time>
      </trkpt>
      <trkpt lat="44.96751" lon="5.41527">
        <ele>905.22</ele>
        <time>2014-07-03T09:32:03Z</time>
      </trkpt>
      <trkpt lat="44.96749" lon="5.41527">
        <ele>905.22</ele>
        <time>2014-07-03T09:32:04Z</time>
      </trkpt>
      <trkpt lat="44.96748" lon="5.41527">
        <ele>905.22</ele>
        <time>2014-07-03T09:32:05Z</time>
      </trkpt>
      <trkpt lat="44.96747" lon="5.41528">
        <ele>905.22</ele>
        <time>2014-07-03T09:32:06Z</time>
      </trkpt>
      <trkpt lat="44.96746" lon="5.41529">
        <ele>905.22</ele>
        <time>2014-07-03T09:32:07Z</time>
      </trkpt>
      <trkpt lat="44.96745" lon="5.41531">
        <ele>905.22</ele>
        <time>2014-07-03T09:32:08Z</time>
      </trkpt>
      <trkpt lat="44.96744" lon="5.41533">
        <ele>905.22</ele>
        <time>2014-07-03T09:32:20Z</time>
      </trkpt>
      <trkpt lat="44.96742" lon="5.41534">
        <ele>905.22</ele>
        <time>2014-07-03T09:32:56Z</time>
      </trkpt>
      <trkpt lat="44.96742" lon="5.41534">
        <ele>904.74</ele>
        <time>2014-07-03T09:33:31Z</time>
      </trkpt>
      <trkpt lat="44.96743" lon="5.41534">
        <ele>904.26</ele>
        <time>2014-07-03T09:34:06Z</time>
      </trkpt>
      <trkpt lat="44.96744" lon="5.41534">
        <ele>903.78</ele>
        <time>2014-07-03T09:34:40Z</time>
      </trkpt>
      <trkpt lat="44.96744" lon="5.41534">
        <ele>903.78</ele>
        <time>2014-07-03T09:35:17Z</time>
      </trkpt>
      <trkpt lat="44.96745" lon="5.41533">
        <ele>903.78</ele>
        <time>2014-07-03T09:35:52Z</time>
      </trkpt>
      <trkpt lat="44.96744" lon="5.41531">
        <ele>903.3</ele>
        <time>2014-07-03T09:36:28Z</time>
      </trkpt>
      <trkpt lat="44.96744" lon="5.41531">
        <ele>903.3</ele>
        <time>2014-07-03T09:36:57Z</time>
      </trkpt>
      <trkpt lat="44.96745" lon="5.41532">
        <ele>903.3</ele>
        <time>2014-07-03T09:37:30Z</time>
      </trkpt>
      <trkpt lat="44.96745" lon="5.41533">
        <ele>902.82</ele>
        <time>2014-07-03T09:38:08Z</time>
      </trkpt>
      <trkpt lat="44.96745" lon="5.41533">
        <ele>902.33</ele>
        <time>2014-07-03T09:38:42Z</time>
      </trkpt>
      <trkpt lat="44.96745" lon="5.41533">
        <ele>902.33</ele>
        <time>2014-07-03T09:39:07Z</time>
      </trkpt>
      <trkpt lat="44.96744" lon="5.41532">
        <ele>902.33</ele>
        <time>2014-07-03T09:39:39Z</time>
      </trkpt>
      <trkpt lat="44.96745" lon="5.41533">
        <ele>901.85</ele>
        <time>2014-07-03T09:40:19Z</time>
      </trkpt>
      <trkpt lat="44.96745" lon="5.41531">
        <ele>902.33</ele>
        <time>2014-07-03T09:40:56Z</time>
      </trkpt>
      <trkpt lat="44.96746" lon="5.41533">
        <ele>901.85</ele>
        <time>2014-07-03T09:41:34Z</time>
      </trkpt>
      <trkpt lat="44.96746" lon="5.41532">
        <ele>901.37</ele>
        <time>2014-07-03T09:42:20Z</time>
      </trkpt>
      <trkpt lat="44.96746" lon="5.41532">
        <ele>901.37</ele>
        <time>2014-07-03T09:42:58Z</time>
      </trkpt>
      <trkpt lat="44.96746" lon="5.41531">
        <ele>900.89</ele>
        <time>2014-07-03T09:43:35Z</time>
      </trkpt>
      <trkpt lat="44.96745" lon="5.4153">
        <ele>901.37</ele>
        <time>2014-07-03T09:44:16Z</time>
      </trkpt>
      <trkpt lat="44.96745" lon="5.41531">
        <ele>901.37</ele>
        <time>2014-07-03T09:44:58Z</time>
      </trkpt>
      <trkpt lat="44.96747" lon="5.41529">
        <ele>900.89</ele>
        <time>2014-07-03T09:45:42Z</time>
      </trkpt>
      <trkpt lat="44.96746" lon="5.4153">
        <ele>900.41</ele>
        <time>2014-07-03T09:46:22Z</time>
      </trkpt>
      <trkpt lat="44.96745" lon="5.41531">
        <ele>900.89</ele>
        <time>2014-07-03T09:47:05Z</time>
      </trkpt>
      <trkpt lat="44.96745" lon="5.41531">
        <ele>900.41</ele>
        <time>2014-07-03T09:47:42Z</time>
      </trkpt>
      <trkpt lat="44.96744" lon="5.41533">
        <ele>900.41</ele>
        <time>2014-07-03T09:48:18Z</time>
      </trkpt>
      <trkpt lat="44.96744" lon="5.41534">
        <ele>900.41</ele>
        <time>2014-07-03T09:48:52Z</time>
      </trkpt>
      <trkpt lat="44.96745" lon="5.41534">
        <ele>899.93</ele>
        <time>2014-07-03T09:49:30Z</time>
      </trkpt>
      <trkpt lat="44.96746" lon="5.41532">
        <ele>899.93</ele>
        <time>2014-07-03T09:50:10Z</time>
      </trkpt>
      <trkpt lat="44.96746" lon="5.41532">
        <ele>899.45</ele>
        <time>2014-07-03T09:50:46Z</time>
      </trkpt>
      <trkpt lat="44.96747" lon="5.41529">
        <ele>899.45</ele>
        <time>2014-07-03T09:51:20Z</time>
      </trkpt>
      <trkpt lat="44.96747" lon="5.4153">
        <ele>898.97</ele>
        <time>2014-07-03T09:51:53Z</time>
      </trkpt>
      <trkpt lat="44.96746" lon="5.41529">
        <ele>899.45</ele>
        <time>2014-07-03T09:52:27Z</time>
      </trkpt>
      <trkpt lat="44.96746" lon="5.41529">
        <ele>898.97</ele>
        <time>2014-07-03T09:53:03Z</time>
      </trkpt>
      <trkpt lat="44.96747" lon="5.41527">
        <ele>898.49</ele>
        <time>2014-07-03T09:53:38Z</time>
      </trkpt>
      <trkpt lat="44.96746" lon="5.41529">
        <ele>898.01</ele>
        <time>2014-07-03T09:54:08Z</time>
      </trkpt>
      <trkpt lat="44.96745" lon="5.41529">
        <ele>898.49</ele>
        <time>2014-07-03T09:54:44Z</time>
      </trkpt>
      <trkpt lat="44.96745" lon="5.4153">
        <ele>898.49</ele>
        <time>2014-07-03T09:55:21Z</time>
      </trkpt>
      <trkpt lat="44.96744" lon="5.4153">
        <ele>898.97</ele>
        <time>2014-07-03T09:56:01Z</time>
      </trkpt>
      <trkpt lat="44.96745" lon="5.41531">
        <ele>898.97</ele>
        <time>2014-07-03T09:56:44Z</time>
      </trkpt>
      <trkpt lat="44.96745" lon="5.41532">
        <ele>898.49</ele>
        <time>2014-07-03T09:57:24Z</time>
      </trkpt>
      <trkpt lat="44.96747" lon="5.41531">
        <ele>898.01</ele>
        <time>2014-07-03T09:58:06Z</time>
      </trkpt>
      <trkpt lat="44.96747" lon="5.4153">
        <ele>898.49</ele>
        <time>2014-07-03T09:58:44Z</time>
      </trkpt>
      <trkpt lat="44.96747" lon="5.41531">
        <ele>898.49</ele>
        <time>2014-07-03T09:59:26Z</time>
      </trkpt>
      <trkpt lat="44.96747" lon="5.41533">
        <ele>898.49</ele>
        <time>2014-07-03T10:00:10Z</time>
      </trkpt>
      <trkpt lat="44.96747" lon="5.41534">
        <ele>898.01</ele>
        <time>2014-07-03T10:00:44Z</time>
      </trkpt>
      <trkpt lat="44.96748" lon="5.41534">
        <ele>898.97</ele>
        <time>2014-07-03T10:01:23Z</time>
      </trkpt>
      <trkpt lat="44.96748" lon="5.41533">
        <ele>898.49</ele>
        <time>2014-07-03T10:01:57Z</time>
      </trkpt>
      <trkpt lat="44.96748" lon="5.41533">
        <ele>898.49</ele>
        <time>2014-07-03T10:02:27Z</time>
      </trkpt>
      <trkpt lat="44.96747" lon="5.41533">
        <ele>898.97</ele>
        <time>2014-07-03T10:02:53Z</time>
      </trkpt>
      <trkpt lat="44.96747" lon="5.41535">
        <ele>898.01</ele>
        <time>2014-07-03T10:03:31Z</time>
      </trkpt>
      <trkpt lat="44.96746" lon="5.41535">
        <ele>898.49</ele>
        <time>2014-07-03T10:04:05Z</time>
      </trkpt>
      <trkpt lat="44.96747" lon="5.41534">
        <ele>898.49</ele>
        <time>2014-07-03T10:04:40Z</time>
      </trkpt>
      <trkpt lat="44.96747" lon="5.41533">
        <ele>898.01</ele>
        <time>2014-07-03T10:05:14Z</time>
      </trkpt>
      <trkpt lat="44.96746" lon="5.41532">
        <ele>898.01</ele>
        <time>2014-07-03T10:05:55Z</time>
      </trkpt>
      <trkpt lat="44.96745" lon="5.41535">
        <ele>898.01</ele>
        <time>2014-07-03T10:06:24Z</time>
      </trkpt>
      <trkpt lat="44.96745" lon="5.41537">
        <ele>898.01</ele>
        <time>2014-07-03T10:06:57Z</time>
      </trkpt>
      <trkpt lat="44.96746" lon="5.41537">
        <ele>898.49</ele>
        <time>2014-07-03T10:07:25Z</time>
      </trkpt>
      <trkpt lat="44.96746" lon="5.41536">
        <ele>898.49</ele>
        <time>2014-07-03T10:08:02Z</time>
      </trkpt>
      <trkpt lat="44.96745" lon="5.41535">
        <ele>898.01</ele>
        <time>2014-07-03T10:08:36Z</time>
      </trkpt>
      <trkpt lat="44.96745" lon="5.41534">
        <ele>898.01</ele>
        <time>2014-07-03T10:09:10Z</time>
      </trkpt>
      <trkpt lat="44.96744" lon="5.41532">
        <ele>897.53</ele>
        <time>2014-07-03T10:09:41Z</time>
      </trkpt>
      <trkpt lat="44.96744" lon="5.41532">
        <ele>898.01</ele>
        <time>2014-07-03T10:10:14Z</time>
      </trkpt>
      <trkpt lat="44.96744" lon="5.41532">
        <ele>898.01</ele>
        <time>2014-07-03T10:10:47Z</time>
      </trkpt>
      <trkpt lat="44.96744" lon="5.41531">
        <ele>898.01</ele>
        <time>2014-07-03T10:11:16Z</time>
      </trkpt>
      <trkpt lat="44.96746" lon="5.41531">
        <ele>898.01</ele>
        <time>2014-07-03T10:11:53Z</time>
      </trkpt>
      <trkpt lat="44.96746" lon="5.41531">
        <ele>898.49</ele>
        <time>2014-07-03T10:12:26Z</time>
      </trkpt>
      <trkpt lat="44.96745" lon="5.41532">
        <ele>898.01</ele>
        <time>2014-07-03T10:13:04Z</time>
      </trkpt>
      <trkpt lat="44.96744" lon="5.41533">
        <ele>898.01</ele>
        <time>2014-07-03T10:13:42Z</time>
      </trkpt>
      <trkpt lat="44.96744" lon="5.41534">
        <ele>898.49</ele>
        <time>2014-07-03T10:13:56Z</time>
      </trkpt>
      <trkpt lat="44.96744" lon="5.41534">
        <ele>898.01</ele>
        <time>2014-07-03T10:14:15Z</time>
      </trkpt>
      <trkpt lat="44.96747" lon="5.4153">
        <ele>898.01</ele>
        <time>2014-07-03T10:14:19Z</time>
      </trkpt>
      <trkpt lat="44.96748" lon="5.41529">
        <ele>898.01</ele>
        <time>2014-07-03T10:14:20Z</time>
      </trkpt>
      <trkpt lat="44.96749" lon="5.41528">
        <ele>898.01</ele>
        <time>2014-07-03T10:14:21Z</time>
      </trkpt>
      <trkpt lat="44.96751" lon="5.41528">
        <ele>898.49</ele>
        <time>2014-07-03T10:14:22Z</time>
      </trkpt>
      <trkpt lat="44.96752" lon="5.41529">
        <ele>898.49</ele>
        <time>2014-07-03T10:14:23Z</time>
      </trkpt>
      <trkpt lat="44.96753" lon="5.4153">
        <ele>898.01</ele>
        <time>2014-07-03T10:14:24Z</time>
      </trkpt>
      <trkpt lat="44.96755" lon="5.4153">
        <ele>898.49</ele>
        <time>2014-07-03T10:14:25Z</time>
      </trkpt>
      <trkpt lat="44.96756" lon="5.41529">
        <ele>898.49</ele>
        <time>2014-07-03T10:14:26Z</time>
      </trkpt>
      <trkpt lat="44.96758" lon="5.41527">
        <ele>898.49</ele>
        <time>2014-07-03T10:14:27Z</time>
      </trkpt>
      <trkpt lat="44.96759" lon="5.41524">
        <ele>898.49</ele>
        <time>2014-07-03T10:14:28Z</time>
      </trkpt>
      <trkpt lat="44.96766" lon="5.4151">
        <ele>898.49</ele>
        <time>2014-07-03T10:14:35Z</time>
      </trkpt>
      <trkpt lat="44.96766" lon="5.41508">
        <ele>898.01</ele>
        <time>2014-07-03T10:14:36Z</time>
      </trkpt>
      <trkpt lat="44.96767" lon="5.41506">
        <ele>898.01</ele>
        <time>2014-07-03T10:14:37Z</time>
      </trkpt>
      <trkpt lat="44.96774" lon="5.4146">
        <ele>898.01</ele>
        <time>2014-07-03T10:14:53Z</time>
      </trkpt>
      <trkpt lat="44.96798" lon="5.41402">
        <ele>896.09</ele>
        <time>2014-07-03T10:15:05Z</time>
      </trkpt>
      <trkpt lat="44.968" lon="5.41397">
        <ele>896.09</ele>
        <time>2014-07-03T10:15:06Z</time>
      </trkpt>
      <trkpt lat="44.96801" lon="5.41391">
        <ele>896.09</ele>
        <time>2014-07-03T10:15:07Z</time>
      </trkpt>
      <trkpt lat="44.96816" lon="5.41335">
        <ele>893.68</ele>
        <time>2014-07-03T10:15:20Z</time>
      </trkpt>
      <trkpt lat="44.96824" lon="5.41291">
        <ele>893.2</ele>
        <time>2014-07-03T10:15:31Z</time>
      </trkpt>
      <trkpt lat="44.96825" lon="5.41284">
        <ele>893.2</ele>
        <time>2014-07-03T10:15:32Z</time>
      </trkpt>
      <trkpt lat="44.96832" lon="5.41247">
        <ele>891.28</ele>
        <time>2014-07-03T10:15:37Z</time>
      </trkpt>
      <trkpt lat="44.96838" lon="5.41231">
        <ele>890.32</ele>
        <time>2014-07-03T10:15:39Z</time>
      </trkpt>
      <trkpt lat="44.96842" lon="5.41224">
        <ele>889.36</ele>
        <time>2014-07-03T10:15:40Z</time>
      </trkpt>
      <trkpt lat="44.96847" lon="5.41216">
        <ele>889.36</ele>
        <time>2014-07-03T10:15:41Z</time>
      </trkpt>
      <trkpt lat="44.96852" lon="5.41209">
        <ele>888.88</ele>
        <time>2014-07-03T10:15:42Z</time>
      </trkpt>
      <trkpt lat="44.96857" lon="5.41203">
        <ele>888.4</ele>
        <time>2014-07-03T10:15:43Z</time>
      </trkpt>
      <trkpt lat="44.96863" lon="5.41197">
        <ele>888.4</ele>
        <time>2014-07-03T10:15:44Z</time>
      </trkpt>
      <trkpt lat="44.96869" lon="5.41192">
        <ele>887.91</ele>
        <time>2014-07-03T10:15:45Z</time>
      </trkpt>
      <trkpt lat="44.96938" lon="5.4113">
        <ele>884.55</ele>
        <time>2014-07-03T10:15:57Z</time>
      </trkpt>
      <trkpt lat="44.96949" lon="5.41124">
        <ele>884.07</ele>
        <time>2014-07-03T10:15:59Z</time>
      </trkpt>
      <trkpt lat="44.96955" lon="5.41122">
        <ele>883.59</ele>
        <time>2014-07-03T10:16:00Z</time>
      </trkpt>
      <trkpt lat="44.96962" lon="5.41121">
        <ele>883.11</ele>
        <time>2014-07-03T10:16:01Z</time>
      </trkpt>
      <trkpt lat="44.96969" lon="5.41122">
        <ele>881.67</ele>
        <time>2014-07-03T10:16:02Z</time>
      </trkpt>
      <trkpt lat="44.96976" lon="5.41122">
        <ele>882.15</ele>
        <time>2014-07-03T10:16:03Z</time>
      </trkpt>
      <trkpt lat="44.96984" lon="5.4112">
        <ele>881.19</ele>
        <time>2014-07-03T10:16:04Z</time>
      </trkpt>
      <trkpt lat="44.9699" lon="5.41115">
        <ele>881.19</ele>
        <time>2014-07-03T10:16:05Z</time>
      </trkpt>
      <trkpt lat="44.96994" lon="5.41108">
        <ele>881.19</ele>
        <time>2014-07-03T10:16:06Z</time>
      </trkpt>
      <trkpt lat="44.96997" lon="5.41101">
        <ele>880.71</ele>
        <time>2014-07-03T10:16:07Z</time>
      </trkpt>
      <trkpt lat="44.96999" lon="5.41093">
        <ele>880.22</ele>
        <time>2014-07-03T10:16:08Z</time>
      </trkpt>
      <trkpt lat="44.97" lon="5.41085">
        <ele>879.74</ele>
        <time>2014-07-03T10:16:09Z</time>
      </trkpt>
      <trkpt lat="44.96998" lon="5.41077">
        <ele>879.74</ele>
        <time>2014-07-03T10:16:10Z</time>
      </trkpt>
      <trkpt lat="44.96996" lon="5.41069">
        <ele>879.26</ele>
        <time>2014-07-03T10:16:11Z</time>
      </trkpt>
      <trkpt lat="44.96981" lon="5.40997">
        <ele>877.34</ele>
        <time>2014-07-03T10:16:22Z</time>
      </trkpt>
      <trkpt lat="44.96979" lon="5.40986">
        <ele>877.34</ele>
        <time>2014-07-03T10:16:33Z</time>
      </trkpt>
      <trkpt lat="44.96978" lon="5.40985">
        <ele>876.38</ele>
        <time>2014-07-03T10:16:37Z</time>
      </trkpt>
      <trkpt lat="44.96977" lon="5.40983">
        <ele>876.86</ele>
        <time>2014-07-03T10:16:38Z</time>
      </trkpt>
      <trkpt lat="44.96977" lon="5.40981">
        <ele>876.86</ele>
        <time>2014-07-03T10:16:39Z</time>
      </trkpt>
      <trkpt lat="44.96963" lon="5.40918">
        <ele>873.98</ele>
        <time>2014-07-03T10:16:50Z</time>
      </trkpt>
      <trkpt lat="44.96961" lon="5.40903">
        <ele>873.98</ele>
        <time>2014-07-03T10:16:52Z</time>
      </trkpt>
      <trkpt lat="44.96961" lon="5.40896">
        <ele>873.5</ele>
        <time>2014-07-03T10:16:53Z</time>
      </trkpt>
      <trkpt lat="44.96962" lon="5.40858">
        <ele>871.57</ele>
        <time>2014-07-03T10:16:58Z</time>
      </trkpt>
      <trkpt lat="44.96968" lon="5.40829">
        <ele>870.61</ele>
        <time>2014-07-03T10:17:03Z</time>
      </trkpt>
      <trkpt lat="44.96966" lon="5.40826">
        <ele>871.09</ele>
        <time>2014-07-03T10:17:04Z</time>
      </trkpt>
      <trkpt lat="44.96955" lon="5.40842">
        <ele>870.61</ele>
        <time>2014-07-03T10:17:11Z</time>
      </trkpt>
      <trkpt lat="44.96954" lon="5.40843">
        <ele>869.65</ele>
        <time>2014-07-03T10:17:12Z</time>
      </trkpt>
      <trkpt lat="44.9695" lon="5.40847">
        <ele>868.69</ele>
        <time>2014-07-03T10:17:16Z</time>
      </trkpt>
      <trkpt lat="44.96931" lon="5.40846">
        <ele>867.25</ele>
        <time>2014-07-03T10:17:22Z</time>
      </trkpt>
      <trkpt lat="44.96921" lon="5.40809">
        <ele>868.21</ele>
        <time>2014-07-03T10:17:38Z</time>
      </trkpt>
      <trkpt lat="44.96919" lon="5.40809">
        <ele>868.21</ele>
        <time>2014-07-03T10:18:10Z</time>
      </trkpt>
      <trkpt lat="44.9692" lon="5.40809">
        <ele>867.73</ele>
        <time>2014-07-03T10:18:17Z</time>
      </trkpt>
      <trkpt lat="44.96922" lon="5.40803">
        <ele>866.29</ele>
        <time>2014-07-03T10:18:20Z</time>
      </trkpt>
      <trkpt lat="44.96922" lon="5.40789">
        <ele>864.84</ele>
        <time>2014-07-03T10:18:25Z</time>
      </trkpt>
      <trkpt lat="44.96925" lon="5.40764">
        <ele>861.96</ele>
        <time>2014-07-03T10:18:35Z</time>
      </trkpt>
      <trkpt lat="44.96927" lon="5.4076">
        <ele>861.48</ele>
        <time>2014-07-03T10:18:37Z</time>
      </trkpt>
      <trkpt lat="44.96928" lon="5.40729">
        <ele>859.08</ele>
        <time>2014-07-03T10:18:47Z</time>
      </trkpt>
      <trkpt lat="44.96928" lon="5.40696">
        <ele>856.67</ele>
        <time>2014-07-03T10:18:59Z</time>
      </trkpt>
      <trkpt lat="44.96925" lon="5.40646">
        <ele>853.79</ele>
        <time>2014-07-03T10:19:12Z</time>
      </trkpt>
      <trkpt lat="44.96924" lon="5.40591">
        <ele>851.87</ele>
        <time>2014-07-03T10:19:23Z</time>
      </trkpt>
      <trkpt lat="44.96924" lon="5.40528">
        <ele>850.9</ele>
        <time>2014-07-03T10:19:37Z</time>
      </trkpt>
      <trkpt lat="44.96929" lon="5.40491">
        <ele>850.42</ele>
        <time>2014-07-03T10:19:47Z</time>
      </trkpt>
      <trkpt lat="44.96944" lon="5.40445">
        <ele>848.5</ele>
        <time>2014-07-03T10:19:59Z</time>
      </trkpt>
      <trkpt lat="44.9699" lon="5.40412">
        <ele>846.58</ele>
        <time>2014-07-03T10:20:12Z</time>
      </trkpt>
      <trkpt lat="44.97002" lon="5.40402">
        <ele>845.14</ele>
        <time>2014-07-03T10:20:15Z</time>
      </trkpt>
      <trkpt lat="44.97005" lon="5.40398">
        <ele>845.14</ele>
        <time>2014-07-03T10:20:16Z</time>
      </trkpt>
      <trkpt lat="44.97009" lon="5.40394">
        <ele>845.14</ele>
        <time>2014-07-03T10:20:17Z</time>
      </trkpt>
      <trkpt lat="44.97011" lon="5.4039">
        <ele>845.14</ele>
        <time>2014-07-03T10:20:18Z</time>
      </trkpt>
      <trkpt lat="44.97013" lon="5.40385">
        <ele>844.66</ele>
        <time>2014-07-03T10:20:19Z</time>
      </trkpt>
      <trkpt lat="44.97015" lon="5.40381">
        <ele>844.66</ele>
        <time>2014-07-03T10:20:20Z</time>
      </trkpt>
      <trkpt lat="44.97016" lon="5.40376">
        <ele>844.66</ele>
        <time>2014-07-03T10:20:21Z</time>
      </trkpt>
      <trkpt lat="44.97028" lon="5.40334">
        <ele>843.21</ele>
        <time>2014-07-03T10:20:32Z</time>
      </trkpt>
      <trkpt lat="44.9704" lon="5.4027">
        <ele>841.77</ele>
        <time>2014-07-03T10:20:46Z</time>
      </trkpt>
      <trkpt lat="44.9706" lon="5.40209">
        <ele>842.25</ele>
        <time>2014-07-03T10:21:01Z</time>
      </trkpt>
      <trkpt lat="44.97068" lon="5.40176">
        <ele>842.73</ele>
        <time>2014-07-03T10:21:11Z</time>
      </trkpt>
      <trkpt lat="44.97069" lon="5.40173">
        <ele>843.21</ele>
        <time>2014-07-03T10:21:12Z</time>
      </trkpt>
      <trkpt lat="44.9707" lon="5.4017">
        <ele>843.21</ele>
        <time>2014-07-03T10:21:13Z</time>
      </trkpt>
      <trkpt lat="44.97083" lon="5.4014">
        <ele>842.73</ele>
        <time>2014-07-03T10:21:25Z</time>
      </trkpt>
      <trkpt lat="44.97083" lon="5.40138">
        <ele>842.73</ele>
        <time>2014-07-03T10:21:26Z</time>
      </trkpt>
      <trkpt lat="44.97082" lon="5.40136">
        <ele>842.73</ele>
        <time>2014-07-03T10:21:27Z</time>
      </trkpt>
      <trkpt lat="44.9708" lon="5.40135">
        <ele>842.73</ele>
        <time>2014-07-03T10:21:28Z</time>
      </trkpt>
      <trkpt lat="44.97078" lon="5.40134">
        <ele>842.73</ele>
        <time>2014-07-03T10:21:29Z</time>
      </trkpt>
      <trkpt lat="44.97076" lon="5.40134">
        <ele>842.73</ele>
        <time>2014-07-03T10:21:30Z</time>
      </trkpt>
      <trkpt lat="44.97074" lon="5.40132">
        <ele>842.73</ele>
        <time>2014-07-03T10:21:31Z</time>
      </trkpt>
      <trkpt lat="44.97072" lon="5.40131">
        <ele>842.73</ele>
        <time>2014-07-03T10:21:32Z</time>
      </trkpt>
      <trkpt lat="44.97026" lon="5.40116">
        <ele>843.21</ele>
        <time>2014-07-03T10:21:48Z</time>
      </trkpt>
      <trkpt lat="44.96984" lon="5.40106">
        <ele>843.69</ele>
        <time>2014-07-03T10:22:01Z</time>
      </trkpt>
      <trkpt lat="44.9693" lon="5.401">
        <ele>845.14</ele>
        <time>2014-07-03T10:22:18Z</time>
      </trkpt>
      <trkpt lat="44.96877" lon="5.40097">
        <ele>846.1</ele>
        <time>2014-07-03T10:22:35Z</time>
      </trkpt>
      <trkpt lat="44.96835" lon="5.40106">
        <ele>846.58</ele>
        <time>2014-07-03T10:22:50Z</time>
      </trkpt>
      <trkpt lat="44.96794" lon="5.4011">
        <ele>848.02</ele>
        <time>2014-07-03T10:23:04Z</time>
      </trkpt>
      <trkpt lat="44.96791" lon="5.40111">
        <ele>847.54</ele>
        <time>2014-07-03T10:23:05Z</time>
      </trkpt>
      <trkpt lat="44.96736" lon="5.40123">
        <ele>848.02</ele>
        <time>2014-07-03T10:23:22Z</time>
      </trkpt>
      <trkpt lat="44.96689" lon="5.40127">
        <ele>848.98</ele>
        <time>2014-07-03T10:23:37Z</time>
      </trkpt>
      <trkpt lat="44.96651" lon="5.40126">
        <ele>849.94</ele>
        <time>2014-07-03T10:23:50Z</time>
      </trkpt>
      <trkpt lat="44.9661" lon="5.40127">
        <ele>849.94</ele>
        <time>2014-07-03T10:24:03Z</time>
      </trkpt>
      <trkpt lat="44.96563" lon="5.40107">
        <ele>850.9</ele>
        <time>2014-07-03T10:24:18Z</time>
      </trkpt>
      <trkpt lat="44.96523" lon="5.40102">
        <ele>850.9</ele>
        <time>2014-07-03T10:24:30Z</time>
      </trkpt>
      <trkpt lat="44.96479" lon="5.40122">
        <ele>851.87</ele>
        <time>2014-07-03T10:24:45Z</time>
      </trkpt>
      <trkpt lat="44.96442" lon="5.40159">
        <ele>853.79</ele>
        <time>2014-07-03T10:25:02Z</time>
      </trkpt>
      <trkpt lat="44.96398" lon="5.40182">
        <ele>853.31</ele>
        <time>2014-07-03T10:25:17Z</time>
      </trkpt>
      <trkpt lat="44.96386" lon="5.40184">
        <ele>852.83</ele>
        <time>2014-07-03T10:25:20Z</time>
      </trkpt>
      <trkpt lat="44.96348" lon="5.40183">
        <ele>853.79</ele>
        <time>2014-07-03T10:25:31Z</time>
      </trkpt>
      <trkpt lat="44.963" lon="5.40174">
        <ele>854.75</ele>
        <time>2014-07-03T10:25:48Z</time>
      </trkpt>
      <trkpt lat="44.96274" lon="5.40163">
        <ele>855.71</ele>
        <time>2014-07-03T10:25:59Z</time>
      </trkpt>
      <trkpt lat="44.96242" lon="5.4015">
        <ele>856.19</ele>
        <time>2014-07-03T10:26:11Z</time>
      </trkpt>
      <trkpt lat="44.96217" lon="5.40138">
        <ele>856.67</ele>
        <time>2014-07-03T10:26:20Z</time>
      </trkpt>
      <trkpt lat="44.96215" lon="5.40136">
        <ele>856.67</ele>
        <time>2014-07-03T10:26:21Z</time>
      </trkpt>
      <trkpt lat="44.96213" lon="5.40136">
        <ele>857.15</ele>
        <time>2014-07-03T10:26:22Z</time>
      </trkpt>
      <trkpt lat="44.9621" lon="5.40135">
        <ele>857.15</ele>
        <time>2014-07-03T10:26:23Z</time>
      </trkpt>
      <trkpt lat="44.96207" lon="5.40135">
        <ele>857.15</ele>
        <time>2014-07-03T10:26:24Z</time>
      </trkpt>
      <trkpt lat="44.96174" lon="5.40132">
        <ele>858.11</ele>
        <time>2014-07-03T10:26:35Z</time>
      </trkpt>
      <trkpt lat="44.96128" lon="5.40131">
        <ele>858.11</ele>
        <time>2014-07-03T10:26:51Z</time>
      </trkpt>
      <trkpt lat="44.96117" lon="5.40132">
        <ele>858.59</ele>
        <time>2014-07-03T10:26:55Z</time>
      </trkpt>
      <trkpt lat="44.96114" lon="5.40132">
        <ele>858.59</ele>
        <time>2014-07-03T10:26:56Z</time>
      </trkpt>
      <trkpt lat="44.96072" lon="5.40137">
        <ele>859.08</ele>
        <time>2014-07-03T10:27:11Z</time>
      </trkpt>
      <trkpt lat="44.96026" lon="5.40142">
        <ele>859.56</ele>
        <time>2014-07-03T10:27:26Z</time>
      </trkpt>
      <trkpt lat="44.95996" lon="5.40137">
        <ele>860.52</ele>
        <time>2014-07-03T10:27:38Z</time>
      </trkpt>
      <trkpt lat="44.9596" lon="5.40134">
        <ele>861.48</ele>
        <time>2014-07-03T10:27:50Z</time>
      </trkpt>
      <trkpt lat="44.95922" lon="5.40135">
        <ele>862.44</ele>
        <time>2014-07-03T10:28:03Z</time>
      </trkpt>
      <trkpt lat="44.95887" lon="5.40136">
        <ele>863.88</ele>
        <time>2014-07-03T10:28:16Z</time>
      </trkpt>
      <trkpt lat="44.95858" lon="5.4014">
        <ele>865.32</ele>
        <time>2014-07-03T10:28:28Z</time>
      </trkpt>
      <trkpt lat="44.95834" lon="5.4014">
        <ele>865.8</ele>
        <time>2014-07-03T10:28:38Z</time>
      </trkpt>
      <trkpt lat="44.95795" lon="5.40142">
        <ele>866.29</ele>
        <time>2014-07-03T10:28:52Z</time>
      </trkpt>
      <trkpt lat="44.95756" lon="5.40143">
        <ele>866.77</ele>
        <time>2014-07-03T10:29:05Z</time>
      </trkpt>
      <trkpt lat="44.95717" lon="5.40139">
        <ele>867.25</ele>
        <time>2014-07-03T10:29:18Z</time>
      </trkpt>
      <trkpt lat="44.95685" lon="5.40137">
        <ele>868.69</ele>
        <time>2014-07-03T10:29:32Z</time>
      </trkpt>
      <trkpt lat="44.95684" lon="5.40137">
        <ele>869.17</ele>
        <time>2014-07-03T10:29:33Z</time>
      </trkpt>
      <trkpt lat="44.95676" lon="5.40139">
        <ele>869.17</ele>
        <time>2014-07-03T10:29:45Z</time>
      </trkpt>
      <trkpt lat="44.95676" lon="5.40138">
        <ele>872.05</ele>
        <time>2014-07-03T10:29:53Z</time>
      </trkpt>
      <trkpt lat="44.95676" lon="5.40138">
        <ele>869.17</ele>
        <time>2014-07-03T10:29:55Z</time>
      </trkpt>
      <trkpt lat="44.95675" lon="5.40138">
        <ele>869.17</ele>
        <time>2014-07-03T10:30:19Z</time>
      </trkpt>
      <trkpt lat="44.95675" lon="5.40139">
        <ele>869.17</ele>
        <time>2014-07-03T10:30:40Z</time>
      </trkpt>
      <trkpt lat="44.95675" lon="5.40139">
        <ele>869.17</ele>
        <time>2014-07-03T10:31:09Z</time>
      </trkpt>
      <trkpt lat="44.95675" lon="5.40138">
        <ele>869.65</ele>
        <time>2014-07-03T10:31:32Z</time>
      </trkpt>
      <trkpt lat="44.95675" lon="5.40138">
        <ele>869.17</ele>
        <time>2014-07-03T10:31:56Z</time>
      </trkpt>
      <trkpt lat="44.95675" lon="5.40137">
        <ele>865.8</ele>
        <time>2014-07-03T10:32:11Z</time>
      </trkpt>
      <trkpt lat="44.95675" lon="5.40137">
        <ele>870.61</ele>
        <time>2014-07-03T10:32:12Z</time>
      </trkpt>
      <trkpt lat="44.95675" lon="5.40137">
        <ele>869.17</ele>
        <time>2014-07-03T10:32:17Z</time>
      </trkpt>
      <trkpt lat="44.95675" lon="5.40137">
        <ele>868.69</ele>
        <time>2014-07-03T10:32:37Z</time>
      </trkpt>
      <trkpt lat="44.95676" lon="5.40137">
        <ele>868.69</ele>
        <time>2014-07-03T10:33:02Z</time>
      </trkpt>
      <trkpt lat="44.95676" lon="5.40135">
        <ele>868.69</ele>
        <time>2014-07-03T10:33:05Z</time>
      </trkpt>
      <trkpt lat="44.95677" lon="5.40133">
        <ele>868.21</ele>
        <time>2014-07-03T10:33:06Z</time>
      </trkpt>
      <trkpt lat="44.95678" lon="5.4013">
        <ele>869.17</ele>
        <time>2014-07-03T10:33:09Z</time>
      </trkpt>
      <trkpt lat="44.95678" lon="5.40128">
        <ele>868.69</ele>
        <time>2014-07-03T10:33:10Z</time>
      </trkpt>
      <trkpt lat="44.95678" lon="5.40126">
        <ele>868.69</ele>
        <time>2014-07-03T10:33:11Z</time>
      </trkpt>
      <trkpt lat="44.95678" lon="5.40123">
        <ele>868.69</ele>
        <time>2014-07-03T10:33:12Z</time>
      </trkpt>
      <trkpt lat="44.95678" lon="5.4012">
        <ele>868.21</ele>
        <time>2014-07-03T10:33:13Z</time>
      </trkpt>
      <trkpt lat="44.95678" lon="5.40117">
        <ele>868.21</ele>
        <time>2014-07-03T10:33:14Z</time>
      </trkpt>
      <trkpt lat="44.95678" lon="5.40114">
        <ele>868.21</ele>
        <time>2014-07-03T10:33:15Z</time>
      </trkpt>
      <trkpt lat="44.95678" lon="5.40111">
        <ele>868.21</ele>
        <time>2014-07-03T10:33:16Z</time>
      </trkpt>
      <trkpt lat="44.95678" lon="5.40108">
        <ele>867.73</ele>
        <time>2014-07-03T10:33:17Z</time>
      </trkpt>
      <trkpt lat="44.95683" lon="5.40063">
        <ele>868.21</ele>
        <time>2014-07-03T10:33:31Z</time>
      </trkpt>
      <trkpt lat="44.95686" lon="5.40039">
        <ele>870.13</ele>
        <time>2014-07-03T10:33:42Z</time>
      </trkpt>
      <trkpt lat="44.95687" lon="5.40036">
        <ele>870.13</ele>
        <time>2014-07-03T10:33:44Z</time>
      </trkpt>
      <trkpt lat="44.95687" lon="5.40033">
        <ele>869.65</ele>
        <time>2014-07-03T10:33:45Z</time>
      </trkpt>
      <trkpt lat="44.95687" lon="5.40031">
        <ele>869.65</ele>
        <time>2014-07-03T10:33:46Z</time>
      </trkpt>
      <trkpt lat="44.95687" lon="5.40029">
        <ele>870.13</ele>
        <time>2014-07-03T10:33:47Z</time>
      </trkpt>
      <trkpt lat="44.95689" lon="5.40021">
        <ele>871.57</ele>
        <time>2014-07-03T10:33:52Z</time>
      </trkpt>
      <trkpt lat="44.95689" lon="5.40019">
        <ele>871.09</ele>
        <time>2014-07-03T10:33:53Z</time>
      </trkpt>
      <trkpt lat="44.95692" lon="5.4">
        <ele>875.9</ele>
        <time>2014-07-03T10:34:05Z</time>
      </trkpt>
      <trkpt lat="44.95692" lon="5.39998">
        <ele>870.61</ele>
        <time>2014-07-03T10:34:25Z</time>
      </trkpt>
      <trkpt lat="44.95692" lon="5.39998">
        <ele>874.46</ele>
        <time>2014-07-03T10:34:26Z</time>
      </trkpt>
      <trkpt lat="44.95695" lon="5.3999">
        <ele>874.94</ele>
        <time>2014-07-03T10:34:40Z</time>
      </trkpt>
      <trkpt lat="44.95699" lon="5.39984">
        <ele>877.82</ele>
        <time>2014-07-03T10:34:55Z</time>
      </trkpt>
      <trkpt lat="44.95707" lon="5.39983">
        <ele>878.3</ele>
        <time>2014-07-03T10:35:09Z</time>
      </trkpt>
      <trkpt lat="44.95715" lon="5.3998">
        <ele>879.74</ele>
        <time>2014-07-03T10:35:20Z</time>
      </trkpt>
      <trkpt lat="44.95721" lon="5.39977">
        <ele>881.19</ele>
        <time>2014-07-03T10:35:32Z</time>
      </trkpt>
      <trkpt lat="44.95723" lon="5.39974">
        <ele>881.67</ele>
        <time>2014-07-03T10:35:45Z</time>
      </trkpt>
      <trkpt lat="44.95725" lon="5.39973">
        <ele>883.11</ele>
        <time>2014-07-03T10:35:57Z</time>
      </trkpt>
      <trkpt lat="44.95727" lon="5.39968">
        <ele>884.07</ele>
        <time>2014-07-03T10:36:08Z</time>
      </trkpt>
      <trkpt lat="44.95726" lon="5.39968">
        <ele>884.55</ele>
        <time>2014-07-03T10:36:16Z</time>
      </trkpt>
      <trkpt lat="44.95725" lon="5.39968">
        <ele>883.59</ele>
        <time>2014-07-03T10:36:17Z</time>
      </trkpt>
      <trkpt lat="44.95723" lon="5.39969">
        <ele>883.59</ele>
        <time>2014-07-03T10:36:18Z</time>
      </trkpt>
      <trkpt lat="44.95707" lon="5.39962">
        <ele>884.55</ele>
        <time>2014-07-03T10:36:29Z</time>
      </trkpt>
      <trkpt lat="44.95686" lon="5.39957">
        <ele>885.03</ele>
        <time>2014-07-03T10:36:42Z</time>
      </trkpt>
      <trkpt lat="44.95674" lon="5.39955">
        <ele>885.03</ele>
        <time>2014-07-03T10:36:48Z</time>
      </trkpt>
      <trkpt lat="44.95667" lon="5.39952">
        <ele>885.99</ele>
        <time>2014-07-03T10:36:59Z</time>
      </trkpt>
      <trkpt lat="44.95653" lon="5.39954">
        <ele>886.47</ele>
        <time>2014-07-03T10:37:10Z</time>
      </trkpt>
      <trkpt lat="44.95634" lon="5.39952">
        <ele>887.43</ele>
        <time>2014-07-03T10:37:21Z</time>
      </trkpt>
      <trkpt lat="44.95628" lon="5.3995">
        <ele>887.91</ele>
        <time>2014-07-03T10:37:25Z</time>
      </trkpt>
      <trkpt lat="44.95616" lon="5.39947">
        <ele>888.4</ele>
        <time>2014-07-03T10:37:34Z</time>
      </trkpt>
      <trkpt lat="44.95612" lon="5.39943">
        <ele>889.84</ele>
        <time>2014-07-03T10:37:39Z</time>
      </trkpt>
      <trkpt lat="44.95609" lon="5.39937">
        <ele>891.28</ele>
        <time>2014-07-03T10:37:43Z</time>
      </trkpt>
      <trkpt lat="44.95591" lon="5.39936">
        <ele>890.32</ele>
        <time>2014-07-03T10:37:51Z</time>
      </trkpt>
      <trkpt lat="44.95564" lon="5.39927">
        <ele>890.8</ele>
        <time>2014-07-03T10:38:03Z</time>
      </trkpt>
      <trkpt lat="44.95543" lon="5.39914">
        <ele>892.24</ele>
        <time>2014-07-03T10:38:15Z</time>
      </trkpt>
      <trkpt lat="44.95518" lon="5.39902">
        <ele>891.76</ele>
        <time>2014-07-03T10:38:25Z</time>
      </trkpt>
      <trkpt lat="44.95494" lon="5.39885">
        <ele>892.72</ele>
        <time>2014-07-03T10:38:38Z</time>
      </trkpt>
      <trkpt lat="44.9549" lon="5.39881">
        <ele>892.72</ele>
        <time>2014-07-03T10:38:41Z</time>
      </trkpt>
      <trkpt lat="44.95487" lon="5.3988">
        <ele>892.72</ele>
        <time>2014-07-03T10:38:43Z</time>
      </trkpt>
      <trkpt lat="44.95472" lon="5.39865">
        <ele>893.68</ele>
        <time>2014-07-03T10:38:54Z</time>
      </trkpt>
      <trkpt lat="44.95461" lon="5.39858">
        <ele>893.68</ele>
        <time>2014-07-03T10:39:01Z</time>
      </trkpt>
      <trkpt lat="44.95453" lon="5.39856">
        <ele>894.64</ele>
        <time>2014-07-03T10:39:06Z</time>
      </trkpt>
      <trkpt lat="44.95449" lon="5.39853">
        <ele>894.64</ele>
        <time>2014-07-03T10:39:09Z</time>
      </trkpt>
      <trkpt lat="44.95447" lon="5.39851">
        <ele>894.16</ele>
        <time>2014-07-03T10:39:11Z</time>
      </trkpt>
      <trkpt lat="44.95428" lon="5.39845">
        <ele>895.12</ele>
        <time>2014-07-03T10:39:23Z</time>
      </trkpt>
      <trkpt lat="44.95416" lon="5.39844">
        <ele>895.12</ele>
        <time>2014-07-03T10:39:37Z</time>
      </trkpt>
      <trkpt lat="44.9541" lon="5.39844">
        <ele>895.61</ele>
        <time>2014-07-03T10:39:51Z</time>
      </trkpt>
      <trkpt lat="44.95402" lon="5.39846">
        <ele>895.12</ele>
        <time>2014-07-03T10:40:04Z</time>
      </trkpt>
      <trkpt lat="44.95402" lon="5.39844">
        <ele>895.61</ele>
        <time>2014-07-03T10:40:32Z</time>
      </trkpt>
      <trkpt lat="44.95402" lon="5.39846">
        <ele>895.61</ele>
        <time>2014-07-03T10:41:06Z</time>
      </trkpt>
      <trkpt lat="44.95402" lon="5.39845">
        <ele>895.61</ele>
        <time>2014-07-03T10:41:40Z</time>
      </trkpt>
      <trkpt lat="44.95402" lon="5.39844">
        <ele>895.61</ele>
        <time>2014-07-03T10:42:15Z</time>
      </trkpt>
      <trkpt lat="44.95401" lon="5.39846">
        <ele>895.61</ele>
        <time>2014-07-03T10:42:48Z</time>
      </trkpt>
      <trkpt lat="44.95401" lon="5.39845">
        <ele>896.09</ele>
        <time>2014-07-03T10:43:23Z</time>
      </trkpt>
      <trkpt lat="44.95402" lon="5.39847">
        <ele>896.09</ele>
        <time>2014-07-03T10:43:54Z</time>
      </trkpt>
      <trkpt lat="44.95402" lon="5.39849">
        <ele>895.61</ele>
        <time>2014-07-03T10:44:29Z</time>
      </trkpt>
      <trkpt lat="44.95402" lon="5.39848">
        <ele>896.09</ele>
        <time>2014-07-03T10:45:03Z</time>
      </trkpt>
      <trkpt lat="44.95403" lon="5.39849">
        <ele>896.09</ele>
        <time>2014-07-03T10:45:39Z</time>
      </trkpt>
      <trkpt lat="44.95403" lon="5.39849">
        <ele>896.09</ele>
        <time>2014-07-03T10:46:22Z</time>
      </trkpt>
      <trkpt lat="44.95403" lon="5.39849">
        <ele>896.09</ele>
        <time>2014-07-03T10:46:56Z</time>
      </trkpt>
      <trkpt lat="44.95404" lon="5.39848">
        <ele>895.61</ele>
        <time>2014-07-03T10:47:32Z</time>
      </trkpt>
      <trkpt lat="44.95405" lon="5.39849">
        <ele>896.09</ele>
        <time>2014-07-03T10:48:06Z</time>
      </trkpt>
      <trkpt lat="44.95404" lon="5.39849">
        <ele>896.09</ele>
        <time>2014-07-03T10:48:41Z</time>
      </trkpt>
      <trkpt lat="44.95404" lon="5.3985">
        <ele>895.61</ele>
        <time>2014-07-03T10:49:17Z</time>
      </trkpt>
      <trkpt lat="44.95404" lon="5.3985">
        <ele>895.61</ele>
        <time>2014-07-03T10:49:49Z</time>
      </trkpt>
      <trkpt lat="44.95404" lon="5.39851">
        <ele>895.61</ele>
        <time>2014-07-03T10:50:27Z</time>
      </trkpt>
      <trkpt lat="44.95404" lon="5.3985">
        <ele>896.09</ele>
        <time>2014-07-03T10:51:04Z</time>
      </trkpt>
      <trkpt lat="44.95404" lon="5.3985">
        <ele>895.61</ele>
        <time>2014-07-03T10:51:43Z</time>
      </trkpt>
      <trkpt lat="44.95403" lon="5.39848">
        <ele>895.12</ele>
        <time>2014-07-03T10:52:17Z</time>
      </trkpt>
      <trkpt lat="44.95402" lon="5.39847">
        <ele>895.12</ele>
        <time>2014-07-03T10:52:51Z</time>
      </trkpt>
      <trkpt lat="44.95402" lon="5.39845">
        <ele>895.12</ele>
        <time>2014-07-03T10:53:25Z</time>
      </trkpt>
      <trkpt lat="44.95402" lon="5.39844">
        <ele>894.64</ele>
        <time>2014-07-03T10:53:59Z</time>
      </trkpt>
      <trkpt lat="44.95402" lon="5.39845">
        <ele>894.64</ele>
        <time>2014-07-03T10:54:34Z</time>
      </trkpt>
      <trkpt lat="44.954" lon="5.39846">
        <ele>894.64</ele>
        <time>2014-07-03T10:55:14Z</time>
      </trkpt>
      <trkpt lat="44.954" lon="5.39848">
        <ele>894.64</ele>
        <time>2014-07-03T10:55:50Z</time>
      </trkpt>
      <trkpt lat="44.954" lon="5.39848">
        <ele>894.64</ele>
        <time>2014-07-03T10:56:31Z</time>
      </trkpt>
      <trkpt lat="44.954" lon="5.39848">
        <ele>894.64</ele>
        <time>2014-07-03T10:57:02Z</time>
      </trkpt>
      <trkpt lat="44.954" lon="5.39847">
        <ele>894.16</ele>
        <time>2014-07-03T10:57:37Z</time>
      </trkpt>
      <trkpt lat="44.954" lon="5.39846">
        <ele>894.16</ele>
        <time>2014-07-03T10:58:12Z</time>
      </trkpt>
      <trkpt lat="44.954" lon="5.39846">
        <ele>894.16</ele>
        <time>2014-07-03T10:58:45Z</time>
      </trkpt>
      <trkpt lat="44.954" lon="5.39847">
        <ele>894.64</ele>
        <time>2014-07-03T10:59:17Z</time>
      </trkpt>
      <trkpt lat="44.95402" lon="5.39847">
        <ele>894.64</ele>
        <time>2014-07-03T10:59:51Z</time>
      </trkpt>
      <trkpt lat="44.95403" lon="5.39847">
        <ele>894.16</ele>
        <time>2014-07-03T11:00:26Z</time>
      </trkpt>
      <trkpt lat="44.95404" lon="5.39848">
        <ele>894.64</ele>
        <time>2014-07-03T11:01:04Z</time>
      </trkpt>
      <trkpt lat="44.95404" lon="5.39848">
        <ele>895.61</ele>
        <time>2014-07-03T11:01:37Z</time>
      </trkpt>
      <trkpt lat="44.95404" lon="5.3985">
        <ele>894.64</ele>
        <time>2014-07-03T11:02:12Z</time>
      </trkpt>
      <trkpt lat="44.95403" lon="5.39849">
        <ele>895.12</ele>
        <time>2014-07-03T11:02:48Z</time>
      </trkpt>
      <trkpt lat="44.95402" lon="5.39848">
        <ele>894.64</ele>
        <time>2014-07-03T11:03:25Z</time>
      </trkpt>
      <trkpt lat="44.95401" lon="5.39847">
        <ele>894.64</ele>
        <time>2014-07-03T11:03:58Z</time>
      </trkpt>
      <trkpt lat="44.95401" lon="5.39846">
        <ele>895.12</ele>
        <time>2014-07-03T11:04:36Z</time>
      </trkpt>
      <trkpt lat="44.95401" lon="5.39846">
        <ele>895.12</ele>
        <time>2014-07-03T11:05:12Z</time>
      </trkpt>
      <trkpt lat="44.95401" lon="5.39847">
        <ele>895.12</ele>
        <time>2014-07-03T11:05:49Z</time>
      </trkpt>
      <trkpt lat="44.95401" lon="5.39848">
        <ele>895.61</ele>
        <time>2014-07-03T11:06:20Z</time>
      </trkpt>
      <trkpt lat="44.95401" lon="5.39848">
        <ele>895.12</ele>
        <time>2014-07-03T11:06:52Z</time>
      </trkpt>
      <trkpt lat="44.954" lon="5.39848">
        <ele>895.12</ele>
        <time>2014-07-03T11:07:21Z</time>
      </trkpt>
      <trkpt lat="44.954" lon="5.39848">
        <ele>894.64</ele>
        <time>2014-07-03T11:07:58Z</time>
      </trkpt>
      <trkpt lat="44.95399" lon="5.39846">
        <ele>895.12</ele>
        <time>2014-07-03T11:08:35Z</time>
      </trkpt>
      <trkpt lat="44.95399" lon="5.39846">
        <ele>894.64</ele>
        <time>2014-07-03T11:09:12Z</time>
      </trkpt>
      <trkpt lat="44.95398" lon="5.39845">
        <ele>894.16</ele>
        <time>2014-07-03T11:09:40Z</time>
      </trkpt>
      <trkpt lat="44.95399" lon="5.39846">
        <ele>894.16</ele>
        <time>2014-07-03T11:10:12Z</time>
      </trkpt>
      <trkpt lat="44.95399" lon="5.39846">
        <ele>894.64</ele>
        <time>2014-07-03T11:10:39Z</time>
      </trkpt>
      <trkpt lat="44.95399" lon="5.39845">
        <ele>894.16</ele>
        <time>2014-07-03T11:11:11Z</time>
      </trkpt>
      <trkpt lat="44.95398" lon="5.39845">
        <ele>893.68</ele>
        <time>2014-07-03T11:11:46Z</time>
      </trkpt>
      <trkpt lat="44.95398" lon="5.39847">
        <ele>893.68</ele>
        <time>2014-07-03T11:12:20Z</time>
      </trkpt>
      <trkpt lat="44.95399" lon="5.39845">
        <ele>893.68</ele>
        <time>2014-07-03T11:13:02Z</time>
      </trkpt>
      <trkpt lat="44.95399" lon="5.39846">
        <ele>893.2</ele>
        <time>2014-07-03T11:13:38Z</time>
      </trkpt>
      <trkpt lat="44.95399" lon="5.39847">
        <ele>893.2</ele>
        <time>2014-07-03T11:14:16Z</time>
      </trkpt>
      <trkpt lat="44.95399" lon="5.39847">
        <ele>893.68</ele>
        <time>2014-07-03T11:14:50Z</time>
      </trkpt>
      <trkpt lat="44.954" lon="5.39845">
        <ele>893.2</ele>
        <time>2014-07-03T11:15:24Z</time>
      </trkpt>
      <trkpt lat="44.954" lon="5.39845">
        <ele>893.2</ele>
        <time>2014-07-03T11:15:55Z</time>
      </trkpt>
      <trkpt lat="44.954" lon="5.39846">
        <ele>892.72</ele>
        <time>2014-07-03T11:16:28Z</time>
      </trkpt>
      <trkpt lat="44.95401" lon="5.39846">
        <ele>893.2</ele>
        <time>2014-07-03T11:17:01Z</time>
      </trkpt>
      <trkpt lat="44.954" lon="5.39846">
        <ele>892.72</ele>
        <time>2014-07-03T11:17:34Z</time>
      </trkpt>
      <trkpt lat="44.954" lon="5.39845">
        <ele>892.72</ele>
        <time>2014-07-03T11:18:04Z</time>
      </trkpt>
      <trkpt lat="44.954" lon="5.39845">
        <ele>892.72</ele>
        <time>2014-07-03T11:18:32Z</time>
      </trkpt>
      <trkpt lat="44.95401" lon="5.39846">
        <ele>892.72</ele>
        <time>2014-07-03T11:19:07Z</time>
      </trkpt>
      <trkpt lat="44.95401" lon="5.39846">
        <ele>893.2</ele>
        <time>2014-07-03T11:19:39Z</time>
      </trkpt>
      <trkpt lat="44.95402" lon="5.39848">
        <ele>893.2</ele>
        <time>2014-07-03T11:20:09Z</time>
      </trkpt>
      <trkpt lat="44.95401" lon="5.39849">
        <ele>893.2</ele>
        <time>2014-07-03T11:20:44Z</time>
      </trkpt>
      <trkpt lat="44.954" lon="5.3985">
        <ele>893.2</ele>
        <time>2014-07-03T11:21:19Z</time>
      </trkpt>
      <trkpt lat="44.95399" lon="5.39848">
        <ele>893.68</ele>
        <time>2014-07-03T11:21:51Z</time>
      </trkpt>
      <trkpt lat="44.95399" lon="5.39849">
        <ele>893.68</ele>
        <time>2014-07-03T11:22:24Z</time>
      </trkpt>
      <trkpt lat="44.954" lon="5.39849">
        <ele>893.68</ele>
        <time>2014-07-03T11:22:59Z</time>
      </trkpt>
      <trkpt lat="44.954" lon="5.39848">
        <ele>893.68</ele>
        <time>2014-07-03T11:23:35Z</time>
      </trkpt>
      <trkpt lat="44.954" lon="5.39848">
        <ele>893.68</ele>
        <time>2014-07-03T11:24:05Z</time>
      </trkpt>
      <trkpt lat="44.954" lon="5.39848">
        <ele>893.68</ele>
        <time>2014-07-03T11:24:39Z</time>
      </trkpt>
      <trkpt lat="44.954" lon="5.3985">
        <ele>894.16</ele>
        <time>2014-07-03T11:25:12Z</time>
      </trkpt>
      <trkpt lat="44.95401" lon="5.39848">
        <ele>894.64</ele>
        <time>2014-07-03T11:25:54Z</time>
      </trkpt>
      <trkpt lat="44.95401" lon="5.39848">
        <ele>894.64</ele>
        <time>2014-07-03T11:26:25Z</time>
      </trkpt>
      <trkpt lat="44.95401" lon="5.39848">
        <ele>894.16</ele>
        <time>2014-07-03T11:27:01Z</time>
      </trkpt>
      <trkpt lat="44.95401" lon="5.39847">
        <ele>894.64</ele>
        <time>2014-07-03T11:27:37Z</time>
      </trkpt>
      <trkpt lat="44.95401" lon="5.39846">
        <ele>894.64</ele>
        <time>2014-07-03T11:28:11Z</time>
      </trkpt>
      <trkpt lat="44.95401" lon="5.39845">
        <ele>894.64</ele>
        <time>2014-07-03T11:28:45Z</time>
      </trkpt>
      <trkpt lat="44.954" lon="5.39846">
        <ele>895.12</ele>
        <time>2014-07-03T11:29:03Z</time>
      </trkpt>
      <trkpt lat="44.95398" lon="5.39847">
        <ele>887.43</ele>
        <time>2014-07-03T11:29:16Z</time>
      </trkpt>
      <trkpt lat="44.95397" lon="5.39847">
        <ele>897.05</ele>
        <time>2014-07-03T11:29:17Z</time>
      </trkpt>
      <trkpt lat="44.95393" lon="5.39848">
        <ele>895.12</ele>
        <time>2014-07-03T11:29:30Z</time>
      </trkpt>
      <trkpt lat="44.95386" lon="5.39846">
        <ele>896.09</ele>
        <time>2014-07-03T11:29:37Z</time>
      </trkpt>
      <trkpt lat="44.95382" lon="5.39848">
        <ele>896.57</ele>
        <time>2014-07-03T11:29:40Z</time>
      </trkpt>
      <trkpt lat="44.95364" lon="5.39848">
        <ele>897.05</ele>
        <time>2014-07-03T11:29:52Z</time>
      </trkpt>
      <trkpt lat="44.95359" lon="5.39846">
        <ele>897.53</ele>
        <time>2014-07-03T11:29:57Z</time>
      </trkpt>
      <trkpt lat="44.95353" lon="5.39845">
        <ele>897.05</ele>
        <time>2014-07-03T11:30:01Z</time>
      </trkpt>
      <trkpt lat="44.95348" lon="5.39843">
        <ele>898.49</ele>
        <time>2014-07-03T11:30:04Z</time>
      </trkpt>
      <trkpt lat="44.95345" lon="5.39844">
        <ele>898.49</ele>
        <time>2014-07-03T11:30:23Z</time>
      </trkpt>
      <trkpt lat="44.95337" lon="5.39841">
        <ele>898.01</ele>
        <time>2014-07-03T11:30:35Z</time>
      </trkpt>
      <trkpt lat="44.95335" lon="5.39839">
        <ele>898.49</ele>
        <time>2014-07-03T11:30:40Z</time>
      </trkpt>
      <trkpt lat="44.9533" lon="5.39835">
        <ele>899.45</ele>
        <time>2014-07-03T11:30:51Z</time>
      </trkpt>
      <trkpt lat="44.95326" lon="5.39833">
        <ele>899.93</ele>
        <time>2014-07-03T11:30:59Z</time>
      </trkpt>
      <trkpt lat="44.95324" lon="5.39833">
        <ele>899.93</ele>
        <time>2014-07-03T11:31:03Z</time>
      </trkpt>
      <trkpt lat="44.95321" lon="5.39832">
        <ele>899.93</ele>
        <time>2014-07-03T11:31:05Z</time>
      </trkpt>
      <trkpt lat="44.95314" lon="5.39826">
        <ele>901.37</ele>
        <time>2014-07-03T11:31:16Z</time>
      </trkpt>
      <trkpt lat="44.95307" lon="5.39824">
        <ele>902.33</ele>
        <time>2014-07-03T11:31:28Z</time>
      </trkpt>
      <trkpt lat="44.95297" lon="5.39824">
        <ele>902.82</ele>
        <time>2014-07-03T11:31:39Z</time>
      </trkpt>
      <trkpt lat="44.95291" lon="5.39824">
        <ele>903.3</ele>
        <time>2014-07-03T11:31:53Z</time>
      </trkpt>
      <trkpt lat="44.95284" lon="5.39824">
        <ele>904.74</ele>
        <time>2014-07-03T11:32:09Z</time>
      </trkpt>
      <trkpt lat="44.95275" lon="5.3982">
        <ele>907.14</ele>
        <time>2014-07-03T11:32:20Z</time>
      </trkpt>
      <trkpt lat="44.9527" lon="5.39818">
        <ele>908.1</ele>
        <time>2014-07-03T11:32:31Z</time>
      </trkpt>
      <trkpt lat="44.95267" lon="5.3982">
        <ele>909.54</ele>
        <time>2014-07-03T11:32:42Z</time>
      </trkpt>
      <trkpt lat="44.95258" lon="5.39823">
        <ele>910.51</ele>
        <time>2014-07-03T11:32:53Z</time>
      </trkpt>
      <trkpt lat="44.9525" lon="5.39828">
        <ele>910.51</ele>
        <time>2014-07-03T11:33:05Z</time>
      </trkpt>
      <trkpt lat="44.95245" lon="5.39831">
        <ele>910.51</ele>
        <time>2014-07-03T11:33:11Z</time>
      </trkpt>
      <trkpt lat="44.95241" lon="5.39834">
        <ele>910.03</ele>
        <time>2014-07-03T11:33:15Z</time>
      </trkpt>
      <trkpt lat="44.95223" lon="5.39841">
        <ele>910.99</ele>
        <time>2014-07-03T11:33:29Z</time>
      </trkpt>
      <trkpt lat="44.95221" lon="5.39842">
        <ele>910.51</ele>
        <time>2014-07-03T11:33:31Z</time>
      </trkpt>
      <trkpt lat="44.95202" lon="5.39846">
        <ele>910.99</ele>
        <time>2014-07-03T11:33:44Z</time>
      </trkpt>
      <trkpt lat="44.95186" lon="5.39846">
        <ele>910.99</ele>
        <time>2014-07-03T11:33:54Z</time>
      </trkpt>
      <trkpt lat="44.9516" lon="5.39841">
        <ele>910.99</ele>
        <time>2014-07-03T11:34:06Z</time>
      </trkpt>
      <trkpt lat="44.95133" lon="5.3983">
        <ele>910.03</ele>
        <time>2014-07-03T11:34:16Z</time>
      </trkpt>
      <trkpt lat="44.95128" lon="5.39822">
        <ele>913.87</ele>
        <time>2014-07-03T11:34:22Z</time>
      </trkpt>
      <trkpt lat="44.95128" lon="5.39821">
        <ele>910.51</ele>
        <time>2014-07-03T11:34:23Z</time>
      </trkpt>
      <trkpt lat="44.95115" lon="5.39804">
        <ele>909.54</ele>
        <time>2014-07-03T11:34:37Z</time>
      </trkpt>
      <trkpt lat="44.95089" lon="5.39781">
        <ele>908.1</ele>
        <time>2014-07-03T11:34:48Z</time>
      </trkpt>
      <trkpt lat="44.9507" lon="5.3979">
        <ele>909.54</ele>
        <time>2014-07-03T11:34:58Z</time>
      </trkpt>
      <trkpt lat="44.95067" lon="5.39792">
        <ele>910.03</ele>
        <time>2014-07-03T11:35:01Z</time>
      </trkpt>
      <trkpt lat="44.95064" lon="5.39811">
        <ele>910.99</ele>
        <time>2014-07-03T11:35:11Z</time>
      </trkpt>
      <trkpt lat="44.95062" lon="5.39814">
        <ele>911.95</ele>
        <time>2014-07-03T11:35:13Z</time>
      </trkpt>
      <trkpt lat="44.9506" lon="5.39819">
        <ele>912.43</ele>
        <time>2014-07-03T11:35:28Z</time>
      </trkpt>
      <trkpt lat="44.9506" lon="5.39819">
        <ele>912.43</ele>
        <time>2014-07-03T11:35:31Z</time>
      </trkpt>
      <trkpt lat="44.95056" lon="5.39814">
        <ele>912.43</ele>
        <time>2014-07-03T11:35:36Z</time>
      </trkpt>
      <trkpt lat="44.95054" lon="5.39809">
        <ele>912.91</ele>
        <time>2014-07-03T11:35:39Z</time>
      </trkpt>
      <trkpt lat="44.95049" lon="5.39802">
        <ele>913.39</ele>
        <time>2014-07-03T11:35:44Z</time>
      </trkpt>
      <trkpt lat="44.95028" lon="5.39789">
        <ele>914.83</ele>
        <time>2014-07-03T11:36:01Z</time>
      </trkpt>
      <trkpt lat="44.95016" lon="5.39762">
        <ele>913.87</ele>
        <time>2014-07-03T11:36:14Z</time>
      </trkpt>
      <trkpt lat="44.95015" lon="5.39758">
        <ele>914.35</ele>
        <time>2014-07-03T11:36:19Z</time>
      </trkpt>
      <trkpt lat="44.95007" lon="5.39758">
        <ele>913.39</ele>
        <time>2014-07-03T11:36:25Z</time>
      </trkpt>
      <trkpt lat="44.95003" lon="5.39757">
        <ele>913.87</ele>
        <time>2014-07-03T11:36:36Z</time>
      </trkpt>
      <trkpt lat="44.95003" lon="5.39755">
        <ele>912.91</ele>
        <time>2014-07-03T11:37:00Z</time>
      </trkpt>
      <trkpt lat="44.95008" lon="5.39756">
        <ele>913.39</ele>
        <time>2014-07-03T11:37:17Z</time>
      </trkpt>
      <trkpt lat="44.95011" lon="5.39754">
        <ele>913.39</ele>
        <time>2014-07-03T11:37:36Z</time>
      </trkpt>
      <trkpt lat="44.95012" lon="5.3976">
        <ele>913.87</ele>
        <time>2014-07-03T11:37:51Z</time>
      </trkpt>
      <trkpt lat="44.95016" lon="5.3979">
        <ele>915.79</ele>
        <time>2014-07-03T11:38:03Z</time>
      </trkpt>
      <trkpt lat="44.94992" lon="5.39799">
        <ele>917.24</ele>
        <time>2014-07-03T11:38:19Z</time>
      </trkpt>
      <trkpt lat="44.94971" lon="5.39803">
        <ele>919.16</ele>
        <time>2014-07-03T11:38:34Z</time>
      </trkpt>
      <trkpt lat="44.94958" lon="5.39798">
        <ele>920.12</ele>
        <time>2014-07-03T11:38:42Z</time>
      </trkpt>
      <trkpt lat="44.94934" lon="5.39773">
        <ele>922.04</ele>
        <time>2014-07-03T11:38:59Z</time>
      </trkpt>
      <trkpt lat="44.94909" lon="5.39745">
        <ele>923.96</ele>
        <time>2014-07-03T11:39:17Z</time>
      </trkpt>
      <trkpt lat="44.94905" lon="5.39737">
        <ele>923.96</ele>
        <time>2014-07-03T11:39:27Z</time>
      </trkpt>
      <trkpt lat="44.94904" lon="5.39736">
        <ele>924.45</ele>
        <time>2014-07-03T11:39:45Z</time>
      </trkpt>
      <trkpt lat="44.94902" lon="5.39731">
        <ele>924.45</ele>
        <time>2014-07-03T11:39:49Z</time>
      </trkpt>
      <trkpt lat="44.94899" lon="5.39724">
        <ele>924.93</ele>
        <time>2014-07-03T11:39:53Z</time>
      </trkpt>
      <trkpt lat="44.94899" lon="5.39719">
        <ele>924.45</ele>
        <time>2014-07-03T11:39:55Z</time>
      </trkpt>
      <trkpt lat="44.94907" lon="5.39688">
        <ele>926.37</ele>
        <time>2014-07-03T11:40:10Z</time>
      </trkpt>
      <trkpt lat="44.94919" lon="5.39664">
        <ele>927.81</ele>
        <time>2014-07-03T11:40:23Z</time>
      </trkpt>
      <trkpt lat="44.94931" lon="5.39628">
        <ele>930.21</ele>
        <time>2014-07-03T11:40:39Z</time>
      </trkpt>
      <trkpt lat="44.94926" lon="5.39614">
        <ele>930.69</ele>
        <time>2014-07-03T11:40:45Z</time>
      </trkpt>
      <trkpt lat="44.94918" lon="5.3961">
        <ele>930.69</ele>
        <time>2014-07-03T11:40:49Z</time>
      </trkpt>
      <trkpt lat="44.94891" lon="5.39613">
        <ele>932.14</ele>
        <time>2014-07-03T11:41:03Z</time>
      </trkpt>
      <trkpt lat="44.94859" lon="5.39598">
        <ele>935.02</ele>
        <time>2014-07-03T11:41:19Z</time>
      </trkpt>
      <trkpt lat="44.94828" lon="5.39577">
        <ele>936.94</ele>
        <time>2014-07-03T11:41:34Z</time>
      </trkpt>
      <trkpt lat="44.94797" lon="5.39565">
        <ele>938.38</ele>
        <time>2014-07-03T11:41:49Z</time>
      </trkpt>
      <trkpt lat="44.94764" lon="5.39552">
        <ele>939.35</ele>
        <time>2014-07-03T11:42:04Z</time>
      </trkpt>
      <trkpt lat="44.94734" lon="5.39541">
        <ele>940.79</ele>
        <time>2014-07-03T11:42:17Z</time>
      </trkpt>
      <trkpt lat="44.94704" lon="5.39525">
        <ele>943.19</ele>
        <time>2014-07-03T11:42:31Z</time>
      </trkpt>
      <trkpt lat="44.9468" lon="5.39546">
        <ele>943.67</ele>
        <time>2014-07-03T11:42:43Z</time>
      </trkpt>
      <trkpt lat="44.94679" lon="5.39546">
        <ele>944.15</ele>
        <time>2014-07-03T11:42:56Z</time>
      </trkpt>
      <trkpt lat="44.94679" lon="5.39546">
        <ele>940.79</ele>
        <time>2014-07-03T11:43:12Z</time>
      </trkpt>
      <trkpt lat="44.94679" lon="5.39546">
        <ele>948.48</ele>
        <time>2014-07-03T11:43:13Z</time>
      </trkpt>
      <trkpt lat="44.94679" lon="5.39546">
        <ele>944.15</ele>
        <time>2014-07-03T11:43:14Z</time>
      </trkpt>
      <trkpt lat="44.94679" lon="5.39547">
        <ele>944.15</ele>
        <time>2014-07-03T11:43:42Z</time>
      </trkpt>
      <trkpt lat="44.94679" lon="5.39546">
        <ele>944.15</ele>
        <time>2014-07-03T11:44:11Z</time>
      </trkpt>
      <trkpt lat="44.94679" lon="5.39546">
        <ele>943.67</ele>
        <time>2014-07-03T11:44:34Z</time>
      </trkpt>
      <trkpt lat="44.94678" lon="5.39546">
        <ele>944.15</ele>
        <time>2014-07-03T11:44:46Z</time>
      </trkpt>
      <trkpt lat="44.94656" lon="5.39529">
        <ele>943.67</ele>
        <time>2014-07-03T11:44:58Z</time>
      </trkpt>
      <trkpt lat="44.9462" lon="5.39498">
        <ele>942.23</ele>
        <time>2014-07-03T11:45:08Z</time>
      </trkpt>
      <trkpt lat="44.94595" lon="5.39458">
        <ele>943.67</ele>
        <time>2014-07-03T11:45:19Z</time>
      </trkpt>
      <trkpt lat="44.94578" lon="5.39444">
        <ele>945.11</ele>
        <time>2014-07-03T11:45:30Z</time>
      </trkpt>
      <trkpt lat="44.94576" lon="5.39443">
        <ele>945.59</ele>
        <time>2014-07-03T11:45:31Z</time>
      </trkpt>
      <trkpt lat="44.94576" lon="5.39441">
        <ele>945.59</ele>
        <time>2014-07-03T11:45:32Z</time>
      </trkpt>
      <trkpt lat="44.94574" lon="5.3944">
        <ele>945.59</ele>
        <time>2014-07-03T11:45:33Z</time>
      </trkpt>
      <trkpt lat="44.94573" lon="5.39438">
        <ele>945.59</ele>
        <time>2014-07-03T11:45:34Z</time>
      </trkpt>
      <trkpt lat="44.94572" lon="5.39438">
        <ele>945.59</ele>
        <time>2014-07-03T11:45:35Z</time>
      </trkpt>
      <trkpt lat="44.94571" lon="5.39437">
        <ele>945.59</ele>
        <time>2014-07-03T11:45:36Z</time>
      </trkpt>
      <trkpt lat="44.94569" lon="5.39436">
        <ele>946.07</ele>
        <time>2014-07-03T11:45:37Z</time>
      </trkpt>
      <trkpt lat="44.94568" lon="5.39435">
        <ele>946.56</ele>
        <time>2014-07-03T11:45:38Z</time>
      </trkpt>
      <trkpt lat="44.94556" lon="5.39426">
        <ele>947.52</ele>
        <time>2014-07-03T11:45:48Z</time>
      </trkpt>
      <trkpt lat="44.94555" lon="5.39424">
        <ele>947.04</ele>
        <time>2014-07-03T11:45:49Z</time>
      </trkpt>
      <trkpt lat="44.94554" lon="5.39422">
        <ele>947.52</ele>
        <time>2014-07-03T11:45:50Z</time>
      </trkpt>
      <trkpt lat="44.94553" lon="5.39421">
        <ele>948</ele>
        <time>2014-07-03T11:45:51Z</time>
      </trkpt>
      <trkpt lat="44.94552" lon="5.39419">
        <ele>948</ele>
        <time>2014-07-03T11:45:52Z</time>
      </trkpt>
      <trkpt lat="44.94551" lon="5.39418">
        <ele>947.52</ele>
        <time>2014-07-03T11:45:53Z</time>
      </trkpt>
      <trkpt lat="44.94549" lon="5.39418">
        <ele>948</ele>
        <time>2014-07-03T11:45:54Z</time>
      </trkpt>
      <trkpt lat="44.94547" lon="5.39416">
        <ele>948.48</ele>
        <time>2014-07-03T11:45:56Z</time>
      </trkpt>
      <trkpt lat="44.94546" lon="5.39414">
        <ele>948.48</ele>
        <time>2014-07-03T11:45:57Z</time>
      </trkpt>
      <trkpt lat="44.94545" lon="5.39413">
        <ele>948.48</ele>
        <time>2014-07-03T11:45:58Z</time>
      </trkpt>
      <trkpt lat="44.94544" lon="5.39412">
        <ele>948.96</ele>
        <time>2014-07-03T11:45:59Z</time>
      </trkpt>
      <trkpt lat="44.94543" lon="5.3941">
        <ele>948.48</ele>
        <time>2014-07-03T11:46:00Z</time>
      </trkpt>
      <trkpt lat="44.94541" lon="5.39409">
        <ele>948.48</ele>
        <time>2014-07-03T11:46:01Z</time>
      </trkpt>
      <trkpt lat="44.9454" lon="5.39408">
        <ele>948.48</ele>
        <time>2014-07-03T11:46:02Z</time>
      </trkpt>
      <trkpt lat="44.94539" lon="5.39407">
        <ele>948.96</ele>
        <time>2014-07-03T11:46:03Z</time>
      </trkpt>
      <trkpt lat="44.94538" lon="5.39405">
        <ele>948.96</ele>
        <time>2014-07-03T11:46:04Z</time>
      </trkpt>
      <trkpt lat="44.94537" lon="5.39404">
        <ele>948.48</ele>
        <time>2014-07-03T11:46:05Z</time>
      </trkpt>
      <trkpt lat="44.94535" lon="5.39403">
        <ele>948.96</ele>
        <time>2014-07-03T11:46:06Z</time>
      </trkpt>
      <trkpt lat="44.94515" lon="5.39388">
        <ele>948.96</ele>
        <time>2014-07-03T11:46:18Z</time>
      </trkpt>
      <trkpt lat="44.94492" lon="5.39368">
        <ele>948.48</ele>
        <time>2014-07-03T11:46:30Z</time>
      </trkpt>
      <trkpt lat="44.94464" lon="5.39343">
        <ele>948.96</ele>
        <time>2014-07-03T11:46:43Z</time>
      </trkpt>
      <trkpt lat="44.94441" lon="5.39323">
        <ele>949.92</ele>
        <time>2014-07-03T11:46:55Z</time>
      </trkpt>
      <trkpt lat="44.94414" lon="5.39311">
        <ele>951.36</ele>
        <time>2014-07-03T11:47:10Z</time>
      </trkpt>
      <trkpt lat="44.94401" lon="5.39309">
        <ele>952.32</ele>
        <time>2014-07-03T11:47:18Z</time>
      </trkpt>
      <trkpt lat="44.944" lon="5.39308">
        <ele>952.8</ele>
        <time>2014-07-03T11:47:19Z</time>
      </trkpt>
      <trkpt lat="44.94399" lon="5.39308">
        <ele>952.32</ele>
        <time>2014-07-03T11:47:20Z</time>
      </trkpt>
      <trkpt lat="44.94384" lon="5.39306">
        <ele>953.28</ele>
        <time>2014-07-03T11:47:31Z</time>
      </trkpt>
      <trkpt lat="44.94373" lon="5.39306">
        <ele>954.25</ele>
        <time>2014-07-03T11:47:39Z</time>
      </trkpt>
      <trkpt lat="44.94372" lon="5.39306">
        <ele>954.73</ele>
        <time>2014-07-03T11:47:40Z</time>
      </trkpt>
      <trkpt lat="44.94355" lon="5.39312">
        <ele>956.17</ele>
        <time>2014-07-03T11:47:55Z</time>
      </trkpt>
      <trkpt lat="44.94346" lon="5.39317">
        <ele>957.13</ele>
        <time>2014-07-03T11:48:03Z</time>
      </trkpt>
      <trkpt lat="44.9434" lon="5.3932">
        <ele>957.13</ele>
        <time>2014-07-03T11:48:08Z</time>
      </trkpt>
      <trkpt lat="44.94339" lon="5.39321">
        <ele>957.61</ele>
        <time>2014-07-03T11:48:09Z</time>
      </trkpt>
      <trkpt lat="44.94338" lon="5.39321">
        <ele>957.13</ele>
        <time>2014-07-03T11:48:10Z</time>
      </trkpt>
      <trkpt lat="44.94336" lon="5.39322">
        <ele>957.61</ele>
        <time>2014-07-03T11:48:11Z</time>
      </trkpt>
      <trkpt lat="44.94327" lon="5.39329">
        <ele>958.57</ele>
        <time>2014-07-03T11:48:20Z</time>
      </trkpt>
      <trkpt lat="44.94326" lon="5.3933">
        <ele>958.57</ele>
        <time>2014-07-03T11:48:21Z</time>
      </trkpt>
      <trkpt lat="44.9432" lon="5.39329">
        <ele>959.05</ele>
        <time>2014-07-03T11:48:26Z</time>
      </trkpt>
      <trkpt lat="44.94318" lon="5.39329">
        <ele>959.05</ele>
        <time>2014-07-03T11:48:27Z</time>
      </trkpt>
      <trkpt lat="44.94311" lon="5.39326">
        <ele>960.01</ele>
        <time>2014-07-03T11:48:34Z</time>
      </trkpt>
      <trkpt lat="44.94309" lon="5.39326">
        <ele>960.49</ele>
        <time>2014-07-03T11:48:35Z</time>
      </trkpt>
      <trkpt lat="44.94307" lon="5.39326">
        <ele>960.49</ele>
        <time>2014-07-03T11:48:36Z</time>
      </trkpt>
      <trkpt lat="44.94304" lon="5.39326">
        <ele>960.01</ele>
        <time>2014-07-03T11:48:37Z</time>
      </trkpt>
      <trkpt lat="44.94302" lon="5.39327">
        <ele>960.49</ele>
        <time>2014-07-03T11:48:38Z</time>
      </trkpt>
      <trkpt lat="44.94301" lon="5.39328">
        <ele>960.49</ele>
        <time>2014-07-03T11:48:39Z</time>
      </trkpt>
      <trkpt lat="44.94299" lon="5.39329">
        <ele>960.49</ele>
        <time>2014-07-03T11:48:40Z</time>
      </trkpt>
      <trkpt lat="44.94297" lon="5.3933">
        <ele>960.01</ele>
        <time>2014-07-03T11:48:41Z</time>
      </trkpt>
      <trkpt lat="44.94296" lon="5.3933">
        <ele>960.49</ele>
        <time>2014-07-03T11:48:42Z</time>
      </trkpt>
      <trkpt lat="44.94294" lon="5.39331">
        <ele>960.49</ele>
        <time>2014-07-03T11:48:43Z</time>
      </trkpt>
      <trkpt lat="44.94293" lon="5.39331">
        <ele>960.49</ele>
        <time>2014-07-03T11:48:44Z</time>
      </trkpt>
      <trkpt lat="44.94291" lon="5.39334">
        <ele>960.49</ele>
        <time>2014-07-03T11:48:46Z</time>
      </trkpt>
      <trkpt lat="44.9429" lon="5.39335">
        <ele>960.98</ele>
        <time>2014-07-03T11:48:47Z</time>
      </trkpt>
      <trkpt lat="44.94288" lon="5.39336">
        <ele>960.98</ele>
        <time>2014-07-03T11:48:48Z</time>
      </trkpt>
      <trkpt lat="44.94287" lon="5.39337">
        <ele>961.46</ele>
        <time>2014-07-03T11:48:49Z</time>
      </trkpt>
      <trkpt lat="44.94286" lon="5.39339">
        <ele>961.46</ele>
        <time>2014-07-03T11:48:50Z</time>
      </trkpt>
      <trkpt lat="44.94285" lon="5.3934">
        <ele>961.94</ele>
        <time>2014-07-03T11:48:51Z</time>
      </trkpt>
      <trkpt lat="44.94284" lon="5.39341">
        <ele>961.94</ele>
        <time>2014-07-03T11:48:52Z</time>
      </trkpt>
      <trkpt lat="44.94283" lon="5.39341">
        <ele>961.94</ele>
        <time>2014-07-03T11:48:53Z</time>
      </trkpt>
      <trkpt lat="44.94282" lon="5.39342">
        <ele>962.42</ele>
        <time>2014-07-03T11:48:54Z</time>
      </trkpt>
      <trkpt lat="44.9428" lon="5.39342">
        <ele>961.94</ele>
        <time>2014-07-03T11:48:55Z</time>
      </trkpt>
      <trkpt lat="44.94279" lon="5.39343">
        <ele>962.42</ele>
        <time>2014-07-03T11:48:56Z</time>
      </trkpt>
      <trkpt lat="44.94278" lon="5.39344">
        <ele>962.42</ele>
        <time>2014-07-03T11:48:57Z</time>
      </trkpt>
      <trkpt lat="44.94276" lon="5.39346">
        <ele>962.9</ele>
        <time>2014-07-03T11:49:00Z</time>
      </trkpt>
      <trkpt lat="44.94269" lon="5.39353">
        <ele>963.86</ele>
        <time>2014-07-03T11:49:12Z</time>
      </trkpt>
      <trkpt lat="44.94263" lon="5.39361">
        <ele>964.34</ele>
        <time>2014-07-03T11:49:21Z</time>
      </trkpt>
      <trkpt lat="44.94255" lon="5.3937">
        <ele>965.3</ele>
        <time>2014-07-03T11:49:34Z</time>
      </trkpt>
      <trkpt lat="44.9425" lon="5.39376">
        <ele>966.26</ele>
        <time>2014-07-03T11:49:44Z</time>
      </trkpt>
      <trkpt lat="44.94248" lon="5.39378">
        <ele>966.74</ele>
        <time>2014-07-03T11:49:53Z</time>
      </trkpt>
      <trkpt lat="44.94243" lon="5.39383">
        <ele>967.22</ele>
        <time>2014-07-03T11:50:06Z</time>
      </trkpt>
      <trkpt lat="44.94232" lon="5.39393">
        <ele>968.18</ele>
        <time>2014-07-03T11:50:19Z</time>
      </trkpt>
      <trkpt lat="44.94224" lon="5.39401">
        <ele>969.63</ele>
        <time>2014-07-03T11:50:32Z</time>
      </trkpt>
      <trkpt lat="44.94222" lon="5.39403">
        <ele>970.11</ele>
        <time>2014-07-03T11:50:35Z</time>
      </trkpt>
      <trkpt lat="44.94213" lon="5.39407">
        <ele>971.07</ele>
        <time>2014-07-03T11:50:47Z</time>
      </trkpt>
      <trkpt lat="44.94204" lon="5.39405">
        <ele>972.03</ele>
        <time>2014-07-03T11:51:01Z</time>
      </trkpt>
      <trkpt lat="44.94199" lon="5.394">
        <ele>972.51</ele>
        <time>2014-07-03T11:51:07Z</time>
      </trkpt>
      <trkpt lat="44.94196" lon="5.39395">
        <ele>972.03</ele>
        <time>2014-07-03T11:51:19Z</time>
      </trkpt>
      <trkpt lat="44.94192" lon="5.39395">
        <ele>972.51</ele>
        <time>2014-07-03T11:51:47Z</time>
      </trkpt>
      <trkpt lat="44.94191" lon="5.39396">
        <ele>972.51</ele>
        <time>2014-07-03T11:51:48Z</time>
      </trkpt>
      <trkpt lat="44.9419" lon="5.39405">
        <ele>973.95</ele>
        <time>2014-07-03T11:51:59Z</time>
      </trkpt>
      <trkpt lat="44.94185" lon="5.39413">
        <ele>975.88</ele>
        <time>2014-07-03T11:52:13Z</time>
      </trkpt>
      <trkpt lat="44.94182" lon="5.39423">
        <ele>978.28</ele>
        <time>2014-07-03T11:52:27Z</time>
      </trkpt>
      <trkpt lat="44.94183" lon="5.3943">
        <ele>977.8</ele>
        <time>2014-07-03T11:52:40Z</time>
      </trkpt>
      <trkpt lat="44.94185" lon="5.39434">
        <ele>978.28</ele>
        <time>2014-07-03T11:52:56Z</time>
      </trkpt>
      <trkpt lat="44.94188" lon="5.39444">
        <ele>979.72</ele>
        <time>2014-07-03T11:53:02Z</time>
      </trkpt>
      <trkpt lat="44.94188" lon="5.39446">
        <ele>980.2</ele>
        <time>2014-07-03T11:53:03Z</time>
      </trkpt>
      <trkpt lat="44.94189" lon="5.39456">
        <ele>981.64</ele>
        <time>2014-07-03T11:53:08Z</time>
      </trkpt>
      <trkpt lat="44.94189" lon="5.39457">
        <ele>982.12</ele>
        <time>2014-07-03T11:53:09Z</time>
      </trkpt>
      <trkpt lat="44.94188" lon="5.39459">
        <ele>982.6</ele>
        <time>2014-07-03T11:53:10Z</time>
      </trkpt>
      <trkpt lat="44.94189" lon="5.3946">
        <ele>982.6</ele>
        <time>2014-07-03T11:53:11Z</time>
      </trkpt>
      <trkpt lat="44.94188" lon="5.39464">
        <ele>983.09</ele>
        <time>2014-07-03T11:53:13Z</time>
      </trkpt>
      <trkpt lat="44.94187" lon="5.39466">
        <ele>983.57</ele>
        <time>2014-07-03T11:53:14Z</time>
      </trkpt>
      <trkpt lat="44.94186" lon="5.39468">
        <ele>983.57</ele>
        <time>2014-07-03T11:53:16Z</time>
      </trkpt>
      <trkpt lat="44.9419" lon="5.39476">
        <ele>984.53</ele>
        <time>2014-07-03T11:53:25Z</time>
      </trkpt>
      <trkpt lat="44.94197" lon="5.39485">
        <ele>985.97</ele>
        <time>2014-07-03T11:53:34Z</time>
      </trkpt>
      <trkpt lat="44.94197" lon="5.39487">
        <ele>986.45</ele>
        <time>2014-07-03T11:53:35Z</time>
      </trkpt>
      <trkpt lat="44.94197" lon="5.39488">
        <ele>986.45</ele>
        <time>2014-07-03T11:53:36Z</time>
      </trkpt>
      <trkpt lat="44.94194" lon="5.39492">
        <ele>986.45</ele>
        <time>2014-07-03T11:53:39Z</time>
      </trkpt>
      <trkpt lat="44.9418" lon="5.39496">
        <ele>987.89</ele>
        <time>2014-07-03T11:53:53Z</time>
      </trkpt>
      <trkpt lat="44.94179" lon="5.39496">
        <ele>987.89</ele>
        <time>2014-07-03T11:53:54Z</time>
      </trkpt>
      <trkpt lat="44.94178" lon="5.39496">
        <ele>988.37</ele>
        <time>2014-07-03T11:53:55Z</time>
      </trkpt>
      <trkpt lat="44.94177" lon="5.39496">
        <ele>987.89</ele>
        <time>2014-07-03T11:53:56Z</time>
      </trkpt>
      <trkpt lat="44.94175" lon="5.39496">
        <ele>988.37</ele>
        <time>2014-07-03T11:53:57Z</time>
      </trkpt>
      <trkpt lat="44.9416" lon="5.39501">
        <ele>988.85</ele>
        <time>2014-07-03T11:54:10Z</time>
      </trkpt>
      <trkpt lat="44.94148" lon="5.39505">
        <ele>990.78</ele>
        <time>2014-07-03T11:54:21Z</time>
      </trkpt>
      <trkpt lat="44.94147" lon="5.39506">
        <ele>990.3</ele>
        <time>2014-07-03T11:54:22Z</time>
      </trkpt>
      <trkpt lat="44.94146" lon="5.39506">
        <ele>991.26</ele>
        <time>2014-07-03T11:54:23Z</time>
      </trkpt>
      <trkpt lat="44.94143" lon="5.39509">
        <ele>991.26</ele>
        <time>2014-07-03T11:54:26Z</time>
      </trkpt>
      <trkpt lat="44.94142" lon="5.3951">
        <ele>991.26</ele>
        <time>2014-07-03T11:54:27Z</time>
      </trkpt>
      <trkpt lat="44.94138" lon="5.39513">
        <ele>991.74</ele>
        <time>2014-07-03T11:54:31Z</time>
      </trkpt>
      <trkpt lat="44.94134" lon="5.39519">
        <ele>992.7</ele>
        <time>2014-07-03T11:54:36Z</time>
      </trkpt>
      <trkpt lat="44.94133" lon="5.3952">
        <ele>992.7</ele>
        <time>2014-07-03T11:54:37Z</time>
      </trkpt>
      <trkpt lat="44.94132" lon="5.39521">
        <ele>993.18</ele>
        <time>2014-07-03T11:54:38Z</time>
      </trkpt>
      <trkpt lat="44.94131" lon="5.39521">
        <ele>993.66</ele>
        <time>2014-07-03T11:54:39Z</time>
      </trkpt>
      <trkpt lat="44.9413" lon="5.39522">
        <ele>993.18</ele>
        <time>2014-07-03T11:54:40Z</time>
      </trkpt>
      <trkpt lat="44.94127" lon="5.39522">
        <ele>993.66</ele>
        <time>2014-07-03T11:54:43Z</time>
      </trkpt>
      <trkpt lat="44.94126" lon="5.39523">
        <ele>993.18</ele>
        <time>2014-07-03T11:54:44Z</time>
      </trkpt>
      <trkpt lat="44.94124" lon="5.39523">
        <ele>993.66</ele>
        <time>2014-07-03T11:54:45Z</time>
      </trkpt>
      <trkpt lat="44.94123" lon="5.39523">
        <ele>993.66</ele>
        <time>2014-07-03T11:54:46Z</time>
      </trkpt>
      <trkpt lat="44.94122" lon="5.39523">
        <ele>993.66</ele>
        <time>2014-07-03T11:54:47Z</time>
      </trkpt>
      <trkpt lat="44.94121" lon="5.39523">
        <ele>993.66</ele>
        <time>2014-07-03T11:54:48Z</time>
      </trkpt>
      <trkpt lat="44.94118" lon="5.39526">
        <ele>993.66</ele>
        <time>2014-07-03T11:54:51Z</time>
      </trkpt>
      <trkpt lat="44.94116" lon="5.39535">
        <ele>994.62</ele>
        <time>2014-07-03T11:54:58Z</time>
      </trkpt>
      <trkpt lat="44.94116" lon="5.39536">
        <ele>994.62</ele>
        <time>2014-07-03T11:55:13Z</time>
      </trkpt>
      <trkpt lat="44.94114" lon="5.3954">
        <ele>995.1</ele>
        <time>2014-07-03T11:55:37Z</time>
      </trkpt>
      <trkpt lat="44.94111" lon="5.39541">
        <ele>995.58</ele>
        <time>2014-07-03T11:55:40Z</time>
      </trkpt>
      <trkpt lat="44.9411" lon="5.39542">
        <ele>995.1</ele>
        <time>2014-07-03T11:55:41Z</time>
      </trkpt>
      <trkpt lat="44.94109" lon="5.39543">
        <ele>995.58</ele>
        <time>2014-07-03T11:55:42Z</time>
      </trkpt>
      <trkpt lat="44.94103" lon="5.39545">
        <ele>996.06</ele>
        <time>2014-07-03T11:55:51Z</time>
      </trkpt>
      <trkpt lat="44.94102" lon="5.39546">
        <ele>996.54</ele>
        <time>2014-07-03T11:55:52Z</time>
      </trkpt>
      <trkpt lat="44.94101" lon="5.39547">
        <ele>996.54</ele>
        <time>2014-07-03T11:55:53Z</time>
      </trkpt>
      <trkpt lat="44.94098" lon="5.39548">
        <ele>997.02</ele>
        <time>2014-07-03T11:55:55Z</time>
      </trkpt>
      <trkpt lat="44.94097" lon="5.39549">
        <ele>997.02</ele>
        <time>2014-07-03T11:55:56Z</time>
      </trkpt>
      <trkpt lat="44.94096" lon="5.3955">
        <ele>997.02</ele>
        <time>2014-07-03T11:55:57Z</time>
      </trkpt>
      <trkpt lat="44.94073" lon="5.39561">
        <ele>997.02</ele>
        <time>2014-07-03T11:56:12Z</time>
      </trkpt>
      <trkpt lat="44.94046" lon="5.39571">
        <ele>997.02</ele>
        <time>2014-07-03T11:56:26Z</time>
      </trkpt>
      <trkpt lat="44.94025" lon="5.39578">
        <ele>997.02</ele>
        <time>2014-07-03T11:56:36Z</time>
      </trkpt>
      <trkpt lat="44.94007" lon="5.39611">
        <ele>997.51</ele>
        <time>2014-07-03T11:56:47Z</time>
      </trkpt>
      <trkpt lat="44.93993" lon="5.39649">
        <ele>998.47</ele>
        <time>2014-07-03T11:56:59Z</time>
      </trkpt>
      <trkpt lat="44.93991" lon="5.39658">
        <ele>999.43</ele>
        <time>2014-07-03T11:57:02Z</time>
      </trkpt>
      <trkpt lat="44.93989" lon="5.3966">
        <ele>999.91</ele>
        <time>2014-07-03T11:57:03Z</time>
      </trkpt>
      <trkpt lat="44.93988" lon="5.39662">
        <ele>999.43</ele>
        <time>2014-07-03T11:57:04Z</time>
      </trkpt>
      <trkpt lat="44.93987" lon="5.39664">
        <ele>999.43</ele>
        <time>2014-07-03T11:57:05Z</time>
      </trkpt>
      <trkpt lat="44.93986" lon="5.39667">
        <ele>999.91</ele>
        <time>2014-07-03T11:57:06Z</time>
      </trkpt>
      <trkpt lat="44.93984" lon="5.39668">
        <ele>999.91</ele>
        <time>2014-07-03T11:57:07Z</time>
      </trkpt>
      <trkpt lat="44.93967" lon="5.39694">
        <ele>1000.87</ele>
        <time>2014-07-03T11:57:20Z</time>
      </trkpt>
      <trkpt lat="44.9395" lon="5.39722">
        <ele>1002.31</ele>
        <time>2014-07-03T11:57:34Z</time>
      </trkpt>
      <trkpt lat="44.93938" lon="5.39736">
        <ele>1003.27</ele>
        <time>2014-07-03T11:57:45Z</time>
      </trkpt>
      <trkpt lat="44.93928" lon="5.39748">
        <ele>1004.72</ele>
        <time>2014-07-03T11:57:56Z</time>
      </trkpt>
      <trkpt lat="44.93927" lon="5.39749">
        <ele>1005.2</ele>
        <time>2014-07-03T11:57:57Z</time>
      </trkpt>
      <trkpt lat="44.93922" lon="5.39762">
        <ele>1007.12</ele>
        <time>2014-07-03T11:58:06Z</time>
      </trkpt>
      <trkpt lat="44.93922" lon="5.39763">
        <ele>1007.12</ele>
        <time>2014-07-03T11:58:07Z</time>
      </trkpt>
      <trkpt lat="44.93919" lon="5.39775">
        <ele>1008.56</ele>
        <time>2014-07-03T11:58:16Z</time>
      </trkpt>
      <trkpt lat="44.9391" lon="5.39778">
        <ele>1010</ele>
        <time>2014-07-03T11:58:28Z</time>
      </trkpt>
      <trkpt lat="44.93905" lon="5.39788">
        <ele>1011.44</ele>
        <time>2014-07-03T11:58:41Z</time>
      </trkpt>
      <trkpt lat="44.93897" lon="5.39796">
        <ele>1013.37</ele>
        <time>2014-07-03T11:58:55Z</time>
      </trkpt>
      <trkpt lat="44.93887" lon="5.39798">
        <ele>1014.81</ele>
        <time>2014-07-03T11:59:10Z</time>
      </trkpt>
      <trkpt lat="44.93878" lon="5.39803">
        <ele>1015.77</ele>
        <time>2014-07-03T11:59:24Z</time>
      </trkpt>
      <trkpt lat="44.93873" lon="5.39805">
        <ele>1017.21</ele>
        <time>2014-07-03T11:59:38Z</time>
      </trkpt>
      <trkpt lat="44.93872" lon="5.39805">
        <ele>1016.73</ele>
        <time>2014-07-03T12:00:07Z</time>
      </trkpt>
      <trkpt lat="44.93872" lon="5.39805">
        <ele>1016.73</ele>
        <time>2014-07-03T12:00:35Z</time>
      </trkpt>
      <trkpt lat="44.9387" lon="5.39803">
        <ele>1017.21</ele>
        <time>2014-07-03T12:01:02Z</time>
      </trkpt>
      <trkpt lat="44.93861" lon="5.39799">
        <ele>1017.69</ele>
        <time>2014-07-03T12:01:14Z</time>
      </trkpt>
      <trkpt lat="44.93856" lon="5.39796">
        <ele>1018.17</ele>
        <time>2014-07-03T12:01:18Z</time>
      </trkpt>
      <trkpt lat="44.93852" lon="5.39793">
        <ele>1018.65</ele>
        <time>2014-07-03T12:01:21Z</time>
      </trkpt>
      <trkpt lat="44.93847" lon="5.39791">
        <ele>1018.17</ele>
        <time>2014-07-03T12:01:25Z</time>
      </trkpt>
      <trkpt lat="44.93844" lon="5.39788">
        <ele>1019.13</ele>
        <time>2014-07-03T12:01:27Z</time>
      </trkpt>
      <trkpt lat="44.93828" lon="5.39777">
        <ele>1022.02</ele>
        <time>2014-07-03T12:01:41Z</time>
      </trkpt>
      <trkpt lat="44.93817" lon="5.39769">
        <ele>1023.46</ele>
        <time>2014-07-03T12:01:52Z</time>
      </trkpt>
      <trkpt lat="44.93815" lon="5.39769">
        <ele>1023.94</ele>
        <time>2014-07-03T12:01:54Z</time>
      </trkpt>
      <trkpt lat="44.938" lon="5.39777">
        <ele>1026.34</ele>
        <time>2014-07-03T12:02:08Z</time>
      </trkpt>
      <trkpt lat="44.93798" lon="5.39777">
        <ele>1026.34</ele>
        <time>2014-07-03T12:02:10Z</time>
      </trkpt>
      <trkpt lat="44.93795" lon="5.39776">
        <ele>1026.83</ele>
        <time>2014-07-03T12:02:13Z</time>
      </trkpt>
      <trkpt lat="44.93791" lon="5.39775">
        <ele>1027.31</ele>
        <time>2014-07-03T12:02:17Z</time>
      </trkpt>
      <trkpt lat="44.93785" lon="5.39774">
        <ele>1027.79</ele>
        <time>2014-07-03T12:02:22Z</time>
      </trkpt>
      <trkpt lat="44.93767" lon="5.39777">
        <ele>1029.23</ele>
        <time>2014-07-03T12:02:37Z</time>
      </trkpt>
      <trkpt lat="44.9375" lon="5.39781">
        <ele>1031.15</ele>
        <time>2014-07-03T12:02:52Z</time>
      </trkpt>
      <trkpt lat="44.93729" lon="5.39783">
        <ele>1032.11</ele>
        <time>2014-07-03T12:03:09Z</time>
      </trkpt>
      <trkpt lat="44.93722" lon="5.39784">
        <ele>1032.11</ele>
        <time>2014-07-03T12:03:14Z</time>
      </trkpt>
      <trkpt lat="44.93717" lon="5.39783">
        <ele>1032.11</ele>
        <time>2014-07-03T12:03:19Z</time>
      </trkpt>
      <trkpt lat="44.93696" lon="5.39785">
        <ele>1034.04</ele>
        <time>2014-07-03T12:03:36Z</time>
      </trkpt>
      <trkpt lat="44.93685" lon="5.39791">
        <ele>1035</ele>
        <time>2014-07-03T12:03:47Z</time>
      </trkpt>
      <trkpt lat="44.93679" lon="5.39795">
        <ele>1036.44</ele>
        <time>2014-07-03T12:03:53Z</time>
      </trkpt>
      <trkpt lat="44.93663" lon="5.39802">
        <ele>1040.28</ele>
        <time>2014-07-03T12:04:06Z</time>
      </trkpt>
      <trkpt lat="44.93655" lon="5.39805">
        <ele>1036.44</ele>
        <time>2014-07-03T12:04:13Z</time>
      </trkpt>
      <trkpt lat="44.93655" lon="5.39804">
        <ele>1042.21</ele>
        <time>2014-07-03T12:04:14Z</time>
      </trkpt>
      <trkpt lat="44.93646" lon="5.39804">
        <ele>1044.13</ele>
        <time>2014-07-03T12:04:27Z</time>
      </trkpt>
      <trkpt lat="44.93637" lon="5.39803">
        <ele>1045.57</ele>
        <time>2014-07-03T12:04:41Z</time>
      </trkpt>
      <trkpt lat="44.93626" lon="5.39803">
        <ele>1047.01</ele>
        <time>2014-07-03T12:04:54Z</time>
      </trkpt>
      <trkpt lat="44.93611" lon="5.39804">
        <ele>1048.45</ele>
        <time>2014-07-03T12:05:10Z</time>
      </trkpt>
      <trkpt lat="44.93608" lon="5.39805">
        <ele>1048.45</ele>
        <time>2014-07-03T12:05:19Z</time>
      </trkpt>
      <trkpt lat="44.9359" lon="5.39806">
        <ele>1050.38</ele>
        <time>2014-07-03T12:05:34Z</time>
      </trkpt>
      <trkpt lat="44.93585" lon="5.39806">
        <ele>1051.34</ele>
        <time>2014-07-03T12:05:39Z</time>
      </trkpt>
      <trkpt lat="44.93575" lon="5.39808">
        <ele>1051.82</ele>
        <time>2014-07-03T12:05:46Z</time>
      </trkpt>
      <trkpt lat="44.93569" lon="5.3981">
        <ele>1052.78</ele>
        <time>2014-07-03T12:05:51Z</time>
      </trkpt>
      <trkpt lat="44.93547" lon="5.39819">
        <ele>1054.7</ele>
        <time>2014-07-03T12:06:09Z</time>
      </trkpt>
      <trkpt lat="44.93524" lon="5.39821">
        <ele>1055.67</ele>
        <time>2014-07-03T12:06:25Z</time>
      </trkpt>
      <trkpt lat="44.935" lon="5.39824">
        <ele>1056.63</ele>
        <time>2014-07-03T12:06:41Z</time>
      </trkpt>
      <trkpt lat="44.93467" lon="5.39824">
        <ele>1057.11</ele>
        <time>2014-07-03T12:07:00Z</time>
      </trkpt>
      <trkpt lat="44.93436" lon="5.39825">
        <ele>1055.18</ele>
        <time>2014-07-03T12:07:13Z</time>
      </trkpt>
      <trkpt lat="44.93435" lon="5.39824">
        <ele>1055.18</ele>
        <time>2014-07-03T12:07:14Z</time>
      </trkpt>
      <trkpt lat="44.93428" lon="5.39818">
        <ele>1054.7</ele>
        <time>2014-07-03T12:07:20Z</time>
      </trkpt>
      <trkpt lat="44.93422" lon="5.3981">
        <ele>1053.26</ele>
        <time>2014-07-03T12:07:31Z</time>
      </trkpt>
      <trkpt lat="44.93409" lon="5.39798">
        <ele>1051.82</ele>
        <time>2014-07-03T12:07:41Z</time>
      </trkpt>
      <trkpt lat="44.93396" lon="5.39788">
        <ele>1049.9</ele>
        <time>2014-07-03T12:07:49Z</time>
      </trkpt>
      <trkpt lat="44.93394" lon="5.39787">
        <ele>1049.9</ele>
        <time>2014-07-03T12:07:50Z</time>
      </trkpt>
      <trkpt lat="44.93382" lon="5.39782">
        <ele>1047.97</ele>
        <time>2014-07-03T12:08:00Z</time>
      </trkpt>
      <trkpt lat="44.93359" lon="5.39779">
        <ele>1045.09</ele>
        <time>2014-07-03T12:08:13Z</time>
      </trkpt>
      <trkpt lat="44.93338" lon="5.39792">
        <ele>1042.21</ele>
        <time>2014-07-03T12:08:23Z</time>
      </trkpt>
      <trkpt lat="44.93319" lon="5.39833">
        <ele>1040.76</ele>
        <time>2014-07-03T12:08:35Z</time>
      </trkpt>
      <trkpt lat="44.93312" lon="5.39844">
        <ele>1041.73</ele>
        <time>2014-07-03T12:08:41Z</time>
      </trkpt>
      <trkpt lat="44.93305" lon="5.39844">
        <ele>1042.21</ele>
        <time>2014-07-03T12:08:46Z</time>
      </trkpt>
      <trkpt lat="44.93289" lon="5.39837">
        <ele>1043.17</ele>
        <time>2014-07-03T12:08:59Z</time>
      </trkpt>
      <trkpt lat="44.93274" lon="5.39844">
        <ele>1045.09</ele>
        <time>2014-07-03T12:09:11Z</time>
      </trkpt>
      <trkpt lat="44.93268" lon="5.39843">
        <ele>1046.05</ele>
        <time>2014-07-03T12:09:15Z</time>
      </trkpt>
      <trkpt lat="44.93251" lon="5.39843">
        <ele>1049.42</ele>
        <time>2014-07-03T12:09:29Z</time>
      </trkpt>
      <trkpt lat="44.93249" lon="5.39843">
        <ele>1049.9</ele>
        <time>2014-07-03T12:09:30Z</time>
      </trkpt>
      <trkpt lat="44.93237" lon="5.39837">
        <ele>1051.34</ele>
        <time>2014-07-03T12:09:40Z</time>
      </trkpt>
      <trkpt lat="44.93222" lon="5.39829">
        <ele>1052.78</ele>
        <time>2014-07-03T12:09:55Z</time>
      </trkpt>
      <trkpt lat="44.93204" lon="5.39834">
        <ele>1054.7</ele>
        <time>2014-07-03T12:10:10Z</time>
      </trkpt>
      <trkpt lat="44.93197" lon="5.39833">
        <ele>1054.22</ele>
        <time>2014-07-03T12:10:15Z</time>
      </trkpt>
      <trkpt lat="44.93191" lon="5.39834">
        <ele>1054.7</ele>
        <time>2014-07-03T12:10:19Z</time>
      </trkpt>
      <trkpt lat="44.93184" lon="5.39832">
        <ele>1055.18</ele>
        <time>2014-07-03T12:10:23Z</time>
      </trkpt>
      <trkpt lat="44.93155" lon="5.39828">
        <ele>1053.74</ele>
        <time>2014-07-03T12:10:37Z</time>
      </trkpt>
      <trkpt lat="44.93149" lon="5.39829">
        <ele>1053.26</ele>
        <time>2014-07-03T12:10:52Z</time>
      </trkpt>
      <trkpt lat="44.93149" lon="5.3983">
        <ele>1054.22</ele>
        <time>2014-07-03T12:11:31Z</time>
      </trkpt>
      <trkpt lat="44.93149" lon="5.3983">
        <ele>1053.74</ele>
        <time>2014-07-03T12:11:48Z</time>
      </trkpt>
      <trkpt lat="44.93142" lon="5.39828">
        <ele>1052.3</ele>
        <time>2014-07-03T12:12:00Z</time>
      </trkpt>
      <trkpt lat="44.9314" lon="5.39826">
        <ele>1052.78</ele>
        <time>2014-07-03T12:12:03Z</time>
      </trkpt>
      <trkpt lat="44.9313" lon="5.39827">
        <ele>1051.34</ele>
        <time>2014-07-03T12:12:16Z</time>
      </trkpt>
      <trkpt lat="44.93105" lon="5.39839">
        <ele>1049.9</ele>
        <time>2014-07-03T12:12:27Z</time>
      </trkpt>
      <trkpt lat="44.93085" lon="5.39849">
        <ele>1048.45</ele>
        <time>2014-07-03T12:12:39Z</time>
      </trkpt>
      <trkpt lat="44.93069" lon="5.39859">
        <ele>1048.45</ele>
        <time>2014-07-03T12:12:50Z</time>
      </trkpt>
      <trkpt lat="44.93053" lon="5.39869">
        <ele>1049.42</ele>
        <time>2014-07-03T12:13:01Z</time>
      </trkpt>
      <trkpt lat="44.9303" lon="5.39884">
        <ele>1051.34</ele>
        <time>2014-07-03T12:13:18Z</time>
      </trkpt>
      <trkpt lat="44.93029" lon="5.39885">
        <ele>1051.34</ele>
        <time>2014-07-03T12:13:19Z</time>
      </trkpt>
      <trkpt lat="44.93013" lon="5.39893">
        <ele>1053.26</ele>
        <time>2014-07-03T12:13:33Z</time>
      </trkpt>
      <trkpt lat="44.93012" lon="5.39897">
        <ele>1053.74</ele>
        <time>2014-07-03T12:13:36Z</time>
      </trkpt>
      <trkpt lat="44.93014" lon="5.39901">
        <ele>1054.22</ele>
        <time>2014-07-03T12:13:39Z</time>
      </trkpt>
      <trkpt lat="44.93012" lon="5.39908">
        <ele>1055.67</ele>
        <time>2014-07-03T12:13:49Z</time>
      </trkpt>
      <trkpt lat="44.93009" lon="5.39917">
        <ele>1057.59</ele>
        <time>2014-07-03T12:14:03Z</time>
      </trkpt>
      <trkpt lat="44.93004" lon="5.39922">
        <ele>1059.03</ele>
        <time>2014-07-03T12:14:11Z</time>
      </trkpt>
      <trkpt lat="44.92998" lon="5.39923">
        <ele>1058.55</ele>
        <time>2014-07-03T12:14:17Z</time>
      </trkpt>
      <trkpt lat="44.92995" lon="5.39923">
        <ele>1058.55</ele>
        <time>2014-07-03T12:14:19Z</time>
      </trkpt>
      <trkpt lat="44.92989" lon="5.39926">
        <ele>1059.03</ele>
        <time>2014-07-03T12:14:25Z</time>
      </trkpt>
      <trkpt lat="44.92979" lon="5.39933">
        <ele>1059.99</ele>
        <time>2014-07-03T12:14:38Z</time>
      </trkpt>
      <trkpt lat="44.92977" lon="5.39935">
        <ele>1059.99</ele>
        <time>2014-07-03T12:14:42Z</time>
      </trkpt>
      <trkpt lat="44.9297" lon="5.39939">
        <ele>1061.43</ele>
        <time>2014-07-03T12:14:54Z</time>
      </trkpt>
      <trkpt lat="44.92963" lon="5.39945">
        <ele>1061.91</ele>
        <time>2014-07-03T12:15:06Z</time>
      </trkpt>
      <trkpt lat="44.92947" lon="5.39953">
        <ele>1061.43</ele>
        <time>2014-07-03T12:15:19Z</time>
      </trkpt>
      <trkpt lat="44.92937" lon="5.39961">
        <ele>1059.99</ele>
        <time>2014-07-03T12:15:27Z</time>
      </trkpt>
      <trkpt lat="44.92932" lon="5.39969">
        <ele>1058.55</ele>
        <time>2014-07-03T12:15:34Z</time>
      </trkpt>
      <trkpt lat="44.92925" lon="5.39964">
        <ele>1058.07</ele>
        <time>2014-07-03T12:15:45Z</time>
      </trkpt>
      <trkpt lat="44.92925" lon="5.3996">
        <ele>1057.59</ele>
        <time>2014-07-03T12:15:49Z</time>
      </trkpt>
      <trkpt lat="44.92917" lon="5.39947">
        <ele>1056.15</ele>
        <time>2014-07-03T12:15:56Z</time>
      </trkpt>
      <trkpt lat="44.92913" lon="5.3992">
        <ele>1055.18</ele>
        <time>2014-07-03T12:16:03Z</time>
      </trkpt>
      <trkpt lat="44.92904" lon="5.3991">
        <ele>1053.74</ele>
        <time>2014-07-03T12:16:08Z</time>
      </trkpt>
      <trkpt lat="44.92891" lon="5.39904">
        <ele>1052.78</ele>
        <time>2014-07-03T12:16:15Z</time>
      </trkpt>
      <trkpt lat="44.92877" lon="5.39882">
        <ele>1051.82</ele>
        <time>2014-07-03T12:16:26Z</time>
      </trkpt>
      <trkpt lat="44.92865" lon="5.39879">
        <ele>1050.86</ele>
        <time>2014-07-03T12:16:31Z</time>
      </trkpt>
      <trkpt lat="44.92833" lon="5.39886">
        <ele>1048.94</ele>
        <time>2014-07-03T12:16:42Z</time>
      </trkpt>
      <trkpt lat="44.92825" lon="5.3989">
        <ele>1049.9</ele>
        <time>2014-07-03T12:16:47Z</time>
      </trkpt>
      <trkpt lat="44.92819" lon="5.39888">
        <ele>1050.86</ele>
        <time>2014-07-03T12:16:52Z</time>
      </trkpt>
      <trkpt lat="44.92814" lon="5.39887">
        <ele>1050.38</ele>
        <time>2014-07-03T12:16:56Z</time>
      </trkpt>
      <trkpt lat="44.92809" lon="5.39886">
        <ele>1049.9</ele>
        <time>2014-07-03T12:16:59Z</time>
      </trkpt>
      <trkpt lat="44.92791" lon="5.39902">
        <ele>1048.45</ele>
        <time>2014-07-03T12:17:11Z</time>
      </trkpt>
      <trkpt lat="44.92788" lon="5.3993">
        <ele>1050.38</ele>
        <time>2014-07-03T12:17:26Z</time>
      </trkpt>
      <trkpt lat="44.92787" lon="5.39939">
        <ele>1052.3</ele>
        <time>2014-07-03T12:17:36Z</time>
      </trkpt>
      <trkpt lat="44.92775" lon="5.39948">
        <ele>1053.26</ele>
        <time>2014-07-03T12:17:52Z</time>
      </trkpt>
      <trkpt lat="44.9277" lon="5.39953">
        <ele>1054.7</ele>
        <time>2014-07-03T12:18:03Z</time>
      </trkpt>
      <trkpt lat="44.92764" lon="5.39965">
        <ele>1055.67</ele>
        <time>2014-07-03T12:18:16Z</time>
      </trkpt>
      <trkpt lat="44.92761" lon="5.3997">
        <ele>1056.15</ele>
        <time>2014-07-03T12:18:20Z</time>
      </trkpt>
      <trkpt lat="44.92758" lon="5.39971">
        <ele>1056.15</ele>
        <time>2014-07-03T12:18:38Z</time>
      </trkpt>
      <trkpt lat="44.92758" lon="5.39973">
        <ele>1055.67</ele>
        <time>2014-07-03T12:18:59Z</time>
      </trkpt>
      <trkpt lat="44.92753" lon="5.39978">
        <ele>1054.7</ele>
        <time>2014-07-03T12:19:26Z</time>
      </trkpt>
      <trkpt lat="44.92748" lon="5.39983">
        <ele>1054.7</ele>
        <time>2014-07-03T12:19:29Z</time>
      </trkpt>
      <trkpt lat="44.92745" lon="5.39991">
        <ele>1053.26</ele>
        <time>2014-07-03T12:19:44Z</time>
      </trkpt>
      <trkpt lat="44.92742" lon="5.39993">
        <ele>1052.78</ele>
        <time>2014-07-03T12:19:49Z</time>
      </trkpt>
      <trkpt lat="44.92732" lon="5.40003">
        <ele>1050.86</ele>
        <time>2014-07-03T12:20:03Z</time>
      </trkpt>
      <trkpt lat="44.92725" lon="5.40009">
        <ele>1049.42</ele>
        <time>2014-07-03T12:20:15Z</time>
      </trkpt>
      <trkpt lat="44.92721" lon="5.40014">
        <ele>1048.45</ele>
        <time>2014-07-03T12:20:30Z</time>
      </trkpt>
      <trkpt lat="44.92718" lon="5.40018">
        <ele>1048.45</ele>
        <time>2014-07-03T12:20:41Z</time>
      </trkpt>
      <trkpt lat="44.92718" lon="5.40018">
        <ele>1048.45</ele>
        <time>2014-07-03T12:20:43Z</time>
      </trkpt>
      <trkpt lat="44.92716" lon="5.40026">
        <ele>1047.97</ele>
        <time>2014-07-03T12:20:48Z</time>
      </trkpt>
      <trkpt lat="44.92712" lon="5.40036">
        <ele>1047.97</ele>
        <time>2014-07-03T12:20:53Z</time>
      </trkpt>
      <trkpt lat="44.92708" lon="5.40044">
        <ele>1048.45</ele>
        <time>2014-07-03T12:21:03Z</time>
      </trkpt>
      <trkpt lat="44.92707" lon="5.40046">
        <ele>1048.94</ele>
        <time>2014-07-03T12:21:13Z</time>
      </trkpt>
      <trkpt lat="44.92698" lon="5.40056">
        <ele>1049.42</ele>
        <time>2014-07-03T12:21:25Z</time>
      </trkpt>
      <trkpt lat="44.92694" lon="5.40055">
        <ele>1048.94</ele>
        <time>2014-07-03T12:21:35Z</time>
      </trkpt>
      <trkpt lat="44.92692" lon="5.40055">
        <ele>1048.45</ele>
        <time>2014-07-03T12:21:38Z</time>
      </trkpt>
      <trkpt lat="44.9268" lon="5.40043">
        <ele>1048.45</ele>
        <time>2014-07-03T12:21:52Z</time>
      </trkpt>
      <trkpt lat="44.92675" lon="5.40037">
        <ele>1048.94</ele>
        <time>2014-07-03T12:22:05Z</time>
      </trkpt>
      <trkpt lat="44.92675" lon="5.40037">
        <ele>1048.94</ele>
        <time>2014-07-03T12:22:06Z</time>
      </trkpt>
      <trkpt lat="44.92666" lon="5.40041">
        <ele>1048.45</ele>
        <time>2014-07-03T12:22:14Z</time>
      </trkpt>
      <trkpt lat="44.92658" lon="5.40051">
        <ele>1047.49</ele>
        <time>2014-07-03T12:22:20Z</time>
      </trkpt>
      <trkpt lat="44.92652" lon="5.40056">
        <ele>1047.01</ele>
        <time>2014-07-03T12:22:32Z</time>
      </trkpt>
      <trkpt lat="44.92649" lon="5.40056">
        <ele>1045.57</ele>
        <time>2014-07-03T12:22:39Z</time>
      </trkpt>
      <trkpt lat="44.9264" lon="5.40056">
        <ele>1044.13</ele>
        <time>2014-07-03T12:22:48Z</time>
      </trkpt>
      <trkpt lat="44.92635" lon="5.40053">
        <ele>1044.13</ele>
        <time>2014-07-03T12:22:53Z</time>
      </trkpt>
      <trkpt lat="44.92626" lon="5.40042">
        <ele>1045.57</ele>
        <time>2014-07-03T12:23:06Z</time>
      </trkpt>
      <trkpt lat="44.92615" lon="5.40033">
        <ele>1047.49</ele>
        <time>2014-07-03T12:23:22Z</time>
      </trkpt>
      <trkpt lat="44.9261" lon="5.40029">
        <ele>1047.97</ele>
        <time>2014-07-03T12:23:28Z</time>
      </trkpt>
      <trkpt lat="44.92599" lon="5.40013">
        <ele>1048.94</ele>
        <time>2014-07-03T12:23:46Z</time>
      </trkpt>
      <trkpt lat="44.92599" lon="5.40012">
        <ele>1049.42</ele>
        <time>2014-07-03T12:24:04Z</time>
      </trkpt>
      <trkpt lat="44.92598" lon="5.4001">
        <ele>1049.42</ele>
        <time>2014-07-03T12:24:10Z</time>
      </trkpt>
      <trkpt lat="44.9258" lon="5.39979">
        <ele>1048.94</ele>
        <time>2014-07-03T12:24:23Z</time>
      </trkpt>
      <trkpt lat="44.92573" lon="5.39951">
        <ele>1049.9</ele>
        <time>2014-07-03T12:24:36Z</time>
      </trkpt>
      <trkpt lat="44.92564" lon="5.39938">
        <ele>1050.86</ele>
        <time>2014-07-03T12:24:45Z</time>
      </trkpt>
      <trkpt lat="44.92561" lon="5.39931">
        <ele>1051.34</ele>
        <time>2014-07-03T12:24:49Z</time>
      </trkpt>
      <trkpt lat="44.92559" lon="5.39927">
        <ele>1051.82</ele>
        <time>2014-07-03T12:24:52Z</time>
      </trkpt>
      <trkpt lat="44.92558" lon="5.39928">
        <ele>1052.3</ele>
        <time>2014-07-03T12:25:03Z</time>
      </trkpt>
      <trkpt lat="44.92557" lon="5.39926">
        <ele>1052.3</ele>
        <time>2014-07-03T12:25:29Z</time>
      </trkpt>
      <trkpt lat="44.92557" lon="5.39928">
        <ele>1052.3</ele>
        <time>2014-07-03T12:26:05Z</time>
      </trkpt>
      <trkpt lat="44.92557" lon="5.39927">
        <ele>1052.3</ele>
        <time>2014-07-03T12:26:30Z</time>
      </trkpt>
      <trkpt lat="44.92556" lon="5.39926">
        <ele>1052.3</ele>
        <time>2014-07-03T12:26:52Z</time>
      </trkpt>
      <trkpt lat="44.92556" lon="5.39926">
        <ele>1051.82</ele>
        <time>2014-07-03T12:27:23Z</time>
      </trkpt>
      <trkpt lat="44.92556" lon="5.39928">
        <ele>1051.82</ele>
        <time>2014-07-03T12:27:41Z</time>
      </trkpt>
      <trkpt lat="44.92556" lon="5.39929">
        <ele>1051.82</ele>
        <time>2014-07-03T12:28:26Z</time>
      </trkpt>
      <trkpt lat="44.92556" lon="5.39929">
        <ele>1051.82</ele>
        <time>2014-07-03T12:29:12Z</time>
      </trkpt>
      <trkpt lat="44.92557" lon="5.39928">
        <ele>1052.3</ele>
        <time>2014-07-03T12:29:56Z</time>
      </trkpt>
      <trkpt lat="44.92556" lon="5.3993">
        <ele>1052.3</ele>
        <time>2014-07-03T12:30:40Z</time>
      </trkpt>
      <trkpt lat="44.92556" lon="5.3993">
        <ele>1052.3</ele>
        <time>2014-07-03T12:31:28Z</time>
      </trkpt>
      <trkpt lat="44.92556" lon="5.39928">
        <ele>1052.78</ele>
        <time>2014-07-03T12:32:10Z</time>
      </trkpt>
      <trkpt lat="44.92558" lon="5.39928">
        <ele>1052.78</ele>
        <time>2014-07-03T12:32:54Z</time>
      </trkpt>
      <trkpt lat="44.92557" lon="5.39929">
        <ele>1052.78</ele>
        <time>2014-07-03T12:33:35Z</time>
      </trkpt>
      <trkpt lat="44.92555" lon="5.3993">
        <ele>1053.26</ele>
        <time>2014-07-03T12:34:15Z</time>
      </trkpt>
      <trkpt lat="44.92554" lon="5.39926">
        <ele>1053.74</ele>
        <time>2014-07-03T12:34:34Z</time>
      </trkpt>
      <trkpt lat="44.92551" lon="5.39924">
        <ele>1054.22</ele>
        <time>2014-07-03T12:34:41Z</time>
      </trkpt>
      <trkpt lat="44.92547" lon="5.39921">
        <ele>1054.22</ele>
        <time>2014-07-03T12:34:46Z</time>
      </trkpt>
      <trkpt lat="44.92542" lon="5.39917">
        <ele>1055.18</ele>
        <time>2014-07-03T12:34:53Z</time>
      </trkpt>
      <trkpt lat="44.92533" lon="5.39911">
        <ele>1055.18</ele>
        <time>2014-07-03T12:35:08Z</time>
      </trkpt>
      <trkpt lat="44.92517" lon="5.3989">
        <ele>1056.15</ele>
        <time>2014-07-03T12:35:21Z</time>
      </trkpt>
      <trkpt lat="44.92489" lon="5.39874">
        <ele>1056.15</ele>
        <time>2014-07-03T12:35:36Z</time>
      </trkpt>
      <trkpt lat="44.92461" lon="5.39852">
        <ele>1053.74</ele>
        <time>2014-07-03T12:35:47Z</time>
      </trkpt>
      <trkpt lat="44.92433" lon="5.39837">
        <ele>1054.22</ele>
        <time>2014-07-03T12:35:59Z</time>
      </trkpt>
      <trkpt lat="44.92391" lon="5.39829">
        <ele>1052.3</ele>
        <time>2014-07-03T12:36:13Z</time>
      </trkpt>
      <trkpt lat="44.92377" lon="5.39847">
        <ele>1052.3</ele>
        <time>2014-07-03T12:36:25Z</time>
      </trkpt>
      <trkpt lat="44.92375" lon="5.39852">
        <ele>1052.3</ele>
        <time>2014-07-03T12:36:28Z</time>
      </trkpt>
      <trkpt lat="44.92371" lon="5.39865">
        <ele>1051.82</ele>
        <time>2014-07-03T12:36:41Z</time>
      </trkpt>
      <trkpt lat="44.9237" lon="5.39867">
        <ele>1051.82</ele>
        <time>2014-07-03T12:37:11Z</time>
      </trkpt>
      <trkpt lat="44.9237" lon="5.39865">
        <ele>1051.82</ele>
        <time>2014-07-03T12:37:52Z</time>
      </trkpt>
      <trkpt lat="44.92371" lon="5.39866">
        <ele>1051.82</ele>
        <time>2014-07-03T12:38:35Z</time>
      </trkpt>
      <trkpt lat="44.92371" lon="5.39866">
        <ele>1051.82</ele>
        <time>2014-07-03T12:39:15Z</time>
      </trkpt>
      <trkpt lat="44.92371" lon="5.39866">
        <ele>1051.82</ele>
        <time>2014-07-03T12:39:54Z</time>
      </trkpt>
      <trkpt lat="44.92371" lon="5.39866">
        <ele>1051.82</ele>
        <time>2014-07-03T12:40:29Z</time>
      </trkpt>
      <trkpt lat="44.92371" lon="5.39866">
        <ele>1052.3</ele>
        <time>2014-07-03T12:41:07Z</time>
      </trkpt>
      <trkpt lat="44.92371" lon="5.39867">
        <ele>1052.3</ele>
        <time>2014-07-03T12:41:48Z</time>
      </trkpt>
      <trkpt lat="44.92372" lon="5.39868">
        <ele>1052.3</ele>
        <time>2014-07-03T12:42:26Z</time>
      </trkpt>
      <trkpt lat="44.92372" lon="5.39869">
        <ele>1052.78</ele>
        <time>2014-07-03T12:42:59Z</time>
      </trkpt>
      <trkpt lat="44.92372" lon="5.39869">
        <ele>1051.82</ele>
        <time>2014-07-03T12:43:36Z</time>
      </trkpt>
      <trkpt lat="44.92372" lon="5.39868">
        <ele>1051.82</ele>
        <time>2014-07-03T12:44:14Z</time>
      </trkpt>
      <trkpt lat="44.92371" lon="5.39867">
        <ele>1051.82</ele>
        <time>2014-07-03T12:44:51Z</time>
      </trkpt>
      <trkpt lat="44.9237" lon="5.39868">
        <ele>1052.3</ele>
        <time>2014-07-03T12:45:28Z</time>
      </trkpt>
      <trkpt lat="44.9237" lon="5.39868">
        <ele>1052.3</ele>
        <time>2014-07-03T12:46:03Z</time>
      </trkpt>
      <trkpt lat="44.9237" lon="5.39867">
        <ele>1052.3</ele>
        <time>2014-07-03T12:46:39Z</time>
      </trkpt>
      <trkpt lat="44.9237" lon="5.39867">
        <ele>1051.82</ele>
        <time>2014-07-03T12:47:14Z</time>
      </trkpt>
      <trkpt lat="44.92369" lon="5.39867">
        <ele>1051.82</ele>
        <time>2014-07-03T12:47:53Z</time>
      </trkpt>
      <trkpt lat="44.92371" lon="5.39867">
        <ele>1051.82</ele>
        <time>2014-07-03T12:48:37Z</time>
      </trkpt>
      <trkpt lat="44.92371" lon="5.39866">
        <ele>1052.78</ele>
        <time>2014-07-03T12:49:20Z</time>
      </trkpt>
      <trkpt lat="44.92372" lon="5.39866">
        <ele>1051.82</ele>
        <time>2014-07-03T12:50:00Z</time>
      </trkpt>
      <trkpt lat="44.92372" lon="5.39867">
        <ele>1052.78</ele>
        <time>2014-07-03T12:50:34Z</time>
      </trkpt>
      <trkpt lat="44.92371" lon="5.39866">
        <ele>1051.82</ele>
        <time>2014-07-03T12:51:19Z</time>
      </trkpt>
      <trkpt lat="44.92371" lon="5.39866">
        <ele>1052.78</ele>
        <time>2014-07-03T12:51:57Z</time>
      </trkpt>
      <trkpt lat="44.92371" lon="5.39866">
        <ele>1052.78</ele>
        <time>2014-07-03T12:52:35Z</time>
      </trkpt>
      <trkpt lat="44.92371" lon="5.39867">
        <ele>1052.3</ele>
        <time>2014-07-03T12:53:13Z</time>
      </trkpt>
      <trkpt lat="44.9237" lon="5.39866">
        <ele>1052.78</ele>
        <time>2014-07-03T12:53:52Z</time>
      </trkpt>
      <trkpt lat="44.92369" lon="5.39866">
        <ele>1052.78</ele>
        <time>2014-07-03T12:54:24Z</time>
      </trkpt>
      <trkpt lat="44.92369" lon="5.39867">
        <ele>1052.3</ele>
        <time>2014-07-03T12:55:00Z</time>
      </trkpt>
      <trkpt lat="44.9237" lon="5.39867">
        <ele>1052.3</ele>
        <time>2014-07-03T12:55:33Z</time>
      </trkpt>
      <trkpt lat="44.9237" lon="5.39868">
        <ele>1052.78</ele>
        <time>2014-07-03T12:56:05Z</time>
      </trkpt>
      <trkpt lat="44.92371" lon="5.39868">
        <ele>1052.3</ele>
        <time>2014-07-03T12:56:41Z</time>
      </trkpt>
      <trkpt lat="44.92371" lon="5.39868">
        <ele>1052.78</ele>
        <time>2014-07-03T12:57:17Z</time>
      </trkpt>
      <trkpt lat="44.9237" lon="5.39867">
        <ele>1052.78</ele>
        <time>2014-07-03T12:57:45Z</time>
      </trkpt>
      <trkpt lat="44.92371" lon="5.39866">
        <ele>1052.3</ele>
        <time>2014-07-03T12:58:15Z</time>
      </trkpt>
      <trkpt lat="44.92371" lon="5.39866">
        <ele>1052.3</ele>
        <time>2014-07-03T12:58:53Z</time>
      </trkpt>
      <trkpt lat="44.92372" lon="5.39865">
        <ele>1051.82</ele>
        <time>2014-07-03T12:59:25Z</time>
      </trkpt>
      <trkpt lat="44.92372" lon="5.39864">
        <ele>1052.3</ele>
        <time>2014-07-03T12:59:52Z</time>
      </trkpt>
      <trkpt lat="44.92371" lon="5.39865">
        <ele>1052.3</ele>
        <time>2014-07-03T13:00:24Z</time>
      </trkpt>
      <trkpt lat="44.92372" lon="5.39864">
        <ele>1051.82</ele>
        <time>2014-07-03T13:00:55Z</time>
      </trkpt>
      <trkpt lat="44.92371" lon="5.39864">
        <ele>1052.3</ele>
        <time>2014-07-03T13:01:28Z</time>
      </trkpt>
      <trkpt lat="44.92372" lon="5.39865">
        <ele>1052.3</ele>
        <time>2014-07-03T13:02:01Z</time>
      </trkpt>
      <trkpt lat="44.92371" lon="5.39864">
        <ele>1052.3</ele>
        <time>2014-07-03T13:02:37Z</time>
      </trkpt>
      <trkpt lat="44.92371" lon="5.39865">
        <ele>1052.3</ele>
        <time>2014-07-03T13:03:05Z</time>
      </trkpt>
      <trkpt lat="44.9237" lon="5.39868">
        <ele>1052.3</ele>
        <time>2014-07-03T13:03:37Z</time>
      </trkpt>
      <trkpt lat="44.92369" lon="5.3987">
        <ele>1052.78</ele>
        <time>2014-07-03T13:04:07Z</time>
      </trkpt>
      <trkpt lat="44.9237" lon="5.39871">
        <ele>1052.3</ele>
        <time>2014-07-03T13:04:40Z</time>
      </trkpt>
      <trkpt lat="44.9237" lon="5.3987">
        <ele>1053.26</ele>
        <time>2014-07-03T13:05:14Z</time>
      </trkpt>
      <trkpt lat="44.92369" lon="5.3987">
        <ele>1052.78</ele>
        <time>2014-07-03T13:05:48Z</time>
      </trkpt>
      <trkpt lat="44.92369" lon="5.3987">
        <ele>1052.78</ele>
        <time>2014-07-03T13:06:17Z</time>
      </trkpt>
      <trkpt lat="44.92369" lon="5.3987">
        <ele>1053.26</ele>
        <time>2014-07-03T13:06:48Z</time>
      </trkpt>
      <trkpt lat="44.92368" lon="5.39869">
        <ele>1053.26</ele>
        <time>2014-07-03T13:07:18Z</time>
      </trkpt>
      <trkpt lat="44.92368" lon="5.39868">
        <ele>1053.26</ele>
        <time>2014-07-03T13:07:48Z</time>
      </trkpt>
      <trkpt lat="44.92368" lon="5.39869">
        <ele>1053.26</ele>
        <time>2014-07-03T13:08:16Z</time>
      </trkpt>
      <trkpt lat="44.92367" lon="5.39869">
        <ele>1053.26</ele>
        <time>2014-07-03T13:08:49Z</time>
      </trkpt>
      <trkpt lat="44.92367" lon="5.39868">
        <ele>1053.26</ele>
        <time>2014-07-03T13:09:18Z</time>
      </trkpt>
      <trkpt lat="44.92368" lon="5.39867">
        <ele>1053.26</ele>
        <time>2014-07-03T13:09:56Z</time>
      </trkpt>
      <trkpt lat="44.92369" lon="5.39868">
        <ele>1052.78</ele>
        <time>2014-07-03T13:10:34Z</time>
      </trkpt>
      <trkpt lat="44.92369" lon="5.39868">
        <ele>1052.78</ele>
        <time>2014-07-03T13:11:06Z</time>
      </trkpt>
      <trkpt lat="44.9237" lon="5.39867">
        <ele>1052.3</ele>
        <time>2014-07-03T13:11:40Z</time>
      </trkpt>
      <trkpt lat="44.9237" lon="5.39867">
        <ele>1053.26</ele>
        <time>2014-07-03T13:12:12Z</time>
      </trkpt>
      <trkpt lat="44.9237" lon="5.39867">
        <ele>1053.26</ele>
        <time>2014-07-03T13:12:48Z</time>
      </trkpt>
      <trkpt lat="44.92369" lon="5.39868">
        <ele>1052.78</ele>
        <time>2014-07-03T13:13:21Z</time>
      </trkpt>
      <trkpt lat="44.92369" lon="5.39868">
        <ele>1052.78</ele>
        <time>2014-07-03T13:13:54Z</time>
      </trkpt>
      <trkpt lat="44.92369" lon="5.39865">
        <ele>1052.3</ele>
        <time>2014-07-03T13:14:28Z</time>
      </trkpt>
      <trkpt lat="44.92369" lon="5.39865">
        <ele>1053.26</ele>
        <time>2014-07-03T13:14:48Z</time>
      </trkpt>
      <trkpt lat="44.92369" lon="5.39867">
        <ele>1053.74</ele>
        <time>2014-07-03T13:14:59Z</time>
      </trkpt>
      <trkpt lat="44.92361" lon="5.39888">
        <ele>1053.74</ele>
        <time>2014-07-03T13:15:09Z</time>
      </trkpt>
      <trkpt lat="44.92351" lon="5.39913">
        <ele>1055.18</ele>
        <time>2014-07-03T13:15:22Z</time>
      </trkpt>
      <trkpt lat="44.92349" lon="5.39917">
        <ele>1055.18</ele>
        <time>2014-07-03T13:15:24Z</time>
      </trkpt>
      <trkpt lat="44.9233" lon="5.39933">
        <ele>1054.7</ele>
        <time>2014-07-03T13:15:36Z</time>
      </trkpt>
      <trkpt lat="44.92326" lon="5.3994">
        <ele>1055.18</ele>
        <time>2014-07-03T13:15:40Z</time>
      </trkpt>
      <trkpt lat="44.92321" lon="5.39951">
        <ele>1055.67</ele>
        <time>2014-07-03T13:15:46Z</time>
      </trkpt>
      <trkpt lat="44.923" lon="5.39981">
        <ele>1054.7</ele>
        <time>2014-07-03T13:15:58Z</time>
      </trkpt>
      <trkpt lat="44.92293" lon="5.40018">
        <ele>1054.7</ele>
        <time>2014-07-03T13:16:09Z</time>
      </trkpt>
      <trkpt lat="44.92286" lon="5.40063">
        <ele>1054.7</ele>
        <time>2014-07-03T13:16:24Z</time>
      </trkpt>
      <trkpt lat="44.92262" lon="5.40083">
        <ele>1054.22</ele>
        <time>2014-07-03T13:16:34Z</time>
      </trkpt>
      <trkpt lat="44.92252" lon="5.40088">
        <ele>1054.7</ele>
        <time>2014-07-03T13:16:39Z</time>
      </trkpt>
      <trkpt lat="44.92238" lon="5.40092">
        <ele>1056.63</ele>
        <time>2014-07-03T13:16:47Z</time>
      </trkpt>
      <trkpt lat="44.92218" lon="5.40092">
        <ele>1057.11</ele>
        <time>2014-07-03T13:16:59Z</time>
      </trkpt>
      <trkpt lat="44.92195" lon="5.40081">
        <ele>1058.55</ele>
        <time>2014-07-03T13:17:11Z</time>
      </trkpt>
      <trkpt lat="44.92191" lon="5.4008">
        <ele>1059.03</ele>
        <time>2014-07-03T13:17:13Z</time>
      </trkpt>
      <trkpt lat="44.92177" lon="5.40055">
        <ele>1059.99</ele>
        <time>2014-07-03T13:17:27Z</time>
      </trkpt>
      <trkpt lat="44.9216" lon="5.40026">
        <ele>1060.47</ele>
        <time>2014-07-03T13:17:42Z</time>
      </trkpt>
      <trkpt lat="44.92151" lon="5.4002">
        <ele>1079.7</ele>
        <time>2014-07-03T13:17:49Z</time>
      </trkpt>
      <trkpt lat="44.92151" lon="5.4002">
        <ele>1061.91</ele>
        <time>2014-07-03T13:17:50Z</time>
      </trkpt>
      <trkpt lat="44.92149" lon="5.40021">
        <ele>1055.18</ele>
        <time>2014-07-03T13:17:54Z</time>
      </trkpt>
      <trkpt lat="44.92149" lon="5.40021">
        <ele>1067.2</ele>
        <time>2014-07-03T13:17:55Z</time>
      </trkpt>
      <trkpt lat="44.92149" lon="5.40021">
        <ele>1062.87</ele>
        <time>2014-07-03T13:17:56Z</time>
      </trkpt>
      <trkpt lat="44.92146" lon="5.40021">
        <ele>1062.39</ele>
        <time>2014-07-03T13:18:06Z</time>
      </trkpt>
      <trkpt lat="44.9213" lon="5.40018">
        <ele>1063.36</ele>
        <time>2014-07-03T13:18:17Z</time>
      </trkpt>
      <trkpt lat="44.92125" lon="5.40014">
        <ele>1063.84</ele>
        <time>2014-07-03T13:18:21Z</time>
      </trkpt>
      <trkpt lat="44.92109" lon="5.39998">
        <ele>1065.28</ele>
        <time>2014-07-03T13:18:35Z</time>
      </trkpt>
      <trkpt lat="44.92087" lon="5.39986">
        <ele>1066.24</ele>
        <time>2014-07-03T13:18:47Z</time>
      </trkpt>
      <trkpt lat="44.92064" lon="5.39975">
        <ele>1067.2</ele>
        <time>2014-07-03T13:18:58Z</time>
      </trkpt>
      <trkpt lat="44.92044" lon="5.39969">
        <ele>1065.28</ele>
        <time>2014-07-03T13:19:08Z</time>
      </trkpt>
      <trkpt lat="44.92022" lon="5.39948">
        <ele>1065.28</ele>
        <time>2014-07-03T13:19:17Z</time>
      </trkpt>
      <trkpt lat="44.91997" lon="5.39943">
        <ele>1067.68</ele>
        <time>2014-07-03T13:19:28Z</time>
      </trkpt>
      <trkpt lat="44.91969" lon="5.39931">
        <ele>1069.12</ele>
        <time>2014-07-03T13:19:42Z</time>
      </trkpt>
      <trkpt lat="44.9193" lon="5.39928">
        <ele>1067.68</ele>
        <time>2014-07-03T13:19:53Z</time>
      </trkpt>
      <trkpt lat="44.91925" lon="5.39927">
        <ele>1067.2</ele>
        <time>2014-07-03T13:19:54Z</time>
      </trkpt>
      <trkpt lat="44.91921" lon="5.39925">
        <ele>1067.68</ele>
        <time>2014-07-03T13:19:55Z</time>
      </trkpt>
      <trkpt lat="44.91886" lon="5.39921">
        <ele>1067.68</ele>
        <time>2014-07-03T13:20:05Z</time>
      </trkpt>
      <trkpt lat="44.91853" lon="5.39928">
        <ele>1067.2</ele>
        <time>2014-07-03T13:20:17Z</time>
      </trkpt>
      <trkpt lat="44.91818" lon="5.39934">
        <ele>1066.24</ele>
        <time>2014-07-03T13:20:29Z</time>
      </trkpt>
      <trkpt lat="44.91787" lon="5.39936">
        <ele>1066.24</ele>
        <time>2014-07-03T13:20:40Z</time>
      </trkpt>
      <trkpt lat="44.91763" lon="5.39947">
        <ele>1064.8</ele>
        <time>2014-07-03T13:20:50Z</time>
      </trkpt>
      <trkpt lat="44.91736" lon="5.39961">
        <ele>1062.39</ele>
        <time>2014-07-03T13:20:59Z</time>
      </trkpt>
      <trkpt lat="44.91734" lon="5.39965">
        <ele>1061.91</ele>
        <time>2014-07-03T13:21:00Z</time>
      </trkpt>
      <trkpt lat="44.91732" lon="5.3997">
        <ele>1061.43</ele>
        <time>2014-07-03T13:21:01Z</time>
      </trkpt>
      <trkpt lat="44.91732" lon="5.39975">
        <ele>1061.91</ele>
        <time>2014-07-03T13:21:02Z</time>
      </trkpt>
      <trkpt lat="44.91732" lon="5.3998">
        <ele>1060.95</ele>
        <time>2014-07-03T13:21:03Z</time>
      </trkpt>
      <trkpt lat="44.91731" lon="5.39986">
        <ele>1060.95</ele>
        <time>2014-07-03T13:21:04Z</time>
      </trkpt>
      <trkpt lat="44.91717" lon="5.40038">
        <ele>1059.03</ele>
        <time>2014-07-03T13:21:16Z</time>
      </trkpt>
      <trkpt lat="44.91689" lon="5.40076">
        <ele>1057.11</ele>
        <time>2014-07-03T13:21:25Z</time>
      </trkpt>
      <trkpt lat="44.9168" lon="5.40083">
        <ele>1056.15</ele>
        <time>2014-07-03T13:21:27Z</time>
      </trkpt>
      <trkpt lat="44.91675" lon="5.40089">
        <ele>1055.67</ele>
        <time>2014-07-03T13:21:28Z</time>
      </trkpt>
      <trkpt lat="44.91643" lon="5.40133">
        <ele>1055.67</ele>
        <time>2014-07-03T13:21:38Z</time>
      </trkpt>
      <trkpt lat="44.9162" lon="5.40163">
        <ele>1057.11</ele>
        <time>2014-07-03T13:21:49Z</time>
      </trkpt>
      <trkpt lat="44.91614" lon="5.4017">
        <ele>1057.11</ele>
        <time>2014-07-03T13:21:53Z</time>
      </trkpt>
      <trkpt lat="44.91613" lon="5.40171">
        <ele>1057.11</ele>
        <time>2014-07-03T13:21:54Z</time>
      </trkpt>
      <trkpt lat="44.9161" lon="5.40174">
        <ele>1057.59</ele>
        <time>2014-07-03T13:21:56Z</time>
      </trkpt>
      <trkpt lat="44.91609" lon="5.40176">
        <ele>1057.11</ele>
        <time>2014-07-03T13:21:57Z</time>
      </trkpt>
      <trkpt lat="44.91608" lon="5.40178">
        <ele>1057.59</ele>
        <time>2014-07-03T13:21:58Z</time>
      </trkpt>
      <trkpt lat="44.91607" lon="5.4018">
        <ele>1058.07</ele>
        <time>2014-07-03T13:21:59Z</time>
      </trkpt>
      <trkpt lat="44.91605" lon="5.40182">
        <ele>1057.59</ele>
        <time>2014-07-03T13:22:00Z</time>
      </trkpt>
      <trkpt lat="44.91604" lon="5.40185">
        <ele>1058.07</ele>
        <time>2014-07-03T13:22:01Z</time>
      </trkpt>
      <trkpt lat="44.91603" lon="5.40186">
        <ele>1058.55</ele>
        <time>2014-07-03T13:22:02Z</time>
      </trkpt>
      <trkpt lat="44.91591" lon="5.40203">
        <ele>1060.47</ele>
        <time>2014-07-03T13:22:10Z</time>
      </trkpt>
      <trkpt lat="44.9159" lon="5.40207">
        <ele>1059.99</ele>
        <time>2014-07-03T13:22:12Z</time>
      </trkpt>
      <trkpt lat="44.91588" lon="5.40209">
        <ele>1062.87</ele>
        <time>2014-07-03T13:22:13Z</time>
      </trkpt>
      <trkpt lat="44.91587" lon="5.4021">
        <ele>1059.99</ele>
        <time>2014-07-03T13:22:14Z</time>
      </trkpt>
      <trkpt lat="44.91585" lon="5.40211">
        <ele>1060.95</ele>
        <time>2014-07-03T13:22:15Z</time>
      </trkpt>
      <trkpt lat="44.91583" lon="5.40211">
        <ele>1060.47</ele>
        <time>2014-07-03T13:22:16Z</time>
      </trkpt>
      <trkpt lat="44.91581" lon="5.40211">
        <ele>1060.47</ele>
        <time>2014-07-03T13:22:17Z</time>
      </trkpt>
      <trkpt lat="44.91579" lon="5.40211">
        <ele>1060.47</ele>
        <time>2014-07-03T13:22:18Z</time>
      </trkpt>
      <trkpt lat="44.91577" lon="5.40212">
        <ele>1061.43</ele>
        <time>2014-07-03T13:22:19Z</time>
      </trkpt>
      <trkpt lat="44.91576" lon="5.40213">
        <ele>1061.43</ele>
        <time>2014-07-03T13:22:20Z</time>
      </trkpt>
      <trkpt lat="44.91574" lon="5.40213">
        <ele>1061.43</ele>
        <time>2014-07-03T13:22:21Z</time>
      </trkpt>
      <trkpt lat="44.91573" lon="5.40213">
        <ele>1061.91</ele>
        <time>2014-07-03T13:22:22Z</time>
      </trkpt>
      <trkpt lat="44.91572" lon="5.40213">
        <ele>1061.91</ele>
        <time>2014-07-03T13:22:23Z</time>
      </trkpt>
      <trkpt lat="44.9157" lon="5.40212">
        <ele>1061.91</ele>
        <time>2014-07-03T13:22:24Z</time>
      </trkpt>
      <trkpt lat="44.91565" lon="5.40212">
        <ele>1062.39</ele>
        <time>2014-07-03T13:22:28Z</time>
      </trkpt>
      <trkpt lat="44.91564" lon="5.40212">
        <ele>1062.87</ele>
        <time>2014-07-03T13:22:29Z</time>
      </trkpt>
      <trkpt lat="44.91563" lon="5.40211">
        <ele>1062.87</ele>
        <time>2014-07-03T13:22:30Z</time>
      </trkpt>
      <trkpt lat="44.91563" lon="5.4021">
        <ele>1062.39</ele>
        <time>2014-07-03T13:22:31Z</time>
      </trkpt>
      <trkpt lat="44.91561" lon="5.4021">
        <ele>1063.36</ele>
        <time>2014-07-03T13:22:40Z</time>
      </trkpt>
      <trkpt lat="44.91562" lon="5.40212">
        <ele>1062.87</ele>
        <time>2014-07-03T13:22:45Z</time>
      </trkpt>
      <trkpt lat="44.91565" lon="5.40212">
        <ele>1062.87</ele>
        <time>2014-07-03T13:22:46Z</time>
      </trkpt>
      <trkpt lat="44.91567" lon="5.40214">
        <ele>1062.39</ele>
        <time>2014-07-03T13:22:47Z</time>
      </trkpt>
      <trkpt lat="44.91584" lon="5.40246">
        <ele>1062.39</ele>
        <time>2014-07-03T13:22:57Z</time>
      </trkpt>
      <trkpt lat="44.9159" lon="5.40293">
        <ele>1059.99</ele>
        <time>2014-07-03T13:23:07Z</time>
      </trkpt>
      <trkpt lat="44.91587" lon="5.4032">
        <ele>1062.39</ele>
        <time>2014-07-03T13:23:16Z</time>
      </trkpt>
      <trkpt lat="44.91579" lon="5.40361">
        <ele>1063.84</ele>
        <time>2014-07-03T13:23:31Z</time>
      </trkpt>
      <trkpt lat="44.91572" lon="5.40377">
        <ele>1065.28</ele>
        <time>2014-07-03T13:23:39Z</time>
      </trkpt>
      <trkpt lat="44.91572" lon="5.4038">
        <ele>1065.28</ele>
        <time>2014-07-03T13:23:40Z</time>
      </trkpt>
      <trkpt lat="44.91566" lon="5.4041">
        <ele>1066.24</ele>
        <time>2014-07-03T13:23:52Z</time>
      </trkpt>
      <trkpt lat="44.91566" lon="5.40416">
        <ele>1065.76</ele>
        <time>2014-07-03T13:23:54Z</time>
      </trkpt>
      <trkpt lat="44.91566" lon="5.40419">
        <ele>1065.76</ele>
        <time>2014-07-03T13:23:55Z</time>
      </trkpt>
      <trkpt lat="44.91566" lon="5.40423">
        <ele>1065.28</ele>
        <time>2014-07-03T13:23:56Z</time>
      </trkpt>
      <trkpt lat="44.91566" lon="5.40426">
        <ele>1065.76</ele>
        <time>2014-07-03T13:23:57Z</time>
      </trkpt>
      <trkpt lat="44.91565" lon="5.40429">
        <ele>1065.76</ele>
        <time>2014-07-03T13:23:58Z</time>
      </trkpt>
      <trkpt lat="44.91564" lon="5.40432">
        <ele>1065.76</ele>
        <time>2014-07-03T13:23:59Z</time>
      </trkpt>
      <trkpt lat="44.91563" lon="5.40435">
        <ele>1066.24</ele>
        <time>2014-07-03T13:24:00Z</time>
      </trkpt>
      <trkpt lat="44.91561" lon="5.40458">
        <ele>1067.2</ele>
        <time>2014-07-03T13:24:12Z</time>
      </trkpt>
      <trkpt lat="44.9156" lon="5.40461">
        <ele>1067.2</ele>
        <time>2014-07-03T13:24:13Z</time>
      </trkpt>
      <trkpt lat="44.91561" lon="5.40463">
        <ele>1067.68</ele>
        <time>2014-07-03T13:24:14Z</time>
      </trkpt>
      <trkpt lat="44.91561" lon="5.40465">
        <ele>1067.68</ele>
        <time>2014-07-03T13:24:15Z</time>
      </trkpt>
      <trkpt lat="44.91558" lon="5.40474">
        <ele>1067.68</ele>
        <time>2014-07-03T13:24:20Z</time>
      </trkpt>
      <trkpt lat="44.91557" lon="5.40475">
        <ele>1068.16</ele>
        <time>2014-07-03T13:24:21Z</time>
      </trkpt>
      <trkpt lat="44.91556" lon="5.40476">
        <ele>1067.68</ele>
        <time>2014-07-03T13:24:22Z</time>
      </trkpt>
      <trkpt lat="44.91555" lon="5.40478">
        <ele>1068.16</ele>
        <time>2014-07-03T13:24:23Z</time>
      </trkpt>
      <trkpt lat="44.91554" lon="5.4048">
        <ele>1068.16</ele>
        <time>2014-07-03T13:24:24Z</time>
      </trkpt>
      <trkpt lat="44.91552" lon="5.40481">
        <ele>1069.12</ele>
        <time>2014-07-03T13:24:25Z</time>
      </trkpt>
      <trkpt lat="44.91542" lon="5.40487">
        <ele>1070.08</ele>
        <time>2014-07-03T13:24:33Z</time>
      </trkpt>
      <trkpt lat="44.91541" lon="5.40488">
        <ele>1070.08</ele>
        <time>2014-07-03T13:24:34Z</time>
      </trkpt>
      <trkpt lat="44.9154" lon="5.40489">
        <ele>1070.57</ele>
        <time>2014-07-03T13:24:35Z</time>
      </trkpt>
      <trkpt lat="44.91538" lon="5.40493">
        <ele>1071.53</ele>
        <time>2014-07-03T13:24:40Z</time>
      </trkpt>
      <trkpt lat="44.91537" lon="5.40494">
        <ele>1071.53</ele>
        <time>2014-07-03T13:24:41Z</time>
      </trkpt>
      <trkpt lat="44.91535" lon="5.40495">
        <ele>1071.53</ele>
        <time>2014-07-03T13:24:42Z</time>
      </trkpt>
      <trkpt lat="44.91533" lon="5.40495">
        <ele>1071.53</ele>
        <time>2014-07-03T13:24:43Z</time>
      </trkpt>
      <trkpt lat="44.91529" lon="5.40499">
        <ele>1072.49</ele>
        <time>2014-07-03T13:24:51Z</time>
      </trkpt>
      <trkpt lat="44.91525" lon="5.40502">
        <ele>1072.97</ele>
        <time>2014-07-03T13:24:54Z</time>
      </trkpt>
      <trkpt lat="44.91515" lon="5.40511">
        <ele>1073.93</ele>
        <time>2014-07-03T13:25:04Z</time>
      </trkpt>
      <trkpt lat="44.91505" lon="5.40522">
        <ele>1074.41</ele>
        <time>2014-07-03T13:25:13Z</time>
      </trkpt>
      <trkpt lat="44.915" lon="5.40527">
        <ele>1075.37</ele>
        <time>2014-07-03T13:25:15Z</time>
      </trkpt>
      <trkpt lat="44.91491" lon="5.40541">
        <ele>1075.85</ele>
        <time>2014-07-03T13:25:23Z</time>
      </trkpt>
      <trkpt lat="44.9148" lon="5.40559">
        <ele>1076.33</ele>
        <time>2014-07-03T13:25:32Z</time>
      </trkpt>
      <trkpt lat="44.91478" lon="5.40563">
        <ele>1076.81</ele>
        <time>2014-07-03T13:25:35Z</time>
      </trkpt>
      <trkpt lat="44.91478" lon="5.40564">
        <ele>1076.81</ele>
        <time>2014-07-03T13:25:36Z</time>
      </trkpt>
      <trkpt lat="44.91477" lon="5.40566">
        <ele>1076.81</ele>
        <time>2014-07-03T13:25:37Z</time>
      </trkpt>
      <trkpt lat="44.91474" lon="5.40569">
        <ele>1077.29</ele>
        <time>2014-07-03T13:25:38Z</time>
      </trkpt>
      <trkpt lat="44.91474" lon="5.40571">
        <ele>1077.29</ele>
        <time>2014-07-03T13:25:39Z</time>
      </trkpt>
      <trkpt lat="44.91473" lon="5.40572">
        <ele>1077.29</ele>
        <time>2014-07-03T13:25:40Z</time>
      </trkpt>
      <trkpt lat="44.9147" lon="5.40577">
        <ele>1077.78</ele>
        <time>2014-07-03T13:25:41Z</time>
      </trkpt>
      <trkpt lat="44.91467" lon="5.4058">
        <ele>1077.78</ele>
        <time>2014-07-03T13:25:42Z</time>
      </trkpt>
      <trkpt lat="44.91463" lon="5.40584">
        <ele>1078.26</ele>
        <time>2014-07-03T13:25:45Z</time>
      </trkpt>
      <trkpt lat="44.91455" lon="5.40591">
        <ele>1078.74</ele>
        <time>2014-07-03T13:25:51Z</time>
      </trkpt>
      <trkpt lat="44.91453" lon="5.40592">
        <ele>1079.22</ele>
        <time>2014-07-03T13:25:52Z</time>
      </trkpt>
      <trkpt lat="44.91437" lon="5.40606">
        <ele>1080.66</ele>
        <time>2014-07-03T13:26:06Z</time>
      </trkpt>
      <trkpt lat="44.91432" lon="5.40613">
        <ele>1082.1</ele>
        <time>2014-07-03T13:26:14Z</time>
      </trkpt>
      <trkpt lat="44.91431" lon="5.40615">
        <ele>1082.1</ele>
        <time>2014-07-03T13:26:15Z</time>
      </trkpt>
      <trkpt lat="44.91423" lon="5.40623">
        <ele>1083.54</ele>
        <time>2014-07-03T13:26:23Z</time>
      </trkpt>
      <trkpt lat="44.91413" lon="5.40633">
        <ele>1084.99</ele>
        <time>2014-07-03T13:26:34Z</time>
      </trkpt>
      <trkpt lat="44.91408" lon="5.40635">
        <ele>1086.43</ele>
        <time>2014-07-03T13:26:38Z</time>
      </trkpt>
      <trkpt lat="44.91404" lon="5.40637">
        <ele>1087.39</ele>
        <time>2014-07-03T13:26:41Z</time>
      </trkpt>
      <trkpt lat="44.91398" lon="5.40639">
        <ele>1087.87</ele>
        <time>2014-07-03T13:26:47Z</time>
      </trkpt>
      <trkpt lat="44.91396" lon="5.4064">
        <ele>1088.35</ele>
        <time>2014-07-03T13:26:48Z</time>
      </trkpt>
      <trkpt lat="44.91395" lon="5.4064">
        <ele>1088.35</ele>
        <time>2014-07-03T13:26:49Z</time>
      </trkpt>
      <trkpt lat="44.91391" lon="5.40641">
        <ele>1088.83</ele>
        <time>2014-07-03T13:26:52Z</time>
      </trkpt>
      <trkpt lat="44.91389" lon="5.40641">
        <ele>1088.35</ele>
        <time>2014-07-03T13:26:53Z</time>
      </trkpt>
      <trkpt lat="44.91374" lon="5.40641">
        <ele>1090.27</ele>
        <time>2014-07-03T13:27:05Z</time>
      </trkpt>
      <trkpt lat="44.91373" lon="5.40641">
        <ele>1089.79</ele>
        <time>2014-07-03T13:27:06Z</time>
      </trkpt>
      <trkpt lat="44.9136" lon="5.4064">
        <ele>1091.71</ele>
        <time>2014-07-03T13:27:17Z</time>
      </trkpt>
      <trkpt lat="44.91359" lon="5.40639">
        <ele>1091.71</ele>
        <time>2014-07-03T13:27:18Z</time>
      </trkpt>
      <trkpt lat="44.9134" lon="5.40633">
        <ele>1094.12</ele>
        <time>2014-07-03T13:27:35Z</time>
      </trkpt>
      <trkpt lat="44.91338" lon="5.40631">
        <ele>1094.12</ele>
        <time>2014-07-03T13:27:37Z</time>
      </trkpt>
      <trkpt lat="44.91336" lon="5.40631">
        <ele>1094.6</ele>
        <time>2014-07-03T13:27:38Z</time>
      </trkpt>
      <trkpt lat="44.91335" lon="5.4063">
        <ele>1094.6</ele>
        <time>2014-07-03T13:27:39Z</time>
      </trkpt>
      <trkpt lat="44.91325" lon="5.4062">
        <ele>1097</ele>
        <time>2014-07-03T13:27:51Z</time>
      </trkpt>
      <trkpt lat="44.91315" lon="5.40613">
        <ele>1097.96</ele>
        <time>2014-07-03T13:28:00Z</time>
      </trkpt>
      <trkpt lat="44.91314" lon="5.40612">
        <ele>1097.96</ele>
        <time>2014-07-03T13:28:01Z</time>
      </trkpt>
      <trkpt lat="44.913" lon="5.40603">
        <ele>1098.44</ele>
        <time>2014-07-03T13:28:12Z</time>
      </trkpt>
      <trkpt lat="44.91298" lon="5.40601">
        <ele>1098.44</ele>
        <time>2014-07-03T13:28:13Z</time>
      </trkpt>
      <trkpt lat="44.91276" lon="5.40582">
        <ele>1099.89</ele>
        <time>2014-07-03T13:28:26Z</time>
      </trkpt>
      <trkpt lat="44.91252" lon="5.40582">
        <ele>1101.81</ele>
        <time>2014-07-03T13:28:37Z</time>
      </trkpt>
      <trkpt lat="44.91237" lon="5.40586">
        <ele>1103.25</ele>
        <time>2014-07-03T13:28:48Z</time>
      </trkpt>
      <trkpt lat="44.91215" lon="5.40593">
        <ele>1104.21</ele>
        <time>2014-07-03T13:29:00Z</time>
      </trkpt>
      <trkpt lat="44.9121" lon="5.40593">
        <ele>1103.73</ele>
        <time>2014-07-03T13:29:11Z</time>
      </trkpt>
      <trkpt lat="44.91211" lon="5.40595">
        <ele>1104.21</ele>
        <time>2014-07-03T13:29:38Z</time>
      </trkpt>
      <trkpt lat="44.91211" lon="5.40597">
        <ele>1103.25</ele>
        <time>2014-07-03T13:30:07Z</time>
      </trkpt>
      <trkpt lat="44.91212" lon="5.40597">
        <ele>1104.21</ele>
        <time>2014-07-03T13:30:36Z</time>
      </trkpt>
      <trkpt lat="44.91202" lon="5.40593">
        <ele>1104.69</ele>
        <time>2014-07-03T13:30:58Z</time>
      </trkpt>
      <trkpt lat="44.91176" lon="5.40577">
        <ele>1107.58</ele>
        <time>2014-07-03T13:31:12Z</time>
      </trkpt>
      <trkpt lat="44.91153" lon="5.40563">
        <ele>1109.02</ele>
        <time>2014-07-03T13:31:25Z</time>
      </trkpt>
      <trkpt lat="44.91126" lon="5.40552">
        <ele>1110.46</ele>
        <time>2014-07-03T13:31:39Z</time>
      </trkpt>
      <trkpt lat="44.91108" lon="5.40534">
        <ele>1112.38</ele>
        <time>2014-07-03T13:31:51Z</time>
      </trkpt>
      <trkpt lat="44.91091" lon="5.40522">
        <ele>1113.82</ele>
        <time>2014-07-03T13:32:01Z</time>
      </trkpt>
      <trkpt lat="44.91088" lon="5.4052">
        <ele>1114.79</ele>
        <time>2014-07-03T13:32:03Z</time>
      </trkpt>
      <trkpt lat="44.91087" lon="5.40519">
        <ele>1114.79</ele>
        <time>2014-07-03T13:32:04Z</time>
      </trkpt>
      <trkpt lat="44.91085" lon="5.40519">
        <ele>1114.79</ele>
        <time>2014-07-03T13:32:05Z</time>
      </trkpt>
      <trkpt lat="44.91059" lon="5.4051">
        <ele>1116.71</ele>
        <time>2014-07-03T13:32:19Z</time>
      </trkpt>
      <trkpt lat="44.91035" lon="5.40501">
        <ele>1115.75</ele>
        <time>2014-07-03T13:32:31Z</time>
      </trkpt>
      <trkpt lat="44.91002" lon="5.40506">
        <ele>1115.75</ele>
        <time>2014-07-03T13:32:42Z</time>
      </trkpt>
      <trkpt lat="44.90999" lon="5.40508">
        <ele>1115.27</ele>
        <time>2014-07-03T13:32:43Z</time>
      </trkpt>
      <trkpt lat="44.90976" lon="5.40526">
        <ele>1112.38</ele>
        <time>2014-07-03T13:32:48Z</time>
      </trkpt>
      <trkpt lat="44.9097" lon="5.40529">
        <ele>1112.38</ele>
        <time>2014-07-03T13:32:49Z</time>
      </trkpt>
      <trkpt lat="44.90964" lon="5.4053">
        <ele>1111.9</ele>
        <time>2014-07-03T13:32:50Z</time>
      </trkpt>
      <trkpt lat="44.90958" lon="5.4053">
        <ele>1111.9</ele>
        <time>2014-07-03T13:32:51Z</time>
      </trkpt>
      <trkpt lat="44.90951" lon="5.40529">
        <ele>1111.9</ele>
        <time>2014-07-03T13:32:52Z</time>
      </trkpt>
      <trkpt lat="44.90945" lon="5.40527">
        <ele>1111.9</ele>
        <time>2014-07-03T13:32:53Z</time>
      </trkpt>
      <trkpt lat="44.90938" lon="5.40525">
        <ele>1111.42</ele>
        <time>2014-07-03T13:32:54Z</time>
      </trkpt>
      <trkpt lat="44.90932" lon="5.40522">
        <ele>1111.42</ele>
        <time>2014-07-03T13:32:55Z</time>
      </trkpt>
      <trkpt lat="44.90927" lon="5.40517">
        <ele>1111.42</ele>
        <time>2014-07-03T13:32:56Z</time>
      </trkpt>
      <trkpt lat="44.90922" lon="5.40511">
        <ele>1110.94</ele>
        <time>2014-07-03T13:32:57Z</time>
      </trkpt>
      <trkpt lat="44.90917" lon="5.40504">
        <ele>1110.46</ele>
        <time>2014-07-03T13:32:58Z</time>
      </trkpt>
      <trkpt lat="44.90902" lon="5.40479">
        <ele>1108.54</ele>
        <time>2014-07-03T13:33:01Z</time>
      </trkpt>
      <trkpt lat="44.90854" lon="5.40402">
        <ele>1106.13</ele>
        <time>2014-07-03T13:33:10Z</time>
      </trkpt>
      <trkpt lat="44.90848" lon="5.40396">
        <ele>1105.65</ele>
        <time>2014-07-03T13:33:11Z</time>
      </trkpt>
      <trkpt lat="44.90833" lon="5.40388">
        <ele>1105.17</ele>
        <time>2014-07-03T13:33:13Z</time>
      </trkpt>
      <trkpt lat="44.90808" lon="5.40379">
        <ele>1102.77</ele>
        <time>2014-07-03T13:33:16Z</time>
      </trkpt>
      <trkpt lat="44.908" lon="5.40378">
        <ele>1103.73</ele>
        <time>2014-07-03T13:33:17Z</time>
      </trkpt>
      <trkpt lat="44.90794" lon="5.40378">
        <ele>1103.25</ele>
        <time>2014-07-03T13:33:18Z</time>
      </trkpt>
      <trkpt lat="44.9078" lon="5.40379">
        <ele>1101.81</ele>
        <time>2014-07-03T13:33:21Z</time>
      </trkpt>
      <trkpt lat="44.90776" lon="5.4038">
        <ele>1101.81</ele>
        <time>2014-07-03T13:33:22Z</time>
      </trkpt>
      <trkpt lat="44.90772" lon="5.4038">
        <ele>1101.81</ele>
        <time>2014-07-03T13:33:23Z</time>
      </trkpt>
      <trkpt lat="44.90733" lon="5.40378">
        <ele>1098.44</ele>
        <time>2014-07-03T13:33:31Z</time>
      </trkpt>
      <trkpt lat="44.90701" lon="5.40372">
        <ele>1095.08</ele>
        <time>2014-07-03T13:33:35Z</time>
      </trkpt>
      <trkpt lat="44.90669" lon="5.40367">
        <ele>1090.27</ele>
        <time>2014-07-03T13:33:38Z</time>
      </trkpt>
      <trkpt lat="44.90644" lon="5.40361">
        <ele>1086.91</ele>
        <time>2014-07-03T13:33:40Z</time>
      </trkpt>
      <trkpt lat="44.90588" lon="5.40347">
        <ele>1083.54</ele>
        <time>2014-07-03T13:33:45Z</time>
      </trkpt>
      <trkpt lat="44.9056" lon="5.40342">
        <ele>1082.1</ele>
        <time>2014-07-03T13:33:49Z</time>
      </trkpt>
      <trkpt lat="44.90556" lon="5.40344">
        <ele>1081.62</ele>
        <time>2014-07-03T13:33:50Z</time>
      </trkpt>
      <trkpt lat="44.90553" lon="5.40348">
        <ele>1081.62</ele>
        <time>2014-07-03T13:33:51Z</time>
      </trkpt>
      <trkpt lat="44.90551" lon="5.40353">
        <ele>1082.1</ele>
        <time>2014-07-03T13:33:52Z</time>
      </trkpt>
      <trkpt lat="44.9055" lon="5.40357">
        <ele>1082.58</ele>
        <time>2014-07-03T13:33:53Z</time>
      </trkpt>
      <trkpt lat="44.90551" lon="5.40361">
        <ele>1083.54</ele>
        <time>2014-07-03T13:33:54Z</time>
      </trkpt>
      <trkpt lat="44.90551" lon="5.40363">
        <ele>1083.06</ele>
        <time>2014-07-03T13:33:55Z</time>
      </trkpt>
      <trkpt lat="44.90551" lon="5.40366">
        <ele>1083.54</ele>
        <time>2014-07-03T13:33:56Z</time>
      </trkpt>
      <trkpt lat="44.90551" lon="5.40369">
        <ele>1083.54</ele>
        <time>2014-07-03T13:33:57Z</time>
      </trkpt>
      <trkpt lat="44.90552" lon="5.40372">
        <ele>1083.54</ele>
        <time>2014-07-03T13:33:58Z</time>
      </trkpt>
      <trkpt lat="44.90551" lon="5.40374">
        <ele>1083.54</ele>
        <time>2014-07-03T13:33:59Z</time>
      </trkpt>
      <trkpt lat="44.90551" lon="5.40377">
        <ele>1084.02</ele>
        <time>2014-07-03T13:34:00Z</time>
      </trkpt>
      <trkpt lat="44.90551" lon="5.40379">
        <ele>1084.02</ele>
        <time>2014-07-03T13:34:01Z</time>
      </trkpt>
      <trkpt lat="44.90551" lon="5.40381">
        <ele>1084.5</ele>
        <time>2014-07-03T13:34:02Z</time>
      </trkpt>
      <trkpt lat="44.90551" lon="5.40384">
        <ele>1084.99</ele>
        <time>2014-07-03T13:34:03Z</time>
      </trkpt>
      <trkpt lat="44.90547" lon="5.40409">
        <ele>1087.39</ele>
        <time>2014-07-03T13:34:13Z</time>
      </trkpt>
      <trkpt lat="44.90547" lon="5.40411">
        <ele>1086.91</ele>
        <time>2014-07-03T13:34:14Z</time>
      </trkpt>
      <trkpt lat="44.90546" lon="5.40414">
        <ele>1087.39</ele>
        <time>2014-07-03T13:34:15Z</time>
      </trkpt>
      <trkpt lat="44.90545" lon="5.40416">
        <ele>1087.39</ele>
        <time>2014-07-03T13:34:16Z</time>
      </trkpt>
      <trkpt lat="44.90545" lon="5.40418">
        <ele>1087.39</ele>
        <time>2014-07-03T13:34:17Z</time>
      </trkpt>
      <trkpt lat="44.9054" lon="5.40428">
        <ele>1087.87</ele>
        <time>2014-07-03T13:34:22Z</time>
      </trkpt>
      <trkpt lat="44.90537" lon="5.40429">
        <ele>1088.35</ele>
        <time>2014-07-03T13:34:23Z</time>
      </trkpt>
      <trkpt lat="44.90505" lon="5.40447">
        <ele>1089.79</ele>
        <time>2014-07-03T13:34:39Z</time>
      </trkpt>
      <trkpt lat="44.90475" lon="5.40462">
        <ele>1092.2</ele>
        <time>2014-07-03T13:34:55Z</time>
      </trkpt>
      <trkpt lat="44.90454" lon="5.40471">
        <ele>1094.12</ele>
        <time>2014-07-03T13:35:08Z</time>
      </trkpt>
      <trkpt lat="44.90429" lon="5.40463">
        <ele>1095.56</ele>
        <time>2014-07-03T13:35:21Z</time>
      </trkpt>
      <trkpt lat="44.90402" lon="5.40449">
        <ele>1097.48</ele>
        <time>2014-07-03T13:35:36Z</time>
      </trkpt>
      <trkpt lat="44.90379" lon="5.40425">
        <ele>1100.37</ele>
        <time>2014-07-03T13:35:52Z</time>
      </trkpt>
      <trkpt lat="44.90374" lon="5.40389">
        <ele>1102.29</ele>
        <time>2014-07-03T13:36:05Z</time>
      </trkpt>
      <trkpt lat="44.90373" lon="5.40356">
        <ele>1104.69</ele>
        <time>2014-07-03T13:36:18Z</time>
      </trkpt>
      <trkpt lat="44.90375" lon="5.40339">
        <ele>1105.65</ele>
        <time>2014-07-03T13:36:26Z</time>
      </trkpt>
      <trkpt lat="44.90375" lon="5.40337">
        <ele>1106.13</ele>
        <time>2014-07-03T13:36:27Z</time>
      </trkpt>
      <trkpt lat="44.90361" lon="5.40307">
        <ele>1107.58</ele>
        <time>2014-07-03T13:36:41Z</time>
      </trkpt>
      <trkpt lat="44.90332" lon="5.40298">
        <ele>1109.5</ele>
        <time>2014-07-03T13:36:56Z</time>
      </trkpt>
      <trkpt lat="44.90309" lon="5.40292">
        <ele>1110.94</ele>
        <time>2014-07-03T13:37:08Z</time>
      </trkpt>
      <trkpt lat="44.9028" lon="5.40287">
        <ele>1112.86</ele>
        <time>2014-07-03T13:37:23Z</time>
      </trkpt>
      <trkpt lat="44.90251" lon="5.40281">
        <ele>1115.27</ele>
        <time>2014-07-03T13:37:38Z</time>
      </trkpt>
      <trkpt lat="44.90213" lon="5.40273">
        <ele>1118.15</ele>
        <time>2014-07-03T13:37:57Z</time>
      </trkpt>
      <trkpt lat="44.90194" lon="5.40268">
        <ele>1119.11</ele>
        <time>2014-07-03T13:38:09Z</time>
      </trkpt>
      <trkpt lat="44.90193" lon="5.40266">
        <ele>1118.63</ele>
        <time>2014-07-03T13:38:11Z</time>
      </trkpt>
      <trkpt lat="44.90192" lon="5.40264">
        <ele>1118.63</ele>
        <time>2014-07-03T13:38:12Z</time>
      </trkpt>
      <trkpt lat="44.9019" lon="5.40263">
        <ele>1119.11</ele>
        <time>2014-07-03T13:38:25Z</time>
      </trkpt>
      <trkpt lat="44.9019" lon="5.40263">
        <ele>1119.59</ele>
        <time>2014-07-03T13:38:44Z</time>
      </trkpt>
      <trkpt lat="44.9019" lon="5.40263">
        <ele>1119.59</ele>
        <time>2014-07-03T13:39:08Z</time>
      </trkpt>
      <trkpt lat="44.9019" lon="5.40263">
        <ele>1119.11</ele>
        <time>2014-07-03T13:39:28Z</time>
      </trkpt>
      <trkpt lat="44.90191" lon="5.40261">
        <ele>1119.59</ele>
        <time>2014-07-03T13:39:52Z</time>
      </trkpt>
      <trkpt lat="44.90191" lon="5.40261">
        <ele>1120.07</ele>
        <time>2014-07-03T13:40:13Z</time>
      </trkpt>
      <trkpt lat="44.90192" lon="5.40259">
        <ele>1118.63</ele>
        <time>2014-07-03T13:40:20Z</time>
      </trkpt>
      <trkpt lat="44.90193" lon="5.40256">
        <ele>1118.63</ele>
        <time>2014-07-03T13:40:21Z</time>
      </trkpt>
      <trkpt lat="44.90193" lon="5.40252">
        <ele>1118.15</ele>
        <time>2014-07-03T13:40:22Z</time>
      </trkpt>
      <trkpt lat="44.90193" lon="5.40248">
        <ele>1117.67</ele>
        <time>2014-07-03T13:40:23Z</time>
      </trkpt>
      <trkpt lat="44.90191" lon="5.40243">
        <ele>1117.67</ele>
        <time>2014-07-03T13:40:24Z</time>
      </trkpt>
      <trkpt lat="44.90188" lon="5.40238">
        <ele>1117.19</ele>
        <time>2014-07-03T13:40:25Z</time>
      </trkpt>
      <trkpt lat="44.90185" lon="5.40232">
        <ele>1117.19</ele>
        <time>2014-07-03T13:40:26Z</time>
      </trkpt>
      <trkpt lat="44.90177" lon="5.4022">
        <ele>1115.75</ele>
        <time>2014-07-03T13:40:28Z</time>
      </trkpt>
      <trkpt lat="44.90159" lon="5.40197">
        <ele>1113.82</ele>
        <time>2014-07-03T13:40:32Z</time>
      </trkpt>
      <trkpt lat="44.90145" lon="5.40182">
        <ele>1111.9</ele>
        <time>2014-07-03T13:40:35Z</time>
      </trkpt>
      <trkpt lat="44.90137" lon="5.40172">
        <ele>1110.94</ele>
        <time>2014-07-03T13:40:37Z</time>
      </trkpt>
      <trkpt lat="44.90125" lon="5.40157">
        <ele>1109.02</ele>
        <time>2014-07-03T13:40:40Z</time>
      </trkpt>
      <trkpt lat="44.90122" lon="5.40151">
        <ele>1108.06</ele>
        <time>2014-07-03T13:40:41Z</time>
      </trkpt>
      <trkpt lat="44.90116" lon="5.4014">
        <ele>1106.61</ele>
        <time>2014-07-03T13:40:43Z</time>
      </trkpt>
      <trkpt lat="44.90113" lon="5.40134">
        <ele>1106.13</ele>
        <time>2014-07-03T13:40:44Z</time>
      </trkpt>
      <trkpt lat="44.90104" lon="5.40124">
        <ele>1105.65</ele>
        <time>2014-07-03T13:40:46Z</time>
      </trkpt>
      <trkpt lat="44.901" lon="5.40119">
        <ele>1104.69</ele>
        <time>2014-07-03T13:40:47Z</time>
      </trkpt>
      <trkpt lat="44.90089" lon="5.40109">
        <ele>1103.73</ele>
        <time>2014-07-03T13:40:49Z</time>
      </trkpt>
      <trkpt lat="44.90082" lon="5.40105">
        <ele>1104.21</ele>
        <time>2014-07-03T13:40:50Z</time>
      </trkpt>
      <trkpt lat="44.9007" lon="5.40098">
        <ele>1103.25</ele>
        <time>2014-07-03T13:40:52Z</time>
      </trkpt>
      <trkpt lat="44.90045" lon="5.40086">
        <ele>1101.33</ele>
        <time>2014-07-03T13:40:58Z</time>
      </trkpt>
      <trkpt lat="44.90044" lon="5.40081">
        <ele>1100.37</ele>
        <time>2014-07-03T13:40:59Z</time>
      </trkpt>
      <trkpt lat="44.90044" lon="5.40075">
        <ele>1099.4</ele>
        <time>2014-07-03T13:41:00Z</time>
      </trkpt>
      <trkpt lat="44.90045" lon="5.40069">
        <ele>1099.4</ele>
        <time>2014-07-03T13:41:01Z</time>
      </trkpt>
      <trkpt lat="44.90047" lon="5.40064">
        <ele>1098.92</ele>
        <time>2014-07-03T13:41:02Z</time>
      </trkpt>
      <trkpt lat="44.90052" lon="5.40059">
        <ele>1097.96</ele>
        <time>2014-07-03T13:41:03Z</time>
      </trkpt>
      <trkpt lat="44.90057" lon="5.40055">
        <ele>1097</ele>
        <time>2014-07-03T13:41:04Z</time>
      </trkpt>
      <trkpt lat="44.90062" lon="5.40051">
        <ele>1096.52</ele>
        <time>2014-07-03T13:41:05Z</time>
      </trkpt>
      <trkpt lat="44.90066" lon="5.40046">
        <ele>1096.04</ele>
        <time>2014-07-03T13:41:06Z</time>
      </trkpt>
      <trkpt lat="44.90071" lon="5.40041">
        <ele>1094.6</ele>
        <time>2014-07-03T13:41:07Z</time>
      </trkpt>
      <trkpt lat="44.90076" lon="5.40036">
        <ele>1093.64</ele>
        <time>2014-07-03T13:41:08Z</time>
      </trkpt>
      <trkpt lat="44.90086" lon="5.40028">
        <ele>1092.2</ele>
        <time>2014-07-03T13:41:10Z</time>
      </trkpt>
      <trkpt lat="44.90093" lon="5.40026">
        <ele>1091.71</ele>
        <time>2014-07-03T13:41:11Z</time>
      </trkpt>
      <trkpt lat="44.90099" lon="5.40025">
        <ele>1090.75</ele>
        <time>2014-07-03T13:41:12Z</time>
      </trkpt>
      <trkpt lat="44.90105" lon="5.40025">
        <ele>1090.75</ele>
        <time>2014-07-03T13:41:13Z</time>
      </trkpt>
      <trkpt lat="44.9011" lon="5.40025">
        <ele>1090.27</ele>
        <time>2014-07-03T13:41:14Z</time>
      </trkpt>
      <trkpt lat="44.90121" lon="5.40022">
        <ele>1089.31</ele>
        <time>2014-07-03T13:41:17Z</time>
      </trkpt>
      <trkpt lat="44.90123" lon="5.40019">
        <ele>1088.83</ele>
        <time>2014-07-03T13:41:18Z</time>
      </trkpt>
      <trkpt lat="44.90125" lon="5.40014">
        <ele>1088.35</ele>
        <time>2014-07-03T13:41:19Z</time>
      </trkpt>
      <trkpt lat="44.90127" lon="5.4001">
        <ele>1087.87</ele>
        <time>2014-07-03T13:41:20Z</time>
      </trkpt>
      <trkpt lat="44.90128" lon="5.40005">
        <ele>1086.91</ele>
        <time>2014-07-03T13:41:21Z</time>
      </trkpt>
      <trkpt lat="44.9013" lon="5.40001">
        <ele>1086.91</ele>
        <time>2014-07-03T13:41:22Z</time>
      </trkpt>
      <trkpt lat="44.90131" lon="5.39997">
        <ele>1086.43</ele>
        <time>2014-07-03T13:41:23Z</time>
      </trkpt>
      <trkpt lat="44.90131" lon="5.39993">
        <ele>1085.47</ele>
        <time>2014-07-03T13:41:24Z</time>
      </trkpt>
      <trkpt lat="44.9013" lon="5.39989">
        <ele>1084.99</ele>
        <time>2014-07-03T13:41:25Z</time>
      </trkpt>
      <trkpt lat="44.90129" lon="5.39986">
        <ele>1084.5</ele>
        <time>2014-07-03T13:41:26Z</time>
      </trkpt>
      <trkpt lat="44.90128" lon="5.39983">
        <ele>1084.02</ele>
        <time>2014-07-03T13:41:27Z</time>
      </trkpt>
      <trkpt lat="44.90127" lon="5.39979">
        <ele>1083.54</ele>
        <time>2014-07-03T13:41:28Z</time>
      </trkpt>
      <trkpt lat="44.90126" lon="5.39975">
        <ele>1082.58</ele>
        <time>2014-07-03T13:41:29Z</time>
      </trkpt>
      <trkpt lat="44.90125" lon="5.3997">
        <ele>1082.1</ele>
        <time>2014-07-03T13:41:30Z</time>
      </trkpt>
      <trkpt lat="44.90122" lon="5.39964">
        <ele>1081.62</ele>
        <time>2014-07-03T13:41:31Z</time>
      </trkpt>
      <trkpt lat="44.9012" lon="5.39957">
        <ele>1081.14</ele>
        <time>2014-07-03T13:41:32Z</time>
      </trkpt>
      <trkpt lat="44.90118" lon="5.39951">
        <ele>1081.14</ele>
        <time>2014-07-03T13:41:33Z</time>
      </trkpt>
      <trkpt lat="44.90116" lon="5.39938">
        <ele>1081.62</ele>
        <time>2014-07-03T13:41:42Z</time>
      </trkpt>
      <trkpt lat="44.90115" lon="5.39935">
        <ele>1080.18</ele>
        <time>2014-07-03T13:41:51Z</time>
      </trkpt>
      <trkpt lat="44.90115" lon="5.39932">
        <ele>1080.18</ele>
        <time>2014-07-03T13:41:52Z</time>
      </trkpt>
      <trkpt lat="44.90115" lon="5.39928">
        <ele>1079.7</ele>
        <time>2014-07-03T13:41:53Z</time>
      </trkpt>
      <trkpt lat="44.90116" lon="5.39926">
        <ele>1079.7</ele>
        <time>2014-07-03T13:41:54Z</time>
      </trkpt>
      <trkpt lat="44.90116" lon="5.39924">
        <ele>1079.7</ele>
        <time>2014-07-03T13:41:55Z</time>
      </trkpt>
      <trkpt lat="44.90114" lon="5.39915">
        <ele>1079.7</ele>
        <time>2014-07-03T13:42:05Z</time>
      </trkpt>
      <trkpt lat="44.90115" lon="5.39915">
        <ele>1080.18</ele>
        <time>2014-07-03T13:42:26Z</time>
      </trkpt>
      <trkpt lat="44.90115" lon="5.39913">
        <ele>1079.22</ele>
        <time>2014-07-03T13:42:37Z</time>
      </trkpt>
      <trkpt lat="44.90113" lon="5.39911">
        <ele>1079.22</ele>
        <time>2014-07-03T13:42:46Z</time>
      </trkpt>
      <trkpt lat="44.90114" lon="5.39908">
        <ele>1079.22</ele>
        <time>2014-07-03T13:43:02Z</time>
      </trkpt>
      <trkpt lat="44.90114" lon="5.39908">
        <ele>1079.22</ele>
        <time>2014-07-03T13:43:15Z</time>
      </trkpt>
      <trkpt lat="44.90115" lon="5.39906">
        <ele>1079.7</ele>
        <time>2014-07-03T13:43:19Z</time>
      </trkpt>
      <trkpt lat="44.90116" lon="5.39896">
        <ele>1079.22</ele>
        <time>2014-07-03T13:43:29Z</time>
      </trkpt>
      <trkpt lat="44.90108" lon="5.39842">
        <ele>1078.26</ele>
        <time>2014-07-03T13:43:41Z</time>
      </trkpt>
      <trkpt lat="44.90095" lon="5.39769">
        <ele>1075.85</ele>
        <time>2014-07-03T13:43:54Z</time>
      </trkpt>
      <trkpt lat="44.90092" lon="5.39762">
        <ele>1075.85</ele>
        <time>2014-07-03T13:43:55Z</time>
      </trkpt>
      <trkpt lat="44.90089" lon="5.39757">
        <ele>1074.89</ele>
        <time>2014-07-03T13:43:56Z</time>
      </trkpt>
      <trkpt lat="44.90084" lon="5.39752">
        <ele>1075.37</ele>
        <time>2014-07-03T13:43:57Z</time>
      </trkpt>
      <trkpt lat="44.9008" lon="5.39746">
        <ele>1074.41</ele>
        <time>2014-07-03T13:43:58Z</time>
      </trkpt>
      <trkpt lat="44.90077" lon="5.3974">
        <ele>1074.41</ele>
        <time>2014-07-03T13:43:59Z</time>
      </trkpt>
      <trkpt lat="44.90075" lon="5.39732">
        <ele>1074.41</ele>
        <time>2014-07-03T13:44:00Z</time>
      </trkpt>
      <trkpt lat="44.90073" lon="5.39724">
        <ele>1073.93</ele>
        <time>2014-07-03T13:44:01Z</time>
      </trkpt>
      <trkpt lat="44.90073" lon="5.39715">
        <ele>1072.97</ele>
        <time>2014-07-03T13:44:02Z</time>
      </trkpt>
      <trkpt lat="44.90075" lon="5.39706">
        <ele>1072.97</ele>
        <time>2014-07-03T13:44:03Z</time>
      </trkpt>
      <trkpt lat="44.90076" lon="5.39696">
        <ele>1072.01</ele>
        <time>2014-07-03T13:44:04Z</time>
      </trkpt>
      <trkpt lat="44.90077" lon="5.39675">
        <ele>1071.53</ele>
        <time>2014-07-03T13:44:06Z</time>
      </trkpt>
      <trkpt lat="44.90077" lon="5.39652">
        <ele>1070.08</ele>
        <time>2014-07-03T13:44:08Z</time>
      </trkpt>
      <trkpt lat="44.90078" lon="5.39641">
        <ele>1069.6</ele>
        <time>2014-07-03T13:44:09Z</time>
      </trkpt>
      <trkpt lat="44.90081" lon="5.3963">
        <ele>1069.6</ele>
        <time>2014-07-03T13:44:10Z</time>
      </trkpt>
      <trkpt lat="44.90089" lon="5.39611">
        <ele>1069.12</ele>
        <time>2014-07-03T13:44:12Z</time>
      </trkpt>
      <trkpt lat="44.90092" lon="5.39601">
        <ele>1068.64</ele>
        <time>2014-07-03T13:44:13Z</time>
      </trkpt>
      <trkpt lat="44.90101" lon="5.39549">
        <ele>1068.16</ele>
        <time>2014-07-03T13:44:18Z</time>
      </trkpt>
      <trkpt lat="44.90105" lon="5.3954">
        <ele>1067.68</ele>
        <time>2014-07-03T13:44:19Z</time>
      </trkpt>
      <trkpt lat="44.90109" lon="5.39532">
        <ele>1067.68</ele>
        <time>2014-07-03T13:44:20Z</time>
      </trkpt>
      <trkpt lat="44.90117" lon="5.39516">
        <ele>1067.2</ele>
        <time>2014-07-03T13:44:22Z</time>
      </trkpt>
      <trkpt lat="44.90119" lon="5.39507">
        <ele>1066.72</ele>
        <time>2014-07-03T13:44:23Z</time>
      </trkpt>
      <trkpt lat="44.9012" lon="5.39497">
        <ele>1066.24</ele>
        <time>2014-07-03T13:44:24Z</time>
      </trkpt>
      <trkpt lat="44.90121" lon="5.3947">
        <ele>1066.24</ele>
        <time>2014-07-03T13:44:27Z</time>
      </trkpt>
      <trkpt lat="44.9012" lon="5.39463">
        <ele>1067.68</ele>
        <time>2014-07-03T13:44:28Z</time>
      </trkpt>
      <trkpt lat="44.90119" lon="5.39457">
        <ele>1067.68</ele>
        <time>2014-07-03T13:44:29Z</time>
      </trkpt>
      <trkpt lat="44.90117" lon="5.39452">
        <ele>1068.16</ele>
        <time>2014-07-03T13:44:30Z</time>
      </trkpt>
      <trkpt lat="44.90115" lon="5.39448">
        <ele>1068.16</ele>
        <time>2014-07-03T13:44:31Z</time>
      </trkpt>
      <trkpt lat="44.90112" lon="5.39439">
        <ele>1064.8</ele>
        <time>2014-07-03T13:44:34Z</time>
      </trkpt>
      <trkpt lat="44.90112" lon="5.39437">
        <ele>1068.64</ele>
        <time>2014-07-03T13:44:35Z</time>
      </trkpt>
      <trkpt lat="44.90111" lon="5.39436">
        <ele>1068.64</ele>
        <time>2014-07-03T13:44:36Z</time>
      </trkpt>
      <trkpt lat="44.9011" lon="5.39434">
        <ele>1068.16</ele>
        <time>2014-07-03T13:44:37Z</time>
      </trkpt>
      <trkpt lat="44.90109" lon="5.39432">
        <ele>1068.64</ele>
        <time>2014-07-03T13:44:38Z</time>
      </trkpt>
      <trkpt lat="44.90109" lon="5.39429">
        <ele>1068.64</ele>
        <time>2014-07-03T13:44:39Z</time>
      </trkpt>
      <trkpt lat="44.90109" lon="5.39427">
        <ele>1068.64</ele>
        <time>2014-07-03T13:44:40Z</time>
      </trkpt>
      <trkpt lat="44.90109" lon="5.39425">
        <ele>1069.12</ele>
        <time>2014-07-03T13:44:41Z</time>
      </trkpt>
      <trkpt lat="44.9011" lon="5.39424">
        <ele>1068.64</ele>
        <time>2014-07-03T13:44:52Z</time>
      </trkpt>
      <trkpt lat="44.9011" lon="5.39423">
        <ele>1069.12</ele>
        <time>2014-07-03T13:45:03Z</time>
      </trkpt>
      <trkpt lat="44.9011" lon="5.39422">
        <ele>1068.64</ele>
        <time>2014-07-03T13:45:10Z</time>
      </trkpt>
      <trkpt lat="44.90109" lon="5.39414">
        <ele>1069.12</ele>
        <time>2014-07-03T13:45:24Z</time>
      </trkpt>
      <trkpt lat="44.90109" lon="5.3941">
        <ele>1069.12</ele>
        <time>2014-07-03T13:45:38Z</time>
      </trkpt>
      <trkpt lat="44.9011" lon="5.39409">
        <ele>1069.12</ele>
        <time>2014-07-03T13:45:53Z</time>
      </trkpt>
      <trkpt lat="44.9011" lon="5.39407">
        <ele>1069.12</ele>
        <time>2014-07-03T13:45:54Z</time>
      </trkpt>
      <trkpt lat="44.9011" lon="5.39404">
        <ele>1069.12</ele>
        <time>2014-07-03T13:45:55Z</time>
      </trkpt>
      <trkpt lat="44.90111" lon="5.39402">
        <ele>1069.12</ele>
        <time>2014-07-03T13:45:56Z</time>
      </trkpt>
      <trkpt lat="44.90111" lon="5.39399">
        <ele>1069.6</ele>
        <time>2014-07-03T13:45:57Z</time>
      </trkpt>
      <trkpt lat="44.90112" lon="5.39396">
        <ele>1069.6</ele>
        <time>2014-07-03T13:45:58Z</time>
      </trkpt>
      <trkpt lat="44.90113" lon="5.39393">
        <ele>1069.12</ele>
        <time>2014-07-03T13:45:59Z</time>
      </trkpt>
      <trkpt lat="44.90113" lon="5.3939">
        <ele>1069.6</ele>
        <time>2014-07-03T13:46:00Z</time>
      </trkpt>
      <trkpt lat="44.90114" lon="5.39387">
        <ele>1069.12</ele>
        <time>2014-07-03T13:46:01Z</time>
      </trkpt>
      <trkpt lat="44.90115" lon="5.39383">
        <ele>1069.6</ele>
        <time>2014-07-03T13:46:02Z</time>
      </trkpt>
      <trkpt lat="44.90129" lon="5.39324">
        <ele>1068.16</ele>
        <time>2014-07-03T13:46:15Z</time>
      </trkpt>
      <trkpt lat="44.90146" lon="5.39232">
        <ele>1067.2</ele>
        <time>2014-07-03T13:46:29Z</time>
      </trkpt>
      <trkpt lat="44.90153" lon="5.39208">
        <ele>1067.68</ele>
        <time>2014-07-03T13:46:33Z</time>
      </trkpt>
      <trkpt lat="44.90158" lon="5.39196">
        <ele>1068.16</ele>
        <time>2014-07-03T13:46:35Z</time>
      </trkpt>
      <trkpt lat="44.90163" lon="5.39185">
        <ele>1068.64</ele>
        <time>2014-07-03T13:46:37Z</time>
      </trkpt>
      <trkpt lat="44.90176" lon="5.39132">
        <ele>1069.12</ele>
        <time>2014-07-03T13:46:48Z</time>
      </trkpt>
      <trkpt lat="44.90174" lon="5.39072">
        <ele>1066.24</ele>
        <time>2014-07-03T13:46:55Z</time>
      </trkpt>
      <trkpt lat="44.90175" lon="5.39063">
        <ele>1065.76</ele>
        <time>2014-07-03T13:46:56Z</time>
      </trkpt>
      <trkpt lat="44.90177" lon="5.39053">
        <ele>1065.76</ele>
        <time>2014-07-03T13:46:57Z</time>
      </trkpt>
      <trkpt lat="44.90179" lon="5.39045">
        <ele>1065.76</ele>
        <time>2014-07-03T13:46:58Z</time>
      </trkpt>
      <trkpt lat="44.90181" lon="5.39039">
        <ele>1065.76</ele>
        <time>2014-07-03T13:46:59Z</time>
      </trkpt>
      <trkpt lat="44.90183" lon="5.39034">
        <ele>1065.28</ele>
        <time>2014-07-03T13:47:00Z</time>
      </trkpt>
      <trkpt lat="44.90185" lon="5.39029">
        <ele>1065.28</ele>
        <time>2014-07-03T13:47:01Z</time>
      </trkpt>
      <trkpt lat="44.90188" lon="5.39025">
        <ele>1065.28</ele>
        <time>2014-07-03T13:47:02Z</time>
      </trkpt>
      <trkpt lat="44.90192" lon="5.39021">
        <ele>1064.8</ele>
        <time>2014-07-03T13:47:03Z</time>
      </trkpt>
      <trkpt lat="44.90196" lon="5.39017">
        <ele>1064.8</ele>
        <time>2014-07-03T13:47:04Z</time>
      </trkpt>
      <trkpt lat="44.90201" lon="5.39014">
        <ele>1064.8</ele>
        <time>2014-07-03T13:47:05Z</time>
      </trkpt>
      <trkpt lat="44.9028" lon="5.38969">
        <ele>1062.39</ele>
        <time>2014-07-03T13:47:21Z</time>
      </trkpt>
      <trkpt lat="44.90305" lon="5.38957">
        <ele>1062.87</ele>
        <time>2014-07-03T13:47:26Z</time>
      </trkpt>
      <trkpt lat="44.90309" lon="5.38953">
        <ele>1062.87</ele>
        <time>2014-07-03T13:47:27Z</time>
      </trkpt>
      <trkpt lat="44.90313" lon="5.38948">
        <ele>1062.39</ele>
        <time>2014-07-03T13:47:28Z</time>
      </trkpt>
      <trkpt lat="44.90317" lon="5.38943">
        <ele>1062.39</ele>
        <time>2014-07-03T13:47:29Z</time>
      </trkpt>
      <trkpt lat="44.9032" lon="5.38937">
        <ele>1062.39</ele>
        <time>2014-07-03T13:47:30Z</time>
      </trkpt>
      <trkpt lat="44.90322" lon="5.38931">
        <ele>1062.39</ele>
        <time>2014-07-03T13:47:31Z</time>
      </trkpt>
      <trkpt lat="44.90324" lon="5.38924">
        <ele>1062.39</ele>
        <time>2014-07-03T13:47:32Z</time>
      </trkpt>
      <trkpt lat="44.90342" lon="5.38866">
        <ele>1062.87</ele>
        <time>2014-07-03T13:47:42Z</time>
      </trkpt>
      <trkpt lat="44.90358" lon="5.38806">
        <ele>1062.39</ele>
        <time>2014-07-03T13:47:51Z</time>
      </trkpt>
      <trkpt lat="44.90362" lon="5.38801">
        <ele>1062.39</ele>
        <time>2014-07-03T13:47:52Z</time>
      </trkpt>
      <trkpt lat="44.90366" lon="5.38797">
        <ele>1062.39</ele>
        <time>2014-07-03T13:47:53Z</time>
      </trkpt>
      <trkpt lat="44.9037" lon="5.38795">
        <ele>1062.87</ele>
        <time>2014-07-03T13:47:54Z</time>
      </trkpt>
      <trkpt lat="44.90375" lon="5.38793">
        <ele>1062.39</ele>
        <time>2014-07-03T13:47:55Z</time>
      </trkpt>
      <trkpt lat="44.90424" lon="5.3878">
        <ele>1063.36</ele>
        <time>2014-07-03T13:48:07Z</time>
      </trkpt>
      <trkpt lat="44.90439" lon="5.3878">
        <ele>1063.36</ele>
        <time>2014-07-03T13:48:10Z</time>
      </trkpt>
      <trkpt lat="44.90444" lon="5.38778">
        <ele>1062.87</ele>
        <time>2014-07-03T13:48:11Z</time>
      </trkpt>
      <trkpt lat="44.9045" lon="5.38775">
        <ele>1062.39</ele>
        <time>2014-07-03T13:48:12Z</time>
      </trkpt>
      <trkpt lat="44.90454" lon="5.3877">
        <ele>1061.43</ele>
        <time>2014-07-03T13:48:13Z</time>
      </trkpt>
      <trkpt lat="44.90459" lon="5.38764">
        <ele>1061.43</ele>
        <time>2014-07-03T13:48:14Z</time>
      </trkpt>
      <trkpt lat="44.90484" lon="5.3875">
        <ele>1060.95</ele>
        <time>2014-07-03T13:48:22Z</time>
      </trkpt>
      <trkpt lat="44.90513" lon="5.38731">
        <ele>1060.95</ele>
        <time>2014-07-03T13:48:31Z</time>
      </trkpt>
      <trkpt lat="44.90549" lon="5.38707">
        <ele>1060.47</ele>
        <time>2014-07-03T13:48:41Z</time>
      </trkpt>
      <trkpt lat="44.90557" lon="5.38703">
        <ele>1059.99</ele>
        <time>2014-07-03T13:48:43Z</time>
      </trkpt>
      <trkpt lat="44.90574" lon="5.38687">
        <ele>1059.99</ele>
        <time>2014-07-03T13:48:48Z</time>
      </trkpt>
      <trkpt lat="44.90586" lon="5.38677">
        <ele>1059.99</ele>
        <time>2014-07-03T13:48:51Z</time>
      </trkpt>
      <trkpt lat="44.90593" lon="5.38668">
        <ele>1059.51</ele>
        <time>2014-07-03T13:48:53Z</time>
      </trkpt>
      <trkpt lat="44.90596" lon="5.38664">
        <ele>1059.51</ele>
        <time>2014-07-03T13:48:54Z</time>
      </trkpt>
      <trkpt lat="44.90601" lon="5.38661">
        <ele>1059.03</ele>
        <time>2014-07-03T13:48:55Z</time>
      </trkpt>
      <trkpt lat="44.90627" lon="5.38634">
        <ele>1059.51</ele>
        <time>2014-07-03T13:49:02Z</time>
      </trkpt>
      <trkpt lat="44.90651" lon="5.38592">
        <ele>1060.95</ele>
        <time>2014-07-03T13:49:14Z</time>
      </trkpt>
      <trkpt lat="44.90647" lon="5.38551">
        <ele>1061.91</ele>
        <time>2014-07-03T13:49:26Z</time>
      </trkpt>
      <trkpt lat="44.90648" lon="5.3854">
        <ele>1062.39</ele>
        <time>2014-07-03T13:49:30Z</time>
      </trkpt>
      <trkpt lat="44.90647" lon="5.38538">
        <ele>1062.87</ele>
        <time>2014-07-03T13:49:31Z</time>
      </trkpt>
      <trkpt lat="44.90646" lon="5.38535">
        <ele>1062.87</ele>
        <time>2014-07-03T13:49:32Z</time>
      </trkpt>
      <trkpt lat="44.90637" lon="5.38502">
        <ele>1063.84</ele>
        <time>2014-07-03T13:49:47Z</time>
      </trkpt>
      <trkpt lat="44.90633" lon="5.38474">
        <ele>1066.24</ele>
        <time>2014-07-03T13:50:01Z</time>
      </trkpt>
      <trkpt lat="44.90634" lon="5.38446">
        <ele>1068.16</ele>
        <time>2014-07-03T13:50:14Z</time>
      </trkpt>
      <trkpt lat="44.90634" lon="5.38444">
        <ele>1068.64</ele>
        <time>2014-07-03T13:50:15Z</time>
      </trkpt>
      <trkpt lat="44.90632" lon="5.38412">
        <ele>1070.57</ele>
        <time>2014-07-03T13:50:30Z</time>
      </trkpt>
      <trkpt lat="44.90636" lon="5.38375">
        <ele>1072.01</ele>
        <time>2014-07-03T13:50:45Z</time>
      </trkpt>
      <trkpt lat="44.90639" lon="5.38336">
        <ele>1072.97</ele>
        <time>2014-07-03T13:50:58Z</time>
      </trkpt>
      <trkpt lat="44.90646" lon="5.38292">
        <ele>1072.01</ele>
        <time>2014-07-03T13:51:11Z</time>
      </trkpt>
      <trkpt lat="44.90662" lon="5.38253">
        <ele>1071.53</ele>
        <time>2014-07-03T13:51:23Z</time>
      </trkpt>
      <trkpt lat="44.90674" lon="5.38219">
        <ele>1068.16</ele>
        <time>2014-07-03T13:51:29Z</time>
      </trkpt>
      <trkpt lat="44.90679" lon="5.38197">
        <ele>1067.2</ele>
        <time>2014-07-03T13:51:32Z</time>
      </trkpt>
      <trkpt lat="44.90678" lon="5.38188">
        <ele>1066.24</ele>
        <time>2014-07-03T13:51:33Z</time>
      </trkpt>
      <trkpt lat="44.90675" lon="5.38171">
        <ele>1065.76</ele>
        <time>2014-07-03T13:51:35Z</time>
      </trkpt>
      <trkpt lat="44.90675" lon="5.38163">
        <ele>1065.28</ele>
        <time>2014-07-03T13:51:36Z</time>
      </trkpt>
      <trkpt lat="44.90677" lon="5.38107">
        <ele>1063.36</ele>
        <time>2014-07-03T13:51:43Z</time>
      </trkpt>
      <trkpt lat="44.90674" lon="5.38091">
        <ele>1063.36</ele>
        <time>2014-07-03T13:51:48Z</time>
      </trkpt>
      <trkpt lat="44.90673" lon="5.3809">
        <ele>1062.87</ele>
        <time>2014-07-03T13:51:49Z</time>
      </trkpt>
      <trkpt lat="44.90672" lon="5.38088">
        <ele>1062.87</ele>
        <time>2014-07-03T13:51:50Z</time>
      </trkpt>
      <trkpt lat="44.90643" lon="5.38053">
        <ele>1062.39</ele>
        <time>2014-07-03T13:52:03Z</time>
      </trkpt>
      <trkpt lat="44.90643" lon="5.37994">
        <ele>1061.43</ele>
        <time>2014-07-03T13:52:14Z</time>
      </trkpt>
      <trkpt lat="44.90643" lon="5.37968">
        <ele>1060.47</ele>
        <time>2014-07-03T13:52:18Z</time>
      </trkpt>
      <trkpt lat="44.90642" lon="5.37962">
        <ele>1059.99</ele>
        <time>2014-07-03T13:52:19Z</time>
      </trkpt>
      <trkpt lat="44.90641" lon="5.37955">
        <ele>1059.99</ele>
        <time>2014-07-03T13:52:20Z</time>
      </trkpt>
      <trkpt lat="44.90634" lon="5.37933">
        <ele>1059.03</ele>
        <time>2014-07-03T13:52:23Z</time>
      </trkpt>
      <trkpt lat="44.90632" lon="5.37926">
        <ele>1059.03</ele>
        <time>2014-07-03T13:52:24Z</time>
      </trkpt>
      <trkpt lat="44.90628" lon="5.37919">
        <ele>1058.07</ele>
        <time>2014-07-03T13:52:25Z</time>
      </trkpt>
      <trkpt lat="44.90617" lon="5.37901">
        <ele>1058.07</ele>
        <time>2014-07-03T13:52:28Z</time>
      </trkpt>
      <trkpt lat="44.90613" lon="5.37895">
        <ele>1058.07</ele>
        <time>2014-07-03T13:52:29Z</time>
      </trkpt>
      <trkpt lat="44.90593" lon="5.37878">
        <ele>1057.59</ele>
        <time>2014-07-03T13:52:33Z</time>
      </trkpt>
      <trkpt lat="44.90576" lon="5.37858">
        <ele>1059.03</ele>
        <time>2014-07-03T13:52:37Z</time>
      </trkpt>
      <trkpt lat="44.90547" lon="5.37822">
        <ele>1060.47</ele>
        <time>2014-07-03T13:52:48Z</time>
      </trkpt>
      <trkpt lat="44.90515" lon="5.37776">
        <ele>1059.51</ele>
        <time>2014-07-03T13:53:01Z</time>
      </trkpt>
      <trkpt lat="44.90496" lon="5.37729">
        <ele>1059.03</ele>
        <time>2014-07-03T13:53:13Z</time>
      </trkpt>
      <trkpt lat="44.90491" lon="5.37713">
        <ele>1058.07</ele>
        <time>2014-07-03T13:53:16Z</time>
      </trkpt>
      <trkpt lat="44.90485" lon="5.377">
        <ele>1056.63</ele>
        <time>2014-07-03T13:53:18Z</time>
      </trkpt>
      <trkpt lat="44.90481" lon="5.37694">
        <ele>1055.67</ele>
        <time>2014-07-03T13:53:19Z</time>
      </trkpt>
      <trkpt lat="44.90473" lon="5.37683">
        <ele>1055.67</ele>
        <time>2014-07-03T13:53:21Z</time>
      </trkpt>
      <trkpt lat="44.90427" lon="5.37651">
        <ele>1055.18</ele>
        <time>2014-07-03T13:53:32Z</time>
      </trkpt>
      <trkpt lat="44.90423" lon="5.3765">
        <ele>1055.18</ele>
        <time>2014-07-03T13:53:33Z</time>
      </trkpt>
      <trkpt lat="44.90419" lon="5.37649">
        <ele>1055.18</ele>
        <time>2014-07-03T13:53:34Z</time>
      </trkpt>
      <trkpt lat="44.90379" lon="5.37639">
        <ele>1056.15</ele>
        <time>2014-07-03T13:53:47Z</time>
      </trkpt>
      <trkpt lat="44.90342" lon="5.37631">
        <ele>1056.63</ele>
        <time>2014-07-03T13:54:00Z</time>
      </trkpt>
      <trkpt lat="44.90311" lon="5.37636">
        <ele>1057.11</ele>
        <time>2014-07-03T13:54:11Z</time>
      </trkpt>
      <trkpt lat="44.90286" lon="5.37602">
        <ele>1057.59</ele>
        <time>2014-07-03T13:54:24Z</time>
      </trkpt>
      <trkpt lat="44.90256" lon="5.37576">
        <ele>1059.03</ele>
        <time>2014-07-03T13:54:37Z</time>
      </trkpt>
      <trkpt lat="44.90214" lon="5.37548">
        <ele>1059.51</ele>
        <time>2014-07-03T13:54:52Z</time>
      </trkpt>
      <trkpt lat="44.90185" lon="5.37518">
        <ele>1060.47</ele>
        <time>2014-07-03T13:55:02Z</time>
      </trkpt>
      <trkpt lat="44.90153" lon="5.37498">
        <ele>1059.99</ele>
        <time>2014-07-03T13:55:12Z</time>
      </trkpt>
      <trkpt lat="44.90148" lon="5.37498">
        <ele>1059.51</ele>
        <time>2014-07-03T13:55:13Z</time>
      </trkpt>
      <trkpt lat="44.90142" lon="5.37497">
        <ele>1059.03</ele>
        <time>2014-07-03T13:55:14Z</time>
      </trkpt>
      <trkpt lat="44.90105" lon="5.37499">
        <ele>1058.07</ele>
        <time>2014-07-03T13:55:20Z</time>
      </trkpt>
      <trkpt lat="44.901" lon="5.37497">
        <ele>1058.07</ele>
        <time>2014-07-03T13:55:21Z</time>
      </trkpt>
      <trkpt lat="44.90051" lon="5.37482">
        <ele>1055.67</ele>
        <time>2014-07-03T13:55:29Z</time>
      </trkpt>
      <trkpt lat="44.90044" lon="5.37482">
        <ele>1055.67</ele>
        <time>2014-07-03T13:55:30Z</time>
      </trkpt>
      <trkpt lat="44.90038" lon="5.37481">
        <ele>1055.67</ele>
        <time>2014-07-03T13:55:31Z</time>
      </trkpt>
      <trkpt lat="44.90032" lon="5.37478">
        <ele>1055.67</ele>
        <time>2014-07-03T13:55:32Z</time>
      </trkpt>
      <trkpt lat="44.90026" lon="5.37474">
        <ele>1055.67</ele>
        <time>2014-07-03T13:55:33Z</time>
      </trkpt>
      <trkpt lat="44.90021" lon="5.3747">
        <ele>1055.18</ele>
        <time>2014-07-03T13:55:34Z</time>
      </trkpt>
      <trkpt lat="44.90016" lon="5.37464">
        <ele>1054.7</ele>
        <time>2014-07-03T13:55:35Z</time>
      </trkpt>
      <trkpt lat="44.90012" lon="5.37457">
        <ele>1053.74</ele>
        <time>2014-07-03T13:55:36Z</time>
      </trkpt>
      <trkpt lat="44.89988" lon="5.37426">
        <ele>1053.74</ele>
        <time>2014-07-03T13:55:41Z</time>
      </trkpt>
      <trkpt lat="44.89983" lon="5.37421">
        <ele>1053.26</ele>
        <time>2014-07-03T13:55:42Z</time>
      </trkpt>
      <trkpt lat="44.89977" lon="5.37416">
        <ele>1053.74</ele>
        <time>2014-07-03T13:55:43Z</time>
      </trkpt>
      <trkpt lat="44.89918" lon="5.37356">
        <ele>1051.34</ele>
        <time>2014-07-03T13:55:54Z</time>
      </trkpt>
      <trkpt lat="44.89876" lon="5.37244">
        <ele>1050.38</ele>
        <time>2014-07-03T13:56:08Z</time>
      </trkpt>
      <trkpt lat="44.89823" lon="5.37133">
        <ele>1049.9</ele>
        <time>2014-07-03T13:56:24Z</time>
      </trkpt>
      <trkpt lat="44.89799" lon="5.37084">
        <ele>1048.94</ele>
        <time>2014-07-03T13:56:31Z</time>
      </trkpt>
      <trkpt lat="44.89794" lon="5.37077">
        <ele>1048.94</ele>
        <time>2014-07-03T13:56:32Z</time>
      </trkpt>
      <trkpt lat="44.89753" lon="5.37033">
        <ele>1050.38</ele>
        <time>2014-07-03T13:56:40Z</time>
      </trkpt>
      <trkpt lat="44.89749" lon="5.37027">
        <ele>1048.94</ele>
        <time>2014-07-03T13:56:41Z</time>
      </trkpt>
      <trkpt lat="44.89746" lon="5.37021">
        <ele>1048.94</ele>
        <time>2014-07-03T13:56:42Z</time>
      </trkpt>
      <trkpt lat="44.89743" lon="5.37013">
        <ele>1048.45</ele>
        <time>2014-07-03T13:56:43Z</time>
      </trkpt>
      <trkpt lat="44.89741" lon="5.37006">
        <ele>1048.94</ele>
        <time>2014-07-03T13:56:44Z</time>
      </trkpt>
      <trkpt lat="44.8974" lon="5.36999">
        <ele>1049.42</ele>
        <time>2014-07-03T13:56:45Z</time>
      </trkpt>
      <trkpt lat="44.8974" lon="5.36993">
        <ele>1049.42</ele>
        <time>2014-07-03T13:56:46Z</time>
      </trkpt>
      <trkpt lat="44.8974" lon="5.36987">
        <ele>1049.9</ele>
        <time>2014-07-03T13:56:47Z</time>
      </trkpt>
      <trkpt lat="44.89739" lon="5.36981">
        <ele>1049.9</ele>
        <time>2014-07-03T13:56:48Z</time>
      </trkpt>
      <trkpt lat="44.89738" lon="5.36975">
        <ele>1049.9</ele>
        <time>2014-07-03T13:56:49Z</time>
      </trkpt>
      <trkpt lat="44.89736" lon="5.36969">
        <ele>1049.9</ele>
        <time>2014-07-03T13:56:50Z</time>
      </trkpt>
      <trkpt lat="44.89734" lon="5.36965">
        <ele>1049.9</ele>
        <time>2014-07-03T13:56:51Z</time>
      </trkpt>
      <trkpt lat="44.89732" lon="5.3696">
        <ele>1050.38</ele>
        <time>2014-07-03T13:56:52Z</time>
      </trkpt>
      <trkpt lat="44.89729" lon="5.36956">
        <ele>1050.38</ele>
        <time>2014-07-03T13:56:53Z</time>
      </trkpt>
      <trkpt lat="44.89726" lon="5.36952">
        <ele>1050.86</ele>
        <time>2014-07-03T13:56:54Z</time>
      </trkpt>
      <trkpt lat="44.89723" lon="5.36949">
        <ele>1050.86</ele>
        <time>2014-07-03T13:56:55Z</time>
      </trkpt>
      <trkpt lat="44.8972" lon="5.36945">
        <ele>1050.38</ele>
        <time>2014-07-03T13:56:56Z</time>
      </trkpt>
      <trkpt lat="44.89716" lon="5.36942">
        <ele>1049.9</ele>
        <time>2014-07-03T13:56:57Z</time>
      </trkpt>
      <trkpt lat="44.89712" lon="5.3694">
        <ele>1050.38</ele>
        <time>2014-07-03T13:56:58Z</time>
      </trkpt>
      <trkpt lat="44.89677" lon="5.36923">
        <ele>1051.34</ele>
        <time>2014-07-03T13:57:10Z</time>
      </trkpt>
      <trkpt lat="44.89646" lon="5.3694">
        <ele>1052.3</ele>
        <time>2014-07-03T13:57:22Z</time>
      </trkpt>
      <trkpt lat="44.89623" lon="5.36984">
        <ele>1054.7</ele>
        <time>2014-07-03T13:57:35Z</time>
      </trkpt>
      <trkpt lat="44.89612" lon="5.37035">
        <ele>1057.59</ele>
        <time>2014-07-03T13:57:50Z</time>
      </trkpt>
      <trkpt lat="44.89594" lon="5.37065">
        <ele>1059.99</ele>
        <time>2014-07-03T13:58:05Z</time>
      </trkpt>
      <trkpt lat="44.89565" lon="5.37074">
        <ele>1060.95</ele>
        <time>2014-07-03T13:58:18Z</time>
      </trkpt>
      <trkpt lat="44.89543" lon="5.37055">
        <ele>1060.47</ele>
        <time>2014-07-03T13:58:29Z</time>
      </trkpt>
      <trkpt lat="44.89537" lon="5.37015">
        <ele>1061.43</ele>
        <time>2014-07-03T13:58:43Z</time>
      </trkpt>
      <trkpt lat="44.89536" lon="5.37014">
        <ele>1061.91</ele>
        <time>2014-07-03T13:58:44Z</time>
      </trkpt>
      <trkpt lat="44.8953" lon="5.37012">
        <ele>1061.91</ele>
        <time>2014-07-03T13:59:00Z</time>
      </trkpt>
      <trkpt lat="44.8953" lon="5.37012">
        <ele>1061.43</ele>
        <time>2014-07-03T13:59:15Z</time>
      </trkpt>
      <trkpt lat="44.89535" lon="5.37009">
        <ele>1061.43</ele>
        <time>2014-07-03T13:59:35Z</time>
      </trkpt>
      <trkpt lat="44.89531" lon="5.37011">
        <ele>1061.43</ele>
        <time>2014-07-03T13:59:57Z</time>
      </trkpt>
      <trkpt lat="44.89531" lon="5.3701">
        <ele>1061.91</ele>
        <time>2014-07-03T14:00:20Z</time>
      </trkpt>
      <trkpt lat="44.89533" lon="5.37011">
        <ele>1061.91</ele>
        <time>2014-07-03T14:00:36Z</time>
      </trkpt>
      <trkpt lat="44.89533" lon="5.37016">
        <ele>1062.39</ele>
        <time>2014-07-03T14:00:56Z</time>
      </trkpt>
      <trkpt lat="44.89535" lon="5.37015">
        <ele>1060.95</ele>
        <time>2014-07-03T14:01:24Z</time>
      </trkpt>
      <trkpt lat="44.89537" lon="5.37015">
        <ele>1061.91</ele>
        <time>2014-07-03T14:01:50Z</time>
      </trkpt>
      <trkpt lat="44.89535" lon="5.37016">
        <ele>1061.43</ele>
        <time>2014-07-03T14:02:08Z</time>
      </trkpt>
      <trkpt lat="44.89537" lon="5.37014">
        <ele>1061.43</ele>
        <time>2014-07-03T14:02:28Z</time>
      </trkpt>
      <trkpt lat="44.89537" lon="5.37014">
        <ele>1061.91</ele>
        <time>2014-07-03T14:02:47Z</time>
      </trkpt>
      <trkpt lat="44.89537" lon="5.37014">
        <ele>1061.43</ele>
        <time>2014-07-03T14:03:12Z</time>
      </trkpt>
      <trkpt lat="44.8954" lon="5.37013">
        <ele>1061.43</ele>
        <time>2014-07-03T14:03:37Z</time>
      </trkpt>
      <trkpt lat="44.8954" lon="5.37013">
        <ele>1061.91</ele>
        <time>2014-07-03T14:03:54Z</time>
      </trkpt>
      <trkpt lat="44.89541" lon="5.37012">
        <ele>1060.95</ele>
        <time>2014-07-03T14:04:05Z</time>
      </trkpt>
      <trkpt lat="44.89542" lon="5.37008">
        <ele>1060.95</ele>
        <time>2014-07-03T14:04:08Z</time>
      </trkpt>
      <trkpt lat="44.89543" lon="5.37006">
        <ele>1060.95</ele>
        <time>2014-07-03T14:04:09Z</time>
      </trkpt>
      <trkpt lat="44.89543" lon="5.37004">
        <ele>1060.95</ele>
        <time>2014-07-03T14:04:10Z</time>
      </trkpt>
      <trkpt lat="44.89543" lon="5.37003">
        <ele>1060.95</ele>
        <time>2014-07-03T14:04:11Z</time>
      </trkpt>
      <trkpt lat="44.89543" lon="5.37001">
        <ele>1060.95</ele>
        <time>2014-07-03T14:04:12Z</time>
      </trkpt>
      <trkpt lat="44.89543" lon="5.37">
        <ele>1061.43</ele>
        <time>2014-07-03T14:04:13Z</time>
      </trkpt>
      <trkpt lat="44.89542" lon="5.36998">
        <ele>1061.43</ele>
        <time>2014-07-03T14:04:14Z</time>
      </trkpt>
      <trkpt lat="44.89542" lon="5.36997">
        <ele>1060.95</ele>
        <time>2014-07-03T14:04:15Z</time>
      </trkpt>
      <trkpt lat="44.89543" lon="5.36995">
        <ele>1061.43</ele>
        <time>2014-07-03T14:04:16Z</time>
      </trkpt>
      <trkpt lat="44.89544" lon="5.36993">
        <ele>1061.43</ele>
        <time>2014-07-03T14:04:17Z</time>
      </trkpt>
      <trkpt lat="44.89545" lon="5.36992">
        <ele>1061.43</ele>
        <time>2014-07-03T14:04:18Z</time>
      </trkpt>
      <trkpt lat="44.89546" lon="5.3699">
        <ele>1060.95</ele>
        <time>2014-07-03T14:04:19Z</time>
      </trkpt>
      <trkpt lat="44.89547" lon="5.36989">
        <ele>1061.43</ele>
        <time>2014-07-03T14:04:20Z</time>
      </trkpt>
      <trkpt lat="44.89548" lon="5.36988">
        <ele>1061.43</ele>
        <time>2014-07-03T14:04:21Z</time>
      </trkpt>
      <trkpt lat="44.8956" lon="5.36973">
        <ele>1062.39</ele>
        <time>2014-07-03T14:04:35Z</time>
      </trkpt>
      <trkpt lat="44.8957" lon="5.36956">
        <ele>1063.36</ele>
        <time>2014-07-03T14:04:51Z</time>
      </trkpt>
      <trkpt lat="44.89569" lon="5.36953">
        <ele>1063.36</ele>
        <time>2014-07-03T14:05:04Z</time>
      </trkpt>
      <trkpt lat="44.89569" lon="5.36953">
        <ele>1059.99</ele>
        <time>2014-07-03T14:05:15Z</time>
      </trkpt>
      <trkpt lat="44.89569" lon="5.36952">
        <ele>1064.8</ele>
        <time>2014-07-03T14:05:16Z</time>
      </trkpt>
      <trkpt lat="44.89568" lon="5.36951">
        <ele>1060.95</ele>
        <time>2014-07-03T14:05:32Z</time>
      </trkpt>
      <trkpt lat="44.89568" lon="5.36951">
        <ele>1065.28</ele>
        <time>2014-07-03T14:05:33Z</time>
      </trkpt>
      <trkpt lat="44.89568" lon="5.36951">
        <ele>1063.36</ele>
        <time>2014-07-03T14:05:34Z</time>
      </trkpt>
      <trkpt lat="44.89567" lon="5.36953">
        <ele>1063.36</ele>
        <time>2014-07-03T14:05:44Z</time>
      </trkpt>
      <trkpt lat="44.89568" lon="5.36956">
        <ele>1062.87</ele>
        <time>2014-07-03T14:05:52Z</time>
      </trkpt>
      <trkpt lat="44.89572" lon="5.36954">
        <ele>1063.36</ele>
        <time>2014-07-03T14:06:03Z</time>
      </trkpt>
      <trkpt lat="44.89574" lon="5.36953">
        <ele>1063.36</ele>
        <time>2014-07-03T14:06:22Z</time>
      </trkpt>
      <trkpt lat="44.89574" lon="5.36953">
        <ele>1063.36</ele>
        <time>2014-07-03T14:06:56Z</time>
      </trkpt>
      <trkpt lat="44.89574" lon="5.36953">
        <ele>1063.36</ele>
        <time>2014-07-03T14:07:23Z</time>
      </trkpt>
      <trkpt lat="44.89574" lon="5.36953">
        <ele>1062.87</ele>
        <time>2014-07-03T14:07:40Z</time>
      </trkpt>
      <trkpt lat="44.89573" lon="5.36952">
        <ele>1063.36</ele>
        <time>2014-07-03T14:08:10Z</time>
      </trkpt>
      <trkpt lat="44.89574" lon="5.36953">
        <ele>1063.36</ele>
        <time>2014-07-03T14:08:30Z</time>
      </trkpt>
      <trkpt lat="44.89574" lon="5.36953">
        <ele>1062.87</ele>
        <time>2014-07-03T14:08:57Z</time>
      </trkpt>
      <trkpt lat="44.89574" lon="5.36953">
        <ele>1062.87</ele>
        <time>2014-07-03T14:09:29Z</time>
      </trkpt>
      <trkpt lat="44.89573" lon="5.36954">
        <ele>1062.87</ele>
        <time>2014-07-03T14:10:08Z</time>
      </trkpt>
      <trkpt lat="44.89574" lon="5.36954">
        <ele>1062.87</ele>
        <time>2014-07-03T14:10:38Z</time>
      </trkpt>
      <trkpt lat="44.89573" lon="5.36954">
        <ele>1062.87</ele>
        <time>2014-07-03T14:11:23Z</time>
      </trkpt>
      <trkpt lat="44.89573" lon="5.36954">
        <ele>1062.87</ele>
        <time>2014-07-03T14:12:02Z</time>
      </trkpt>
      <trkpt lat="44.89573" lon="5.36954">
        <ele>1062.87</ele>
        <time>2014-07-03T14:12:41Z</time>
      </trkpt>
      <trkpt lat="44.89573" lon="5.36955">
        <ele>1063.36</ele>
        <time>2014-07-03T14:13:20Z</time>
      </trkpt>
      <trkpt lat="44.89573" lon="5.36955">
        <ele>1062.39</ele>
        <time>2014-07-03T14:13:55Z</time>
      </trkpt>
      <trkpt lat="44.89572" lon="5.36955">
        <ele>1062.39</ele>
        <time>2014-07-03T14:14:38Z</time>
      </trkpt>
      <trkpt lat="44.89573" lon="5.36955">
        <ele>1062.87</ele>
        <time>2014-07-03T14:15:16Z</time>
      </trkpt>
      <trkpt lat="44.89573" lon="5.36955">
        <ele>1063.36</ele>
        <time>2014-07-03T14:15:49Z</time>
      </trkpt>
      <trkpt lat="44.89573" lon="5.36955">
        <ele>1063.36</ele>
        <time>2014-07-03T14:16:22Z</time>
      </trkpt>
    </trkseg>
  </trk>
</gpx>